# Wetter Temperatur Luftdruck Luftfeuchtigkeit Sichtweite Windgeschwindigkeit Windrichtung Zeit
1 Clear 39 1014 6 10000 1.54 0 12:22 22.04.2021
2 Clear 37 1015 7 10000 4.12 220 11:45 22.04.2021
3 Clear 37 1015 7 10000 4.12 220 11:23 22.04.2021
4 Clear 36 1015 7 10000 4.63 170 10:46 22.04.2021
5 Clear 36 1015 7 10000 4.63 170 10:24 22.04.2021
6 Clear 35 1016 10 10000 3.09 170 09:47 22.04.2021
7 Clear 35 1016 10 10000 3.09 170 09:24 22.04.2021
8 Clear 32 1016 13 10000 2.06 150 08:39 22.04.2021
9 Clear 32 1016 13 10000 2.06 150 08:21 22.04.2021
10 Clear 29 1016 17 10000 2.57 160 07:45 22.04.2021
11 Clear 29 1016 17 10000 2.57 160 07:24 22.04.2021
12 Clear 26 1015 24 10000 2.06 230 06:32 22.04.2021
13 Clear 24 1014 22 10000 2.66 150 05:26 22.04.2021
14 Clear 23 1014 22 10000 2.66 150 04:56 22.04.2021
15 Clear 27 1014 21 10000 1.54 120 01:23 22.04.2021
16 Clear 29 1014 20 10000 1.54 150 23:53 21.04.2021
17 Clear 29 1014 20 10000 1.54 150 23:32 21.04.2021
18 Clear 30 1014 18 10000 2.06 160 22:44 21.04.2021
19 Clear 30 1014 18 10000 2.06 160 22:24 21.04.2021
20 Clear 32 1014 14 10000 1.54 150 21:50 21.04.2021
21 Clear 32 1014 14 10000 1.54 150 21:25 21.04.2021
22 Clear 33 1013 12 10000 1.54 160 20:59 21.04.2021
23 Clear 33 1013 12 10000 1.54 160 20:59 21.04.2021
24 Clear 33 1013 12 10000 1.54 160 20:21 21.04.2021
25 Clear 35 1013 10 10000 1.03 150 19:45 21.04.2021
26 Clear 35 1013 10 10000 1.03 150 19:25 21.04.2021
27 Clear 35 1013 10 10000 1.03 150 19:25 21.04.2021
28 Clear 36 1012 7 10000 1.54 120 18:46 21.04.2021
29 Clear 36 1012 7 10000 1.54 120 18:28 21.04.2021
30 Clear 37 1012 6 10000 2.25 151 17:49 21.04.2021
31 Clear 37 1012 6 10000 1.19 196 17:25 21.04.2021
32 Clear 38 1012 6 10000 1.54 50 16:55 21.04.2021
33 Clear 38 1012 6 10000 1.54 50 16:23 21.04.2021
34 Clear 37 1012 6 10000 2.06 60 15:42 21.04.2021
35 Clear 38 1012 7 10000 2.06 40 15:18 21.04.2021
36 Clear 38 1012 7 10000 2.06 40 14:42 21.04.2021
37 Clear 38 1012 7 10000 2.06 40 14:22 21.04.2021
38 Clear 38 1013 8 10000 1.54 210 13:44 21.04.2021
39 Clear 38 1013 8 10000 1.54 210 13:21 21.04.2021
40 Clear 37 1014 9 10000 3.09 260 12:32 21.04.2021
41 Clear 36 1014 9 10000 3.09 280 11:50 21.04.2021
42 Clear 36 1014 9 10000 3.09 280 11:32 21.04.2021
43 Clear 35 1015 10 10000 2.06 300 10:57 21.04.2021
44 Clear 35 1015 10 10000 2.06 300 10:36 21.04.2021
45 Clear 35 1015 10 10000 1.65 21 09:54 21.04.2021
46 Clear 35 1015 10 10000 1.47 9 09:19 21.04.2021
47 Clear 34 1015 11 10000 1.47 9 08:41 21.04.2021
48 Clear 34 1015 11 10000 1.15 346 08:20 21.04.2021
49 Clouds 30 1015 15 7000 0.83 335 07:32 21.04.2021
50 Clouds 25 1015 17 8000 1.1 318 06:57 21.04.2021
51 Clouds 25 1015 17 8000 1.1 318 06:57 21.04.2021
52 Clear 23 1014 20 10000 1.36 336 05:22 21.04.2021
53 Clear 24 1014 23 10000 1.19 192 01:33 21.04.2021
54 Clear 27 1014 100 10000 0.96 43 23:51 20.04.2021
55 Clear 27 1014 100 10000 1.66 43 23:31 20.04.2021
56 Clear 28 1014 21 10000 1.66 43 22:41 20.04.2021
57 Clear 28 1014 21 10000 2.15 39 22:22 20.04.2021
58 Clear 29 1014 20 10000 2.15 39 21:47 20.04.2021
59 Clear 29 1014 20 10000 2.86 32 21:26 20.04.2021
60 Clear 31 1013 13 10000 3.6 10 20:44 20.04.2021
61 Clear 31 1013 13 10000 3.6 10 20:24 20.04.2021
62 Clear 32 1013 12 10000 4.63 30 19:57 20.04.2021
63 Clear 32 1013 12 10000 4.63 30 19:39 20.04.2021
64 Clear 32 1013 12 10000 4.63 30 19:39 20.04.2021
65 Clear 32 1013 12 10000 4.63 30 19:21 20.04.2021
66 Clear 33 1012 10 10000 4.63 30 18:36 20.04.2021
67 Clear 34 1012 10 10000 3.6 10 17:46 20.04.2021
68 Clear 34 1012 10 10000 3.6 10 17:28 20.04.2021
69 Clear 35 1012 8 10000 4.12 20 16:49 20.04.2021
70 Clear 35 1012 9 10000 4.63 360 15:53 20.04.2021
71 Clear 35 1012 9 10000 4.63 360 15:29 20.04.2021
72 Clear 36 1013 9 10000 2.57 330 14:58 20.04.2021
73 Clear 36 1013 9 10000 2.57 330 14:33 20.04.2021
74 Clear 36 1013 8 10000 4.12 350 13:48 20.04.2021
75 Clear 36 1013 8 10000 4.12 350 13:22 20.04.2021
76 Clear 34 1014 9 10000 4.63 310 12:41 20.04.2021
77 Clear 34 1014 9 10000 4.63 310 12:20 20.04.2021
78 Clear 35 1015 10 10000 5.14 350 11:44 20.04.2021
79 Clear 35 1015 10 10000 5.14 350 11:21 20.04.2021
80 Clear 33 1016 9 10000 3.09 350 10:43 20.04.2021
81 Clear 33 1016 9 10000 3.09 350 10:43 20.04.2021
82 Clear 33 1016 9 10000 3.09 350 10:23 20.04.2021
83 Clear 33 1017 11 10000 2.57 340 09:28 20.04.2021
84 Clear 28 1017 17 10000 3.6 330 08:55 20.04.2021
85 Clear 29 1017 17 10000 3.6 330 08:21 20.04.2021
86 Clear 27 1017 17 10000 4.12 320 07:40 20.04.2021
87 Clear 27 1017 17 10000 4.12 320 07:40 20.04.2021
88 Clear 27 1017 17 10000 4.12 320 07:40 20.04.2021
89 Clear 23 1017 28 10000 2.06 290 06:45 20.04.2021
90 Clear 21 1016 30 10000 1.54 280 05:38 20.04.2021
91 Clear 22 1015 28 10000 1.03 310 04:41 20.04.2021
92 Clear 25 1016 19 10000 2.24 354 01:26 20.04.2021
93 Clear 26 1016 21 10000 2.24 354 00:34 20.04.2021
94 Clear 27 1016 20 10000 2.57 250 23:36 19.04.2021
95 Clear 28 1016 18 10000 1.54 310 22:56 19.04.2021
96 Clear 28 1016 18 10000 1.54 310 22:56 19.04.2021
97 Clear 28 1016 18 10000 1.54 310 22:32 19.04.2021
98 Clear 29 1016 15 10000 3.09 340 21:48 19.04.2021
99 Clear 29 1016 15 10000 3.09 340 21:27 19.04.2021
100 Clear 30 1016 12 10000 2.57 320 20:46 19.04.2021
101 Clear 30 1016 12 10000 2.57 320 20:24 19.04.2021
102 Clear 32 1016 12 10000 2.57 310 19:58 19.04.2021
103 Clear 32 1016 12 10000 2.57 310 19:39 19.04.2021
104 Clear 32 1016 12 10000 2.57 310 19:18 19.04.2021
105 Clear 33 1015 9 10000 5.66 360 18:44 19.04.2021
106 Clear 33 1015 9 10000 5.66 360 18:21 19.04.2021
107 Clear 33 1015 9 10000 5.66 360 18:21 19.04.2021
108 Clear 34 1015 8 10000 6.69 360 17:47 19.04.2021
109 Clear 34 1015 8 10000 6.69 360 17:26 19.04.2021
110 Clear 34 1015 8 10000 5.14 340 16:49 19.04.2021
111 Clear 34 1015 8 10000 5.14 340 16:30 19.04.2021
112 Clear 35 1016 8 10000 5.66 340 15:44 19.04.2021
113 Clear 35 1016 8 10000 5.66 340 15:24 19.04.2021
114 Clear 35 1016 8 10000 7.72 340 14:52 19.04.2021
115 Clear 35 1016 8 10000 7.72 340 14:33 19.04.2021
116 Clear 35 1016 8 10000 7.2 350 13:53 19.04.2021
117 Clear 35 1016 8 10000 7.2 350 13:29 19.04.2021
118 Clear 35 1017 8 10000 5.14 330 12:49 19.04.2021
119 Clear 35 1017 8 10000 5.14 330 12:29 19.04.2021
120 Clear 34 1018 8 10000 5.14 10 11:59 19.04.2021
121 Clear 34 1018 8 10000 5.14 10 11:39 19.04.2021
122 Clear 34 1018 8 10000 5.14 10 11:19 19.04.2021
123 Clear 33 1019 9 10000 3.6 290 10:43 19.04.2021
124 Clear 33 1019 9 10000 3.6 290 10:19 19.04.2021
125 Clear 32 1019 11 10000 1.03 0 09:42 19.04.2021
126 Clear 32 1019 11 10000 1.03 0 09:23 19.04.2021
127 Clear 28 1020 19 10000 2.57 210 08:33 19.04.2021
128 Clear 26 1019 20 10000 2.06 230 07:50 19.04.2021
129 Clear 26 1019 20 10000 2.06 230 07:21 19.04.2021
130 Clear 22 1019 26 10000 1.54 320 06:47 19.04.2021
131 Clear 22 1018 20 10000 2.06 280 04:40 19.04.2021
132 Clear 25 1018 19 10000 1.03 330 01:49 19.04.2021
133 Clear 26 1019 16 10000 2.06 320 00:34 19.04.2021
134 Clear 28 1019 15 10000 2.06 300 23:21 18.04.2021
135 Clear 28 1019 15 10000 2.06 360 22:57 18.04.2021
136 Clear 28 1019 15 10000 2.06 360 22:31 18.04.2021
137 Clear 30 1019 13 10000 3.09 20 21:51 18.04.2021
138 Clear 30 1019 13 10000 3.09 20 21:28 18.04.2021
139 Clouds 31 1018 12 10000 4.12 10 20:43 18.04.2021
140 Clouds 31 1018 12 10000 4.12 10 20:24 18.04.2021
141 Clouds 32 1018 10 10000 3.6 50 19:56 18.04.2021
142 Clouds 32 1018 10 10000 3.6 50 19:37 18.04.2021
143 Clouds 32 1018 10 10000 3.6 50 19:18 18.04.2021
144 Clouds 33 1018 10 10000 4.12 300 18:39 18.04.2021
145 Clouds 33 1018 10 10000 4.12 300 18:21 18.04.2021
146 Clear 34 1017 9 10000 4.12 10 17:45 18.04.2021
147 Clear 34 1017 9 10000 4.12 10 17:26 18.04.2021
148 Clear 34 1017 10 10000 4.63 340 16:45 18.04.2021
149 Clear 34 1017 10 10000 4.63 340 16:23 18.04.2021
150 Clear 34 1018 9 10000 3.09 360 15:43 18.04.2021
151 Clear 34 1018 9 10000 3.09 360 15:24 18.04.2021
152 Clear 34 1018 8 10000 3.09 310 14:45 18.04.2021
153 Clear 34 1018 8 10000 3.09 310 14:20 18.04.2021
154 Clear 33 1018 8 10000 2.57 300 13:54 18.04.2021
155 Clear 33 1018 8 10000 2.57 300 13:32 18.04.2021
156 Clear 33 1019 8 10000 3.6 320 12:49 18.04.2021
157 Clear 33 1019 8 10000 3.6 320 12:24 18.04.2021
158 Clear 32 1019 9 10000 4.63 310 11:41 18.04.2021
159 Clear 32 1019 9 10000 4.63 310 11:20 18.04.2021
160 Clear 32 1020 9 10000 3.6 340 10:46 18.04.2021
161 Clear 32 1020 9 10000 3.6 340 10:21 18.04.2021
162 Clear 31 1020 10 10000 3.09 330 09:45 18.04.2021
163 Clear 31 1020 10 10000 3.09 330 09:26 18.04.2021
164 Clear 28 1020 13 10000 3.09 330 08:54 18.04.2021
165 Clear 28 1020 13 10000 3.09 330 08:29 18.04.2021
166 Clear 24 1019 25 10000 2.06 280 07:55 18.04.2021
167 Clear 24 1019 25 10000 2.06 280 07:55 18.04.2021
168 Clear 24 1019 25 10000 2.06 280 07:36 18.04.2021
169 Clear 21 1018 24 10000 2.06 310 05:40 18.04.2021
170 Clear 21 1018 24 10000 2.06 310 05:22 18.04.2021
171 Clouds 23 1018 22 8000 3.09 10 02:25 18.04.2021
172 Clouds 24 1018 19 8000 3.09 60 01:41 18.04.2021
173 Clear 25 1019 19 10000 2.57 250 00:29 18.04.2021
174 Clear 24 1019 23 10000 2.57 290 23:30 17.04.2021
175 Clouds 24 1019 23 10000 2.06 250 22:50 17.04.2021
176 Clouds 24 1019 23 10000 2.06 250 22:30 17.04.2021
177 Clouds 25 1018 19 10000 2.57 10 21:45 17.04.2021
178 Clouds 25 1018 19 10000 2.57 10 21:25 17.04.2021
179 Clouds 25 1018 22 10000 2.06 30 20:43 17.04.2021
180 Clouds 25 1018 22 10000 2.06 30 20:23 17.04.2021
181 Clouds 26 1018 18 10000 2.57 20 19:43 17.04.2021
182 Clouds 26 1018 18 10000 2.57 20 19:20 17.04.2021
183 Clouds 27 1017 12 10000 3.09 350 18:51 17.04.2021
184 Clouds 27 1017 12 10000 3.09 350 18:25 17.04.2021
185 Clouds 28 1017 14 10000 2.57 330 17:48 17.04.2021
186 Clouds 28 1017 14 10000 2.57 330 17:29 17.04.2021
187 Clouds 29 1017 10 10000 4.12 340 16:41 17.04.2021
188 Clouds 29 1017 10 10000 4.12 340 16:23 17.04.2021
189 Clouds 30 1018 9 10000 2.57 340 15:23 17.04.2021
190 Clouds 30 1017 8 10000 2.06 360 14:44 17.04.2021
191 Clouds 30 1017 8 10000 2.06 360 14:20 17.04.2021
192 Clouds 29 1018 9 10000 1.54 330 13:44 17.04.2021
193 Clouds 28 1018 11 10000 2.57 10 12:55 17.04.2021
194 Clouds 28 1018 11 10000 2.57 10 12:33 17.04.2021
195 Clouds 27 1019 12 10000 1.54 350 11:51 17.04.2021
196 Clouds 27 1019 12 10000 1.54 350 11:33 17.04.2021
197 Clouds 27 1019 12 10000 2.57 50 10:56 17.04.2021
198 Clouds 27 1019 12 10000 2.57 50 10:38 17.04.2021
199 Clouds 26 1020 12 10000 1.54 90 09:51 17.04.2021
200 Rain 25 1019 10 10000 4.12 20 08:54 17.04.2021
201 Rain 25 1019 10 10000 4.12 20 08:29 17.04.2021
202 Rain 25 1019 10 10000 1.54 30 07:46 17.04.2021
203 Clear 21 1018 14 10000 1.03 310 05:43 17.04.2021
204 Clear 21 1017 17 10000 3.09 300 03:46 17.04.2021
205 Clear 23 1017 21 10000 1.54 40 00:56 17.04.2021
206 Clear 23 1017 21 10000 1.54 40 00:30 17.04.2021
207 Clear 23 1017 20 10000 1.54 50 23:59 16.04.2021
208 Clear 23 1017 20 10000 1.54 50 23:34 16.04.2021
209 Clear 24 1017 18 10000 1.54 60 22:51 16.04.2021
210 Clear 24 1017 18 10000 1.54 60 22:23 16.04.2021
211 Clear 26 1017 16 10000 2.57 30 21:56 16.04.2021
212 Clear 26 1017 16 10000 2.57 30 21:38 16.04.2021
213 Clear 27 1016 12 10000 3.09 40 20:55 16.04.2021
214 Clear 27 1016 12 10000 3.09 40 20:36 16.04.2021
215 Clear 28 1016 10 10000 3.09 50 19:58 16.04.2021
216 Clear 28 1016 10 10000 3.09 50 19:40 16.04.2021
217 Clear 30 1016 9 10000 4.12 20 18:49 16.04.2021
218 Clear 30 1016 9 10000 4.12 20 18:23 16.04.2021
219 Clear 31 1016 9 10000 4.12 10 17:47 16.04.2021
220 Clear 31 1016 9 10000 4.12 10 17:47 16.04.2021
221 Clear 31 1016 9 10000 4.12 10 17:19 16.04.2021
222 Clear 31 1016 9 10000 4.12 10 17:19 16.04.2021
223 Clear 32 1016 9 10000 4.63 10 16:44 16.04.2021
224 Clear 32 1016 9 10000 4.63 10 16:26 16.04.2021
225 Clear 33 1016 8 10000 5.14 10 15:54 16.04.2021
226 Clear 33 1016 8 10000 5.14 10 15:28 16.04.2021
227 Clear 33 1016 8 10000 6.17 10 14:43 16.04.2021
228 Clear 33 1016 8 10000 6.17 10 14:20 16.04.2021
229 Clear 32 1017 9 10000 5.66 40 13:54 16.04.2021
230 Clear 32 1017 9 10000 5.66 40 13:22 16.04.2021
231 Clear 31 1018 11 10000 4.63 50 12:53 16.04.2021
232 Clear 31 1018 11 10000 4.63 50 12:33 16.04.2021
233 Clear 30 1018 11 10000 4.63 40 11:58 16.04.2021
234 Clear 30 1018 11 10000 4.63 40 11:38 16.04.2021
235 Clear 30 1018 11 10000 4.63 40 11:19 16.04.2021
236 Clear 28 1019 12 10000 4.12 50 10:40 16.04.2021
237 Clear 28 1019 12 10000 4.12 50 10:19 16.04.2021
238 Clouds 27 1018 14 10000 3.6 50 09:43 16.04.2021
239 Clouds 27 1018 14 10000 3.6 50 09:20 16.04.2021
240 Clouds 25 1018 19 10000 3.6 50 08:42 16.04.2021
241 Clouds 25 1018 19 10000 3.6 50 08:18 16.04.2021
242 Clouds 23 1018 17 10000 3.6 40 07:37 16.04.2021
243 Clouds 23 1018 20 10000 2.57 20 06:59 16.04.2021
244 Clouds 23 1018 20 10000 2.57 20 06:24 16.04.2021
245 Clouds 22 1017 27 10000 2.57 340 04:23 16.04.2021
246 Clear 25 1018 18 10000 3.6 290 01:37 16.04.2021
247 Clear 24 1017 29 10000 2.02 21 00:42 16.04.2021
248 Clear 24 1017 29 10000 1.84 6 00:20 16.04.2021
249 Clear 24 1018 29 10000 3.09 20 23:42 15.04.2021
250 Clear 24 1018 29 10000 3.09 20 23:42 15.04.2021
251 Clear 24 1018 29 10000 3.09 20 23:23 15.04.2021
252 Clear 25 1018 23 10000 2.57 30 22:46 15.04.2021
253 Clear 25 1018 23 10000 2.57 30 22:23 15.04.2021
254 Clouds 25 1017 25 10000 2.57 50 21:43 15.04.2021
255 Clouds 25 1017 25 10000 2.57 50 21:24 15.04.2021
256 Clear 26 1017 22 10000 2.06 60 20:45 15.04.2021
257 Clear 26 1017 22 10000 2.06 60 20:25 15.04.2021
258 Clear 27 1016 20 10000 3.09 40 19:47 15.04.2021
259 Clear 27 1016 20 10000 3.09 40 19:27 15.04.2021
260 Clear 28 1016 16 10000 3.6 60 18:44 15.04.2021
261 Clear 28 1016 16 10000 3.6 60 18:21 15.04.2021
262 Clear 29 1015 15 10000 4.63 70 17:55 15.04.2021
263 Clear 29 1015 15 10000 4.63 70 17:37 15.04.2021
264 Clear 29 1015 15 10000 4.63 70 17:18 15.04.2021
265 Clear 30 1016 13 10000 5.14 60 16:42 15.04.2021
266 Clear 30 1016 13 10000 5.14 60 16:22 15.04.2021
267 Clouds 31 1015 12 8000 4.63 50 15:45 15.04.2021
268 Clouds 31 1015 12 8000 4.63 50 15:26 15.04.2021
269 Clouds 31 1015 13 8000 5.14 40 14:41 15.04.2021
270 Clouds 31 1015 13 8000 5.14 40 14:23 15.04.2021
271 Clouds 30 1017 13 9000 6.17 50 13:46 15.04.2021
272 Clouds 30 1017 13 9000 6.17 50 13:19 15.04.2021
273 Clouds 29 1018 14 9000 5.66 40 12:42 15.04.2021
274 Clouds 29 1018 14 9000 5.66 40 12:21 15.04.2021
275 Clouds 28 1018 15 9000 4.12 30 11:47 15.04.2021
276 Clouds 28 1018 15 9000 4.12 30 11:24 15.04.2021
277 Clouds 27 1018 17 9000 4.63 40 10:55 15.04.2021
278 Clouds 27 1018 17 9000 4.63 40 10:28 15.04.2021
279 Clouds 27 1019 15 9000 5.66 20 09:50 15.04.2021
280 Clouds 27 1019 15 9000 5.66 20 09:28 15.04.2021
281 Clouds 26 1019 21 9000 5.14 10 08:49 15.04.2021
282 Clouds 26 1019 21 9000 5.14 10 08:23 15.04.2021
283 Clouds 25 1019 25 9000 3.6 10 07:25 15.04.2021
284 Clouds 23 1018 31 9000 2.57 20 06:50 15.04.2021
285 Clouds 23 1018 31 9000 2.57 20 06:32 15.04.2021
286 Clouds 22 1017 31 9000 5.14 30 04:52 15.04.2021
287 Clouds 24 1016 29 6000 5.14 40 02:51 15.04.2021
288 Dust 26 1016 28 4000 7.72 30 23:44 14.04.2021
289 Dust 26 1016 28 4000 7.72 30 23:25 14.04.2021
290 Clouds 28 1016 26 6000 7.2 40 22:47 14.04.2021
291 Clouds 28 1016 26 6000 7.2 40 22:27 14.04.2021
292 Clouds 29 1015 26 10000 4.63 40 21:53 14.04.2021
293 Clouds 29 1015 26 10000 4.63 40 21:32 14.04.2021
294 Clouds 30 1014 28 10000 4.63 10 20:58 14.04.2021
295 Clouds 30 1014 28 10000 4.63 10 20:34 14.04.2021
296 Clouds 30 1013 29 10000 3.6 30 19:55 14.04.2021
297 Clouds 30 1013 29 10000 3.6 30 19:55 14.04.2021
298 Clouds 30 1013 29 10000 3.6 30 19:36 14.04.2021
299 Clouds 30 1013 29 10000 3.6 30 19:18 14.04.2021
300 Clouds 31 1013 25 7000 3.6 40 18:46 14.04.2021
301 Clouds 31 1013 25 7000 3.6 40 18:18 14.04.2021
302 Clouds 32 1012 24 7000 3.6 20 17:46 14.04.2021
303 Clouds 32 1012 24 7000 3.6 20 17:23 14.04.2021
304 Clouds 33 1012 25 7000 2.57 30 16:39 14.04.2021
305 Clouds 33 1012 25 7000 2.57 30 16:19 14.04.2021
306 Clouds 33 1012 24 7000 3.6 20 15:39 14.04.2021
307 Clouds 33 1012 24 7000 3.6 20 15:18 14.04.2021
308 Clouds 32 1012 25 7000 5.14 10 14:40 14.04.2021
309 Clouds 32 1012 25 7000 5.14 10 14:20 14.04.2021
310 Clouds 32 1013 25 6000 4.63 90 13:46 14.04.2021
311 Clouds 31 1014 29 6000 4.12 80 12:43 14.04.2021
312 Clouds 31 1014 29 6000 4.12 80 12:18 14.04.2021
313 Clouds 30 1015 30 6000 4.12 60 11:41 14.04.2021
314 Clouds 30 1015 30 6000 4.12 60 11:22 14.04.2021
315 Clouds 29 1015 32 5000 4.12 90 10:34 14.04.2021
316 Clouds 28 1015 34 5000 4.12 60 09:43 14.04.2021
317 Clouds 28 1015 34 5000 4.12 60 09:25 14.04.2021
318 Clouds 27 1015 34 5000 3.09 70 08:52 14.04.2021
319 Clouds 27 1015 34 5000 3.09 70 08:29 14.04.2021
320 Clouds 25 1015 47 5000 4.63 10 07:36 14.04.2021
321 Clouds 25 1014 36 6000 3.09 160 06:34 14.04.2021
322 Clouds 23 1013 50 5000 1.54 50 05:31 14.04.2021
323 Rain 25 1012 43 3000 4.12 110 02:31 14.04.2021
324 Dust 26 1013 36 3000 4.12 60 00:50 14.04.2021
325 Dust 26 1013 36 3000 4.12 60 00:50 14.04.2021
326 Dust 26 1013 36 3000 4.12 60 00:32 14.04.2021
327 Dust 26 1012 34 1000 5.14 90 23:34 13.04.2021
328 Dust 27 1013 32 1000 7.2 90 22:44 13.04.2021
329 Dust 27 1013 32 1000 7.2 90 22:22 13.04.2021
330 Dust 28 1013 30 500 6.69 60 21:49 13.04.2021
331 Dust 28 1013 30 500 6.69 60 21:30 13.04.2021
332 Rain 28 1013 21 1000 6.69 30 20:51 13.04.2021
333 Rain 28 1013 21 1000 6.69 30 20:25 13.04.2021
334 Dust 30 1014 19 3000 5.66 30 19:58 13.04.2021
335 Dust 30 1014 19 3000 5.66 30 19:26 13.04.2021
336 Rain 32 1010 11 3000 7.72 330 18:51 13.04.2021
337 Clouds 34 1010 11 3000 7.72 330 18:31 13.04.2021
338 Rain 34 1009 11 7000 5.66 340 17:40 13.04.2021
339 Rain 35 1009 11 7000 5.66 340 17:21 13.04.2021
340 Rain 35 1009 11 7000 5.66 340 17:21 13.04.2021
341 Rain 36 1009 11 8000 4.63 300 16:45 13.04.2021
342 Rain 36 1009 11 8000 4.63 300 16:27 13.04.2021
343 Rain 36 1009 11 9000 4.63 270 15:56 13.04.2021
344 Clouds 36 1009 11 9000 4.63 270 15:37 13.04.2021
345 Dust 37 1009 11 5000 5.66 280 14:58 13.04.2021
346 Dust 37 1009 11 5000 5.66 280 14:25 13.04.2021
347 Dust 37 1010 11 4000 5.66 270 13:55 13.04.2021
348 Dust 37 1010 11 4000 5.66 270 13:36 13.04.2021
349 Dust 37 1010 11 4000 5.66 270 13:18 13.04.2021
350 Clouds 37 1010 11 4000 6.69 40 12:44 13.04.2021
351 Clouds 37 1010 11 4000 6.69 40 12:22 13.04.2021
352 Clear 37 1011 11 10000 5.66 250 11:36 13.04.2021
353 Clear 35 1012 14 10000 2.57 290 10:58 13.04.2021
354 Clear 35 1012 14 10000 2.57 290 10:39 13.04.2021
355 Clear 35 1012 14 10000 2.57 290 10:18 13.04.2021
356 Clear 34 1013 14 10000 2.06 190 09:46 13.04.2021
357 Clear 34 1013 14 10000 2.06 190 09:23 13.04.2021
358 Clear 31 1013 18 10000 2.57 150 08:43 13.04.2021
359 Clear 31 1013 18 10000 2.57 150 08:21 13.04.2021
360 Clear 27 1013 21 10000 3.6 140 07:43 13.04.2021
361 Clear 27 1013 21 10000 3.6 140 07:22 13.04.2021
362 Clear 26 1012 32 10000 5.53 128 06:19 13.04.2021
363 Clouds 26 1011 29 7000 4.12 110 03:41 13.04.2021
364 Clouds 27 1012 23 7000 4.63 90 01:31 13.04.2021
365 Clouds 28 1013 18 10000 3.09 100 23:50 12.04.2021
366 Rain 28 1013 18 10000 3.09 100 23:32 12.04.2021
367 Rain 30 1012 19 10000 3.09 90 22:50 12.04.2021
368 Clouds 30 1012 19 10000 3.09 90 22:31 12.04.2021
369 Rain 31 1012 16 10000 3.6 110 21:48 12.04.2021
370 Clouds 31 1012 16 10000 3.6 110 21:25 12.04.2021
371 Clouds 32 1011 22 10000 7.05 86 20:46 12.04.2021
372 Clouds 32 1011 22 10000 7.66 69 20:26 12.04.2021
373 Clear 33 1011 15 10000 2.06 110 19:59 12.04.2021
374 Clear 33 1011 15 10000 2.06 110 19:39 12.04.2021
375 Clear 33 1011 15 10000 2.06 110 19:20 12.04.2021
376 Clouds 34 1011 14 10000 2.57 140 18:48 12.04.2021
377 Clouds 34 1011 14 10000 2.57 140 18:30 12.04.2021
378 Clouds 35 1010 12 10000 4.12 120 17:46 12.04.2021
379 Clouds 35 1010 12 10000 4.12 120 17:25 12.04.2021
380 Clear 35 1010 12 10000 4.12 130 16:49 12.04.2021
381 Clear 35 1010 12 10000 4.12 130 16:29 12.04.2021
382 Clear 36 1011 11 10000 4.12 170 15:56 12.04.2021
383 Clear 36 1011 11 10000 4.12 170 15:33 12.04.2021
384 Clear 35 1011 12 10000 3.09 90 14:55 12.04.2021
385 Clear 35 1011 12 10000 3.09 90 14:37 12.04.2021
386 Clear 35 1012 12 10000 2.06 160 13:59 12.04.2021
387 Clear 35 1012 12 10000 2.06 160 13:39 12.04.2021
388 Clear 35 1012 12 10000 2.06 160 13:18 12.04.2021
389 Clear 34 1013 14 10000 3.09 90 12:38 12.04.2021
390 Clear 34 1013 14 10000 3.09 90 12:20 12.04.2021
391 Clear 32 1014 17 10000 3.09 70 11:27 12.04.2021
392 Clear 30 1015 21 10000 2.57 60 10:51 12.04.2021
393 Clear 30 1015 21 10000 2.57 60 10:28 12.04.2021
394 Clear 28 1015 26 10000 3.6 50 09:51 12.04.2021
395 Clear 28 1015 26 10000 3.6 50 09:23 12.04.2021
396 Clear 26 1015 29 10000 4.12 20 08:49 12.04.2021
397 Clear 24 1016 33 10000 4.63 30 07:53 12.04.2021
398 Clear 24 1016 33 10000 4.63 30 07:29 12.04.2021
399 Clear 23 1015 35 10000 4.63 20 06:29 12.04.2021
400 Clear 24 1015 22 10000 3.09 50 05:45 12.04.2021
401 Clouds 26 1014 18 7000 2.57 350 02:26 12.04.2021
402 Clouds 27 1015 15 7000 3.6 80 00:27 12.04.2021
403 Clouds 28 1013 16 7000 4.63 60 23:54 11.04.2021
404 Clouds 28 1013 16 7000 4.63 60 23:32 11.04.2021
405 Dust 29 1013 15 2000 5.14 80 22:50 11.04.2021
406 Dust 29 1013 15 2000 5.14 80 22:28 11.04.2021
407 Dust 30 1013 14 2000 6.17 40 21:58 11.04.2021
408 Dust 30 1013 14 2000 6.17 40 21:39 11.04.2021
409 Dust 30 1013 14 2000 6.17 40 21:20 11.04.2021
410 Dust 31 1012 10 2000 7.72 10 20:39 11.04.2021
411 Dust 31 1012 10 2000 7.72 10 20:20 11.04.2021
412 Dust 34 1011 9 2000 7.72 50 19:41 11.04.2021
413 Dust 34 1011 9 2000 7.72 50 19:19 11.04.2021
414 Dust 35 1010 8 5000 5.66 150 18:47 11.04.2021
415 Dust 35 1010 8 5000 5.66 150 18:27 11.04.2021
416 Clouds 37 1010 8 9000 3.6 220 17:55 11.04.2021
417 Clouds 37 1010 8 9000 3.6 220 17:37 11.04.2021
418 Clouds 37 1010 8 9000 3.6 220 17:18 11.04.2021
419 Clouds 37 1009 7 9000 4.63 190 16:40 11.04.2021
420 Clouds 37 1009 7 9000 4.63 190 16:20 11.04.2021
421 Clouds 38 1010 6 9000 5.14 220 15:43 11.04.2021
422 Clouds 38 1010 6 9000 5.14 220 15:22 11.04.2021
423 Clouds 37 1009 6 9000 5.66 220 14:49 11.04.2021
424 Clouds 37 1009 6 9000 5.66 220 14:19 11.04.2021
425 Clouds 38 1010 6 9000 6.69 230 13:40 11.04.2021
426 Clouds 38 1010 6 9000 6.69 230 13:22 11.04.2021
427 Clear 38 1011 6 10000 6.69 160 12:26 11.04.2021
428 Clear 33 1011 8 10000 7.2 130 11:56 11.04.2021
429 Clear 33 1011 8 10000 7.2 130 11:38 11.04.2021
430 Clear 33 1011 8 10000 7.2 130 11:19 11.04.2021
431 Clear 36 1012 7 10000 5.66 150 10:40 11.04.2021
432 Clear 36 1012 7 10000 5.66 150 10:20 11.04.2021
433 Clear 33 1012 7 10000 6.69 160 09:43 11.04.2021
434 Clear 33 1012 7 10000 6.69 160 09:43 11.04.2021
435 Clear 33 1012 7 10000 6.69 160 09:25 11.04.2021
436 Clear 32 1012 7 10000 6.17 150 08:39 11.04.2021
437 Clear 29 1012 9 10000 5.66 150 07:38 11.04.2021
438 Clear 29 1012 9 10000 5.66 150 07:19 11.04.2021
439 Clear 26 1011 9 10000 5.05 135 05:47 11.04.2021
440 Clear 26 1011 9 10000 4.7 135 05:23 11.04.2021
441 Clouds 31 1010 13 8000 2.57 220 04:35 11.04.2021
442 Clouds 31 1010 13 8000 2.57 220 04:35 11.04.2021
443 Clouds 31 1010 14 8000 1.54 160 03:35 11.04.2021
444 Rain 33 1010 14 8000 1.54 150 00:55 11.04.2021
445 Rain 33 1010 14 8000 1.54 150 00:32 11.04.2021
446 Rain 33 1010 12 8000 2.06 200 23:44 10.04.2021
447 Clouds 34 1010 12 8000 2.06 160 22:55 10.04.2021
448 Clouds 34 1010 12 8000 2.06 160 22:28 10.04.2021
449 Clouds 34 1010 10 8000 2.06 190 21:53 10.04.2021
450 Clouds 34 1010 10 8000 2.06 190 21:25 10.04.2021
451 Clouds 34 1009 10 7000 2.06 150 20:56 10.04.2021
452 Clouds 34 1009 10 7000 2.06 150 20:34 10.04.2021
453 Clouds 34 1009 9 7000 3.09 170 19:59 10.04.2021
454 Clouds 34 1009 9 7000 3.09 170 19:41 10.04.2021
455 Clouds 34 1009 9 7000 3.09 170 19:23 10.04.2021
456 Clouds 35 1008 8 6000 4.12 180 18:41 10.04.2021
457 Clouds 35 1008 8 6000 4.12 180 18:23 10.04.2021
458 Clouds 36 1008 7 6000 4.63 190 17:35 10.04.2021
459 Clouds 36 1008 7 6000 4.63 200 16:42 10.04.2021
460 Clouds 36 1008 7 6000 4.63 200 16:21 10.04.2021
461 Rain 38 1008 6 8000 4.63 180 15:44 10.04.2021
462 Clouds 38 1009 6 9000 3.6 200 14:54 10.04.2021
463 Clouds 38 1009 6 9000 3.6 200 14:33 10.04.2021
464 Clouds 38 1010 6 9000 5.14 210 13:55 10.04.2021
465 Clouds 38 1010 6 9000 5.14 210 13:36 10.04.2021
466 Clouds 37 1011 6 9000 5.66 200 12:41 10.04.2021
467 Clouds 37 1011 6 9000 5.66 200 12:20 10.04.2021
468 Clouds 36 1011 7 8000 5.14 200 11:45 10.04.2021
469 Clouds 36 1011 7 8000 5.14 200 11:45 10.04.2021
470 Clouds 36 1011 7 8000 5.14 200 11:21 10.04.2021
471 Clouds 35 1012 11 8000 7.72 180 10:50 10.04.2021
472 Clouds 35 1012 11 8000 7.72 180 10:30 10.04.2021
473 Clouds 33 1012 9 8000 6.17 180 09:37 10.04.2021
474 Clear 33 1012 9 8000 6.17 180 09:18 10.04.2021
475 Clear 31 1011 11 9000 5.14 180 08:34 10.04.2021
476 Clear 29 1010 15 10000 4.12 170 07:56 10.04.2021
477 Clear 29 1010 15 10000 4.12 170 07:26 10.04.2021
478 Clear 27 1009 14 10000 2.57 150 06:27 10.04.2021
479 Clear 26 1009 18 10000 1.03 150 04:49 10.04.2021
480 Clear 26 1009 19 10000 1.54 120 03:36 10.04.2021
481 Clear 27 1009 17 10000 1.54 140 02:42 10.04.2021
482 Clear 29 1009 14 10000 3.94 162 01:27 10.04.2021
483 Clear 30 1009 12 10000 2.06 160 00:31 10.04.2021
484 Clear 32 1009 10 10000 2.57 200 23:51 09.04.2021
485 Clear 32 1009 10 10000 2.57 200 23:27 09.04.2021
486 Clouds 34 1009 9 10000 3.6 190 22:47 09.04.2021
487 Clouds 34 1009 9 10000 3.6 190 22:28 09.04.2021
488 Clouds 34 1009 10 10000 2.57 170 21:40 09.04.2021
489 Clouds 34 1009 10 10000 2.57 170 21:21 09.04.2021
490 Clouds 35 1008 9 10000 2.57 190 20:46 09.04.2021
491 Clouds 35 1008 9 10000 2.57 190 20:23 09.04.2021
492 Clear 35 1008 8 10000 3.09 180 19:58 09.04.2021
493 Clear 35 1008 8 10000 3.09 180 19:39 09.04.2021
494 Clear 35 1008 8 10000 3.09 180 19:21 09.04.2021
495 Clear 36 1007 8 10000 3.6 190 18:41 09.04.2021
496 Clear 36 1007 8 10000 3.6 190 18:23 09.04.2021
497 Clear 37 1007 7 10000 3.6 200 17:44 09.04.2021
498 Clear 37 1007 7 10000 3.6 200 17:25 09.04.2021
499 Clear 38 1008 6 10000 3.6 220 16:41 09.04.2021
500 Clear 38 1008 6 10000 3.6 220 16:20 09.04.2021
501 Clear 39 1008 6 10000 4.12 210 15:42 09.04.2021
502 Clear 39 1008 6 10000 4.12 210 15:23 09.04.2021
503 Clear 39 1008 7 10000 4.12 220 14:46 09.04.2021
504 Clear 39 1008 7 10000 4.12 220 14:19 09.04.2021
505 Clear 38 1009 6 10000 4.63 210 13:43 09.04.2021
506 Clear 38 1009 6 10000 4.63 210 13:22 09.04.2021
507 Clouds 37 1010 5 8000 5.14 200 12:47 09.04.2021
508 Clear 36 1011 6 8000 5.66 220 11:57 09.04.2021
509 Clear 36 1011 6 8000 5.66 220 11:28 09.04.2021
510 Clear 34 1012 11 10000 4.12 200 10:53 09.04.2021
511 Clear 34 1012 11 10000 4.12 200 10:34 09.04.2021
512 Clear 31 1012 14 10000 4.12 210 09:55 09.04.2021
513 Clear 31 1012 14 10000 4.12 210 09:27 09.04.2021
514 Clear 29 1012 17 10000 3.6 200 08:54 09.04.2021
515 Clear 29 1012 17 10000 3.6 200 08:25 09.04.2021
516 Clear 27 1012 14 10000 2.57 210 07:21 09.04.2021
517 Clear 25 1011 17 10000 2.57 190 06:21 09.04.2021
518 Clear 24 1010 20 10000 1.54 150 03:56 09.04.2021
519 Clear 24 1010 20 10000 1.54 150 03:38 09.04.2021
520 Clear 27 1012 16 10000 2.06 150 00:38 09.04.2021
521 Clear 27 1012 16 10000 2.06 150 00:20 09.04.2021
522 Clear 27 1012 21 10000 3.09 180 23:31 08.04.2021
523 Clear 28 1012 23 10000 1.54 190 22:47 08.04.2021
524 Clear 28 1012 23 10000 1.54 190 22:27 08.04.2021
525 Clear 29 1012 23 10000 1.54 180 21:58 08.04.2021
526 Clear 29 1012 23 10000 1.54 180 21:40 08.04.2021
527 Clear 29 1012 23 10000 1.54 180 21:21 08.04.2021
528 Clear 29 1012 23 10000 1.54 90 20:54 08.04.2021
529 Clear 29 1012 23 10000 1.54 90 20:34 08.04.2021
530 Clear 31 1012 22 10000 3.97 155 19:57 08.04.2021
531 Clear 31 1012 22 10000 3.49 144 19:25 08.04.2021
532 Clear 34 1012 17 10000 3.49 144 18:57 08.04.2021
533 Clear 34 1012 17 10000 3.78 120 18:24 08.04.2021
534 Clear 35 1011 16 10000 1.54 280 17:55 08.04.2021
535 Clear 35 1011 16 10000 1.54 280 17:27 08.04.2021
536 Clear 36 1012 7 10000 2.57 220 16:57 08.04.2021
537 Clear 36 1012 7 10000 2.57 220 16:36 08.04.2021
538 Clear 37 1012 6 10000 2.57 210 15:56 08.04.2021
539 Clear 37 1012 6 10000 2.57 210 15:37 08.04.2021
540 Clear 37 1012 6 10000 2.57 210 15:19 08.04.2021
541 Clear 36 1012 6 10000 2.06 350 14:40 08.04.2021
542 Clear 36 1012 6 10000 2.06 350 14:40 08.04.2021
543 Clear 36 1012 6 10000 2.06 350 14:20 08.04.2021
544 Clear 36 1013 6 10000 4.63 240 13:43 08.04.2021
545 Clear 36 1013 6 10000 4.63 240 13:23 08.04.2021
546 Clear 36 1013 6 10000 5.14 210 12:49 08.04.2021
547 Clear 36 1013 6 10000 5.14 210 12:30 08.04.2021
548 Clear 35 1015 6 10000 4.63 210 11:56 08.04.2021
549 Clear 35 1015 6 10000 4.63 210 11:21 08.04.2021
550 Clear 34 1015 6 10000 5.14 190 10:43 08.04.2021
551 Clear 34 1015 6 10000 5.14 190 10:24 08.04.2021
552 Clear 32 1016 7 10000 6.69 170 09:43 08.04.2021
553 Clear 30 1017 7 10000 5.14 170 08:53 08.04.2021
554 Clear 30 1017 7 10000 5.14 170 08:35 08.04.2021
555 Clear 26 1017 9 10000 2.06 160 07:59 08.04.2021
556 Clear 26 1017 9 10000 2.06 160 07:40 08.04.2021
557 Clear 20 1016 26 10000 1.54 160 04:51 08.04.2021
558 Clear 23 1017 23 10000 1.54 120 01:25 08.04.2021
559 Clear 24 1017 20 10000 1.03 150 00:30 08.04.2021
560 Clear 24 1018 20 10000 2.06 110 23:45 07.04.2021
561 Clear 24 1018 20 10000 2.06 110 23:22 07.04.2021
562 Clear 26 1018 21 10000 1.54 150 22:55 07.04.2021
563 Clear 26 1018 21 10000 1.54 150 22:35 07.04.2021
564 Clear 27 1018 18 10000 1.54 140 21:53 07.04.2021
565 Clear 27 1018 18 10000 1.54 140 21:32 07.04.2021
566 Clear 28 1018 17 10000 1.54 120 20:49 07.04.2021
567 Clear 28 1018 17 10000 1.54 120 20:27 07.04.2021
568 Clear 29 1017 17 10000 1.54 100 19:50 07.04.2021
569 Clear 29 1017 17 10000 1.54 100 19:31 07.04.2021
570 Clear 31 1017 13 10000 1.54 70 18:56 07.04.2021
571 Clear 31 1017 13 10000 1.54 70 18:22 07.04.2021
572 Clear 33 1017 11 10000 2.06 90 17:59 07.04.2021
573 Clear 33 1017 11 10000 2.06 90 17:40 07.04.2021
574 Clear 33 1017 11 10000 2.06 120 16:59 07.04.2021
575 Clear 33 1017 11 10000 2.06 120 16:39 07.04.2021
576 Clear 33 1017 11 10000 2.06 120 16:20 07.04.2021
577 Clear 33 1017 8 10000 2.06 150 15:50 07.04.2021
578 Clear 33 1017 8 10000 2.06 150 15:25 07.04.2021
579 Clear 33 1017 8 10000 2.06 150 15:25 07.04.2021
580 Clear 34 1018 6 10000 2.57 140 14:35 07.04.2021
581 Clear 34 1018 6 10000 1.54 150 13:55 07.04.2021
582 Clear 34 1018 6 10000 1.54 150 13:29 07.04.2021
583 Clear 33 1018 6 10000 1.54 130 12:58 07.04.2021
584 Clear 33 1018 6 10000 1.54 130 12:39 07.04.2021
585 Clear 32 1019 7 10000 2.06 70 12:18 07.04.2021
586 Clear 32 1019 7 10000 2.06 70 11:39 07.04.2021
587 Clear 32 1019 7 10000 2.06 70 11:20 07.04.2021
588 Clear 31 1020 8 10000 1.87 136 10:33 07.04.2021
589 Clear 29 1021 9 10000 2.04 141 09:46 07.04.2021
590 Clear 29 1021 9 10000 2.13 155 09:28 07.04.2021
591 Clear 28 1021 10 10000 2.13 154 08:48 07.04.2021
592 Clear 28 1021 10 10000 1.73 137 08:26 07.04.2021
593 Clear 24 1020 13 10000 1.73 137 07:46 07.04.2021
594 Clear 24 1020 13 10000 1.26 113 07:26 07.04.2021
595 Clear 20 1020 14 10000 1.26 113 06:36 07.04.2021
596 Clear 19 1018 18 10000 1.03 340 04:37 07.04.2021
597 Clear 21 1019 16 10000 1.09 59 01:21 07.04.2021
598 Clear 23 1020 15 10000 1.54 90 23:47 06.04.2021
599 Clear 23 1020 15 10000 1.54 90 23:22 06.04.2021
600 Clear 24 1019 12 10000 2.06 80 22:48 06.04.2021
601 Clear 24 1019 12 10000 2.06 80 22:20 06.04.2021
602 Clear 25 1020 11 10000 2.57 50 21:43 06.04.2021
603 Clear 25 1020 11 10000 2.57 50 21:23 06.04.2021
604 Clear 26 1019 9 10000 2.57 50 20:55 06.04.2021
605 Clear 26 1019 9 10000 2.57 50 20:26 06.04.2021
606 Clear 26 1019 9 10000 2.57 50 20:26 06.04.2021
607 Clear 27 1019 9 10000 2.57 70 19:59 06.04.2021
608 Clear 27 1019 9 10000 2.57 70 19:38 06.04.2021
609 Clear 27 1019 9 10000 2.57 70 19:19 06.04.2021
610 Clear 28 1018 9 10000 2.57 40 18:41 06.04.2021
611 Clear 28 1018 9 10000 2.57 40 18:19 06.04.2021
612 Clear 30 1018 7 10000 3.09 30 17:44 06.04.2021
613 Clear 30 1018 7 10000 3.09 30 17:19 06.04.2021
614 Clear 30 1019 6 10000 2.57 10 16:46 06.04.2021
615 Clear 30 1019 6 10000 2.57 10 16:26 06.04.2021
616 Clear 31 1020 6 10000 2.06 360 15:27 06.04.2021
617 Clear 31 1019 6 10000 2.06 330 14:45 06.04.2021
618 Clear 31 1019 6 10000 2.06 330 14:26 06.04.2021
619 Clear 29 1019 7 10000 2.06 330 13:47 06.04.2021
620 Clear 29 1019 7 10000 2.06 330 13:27 06.04.2021
621 Clear 30 1022 6 10000 2.57 360 12:55 06.04.2021
622 Clear 30 1022 6 10000 2.57 360 12:36 06.04.2021
623 Clear 30 1022 6 10000 2.57 360 12:18 06.04.2021
624 Clear 28 1021 8 10000 3.09 360 11:43 06.04.2021
625 Clear 28 1021 8 10000 3.09 360 11:19 06.04.2021
626 Clear 27 1022 9 10000 3.6 350 10:43 06.04.2021
627 Clear 27 1022 9 10000 3.6 350 10:22 06.04.2021
628 Clear 25 1022 10 10000 3.09 20 09:45 06.04.2021
629 Clear 25 1022 10 10000 3.09 20 09:23 06.04.2021
630 Clear 23 1022 11 10000 3.09 30 08:29 06.04.2021
631 Clear 21 1022 12 10000 3.09 360 07:32 06.04.2021
632 Clear 19 1021 13 10000 2.9 23 06:54 06.04.2021
633 Clear 18 1020 18 10000 2.06 300 03:55 06.04.2021
634 Clear 20 1021 19 10000 3.09 12 00:51 06.04.2021
635 Clear 20 1021 19 10000 2.96 14 00:22 06.04.2021
636 Clear 21 1021 17 10000 2.06 40 23:58 05.04.2021
637 Clear 21 1021 17 10000 2.06 40 23:39 05.04.2021
638 Clear 21 1021 17 10000 2.06 40 23:18 05.04.2021
639 Clear 22 1021 15 10000 2.57 50 22:40 05.04.2021
640 Clear 23 1021 15 10000 2.57 60 21:56 05.04.2021
641 Clear 23 1021 15 10000 2.57 60 21:37 05.04.2021
642 Clear 23 1021 15 10000 2.57 60 21:18 05.04.2021
643 Clear 24 1021 16 10000 2.06 50 20:41 05.04.2021
644 Clear 24 1021 16 10000 2.06 50 20:22 05.04.2021
645 Clear 25 1021 11 10000 3.6 40 19:37 05.04.2021
646 Clear 25 1021 11 10000 3.6 40 19:18 05.04.2021
647 Clear 26 1012 9 8000 4.63 30 18:41 05.04.2021
648 Clear 26 1012 9 8000 4.63 30 18:19 05.04.2021
649 Clear 27 1020 11 8000 5.14 30 17:47 05.04.2021
650 Clear 27 1020 11 8000 5.14 30 17:24 05.04.2021
651 Clear 28 1020 15 7000 4.63 10 16:47 05.04.2021
652 Clear 28 1020 15 7000 4.63 10 16:23 05.04.2021
653 Clear 27 1020 16 7000 4.12 10 15:58 05.04.2021
654 Clear 27 1020 16 7000 4.12 10 15:38 05.04.2021
655 Clear 27 1020 16 7000 4.12 10 15:20 05.04.2021
656 Clear 27 1020 8 8000 5.91 22 14:36 05.04.2021
657 Clear 27 1020 9 8000 5.14 40 13:52 05.04.2021
658 Clear 27 1020 9 8000 5.14 40 13:27 05.04.2021
659 Clear 26 1021 11 9000 5.14 20 12:47 05.04.2021
660 Clear 26 1021 11 9000 5.14 20 12:25 05.04.2021
661 Clear 25 1022 12 10000 5.66 360 11:48 05.04.2021
662 Clear 25 1022 12 10000 5.66 360 11:30 05.04.2021
663 Clear 24 1022 13 10000 6.17 10 10:55 05.04.2021
664 Clear 24 1022 13 10000 6.17 10 10:35 05.04.2021
665 Clear 22 1023 15 10000 5.14 10 09:48 05.04.2021
666 Clear 22 1023 15 10000 5.14 10 09:26 05.04.2021
667 Clear 21 1023 16 10000 5.66 360 08:47 05.04.2021
668 Clear 21 1023 16 10000 5.66 360 08:26 05.04.2021
669 Clear 20 1022 17 10000 5.66 10 07:57 05.04.2021
670 Clear 20 1022 17 10000 5.66 10 07:29 05.04.2021
671 Clear 18 1020 22 10000 3.09 20 03:42 05.04.2021
672 Clear 20 1021 19 10000 3.09 10 00:54 05.04.2021
673 Clear 20 1021 18 10000 3.09 350 23:53 04.04.2021
674 Clear 20 1021 18 10000 3.09 350 23:31 04.04.2021
675 Clear 20 1021 17 10000 4.12 50 22:57 04.04.2021
676 Clear 20 1021 17 10000 4.12 50 22:34 04.04.2021
677 Clear 22 1020 14 10000 4.12 10 21:56 04.04.2021
678 Clear 22 1020 14 10000 4.12 10 21:21 04.04.2021
679 Clear 23 1020 11 10000 4.63 360 20:42 04.04.2021
680 Clear 23 1020 11 10000 4.63 360 20:21 04.04.2021
681 Clear 23 1020 10 10000 5.66 20 19:40 04.04.2021
682 Clear 23 1020 10 10000 5.66 20 19:19 04.04.2021
683 Clear 24 1020 10 10000 5.14 20 18:50 04.04.2021
684 Clear 24 1020 10 10000 5.14 20 18:24 04.04.2021
685 Clear 26 1019 11 10000 6.17 20 17:58 04.04.2021
686 Clear 26 1019 11 10000 6.17 20 17:25 04.04.2021
687 Clear 26 1018 11 10000 7.2 10 16:56 04.04.2021
688 Clear 26 1018 11 10000 7.2 10 16:37 04.04.2021
689 Clear 26 1018 10 10000 6.17 10 15:52 04.04.2021
690 Clear 26 1018 10 10000 6.17 10 15:31 04.04.2021
691 Clear 26 1018 9 10000 5.66 10 14:39 04.04.2021
692 Clear 26 1018 9 10000 5.66 10 14:19 04.04.2021
693 Clear 25 1019 9 10000 5.14 10 13:27 04.04.2021
694 Clear 25 1019 10 10000 5.14 360 12:51 04.04.2021
695 Clear 25 1019 10 10000 5.14 360 12:28 04.04.2021
696 Clear 23 1020 12 10000 5.66 30 11:49 04.04.2021
697 Clear 23 1020 12 10000 5.66 30 11:30 04.04.2021
698 Clear 22 1021 14 10000 5.66 20 10:47 04.04.2021
699 Clear 22 1021 14 10000 5.66 20 10:23 04.04.2021
700 Clear 21 1021 16 10000 5.66 20 09:44 04.04.2021
701 Clear 21 1021 16 10000 5.66 20 09:21 04.04.2021
702 Clear 19 1022 18 10000 6.17 10 08:44 04.04.2021
703 Clear 19 1022 18 10000 6.17 10 08:24 04.04.2021
704 Clear 17 1021 22 10000 7.2 10 06:39 04.04.2021
705 Clear 17 1020 20 10000 7.2 10 05:44 04.04.2021
706 Clear 19 1019 19 10000 6.69 10 02:20 04.04.2021
707 Clear 20 1019 15 10000 5.66 10 00:48 04.04.2021
708 Clear 20 1019 15 10000 5.66 10 00:18 04.04.2021
709 Clear 21 1020 21 8000 4.12 20 23:41 03.04.2021
710 Clear 21 1018 18 8000 6.69 50 22:56 03.04.2021
711 Clear 21 1018 18 8000 6.69 50 22:37 03.04.2021
712 Clear 21 1018 18 8000 6.69 50 22:18 03.04.2021
713 Clear 22 1018 17 8000 6.17 350 21:39 03.04.2021
714 Clear 22 1018 17 8000 6.17 350 21:21 03.04.2021
715 Clear 23 1018 16 7000 7.72 360 20:40 03.04.2021
716 Clear 23 1018 16 7000 7.72 360 20:20 03.04.2021
717 Clear 23 1018 15 6000 8.23 20 19:43 03.04.2021
718 Clear 23 1018 15 6000 8.23 20 19:19 03.04.2021
719 Dust 26 1018 12 5000 8.75 20 18:45 03.04.2021
720 Dust 26 1018 12 5000 8.75 20 18:18 03.04.2021
721 Dust 27 1016 13 5000 9.77 20 17:41 03.04.2021
722 Dust 27 1016 13 5000 9.77 20 17:21 03.04.2021
723 Clear 28 1016 11 6000 10.29 20 16:43 03.04.2021
724 Clear 28 1016 11 6000 10.29 20 16:21 03.04.2021
725 Clear 29 1015 11 6000 8.23 10 15:46 03.04.2021
726 Clear 29 1015 11 6000 8.23 10 15:21 03.04.2021
727 Clear 30 1015 11 6000 7.2 10 14:42 03.04.2021
728 Clear 30 1015 11 6000 7.2 10 14:22 03.04.2021
729 Clear 29 1016 12 7000 6.69 10 13:48 03.04.2021
730 Clear 29 1016 12 7000 6.69 10 13:23 03.04.2021
731 Clear 29 1016 12 8000 8.23 350 12:49 03.04.2021
732 Clear 29 1016 12 8000 8.23 350 12:21 03.04.2021
733 Clear 28 1017 13 8000 7.2 20 11:38 03.04.2021
734 Clear 27 1017 14 8000 8.23 350 10:51 03.04.2021
735 Clear 27 1017 14 8000 8.23 350 10:31 03.04.2021
736 Clear 26 1017 15 8000 7.72 360 09:54 03.04.2021
737 Clear 26 1017 15 8000 7.72 360 09:28 03.04.2021
738 Clear 24 1017 17 10000 8.75 360 08:47 03.04.2021
739 Clear 24 1017 17 10000 8.75 360 08:28 03.04.2021
740 Clear 23 1017 16 10000 7.72 350 07:28 03.04.2021
741 Clear 23 1015 15 10000 7.2 350 05:50 03.04.2021
742 Clear 25 1013 16 10000 4.63 10 03:50 03.04.2021
743 Clear 26 1012 15 10000 3.6 10 02:49 03.04.2021
744 Clear 26 1012 15 10000 3.6 10 02:23 03.04.2021
745 Clear 27 1012 18 10000 1.7 282 00:20 03.04.2021
746 Clear 29 1012 18 10000 1.7 282 23:48 02.04.2021
747 Clear 29 1012 18 10000 3.27 195 23:24 02.04.2021
748 Clear 29 1012 16 10000 2.06 210 22:52 02.04.2021
749 Clear 29 1012 16 10000 2.06 210 22:33 02.04.2021
750 Clear 31 1012 13 10000 2.57 200 21:46 02.04.2021
751 Clear 31 1012 13 10000 2.57 200 21:23 02.04.2021
752 Clear 33 1012 10 10000 3.6 180 20:48 02.04.2021
753 Clear 33 1012 10 10000 3.6 180 20:28 02.04.2021
754 Clear 34 1011 10 10000 3.09 190 19:57 02.04.2021
755 Clear 34 1011 10 10000 3.09 190 19:38 02.04.2021
756 Clear 34 1011 10 10000 3.09 190 19:20 02.04.2021
757 Clear 35 1011 9 10000 3.09 190 18:38 02.04.2021
758 Clear 36 1011 7 10000 4.12 230 18:20 02.04.2021
759 Clear 36 1011 7 10000 4.12 230 17:37 02.04.2021
760 Clear 37 1011 8 10000 3.6 240 16:48 02.04.2021
761 Clear 38 1010 8 10000 4.12 230 15:54 02.04.2021
762 Clear 38 1010 8 10000 4.12 230 15:32 02.04.2021
763 Clear 38 1012 7 10000 3.6 230 14:48 02.04.2021
764 Clear 38 1012 7 10000 3.6 230 14:27 02.04.2021
765 Clear 38 1013 7 10000 4.12 220 13:42 02.04.2021
766 Clear 38 1013 7 10000 4.12 220 13:19 02.04.2021
767 Clear 38 1014 6 10000 4.63 210 12:40 02.04.2021
768 Clear 38 1014 6 10000 4.63 210 12:20 02.04.2021
769 Clear 38 1014 6 10000 4.63 210 12:20 02.04.2021
770 Clear 37 1015 7 10000 4.63 190 11:53 02.04.2021
771 Clear 37 1015 7 10000 4.63 190 11:20 02.04.2021
772 Clear 37 1015 7 10000 4.63 190 11:20 02.04.2021
773 Clear 36 1015 7 10000 2.57 190 10:45 02.04.2021
774 Clear 36 1015 7 10000 2.57 190 10:27 02.04.2021
775 Clear 34 1015 8 10000 2.57 170 09:52 02.04.2021
776 Clear 34 1015 8 10000 2.57 170 09:26 02.04.2021
777 Clear 34 1015 8 10000 2.57 170 09:26 02.04.2021
778 Clear 31 1015 12 10000 2.57 180 08:49 02.04.2021
779 Clear 31 1015 12 10000 2.57 180 08:28 02.04.2021
780 Clear 28 1015 13 10000 1.54 170 07:23 02.04.2021
781 Clear 25 1014 15 10000 2.2 189 06:46 02.04.2021
782 Clear 22 1014 26 10000 0.67 319 04:18 02.04.2021
783 Clear 25 1013 25 10000 2.39 5 02:20 02.04.2021
784 Clear 27 1014 22 10000 3.6 150 00:47 02.04.2021
785 Clear 27 1014 22 10000 3.6 150 00:18 02.04.2021
786 Clear 28 1014 21 10000 2.57 160 23:30 01.04.2021
787 Clear 29 1014 19 10000 3.09 150 22:52 01.04.2021
788 Clear 29 1014 19 10000 3.09 150 22:19 01.04.2021
789 Clear 30 1014 19 10000 2.57 160 21:49 01.04.2021
790 Clear 30 1014 19 10000 2.57 160 21:25 01.04.2021
791 Clear 31 1014 13 10000 3.6 160 20:43 01.04.2021
792 Clear 31 1014 13 10000 3.6 160 20:24 01.04.2021
793 Clear 33 1013 14 10000 4.12 150 19:46 01.04.2021
794 Clear 33 1013 14 10000 4.12 150 19:27 01.04.2021
795 Clear 34 1013 11 10000 3.6 140 18:45 01.04.2021
796 Clear 34 1013 11 10000 3.6 140 18:18 01.04.2021
797 Clear 36 1012 7 10000 4.12 150 17:51 01.04.2021
798 Clear 36 1012 7 10000 4.12 150 17:29 01.04.2021
799 Clear 36 1012 7 10000 4.63 140 16:51 01.04.2021
800 Clear 36 1012 7 10000 4.63 140 16:27 01.04.2021
801 Clear 37 1012 7 10000 1.54 200 15:46 01.04.2021
802 Clear 37 1012 7 10000 1.54 200 15:19 01.04.2021
803 Clear 37 1012 7 10000 1.54 200 15:19 01.04.2021
804 Clear 38 1012 7 10000 2.57 230 14:43 01.04.2021
805 Clear 38 1012 7 10000 2.57 230 14:24 01.04.2021
806 Clear 37 1013 7 10000 4.63 220 13:55 01.04.2021
807 Clear 37 1013 7 10000 4.63 220 13:30 01.04.2021
808 Clear 38 1013 7 10000 3.6 190 12:51 01.04.2021
809 Clear 38 1013 7 10000 3.6 190 12:31 01.04.2021
810 Clear 36 1014 7 10000 3.6 210 11:49 01.04.2021
811 Clear 36 1014 7 10000 3.6 210 11:24 01.04.2021
812 Clear 35 1015 8 10000 2.57 190 10:53 01.04.2021
813 Clear 35 1015 8 10000 2.57 190 10:35 01.04.2021
814 Clear 32 1015 9 10000 5.66 170 09:54 01.04.2021
815 Clear 32 1015 9 10000 5.66 170 09:27 01.04.2021
816 Clear 30 1015 12 10000 4.12 160 08:33 01.04.2021
817 Clear 27 1015 14 10000 3.6 160 07:59 01.04.2021
818 Clear 27 1015 14 10000 3.6 160 07:20 01.04.2021
819 Clear 25 1015 16 10000 2.57 160 06:47 01.04.2021
820 Clear 25 1013 12 10000 3.6 170 03:30 01.04.2021
821 Clear 27 1014 12 10000 3.6 160 00:59 01.04.2021
822 Clear 27 1014 13 10000 3.6 170 23:51 31.03.2021
823 Clear 27 1014 13 10000 3.6 170 23:31 31.03.2021
824 Clear 28 1014 14 10000 2.57 150 22:41 31.03.2021
825 Clear 28 1014 14 10000 2.57 150 22:21 31.03.2021
826 Clear 29 1014 17 10000 3.09 150 21:47 31.03.2021
827 Clear 29 1014 17 10000 3.09 150 21:24 31.03.2021
828 Clear 30 1013 16 10000 2.57 140 20:57 31.03.2021
829 Clear 30 1013 16 10000 2.57 140 20:39 31.03.2021
830 Clear 30 1013 16 10000 2.57 140 20:18 31.03.2021
831 Clear 31 1013 15 10000 3.09 150 19:40 31.03.2021
832 Clear 31 1013 15 10000 3.09 150 19:19 31.03.2021
833 Clear 33 1012 13 10000 3.09 160 18:49 31.03.2021
834 Clear 33 1012 13 10000 3.09 160 18:21 31.03.2021
835 Clear 34 1012 13 10000 3.6 150 17:37 31.03.2021
836 Clear 34 1012 13 10000 3.6 150 17:18 31.03.2021
837 Clear 35 1013 9 10000 2.57 160 16:48 31.03.2021
838 Clear 35 1013 9 10000 2.57 160 16:29 31.03.2021
839 Clear 35 1013 8 10000 4.63 160 15:50 31.03.2021
840 Clear 35 1013 8 10000 4.63 160 15:20 31.03.2021
841 Clear 35 1013 8 10000 4.12 160 14:46 31.03.2021
842 Clear 35 1013 8 10000 4.12 160 14:24 31.03.2021
843 Clear 35 1013 8 10000 4.12 160 14:24 31.03.2021
844 Clear 35 1013 8 10000 4.63 170 13:43 31.03.2021
845 Clear 33 1014 9 10000 4.63 160 13:19 31.03.2021
846 Clear 33 1014 9 10000 4.63 160 12:37 31.03.2021
847 Clear 33 1014 9 10000 4.63 160 12:18 31.03.2021
848 Clear 31 1015 10 10000 4.63 160 11:22 31.03.2021
849 Clear 29 1016 11 10000 5.14 160 10:48 31.03.2021
850 Clear 29 1016 11 10000 5.14 160 10:27 31.03.2021
851 Clear 28 1017 12 10000 6.17 160 09:45 31.03.2021
852 Clear 28 1017 12 10000 6.17 160 09:26 31.03.2021
853 Clear 26 1017 13 10000 6.17 160 08:41 31.03.2021
854 Clear 26 1017 13 10000 6.17 160 08:21 31.03.2021
855 Clear 23 1017 14 10000 4.63 160 07:19 31.03.2021
856 Clear 19 1014 18 10000 1.54 140 04:34 31.03.2021
857 Clear 20 1015 21 10000 2.06 140 02:32 31.03.2021
858 Clear 22 1016 15 10000 2.06 140 00:54 31.03.2021
859 Clear 22 1016 15 10000 2.06 140 00:22 31.03.2021
860 Clear 22 1016 17 10000 2.06 130 23:54 30.03.2021
861 Clear 22 1016 17 10000 2.06 130 23:22 30.03.2021
862 Clear 23 1016 17 10000 2.06 140 22:49 30.03.2021
863 Clear 23 1016 17 10000 2.06 140 22:49 30.03.2021
864 Clear 23 1016 17 10000 2.06 140 22:30 30.03.2021
865 Clear 23 1016 17 10000 2.57 130 21:56 30.03.2021
866 Clear 23 1016 17 10000 2.57 130 21:25 30.03.2021
867 Clear 25 1016 15 10000 2.57 100 20:58 30.03.2021
868 Clear 25 1016 15 10000 2.57 100 20:30 30.03.2021
869 Clear 26 1016 14 10000 3.09 110 19:55 30.03.2021
870 Clear 26 1016 14 10000 3.09 110 19:36 30.03.2021
871 Clear 27 1015 10 10000 3.6 110 18:47 30.03.2021
872 Clear 27 1015 10 10000 3.6 110 18:24 30.03.2021
873 Clear 28 1015 10 10000 3.09 130 17:45 30.03.2021
874 Clear 28 1015 10 10000 3.09 130 17:26 30.03.2021
875 Clear 28 1015 9 10000 2.06 140 16:46 30.03.2021
876 Clear 28 1015 9 10000 2.06 140 16:25 30.03.2021
877 Clear 29 1015 8 10000 2.57 140 15:36 30.03.2021
878 Clear 29 1015 8 10000 2.57 140 15:18 30.03.2021
879 Clear 29 1015 8 10000 2.06 130 14:43 30.03.2021
880 Clear 29 1015 8 10000 2.06 130 14:19 30.03.2021
881 Clear 28 1016 8 10000 4.12 110 13:44 30.03.2021
882 Clear 27 1017 10 10000 2.06 70 12:58 30.03.2021
883 Clear 27 1017 10 10000 2.06 70 12:39 30.03.2021
884 Clear 27 1017 10 10000 2.06 70 12:20 30.03.2021
885 Clear 25 1018 9 10000 2.57 50 11:40 30.03.2021
886 Clear 25 1018 9 10000 2.57 50 11:18 30.03.2021
887 Clear 24 1019 9 10000 4.12 20 10:40 30.03.2021
888 Clear 24 1019 9 10000 4.12 20 10:18 30.03.2021
889 Clear 21 1020 10 10000 3.6 10 09:38 30.03.2021
890 Clear 21 1020 10 10000 3.6 10 09:20 30.03.2021
891 Clear 20 1020 10 10000 4.12 10 08:40 30.03.2021
892 Clear 19 1019 11 10000 4.63 10 07:53 30.03.2021
893 Clear 19 1019 11 10000 4.63 10 07:23 30.03.2021
894 Clear 17 1019 12 10000 3.09 360 06:19 30.03.2021
895 Clear 15 1018 14 10000 2.8 78 05:24 30.03.2021
896 Clear 17 1019 24 10000 2.57 30 01:29 30.03.2021
897 Clear 19 1020 21 10000 2.06 30 23:52 29.03.2021
898 Clear 19 1020 21 10000 2.06 30 23:18 29.03.2021
899 Clear 19 1020 18 10000 2.57 30 22:35 29.03.2021
900 Clear 21 1020 16 10000 3.09 40 21:55 29.03.2021
901 Clear 21 1020 16 10000 3.09 40 21:33 29.03.2021
902 Clear 21 1019 13 10000 3.6 40 20:50 29.03.2021
903 Clear 21 1019 13 10000 3.6 40 20:29 29.03.2021
904 Clear 22 1019 11 10000 4.12 50 19:52 29.03.2021
905 Clear 22 1019 11 10000 4.12 50 19:27 29.03.2021
906 Clear 23 1018 11 8000 5.66 40 18:51 29.03.2021
907 Clear 23 1018 11 8000 5.66 40 18:27 29.03.2021
908 Clear 25 1018 10 8000 5.66 30 17:55 29.03.2021
909 Clear 25 1018 10 8000 5.66 30 17:33 29.03.2021
910 Clear 25 1018 9 10000 6.69 10 16:52 29.03.2021
911 Clear 25 1018 9 10000 6.69 10 16:25 29.03.2021
912 Clear 26 1018 8 10000 6.17 10 15:40 29.03.2021
913 Clear 26 1018 8 10000 6.17 10 15:22 29.03.2021
914 Clear 25 1018 9 10000 5.66 360 14:47 29.03.2021
915 Clear 25 1019 9 10000 5.66 360 13:56 29.03.2021
916 Clear 25 1019 9 10000 5.66 360 13:37 29.03.2021
917 Clear 24 1020 9 10000 6.69 360 12:59 29.03.2021
918 Clear 24 1020 9 10000 6.69 360 12:40 29.03.2021
919 Clear 23 1021 9 10000 6.69 360 11:46 29.03.2021
920 Clear 23 1021 9 10000 6.69 360 11:27 29.03.2021
921 Clear 21 1022 11 10000 6.69 10 10:46 29.03.2021
922 Clear 21 1022 11 10000 6.69 10 10:21 29.03.2021
923 Clear 20 1023 12 10000 7.72 360 09:32 29.03.2021
924 Clear 18 1023 14 10000 7.72 10 08:35 29.03.2021
925 Clear 16 1023 16 10000 7.2 360 07:54 29.03.2021
926 Clear 16 1023 16 10000 7.2 360 07:19 29.03.2021
927 Clear 15 1022 18 10000 7.2 350 06:23 29.03.2021
928 Clear 16 1020 20 10000 3.09 150 02:34 29.03.2021
929 Clear 17 1021 20 10000 3.09 150 00:30 29.03.2021
930 Clear 18 1022 19 10000 4.12 360 23:59 28.03.2021
931 Clear 18 1022 19 10000 4.12 360 23:25 28.03.2021
932 Clear 18 1022 19 10000 4.12 360 22:48 28.03.2021
933 Clear 18 1022 19 10000 4.12 360 22:29 28.03.2021
934 Clear 19 1022 19 10000 3.6 360 21:47 28.03.2021
935 Clear 19 1022 19 10000 3.6 360 21:25 28.03.2021
936 Clear 20 1021 18 10000 3.6 20 20:56 28.03.2021
937 Clear 20 1021 18 10000 3.6 20 20:38 28.03.2021
938 Clear 20 1021 18 10000 3.6 20 20:18 28.03.2021
939 Clear 20 1021 15 8000 4.63 150 19:41 28.03.2021
940 Clear 20 1021 15 8000 4.63 150 19:21 28.03.2021
941 Clear 21 1020 13 7000 5.14 150 18:49 28.03.2021
942 Clear 21 1020 13 7000 5.14 150 18:22 28.03.2021
943 Clear 23 1019 9 7000 6.69 360 17:42 28.03.2021
944 Clear 23 1019 9 7000 6.69 360 17:20 28.03.2021
945 Clear 24 1019 9 7000 6.69 360 16:41 28.03.2021
946 Clear 24 1019 9 7000 6.69 360 16:21 28.03.2021
947 Clear 24 1019 9 6000 6.17 10 15:25 28.03.2021
948 Dust 24 1019 9 4000 6.69 20 14:50 28.03.2021
949 Dust 24 1019 9 4000 6.69 20 14:26 28.03.2021
950 Dust 25 1019 8 3500 6.17 10 13:38 28.03.2021
951 Dust 22 1020 9 3500 7.72 360 12:59 28.03.2021
952 Dust 22 1020 9 3500 7.72 360 12:35 28.03.2021
953 Dust 21 1021 11 5000 7.2 10 11:59 28.03.2021
954 Dust 21 1021 11 5000 7.2 10 11:38 28.03.2021
955 Dust 20 1022 10 5000 7.2 360 10:55 28.03.2021
956 Dust 20 1022 10 5000 7.2 360 10:32 28.03.2021
957 Dust 19 1023 11 5000 9.77 360 09:56 28.03.2021
958 Dust 19 1023 11 5000 9.77 360 09:28 28.03.2021
959 Dust 17 1023 14 5000 8.23 360 08:56 28.03.2021
960 Dust 17 1023 14 5000 8.23 360 08:35 28.03.2021
961 Clear 16 1022 20 8000 8.75 360 07:43 28.03.2021
962 Clear 16 1022 25 8000 7.72 360 06:22 28.03.2021
963 Clear 21 1019 21 7000 6.69 20 03:50 28.03.2021
964 Dust 22 1019 20 5000 6.69 20 00:45 28.03.2021
965 Dust 23 1019 18 5000 8.75 360 23:59 27.03.2021
966 Dust 23 1019 18 5000 8.75 360 23:36 27.03.2021
967 Dust 24 1019 18 5000 8.75 360 22:49 27.03.2021
968 Dust 24 1019 18 5000 8.75 360 22:30 27.03.2021
969 Dust 25 1018 15 5000 8.23 150 21:45 27.03.2021
970 Dust 25 1018 15 5000 8.23 150 21:21 27.03.2021
971 Dust 25 1018 15 5000 8.23 150 21:21 27.03.2021
972 Dust 24 1019 19 2000 8.23 10 20:59 27.03.2021
973 Dust 24 1019 19 2000 8.23 10 20:37 27.03.2021
974 Clouds 28 1017 18 7000 9.26 360 19:59 27.03.2021
975 Clear 28 1017 18 7000 9.26 360 19:40 27.03.2021
976 Clouds 28 1017 18 7000 9.26 360 19:22 27.03.2021
977 Clouds 29 1017 20 7000 8.23 360 18:47 27.03.2021
978 Clouds 29 1017 20 7000 8.23 360 18:22 27.03.2021
979 Clouds 30 1016 19 7000 8.75 350 17:37 27.03.2021
980 Clear 30 1016 19 7000 8.75 350 17:18 27.03.2021
981 Clear 31 1015 19 7000 8.75 360 16:46 27.03.2021
982 Clear 31 1015 19 7000 8.75 360 16:25 27.03.2021
983 Clear 32 1014 16 7000 8.23 350 15:45 27.03.2021
984 Clear 33 1014 16 7000 8.23 350 15:19 27.03.2021
985 Clear 35 1014 14 7000 8.23 340 14:42 27.03.2021
986 Clear 35 1014 14 7000 8.23 330 13:39 27.03.2021
987 Clear 35 1014 14 7000 8.23 330 13:19 27.03.2021
988 Clear 35 1014 14 7000 7.72 340 12:43 27.03.2021
989 Clear 37 1014 8 8000 6.17 230 11:51 27.03.2021
990 Clear 37 1014 8 8000 6.17 230 11:32 27.03.2021
991 Clear 36 1015 8 10000 3.6 260 10:57 27.03.2021
992 Clear 36 1015 8 10000 3.6 260 10:38 27.03.2021
993 Clear 35 1015 8 10000 5.66 230 09:58 27.03.2021
994 Clear 35 1015 8 10000 5.66 230 09:21 27.03.2021
995 Clear 34 1015 9 10000 6.69 220 08:40 27.03.2021
996 Clear 32 1015 11 10000 4.63 200 07:52 27.03.2021
997 Clear 32 1015 11 10000 4.63 200 07:18 27.03.2021
998 Clear 29 1014 13 10000 1.03 0 06:42 27.03.2021
999 Clear 25 1013 18 10000 3.09 140 04:42 27.03.2021
1000 Clear 26 1011 19 10000 4.63 160 02:45 27.03.2021
1001 Clear 28 1012 16 10000 4.63 160 00:44 27.03.2021
1002 Clear 28 1012 16 10000 4.63 160 00:25 27.03.2021
1003 Clear 29 1012 15 10000 5.66 170 23:37 26.03.2021
1004 Clear 30 1012 13 10000 5.66 180 22:40 26.03.2021
1005 Clear 30 1012 13 10000 5.66 180 22:40 26.03.2021
1006 Clear 31 1013 13 9000 4.63 170 21:53 26.03.2021
1007 Clear 31 1013 13 9000 4.63 170 21:24 26.03.2021
1008 Clear 31 1012 11 9000 4.63 160 20:57 26.03.2021
1009 Clear 31 1012 11 9000 4.63 160 20:31 26.03.2021
1010 Clear 32 1011 12 9000 3.6 150 19:52 26.03.2021
1011 Clear 32 1011 12 9000 3.6 150 19:33 26.03.2021
1012 Clear 33 1011 11 8500 4.63 160 18:55 26.03.2021
1013 Clear 33 1011 11 8500 4.63 160 18:36 26.03.2021
1014 Clear 33 1011 11 8500 4.63 160 18:18 26.03.2021
1015 Clear 34 1011 10 9000 4.12 160 17:41 26.03.2021
1016 Clear 36 1011 10 7000 4.63 150 16:50 26.03.2021
1017 Clear 36 1011 10 7000 4.63 150 16:23 26.03.2021
1018 Clear 37 1012 10 7000 5.14 160 15:42 26.03.2021
1019 Clear 36 1012 11 7000 5.66 160 14:50 26.03.2021
1020 Clear 35 1013 13 7000 5.66 170 13:52 26.03.2021
1021 Clear 35 1013 13 7000 5.66 170 13:33 26.03.2021
1022 Clear 34 1014 17 7000 3.6 160 12:46 26.03.2021
1023 Clear 32 1015 22 6000 2.57 140 11:50 26.03.2021
1024 Clear 32 1015 22 6000 2.57 140 11:31 26.03.2021
1025 Clear 28 1016 29 6000 2.06 110 10:44 26.03.2021
1026 Clear 28 1016 29 6000 2.06 110 10:24 26.03.2021
1027 Clear 26 1017 33 6000 4.12 50 09:41 26.03.2021
1028 Clear 23 1017 13 6000 3.09 50 08:51 26.03.2021
1029 Clear 23 1017 13 6000 3.09 50 08:31 26.03.2021
1030 Dust 22 1017 40 5000 3.09 50 07:58 26.03.2021
1031 Dust 20 1016 42 4000 3.09 60 07:22 26.03.2021
1032 Dust 19 1016 42 4000 3.09 60 06:57 26.03.2021
1033 Dust 19 1015 45 4000 1.54 30 05:33 26.03.2021
1034 Dust 20 1014 37 4000 2.57 80 04:43 26.03.2021
1035 Dust 24 1014 22 5000 4.63 60 01:36 26.03.2021
1036 Clear 25 1014 21 6000 3.09 70 00:23 26.03.2021
1037 Clear 27 1014 20 6000 3.6 90 23:42 25.03.2021
1038 Clear 28 1014 16 6000 5.14 80 22:50 25.03.2021
1039 Clear 28 1014 16 6000 5.14 80 22:27 25.03.2021
1040 Clear 30 1013 14 6000 4.12 100 21:49 25.03.2021
1041 Clear 30 1013 14 6000 4.12 100 21:29 25.03.2021
1042 Clear 31 1013 12 6000 4.12 120 20:41 25.03.2021
1043 Clear 31 1013 12 6000 4.12 120 20:23 25.03.2021
1044 Clear 33 1012 11 6000 5.14 100 19:43 25.03.2021
1045 Clear 33 1012 11 6000 5.14 100 19:24 25.03.2021
1046 Clear 33 1011 10 10000 3.09 140 18:46 25.03.2021
1047 Clear 34 1011 10 10000 3.09 140 18:26 25.03.2021
1048 Clear 35 1011 12 10000 3.09 170 17:43 25.03.2021
1049 Clear 35 1011 12 10000 3.09 170 17:24 25.03.2021
1050 Clear 37 1011 9 10000 4.12 190 16:47 25.03.2021
1051 Clear 37 1011 9 10000 4.12 190 16:28 25.03.2021
1052 Clear 38 1010 8 10000 3.6 200 15:43 25.03.2021
1053 Clear 38 1010 8 10000 3.6 200 15:19 25.03.2021
1054 Clear 38 1010 6 10000 4.12 210 14:43 25.03.2021
1055 Clear 38 1010 7 10000 3.6 220 13:48 25.03.2021
1056 Clear 38 1010 7 10000 3.6 220 13:23 25.03.2021
1057 Clear 38 1010 7 10000 4.12 180 12:42 25.03.2021
1058 Clear 38 1010 7 10000 4.12 180 12:20 25.03.2021
1059 Clear 37 1012 6 10000 4.63 190 11:52 25.03.2021
1060 Clear 37 1012 6 10000 4.63 190 11:30 25.03.2021
1061 Clear 36 1013 7 10000 4.63 210 10:54 25.03.2021
1062 Clear 36 1013 7 10000 4.63 210 10:25 25.03.2021
1063 Clear 35 1013 8 10000 3.6 210 09:57 25.03.2021
1064 Clear 35 1013 8 10000 3.6 210 09:38 25.03.2021
1065 Clear 34 1014 8 10000 1.54 190 08:57 25.03.2021
1066 Clear 34 1014 8 10000 1.54 190 08:28 25.03.2021
1067 Clear 31 1014 10 10000 2.57 240 07:19 25.03.2021
1068 Clear 29 1013 11 10000 4.85 210 06:26 25.03.2021
1069 Clear 25 1013 14 10000 2.06 280 05:49 25.03.2021
1070 Clear 26 1011 17 10000 2.06 200 03:55 25.03.2021
1071 Clear 30 1010 11 10000 4.12 170 00:34 25.03.2021
1072 Clear 30 1011 11 10000 4.12 180 23:53 24.03.2021
1073 Clear 30 1011 11 10000 4.12 180 23:30 24.03.2021
1074 Clear 31 1011 10 10000 4.63 180 22:50 24.03.2021
1075 Clear 31 1011 10 10000 4.63 180 22:28 24.03.2021
1076 Clear 32 1011 10 10000 4.63 170 21:46 24.03.2021
1077 Clear 32 1011 10 10000 4.63 170 21:24 24.03.2021
1078 Clear 33 1011 9 8000 5.14 180 20:45 24.03.2021
1079 Clear 33 1011 9 8000 5.14 180 20:20 24.03.2021
1080 Clear 34 1011 9 8000 5.66 170 19:49 24.03.2021
1081 Clouds 34 1011 9 8000 5.66 170 19:29 24.03.2021
1082 Clear 34 1011 9 8000 5.66 170 19:29 24.03.2021
1083 Clear 34 1010 9 8000 5.66 180 18:51 24.03.2021
1084 Clear 34 1010 9 8000 5.66 180 18:24 24.03.2021
1085 Clear 36 1010 8 8000 5.66 210 17:52 24.03.2021
1086 Clear 36 1010 8 8000 5.66 210 17:32 24.03.2021
1087 Clear 37 1009 9 9000 5.66 190 16:53 24.03.2021
1088 Clear 37 1009 9 9000 5.66 190 16:31 24.03.2021
1089 Clear 38 1009 9 10000 4.63 210 15:50 24.03.2021
1090 Clear 38 1009 9 10000 4.63 210 15:32 24.03.2021
1091 Clear 38 1010 7 10000 6.17 230 14:48 24.03.2021
1092 Clear 38 1010 7 10000 6.17 230 14:26 24.03.2021
1093 Clear 38 1010 7 10000 5.66 210 13:55 24.03.2021
1094 Clear 38 1010 7 10000 5.66 210 13:28 24.03.2021
1095 Clear 38 1011 8 10000 7.2 200 12:44 24.03.2021
1096 Clear 38 1011 8 10000 7.2 200 12:23 24.03.2021
1097 Clear 37 1012 7 10000 7.72 210 11:49 24.03.2021
1098 Clear 37 1013 6 10000 5.14 190 10:59 24.03.2021
1099 Clear 37 1013 6 10000 5.14 190 10:40 24.03.2021
1100 Clear 37 1013 6 10000 5.14 190 10:21 24.03.2021
1101 Clear 36 1014 7 10000 5.66 170 09:52 24.03.2021
1102 Clear 36 1014 7 10000 5.66 170 09:22 24.03.2021
1103 Clear 33 1015 8 10000 4.63 170 08:51 24.03.2021
1104 Clear 33 1015 8 10000 4.63 170 08:26 24.03.2021
1105 Clear 31 1015 9 10000 4.12 170 07:40 24.03.2021
1106 Clear 28 1015 11 10000 3.6 160 06:54 24.03.2021
1107 Clear 28 1015 11 10000 3.6 160 06:54 24.03.2021
1108 Clear 24 1014 13 10000 2.57 170 05:30 24.03.2021
1109 Clear 28 1014 11 10000 5.66 170 00:51 24.03.2021
1110 Clear 28 1014 11 10000 5.66 170 00:25 24.03.2021
1111 Clear 29 1014 11 10000 4.12 150 23:22 23.03.2021
1112 Clear 29 1014 12 10000 3.6 170 22:55 23.03.2021
1113 Clear 29 1014 12 10000 3.6 170 22:36 23.03.2021
1114 Clear 29 1014 11 10000 4.12 160 21:54 23.03.2021
1115 Clear 29 1014 11 10000 4.12 160 21:34 23.03.2021
1116 Clear 31 1014 11 10000 2.57 150 20:57 23.03.2021
1117 Clear 31 1014 11 10000 2.57 150 20:39 23.03.2021
1118 Clear 31 1014 11 10000 2.57 150 20:21 23.03.2021
1119 Clear 31 1014 12 10000 3.09 140 19:44 23.03.2021
1120 Clear 31 1014 12 10000 3.09 140 19:23 23.03.2021
1121 Clear 32 1013 10 10000 2.57 160 18:41 23.03.2021
1122 Clear 32 1013 10 10000 2.57 160 18:19 23.03.2021
1123 Clear 34 1013 9 10000 2.57 190 17:44 23.03.2021
1124 Clear 34 1013 9 10000 2.57 190 17:21 23.03.2021
1125 Clear 35 1013 8 10000 3.09 170 16:26 23.03.2021
1126 Clear 36 1013 7 9000 3.09 140 15:52 23.03.2021
1127 Clear 36 1013 7 9000 3.09 140 15:25 23.03.2021
1128 Clear 37 1013 6 9000 3.6 190 14:49 23.03.2021
1129 Clear 37 1013 6 9000 3.6 190 14:20 23.03.2021
1130 Clear 36 1013 7 9000 4.63 150 13:48 23.03.2021
1131 Clear 36 1013 7 9000 4.63 150 13:25 23.03.2021
1132 Clear 36 1014 7 9000 4.63 170 12:46 23.03.2021
1133 Clear 36 1014 7 9000 4.63 170 12:26 23.03.2021
1134 Clear 35 1015 7 9000 5.14 160 11:49 23.03.2021
1135 Clear 35 1015 7 9000 5.14 160 11:26 23.03.2021
1136 Clear 34 1016 8 9000 7.2 160 10:43 23.03.2021
1137 Clear 34 1016 8 9000 7.2 160 10:21 23.03.2021
1138 Clear 32 1017 8 10000 7.72 150 09:54 23.03.2021
1139 Clear 32 1017 8 10000 7.72 150 09:24 23.03.2021
1140 Clear 31 1018 9 10000 5.66 160 08:56 23.03.2021
1141 Clear 31 1018 9 10000 5.66 160 08:38 23.03.2021
1142 Clear 31 1018 9 10000 5.66 160 08:19 23.03.2021
1143 Clear 28 1017 11 10000 4.63 150 07:28 23.03.2021
1144 Clear 26 1017 11 10000 5.14 170 06:54 23.03.2021
1145 Clear 22 1016 20 10000 1.54 210 04:58 23.03.2021
1146 Clear 23 1016 18 10000 2.57 170 03:19 23.03.2021
1147 Clear 26 1017 14 10000 4.12 100 23:57 22.03.2021
1148 Clear 26 1017 14 10000 4.12 100 23:21 22.03.2021
1149 Clear 27 1017 16 10000 4.12 90 22:44 22.03.2021
1150 Clear 27 1017 16 10000 4.12 90 22:21 22.03.2021
1151 Clear 28 1017 13 10000 4.12 70 21:50 22.03.2021
1152 Clear 28 1017 13 10000 4.12 70 21:27 22.03.2021
1153 Clear 29 1017 12 10000 3.6 50 20:49 22.03.2021
1154 Clear 29 1017 12 10000 3.6 50 20:29 22.03.2021
1155 Clear 30 1016 14 10000 2.57 50 19:58 22.03.2021
1156 Clear 30 1016 14 10000 2.57 50 19:40 22.03.2021
1157 Clear 30 1016 14 10000 2.57 50 19:21 22.03.2021
1158 Clear 31 1015 11 10000 2.57 30 18:42 22.03.2021
1159 Clear 31 1015 11 10000 2.57 30 18:22 22.03.2021
1160 Clear 32 1014 10 10000 2.57 10 17:50 22.03.2021
1161 Clear 32 1014 10 10000 2.57 10 17:22 22.03.2021
1162 Clear 34 1014 10 10000 2.57 280 16:55 22.03.2021
1163 Clear 34 1014 10 10000 2.57 280 16:37 22.03.2021
1164 Clear 34 1014 10 10000 4.12 260 15:43 22.03.2021
1165 Clear 35 1014 7 9000 4.63 270 15:23 22.03.2021
1166 Clear 35 1014 7 9000 4.63 270 14:58 22.03.2021
1167 Clear 35 1014 7 9000 4.63 270 14:34 22.03.2021
1168 Clear 35 1014 7 9000 2.57 260 13:52 22.03.2021
1169 Clear 35 1014 7 9000 2.57 260 13:33 22.03.2021
1170 Clear 34 1014 8 9000 4.63 300 12:59 22.03.2021
1171 Clear 34 1014 8 9000 4.63 300 12:27 22.03.2021
1172 Clear 34 1015 8 9000 5.66 280 11:57 22.03.2021
1173 Clear 34 1015 8 9000 5.66 280 11:39 22.03.2021
1174 Clear 34 1015 8 9000 5.66 280 11:20 22.03.2021
1175 Clear 33 1016 9 9000 7.72 250 10:41 22.03.2021
1176 Clear 33 1016 9 9000 7.72 250 10:18 22.03.2021
1177 Clear 32 1017 9 8000 6.69 240 09:36 22.03.2021
1178 Clear 31 1017 10 9000 6.17 240 08:57 22.03.2021
1179 Clear 31 1017 10 9000 6.17 240 08:57 22.03.2021
1180 Clear 31 1017 10 9000 6.17 240 08:39 22.03.2021
1181 Clear 31 1017 10 9000 6.17 240 08:20 22.03.2021
1182 Clear 29 1017 11 10000 7.2 230 07:42 22.03.2021
1183 Clear 26 1017 13 10000 3.09 230 06:52 22.03.2021
1184 Clear 21 1016 18 10000 1.03 230 05:18 22.03.2021
1185 Clear 24 1013 20 10000 2.57 140 00:55 22.03.2021
1186 Clear 24 1013 20 10000 2.57 140 00:21 22.03.2021
1187 Clear 25 1014 19 10000 2.57 170 23:48 21.03.2021
1188 Clear 25 1014 19 10000 2.57 170 23:19 21.03.2021
1189 Clear 27 1014 18 10000 2.57 170 22:54 21.03.2021
1190 Clear 27 1014 12 10000 4.12 150 21:45 21.03.2021
1191 Clear 27 1014 12 10000 4.12 150 21:27 21.03.2021
1192 Clear 28 1014 10 10000 4.12 150 20:57 21.03.2021
1193 Clear 28 1014 10 10000 4.12 150 20:39 21.03.2021
1194 Clear 28 1014 10 10000 4.12 150 20:21 21.03.2021
1195 Clear 28 1014 10 10000 4.12 150 19:48 21.03.2021
1196 Clear 28 1014 10 10000 4.12 150 19:20 21.03.2021
1197 Clear 29 1014 10 10000 1.54 120 18:44 21.03.2021
1198 Clear 29 1014 10 10000 1.54 120 18:25 21.03.2021
1199 Clear 30 1013 8 10000 1.03 0 17:43 21.03.2021
1200 Clear 30 1013 8 10000 1.03 0 17:19 21.03.2021
1201 Clear 32 1013 9 10000 1.03 0 16:51 21.03.2021
1202 Clear 32 1013 9 10000 1.03 0 16:27 21.03.2021
1203 Clear 33 1013 8 10000 3.6 210 15:48 21.03.2021
1204 Clear 33 1013 8 10000 3.6 210 15:22 21.03.2021
1205 Clear 33 1013 8 10000 3.09 250 14:56 21.03.2021
1206 Clear 33 1013 8 10000 3.09 250 14:38 21.03.2021
1207 Clear 33 1013 8 10000 3.09 250 14:19 21.03.2021
1208 Clear 33 1013 8 10000 3.09 270 13:51 21.03.2021
1209 Clear 32 1014 9 10000 2.57 260 12:45 21.03.2021
1210 Clear 32 1014 9 10000 2.57 260 12:25 21.03.2021
1211 Clear 32 1014 9 10000 2.57 260 12:25 21.03.2021
1212 Clear 31 1015 11 10000 2.06 210 11:44 21.03.2021
1213 Clear 31 1015 11 10000 2.06 210 11:26 21.03.2021
1214 Clear 30 1016 13 10000 2.57 200 10:48 21.03.2021
1215 Clear 30 1016 13 10000 2.57 200 10:29 21.03.2021
1216 Clear 28 1017 15 10000 3.09 180 09:51 21.03.2021
1217 Clear 28 1017 15 10000 3.09 180 09:32 21.03.2021
1218 Clear 26 1018 17 10000 2.06 150 08:59 21.03.2021
1219 Clear 26 1018 17 10000 2.06 150 08:37 21.03.2021
1220 Clear 26 1018 17 10000 2.06 150 08:19 21.03.2021
1221 Clear 24 1018 19 10000 2.06 0 07:29 21.03.2021
1222 Clear 22 1017 23 10000 1.54 170 06:21 21.03.2021
1223 Clear 16 1017 29 10000 1.38 45 04:56 21.03.2021
1224 Clear 18 1016 26 10000 1.69 37 00:58 21.03.2021
1225 Clear 18 1016 26 10000 1.69 37 00:39 21.03.2021
1226 Clear 18 1016 26 10000 2.02 32 00:20 21.03.2021
1227 Clear 18 1018 39 10000 2.02 32 23:45 20.03.2021
1228 Clear 18 1018 39 10000 2.47 35 23:20 20.03.2021
1229 Clear 21 1018 28 10000 2.57 50 22:24 20.03.2021
1230 Clear 22 1018 25 10000 2.57 50 21:51 20.03.2021
1231 Clear 22 1018 25 10000 2.57 50 21:33 20.03.2021
1232 Clear 22 1018 25 10000 2.57 50 20:58 20.03.2021
1233 Clear 22 1018 25 10000 2.57 50 20:39 20.03.2021
1234 Clear 22 1018 25 10000 2.57 50 20:21 20.03.2021
1235 Clear 24 1016 20 10000 3.09 50 19:41 20.03.2021
1236 Clear 24 1016 20 10000 3.09 50 19:22 20.03.2021
1237 Clear 25 1016 20 10000 3.09 50 18:45 20.03.2021
1238 Clear 25 1016 20 10000 3.09 50 18:45 20.03.2021
1239 Clear 25 1016 20 10000 3.09 50 18:21 20.03.2021
1240 Clear 26 1016 12 10000 4.63 30 17:44 20.03.2021
1241 Clear 26 1016 12 10000 4.63 30 17:23 20.03.2021
1242 Clear 27 1016 12 10000 4.63 30 16:44 20.03.2021
1243 Clear 27 1016 12 10000 4.63 30 16:20 20.03.2021
1244 Clear 28 1016 11 10000 5.14 20 15:49 20.03.2021
1245 Clear 28 1016 11 10000 5.14 20 15:29 20.03.2021
1246 Clear 29 1016 10 10000 4.12 40 14:42 20.03.2021
1247 Clear 29 1016 10 10000 4.12 40 14:22 20.03.2021
1248 Clear 29 1016 10 10000 3.6 60 13:32 20.03.2021
1249 Clear 29 1016 10 10000 3.6 50 12:44 20.03.2021
1250 Clear 29 1016 10 10000 3.6 50 12:25 20.03.2021
1251 Clear 28 1017 10 10000 5.66 40 11:44 20.03.2021
1252 Clear 28 1017 10 10000 5.66 40 11:23 20.03.2021
1253 Clear 28 1018 11 10000 5.14 30 10:47 20.03.2021
1254 Clear 28 1018 11 10000 5.14 30 10:25 20.03.2021
1255 Clear 27 1019 12 10000 4.12 60 09:53 20.03.2021
1256 Clear 27 1019 12 10000 4.12 60 09:26 20.03.2021
1257 Clear 24 1017 29 10000 3.6 40 08:55 20.03.2021
1258 Clear 24 1017 29 10000 3.6 40 08:27 20.03.2021
1259 Clear 23 1017 28 10000 3.6 40 07:49 20.03.2021
1260 Clear 23 1017 28 10000 3.6 40 07:49 20.03.2021
1261 Clear 23 1017 28 10000 3.6 40 07:29 20.03.2021
1262 Clear 21 1017 28 10000 3.6 40 06:46 20.03.2021
1263 Clear 20 1017 28 10000 2.57 40 05:30 20.03.2021
1264 Clear 20 1017 26 10000 2.06 40 03:46 20.03.2021
1265 Clear 19 1016 34 10000 1.54 30 02:40 20.03.2021
1266 Clear 20 1016 28 8000 1.54 50 23:48 19.03.2021
1267 Clear 20 1016 28 8000 1.54 50 23:22 19.03.2021
1268 Clear 21 1016 24 7000 4.63 60 22:45 19.03.2021
1269 Clear 21 1016 24 7000 4.63 60 22:25 19.03.2021
1270 Clear 22 1016 24 7000 5.66 50 21:51 19.03.2021
1271 Clear 24 1015 24 10000 3.09 50 21:21 19.03.2021
1272 Clear 26 1015 24 10000 3.09 50 20:46 19.03.2021
1273 Clear 26 1015 24 10000 3.09 50 20:27 19.03.2021
1274 Clear 26 1015 24 10000 3.09 50 20:27 19.03.2021
1275 Clear 27 1014 21 10000 3.6 60 19:52 19.03.2021
1276 Clear 27 1014 21 10000 3.6 60 19:25 19.03.2021
1277 Clear 28 1014 21 9000 3.6 60 18:58 19.03.2021
1278 Clear 28 1014 21 9000 3.6 60 18:36 19.03.2021
1279 Clear 28 1014 21 9000 3.6 60 18:18 19.03.2021
1280 Clear 30 1013 20 8000 4.12 90 17:48 19.03.2021
1281 Clear 30 1013 20 8000 4.12 90 17:23 19.03.2021
1282 Clear 31 1012 18 10000 4.63 110 16:44 19.03.2021
1283 Clear 31 1012 18 10000 4.63 110 16:26 19.03.2021
1284 Clear 32 1013 19 10000 2.57 120 15:34 19.03.2021
1285 Clear 33 1013 18 10000 2.57 130 14:56 19.03.2021
1286 Clear 33 1013 18 10000 2.57 130 14:35 19.03.2021
1287 Clear 32 1014 22 10000 1.54 110 13:59 19.03.2021
1288 Clear 32 1014 22 10000 1.54 110 13:24 19.03.2021
1289 Clear 31 1014 25 10000 2.57 110 12:48 19.03.2021
1290 Clear 31 1014 25 10000 2.57 110 12:29 19.03.2021
1291 Clear 30 1015 23 10000 2.06 100 11:36 19.03.2021
1292 Clear 28 1016 30 9000 2.06 100 10:53 19.03.2021
1293 Clear 28 1016 30 9000 2.06 100 10:25 19.03.2021
1294 Clear 24 1017 33 8000 4.12 50 09:46 19.03.2021
1295 Clear 24 1017 33 8000 4.12 50 09:26 19.03.2021
1296 Clear 23 1017 33 8000 4.12 50 08:52 19.03.2021
1297 Clear 23 1017 33 8000 4.12 50 08:29 19.03.2021
1298 Clear 23 1017 33 7000 3.09 70 07:50 19.03.2021
1299 Clear 23 1017 33 7000 3.09 70 07:32 19.03.2021
1300 Clear 21 1016 35 6000 2.57 50 06:36 19.03.2021
1301 Clear 23 1014 38 8000 5.14 340 02:37 19.03.2021
1302 Clouds 30 1013 13 6000 6.17 350 23:57 18.03.2021
1303 Clouds 30 1013 13 6000 6.17 350 23:30 18.03.2021
1304 Clouds 30 1013 13 6000 6.17 350 23:30 18.03.2021
1305 Clouds 30 1013 13 7000 6.17 350 22:58 18.03.2021
1306 Clouds 30 1013 13 7000 6.17 350 22:27 18.03.2021
1307 Clouds 31 1013 13 7000 6.17 350 21:56 18.03.2021
1308 Clouds 31 1013 13 7000 6.17 350 21:38 18.03.2021
1309 Clouds 32 1013 13 7000 6.17 350 20:43 18.03.2021
1310 Clouds 32 1013 13 7000 6.17 350 20:23 18.03.2021
1311 Clouds 34 1010 8 10000 5.66 210 19:45 18.03.2021
1312 Clouds 34 1010 8 10000 5.66 210 19:24 18.03.2021
1313 Clouds 34 1010 8 10000 5.66 210 18:53 18.03.2021
1314 Clouds 34 1010 8 10000 5.66 210 18:27 18.03.2021
1315 Clouds 35 1010 8 10000 5.66 210 17:47 18.03.2021
1316 Clouds 35 1010 8 10000 5.66 210 17:25 18.03.2021
1317 Clouds 36 1010 7 10000 5.66 200 16:44 18.03.2021
1318 Clouds 36 1010 7 10000 5.66 200 16:23 18.03.2021
1319 Clear 37 1010 10 8000 6.69 250 15:43 18.03.2021
1320 Clear 37 1010 10 8000 6.69 250 15:23 18.03.2021
1321 Clear 37 1010 10 8000 6.69 250 15:23 18.03.2021
1322 Clear 37 1010 7 8000 6.17 220 14:52 18.03.2021
1323 Clear 37 1010 7 8000 6.17 220 14:29 18.03.2021
1324 Clear 37 1010 7 8000 7.72 230 13:49 18.03.2021
1325 Clear 37 1010 7 8000 7.72 230 13:26 18.03.2021
1326 Clear 37 1011 7 8000 7.72 250 12:42 18.03.2021
1327 Clear 37 1011 7 8000 7.72 250 12:24 18.03.2021
1328 Clear 36 1012 7 8000 8.23 230 11:51 18.03.2021
1329 Clear 36 1012 7 8000 8.23 230 11:31 18.03.2021
1330 Clear 35 1013 8 8000 7.2 240 10:44 18.03.2021
1331 Clear 35 1013 8 8000 7.2 240 10:25 18.03.2021
1332 Clear 34 1014 8 8000 8.75 240 09:54 18.03.2021
1333 Clear 34 1014 8 8000 8.75 240 09:28 18.03.2021
1334 Clear 33 1014 8 10000 8.23 230 08:47 18.03.2021
1335 Clear 33 1014 8 10000 8.23 230 08:29 18.03.2021
1336 Clear 31 1014 11 10000 3.09 270 07:51 18.03.2021
1337 Clear 31 1014 11 10000 3.09 270 07:24 18.03.2021
1338 Clear 28 1013 14 10000 2.06 150 06:27 18.03.2021
1339 Clear 23 1013 21 10000 1.54 160 05:42 18.03.2021
1340 Clear 25 1012 27 10000 2 244 00:57 18.03.2021
1341 Clouds 27 1012 21 10000 2.06 170 23:58 17.03.2021
1342 Clouds 30 1014 19 10000 2.57 240 22:47 17.03.2021
1343 Clouds 30 1014 19 10000 2.57 240 22:25 17.03.2021
1344 Clear 31 1012 18 10000 2.57 240 21:55 17.03.2021
1345 Clear 31 1012 18 10000 2.57 240 21:33 17.03.2021
1346 Clear 32 1012 8 10000 2.06 230 20:58 17.03.2021
1347 Clear 32 1012 8 10000 2.06 230 20:40 17.03.2021
1348 Clear 32 1012 8 10000 2.06 230 20:21 17.03.2021
1349 Clear 33 1011 8 10000 2.57 230 19:43 17.03.2021
1350 Clear 33 1011 8 10000 2.57 230 19:21 17.03.2021
1351 Clouds 34 1011 10 8000 3.09 220 18:52 17.03.2021
1352 Clouds 34 1011 10 8000 3.09 220 18:33 17.03.2021
1353 Clouds 35 1010 9 6000 4.12 210 17:46 17.03.2021
1354 Clouds 35 1010 9 6000 4.12 210 17:23 17.03.2021
1355 Dust 35 1010 8 4000 6.69 230 16:45 17.03.2021
1356 Dust 35 1010 8 4000 6.69 230 16:24 17.03.2021
1357 Dust 35 1010 8 4000 7.2 240 15:53 17.03.2021
1358 Dust 35 1010 8 4000 7.2 240 15:35 17.03.2021
1359 Dust 36 1010 7 4000 6.69 230 14:45 17.03.2021
1360 Dust 36 1010 7 4000 6.69 230 14:26 17.03.2021
1361 Dust 36 1010 7 4000 6.69 220 13:55 17.03.2021
1362 Dust 36 1010 7 4000 6.69 220 13:27 17.03.2021
1363 Dust 36 1011 7 4000 9.77 220 12:51 17.03.2021
1364 Dust 36 1011 7 4000 9.77 220 12:31 17.03.2021
1365 Clear 36 1011 7 6500 8.23 230 11:51 17.03.2021
1366 Clear 36 1011 7 6500 8.23 230 11:23 17.03.2021
1367 Clear 35 1012 8 10000 6.69 280 10:55 17.03.2021
1368 Clear 35 1012 8 10000 6.69 280 10:26 17.03.2021
1369 Clear 35 1012 8 10000 6.69 280 10:26 17.03.2021
1370 Clear 33 1013 9 10000 7.2 170 09:48 17.03.2021
1371 Clear 33 1013 9 10000 7.2 170 09:48 17.03.2021
1372 Clear 33 1013 9 10000 7.2 170 09:25 17.03.2021
1373 Clear 31 1014 11 10000 3.6 170 08:58 17.03.2021
1374 Clear 31 1014 11 10000 3.6 170 08:38 17.03.2021
1375 Clear 28 1014 15 10000 3.09 160 07:49 17.03.2021
1376 Clear 28 1014 15 10000 3.09 160 07:30 17.03.2021
1377 Clear 25 1014 18 9000 3.6 160 06:42 17.03.2021
1378 Clear 24 1011 23 8000 3.09 160 04:23 17.03.2021
1379 Clear 24 1011 23 8000 3.09 160 03:24 17.03.2021
1380 Clear 26 1012 21 8000 2.06 160 00:40 17.03.2021
1381 Clear 27 1013 19 8000 3.09 170 23:33 16.03.2021
1382 Clear 27 1013 21 8000 2.06 160 22:51 16.03.2021
1383 Clear 27 1013 21 8000 2.06 160 22:33 16.03.2021
1384 Clear 27 1013 21 8000 2.06 170 21:51 16.03.2021
1385 Clear 27 1013 21 8000 2.06 170 21:32 16.03.2021
1386 Clear 28 1013 23 8000 2.57 160 20:59 16.03.2021
1387 Clear 28 1013 23 8000 2.57 160 20:38 16.03.2021
1388 Clear 28 1013 23 8000 2.57 160 20:18 16.03.2021
1389 Clear 29 1013 19 8000 3.09 150 19:42 16.03.2021
1390 Clouds 29 1013 19 8000 3.09 150 19:23 16.03.2021
1391 Clouds 30 1012 18 8000 2.57 170 18:44 16.03.2021
1392 Clouds 30 1012 18 8000 2.57 170 18:26 16.03.2021
1393 Clouds 32 1012 14 8000 4.73 168 17:48 16.03.2021
1394 Clouds 32 1012 14 8000 4.73 168 17:30 16.03.2021
1395 Clouds 33 1012 13 8000 5.66 160 16:53 16.03.2021
1396 Clouds 33 1012 13 8000 5.66 160 16:30 16.03.2021
1397 Clouds 33 1012 13 10000 3.09 150 15:47 16.03.2021
1398 Clouds 33 1012 13 10000 3.09 150 15:21 16.03.2021
1399 Clouds 33 1012 10 10000 4.63 170 14:58 16.03.2021
1400 Clouds 33 1012 10 10000 4.63 170 14:40 16.03.2021
1401 Clouds 33 1012 10 10000 4.63 170 14:21 16.03.2021
1402 Clouds 34 1012 10 10000 4.12 160 13:54 16.03.2021
1403 Clouds 34 1012 10 10000 4.12 160 13:26 16.03.2021
1404 Clouds 34 1012 10 10000 3.6 210 12:53 16.03.2021
1405 Clouds 34 1012 10 10000 3.6 210 12:34 16.03.2021
1406 Clouds 32 1013 15 10000 4.12 190 11:54 16.03.2021
1407 Clouds 32 1013 15 10000 4.12 190 11:27 16.03.2021
1408 Clouds 31 1014 11 10000 3.6 180 10:44 16.03.2021
1409 Clouds 31 1014 11 10000 3.6 180 10:20 16.03.2021
1410 Clouds 31 1014 11 10000 3.6 180 10:20 16.03.2021
1411 Clouds 29 1015 12 10000 5.14 170 09:39 16.03.2021
1412 Clouds 29 1015 12 10000 5.14 170 09:18 16.03.2021
1413 Clouds 27 1015 12 10000 4.63 170 08:49 16.03.2021
1414 Clouds 27 1015 12 10000 4.63 170 08:31 16.03.2021
1415 Clouds 25 1015 13 10000 5.66 170 07:38 16.03.2021
1416 Clouds 23 1015 13 10000 5.66 160 06:57 16.03.2021
1417 Clouds 23 1015 13 10000 5.66 160 06:37 16.03.2021
1418 Clouds 21 1015 13 9000 4.63 160 05:35 16.03.2021
1419 Clouds 21 1014 13 7000 5.66 150 02:46 16.03.2021
1420 Clouds 21 1014 13 7000 5.66 150 02:25 16.03.2021
1421 Clouds 22 1014 13 6000 5.14 150 00:25 16.03.2021
1422 Clouds 22 1014 13 6000 5.14 150 00:25 16.03.2021
1423 Clouds 23 1015 12 7000 5.14 160 23:29 15.03.2021
1424 Clouds 24 1015 13 6000 5.14 150 22:57 15.03.2021
1425 Clouds 24 1015 13 6000 5.14 150 22:38 15.03.2021
1426 Clouds 24 1015 13 6000 5.14 150 22:20 15.03.2021
1427 Clouds 25 1014 13 6000 4.12 140 21:44 15.03.2021
1428 Clouds 25 1014 13 6000 4.12 140 21:26 15.03.2021
1429 Clouds 25 1014 12 6000 4.63 140 20:45 15.03.2021
1430 Clouds 25 1014 12 6000 4.63 140 20:26 15.03.2021
1431 Dust 27 1013 12 4000 5.14 150 19:57 15.03.2021
1432 Dust 27 1013 12 4000 5.14 150 19:38 15.03.2021
1433 Dust 27 1013 12 4000 5.14 150 19:19 15.03.2021
1434 Dust 28 1013 11 4000 5.66 140 18:40 15.03.2021
1435 Dust 28 1013 11 4000 5.66 140 18:22 15.03.2021
1436 Dust 29 1013 10 2500 6.69 150 17:43 15.03.2021
1437 Dust 29 1013 10 2500 6.69 150 17:22 15.03.2021
1438 Dust 29 1013 9 3000 6.17 140 16:43 15.03.2021
1439 Dust 30 1012 9 2000 7.72 140 15:56 15.03.2021
1440 Dust 30 1012 9 2000 7.72 140 15:28 15.03.2021
1441 Dust 30 1012 9 2000 7.72 150 14:55 15.03.2021
1442 Dust 30 1012 9 2000 7.72 150 14:36 15.03.2021
1443 Dust 30 1012 9 2000 7.72 150 14:18 15.03.2021
1444 Dust 31 1012 7 2000 8.23 150 13:41 15.03.2021
1445 Dust 31 1012 7 2000 8.23 150 13:23 15.03.2021
1446 Dust 30 1013 8 2000 7.2 160 12:45 15.03.2021
1447 Dust 30 1013 8 2000 7.2 160 12:18 15.03.2021
1448 Dust 30 1014 8 2000 7.72 140 11:41 15.03.2021
1449 Dust 30 1014 8 2000 7.72 140 11:21 15.03.2021
1450 Dust 28 1015 9 3000 8.23 150 10:41 15.03.2021
1451 Dust 28 1015 9 3000 8.23 150 10:22 15.03.2021
1452 Dust 27 1016 11 3000 4.63 170 09:41 15.03.2021
1453 Dust 27 1016 11 3000 4.63 170 09:21 15.03.2021
1454 Dust 24 1016 13 3000 4.12 150 08:45 15.03.2021
1455 Dust 24 1016 13 3000 4.12 150 08:22 15.03.2021
1456 Clear 22 1017 14 6000 3.6 170 07:40 15.03.2021
1457 Clear 22 1017 14 6000 3.6 170 07:22 15.03.2021
1458 Clear 19 1016 16 6000 4.12 170 05:37 15.03.2021
1459 Clear 18 1015 19 6000 4.12 160 03:20 15.03.2021
1460 Clouds 19 1016 24 6000 3.09 130 00:42 15.03.2021
1461 Dust 20 1016 21 4000 3.09 110 23:24 14.03.2021
1462 Dust 21 1016 21 4000 3.09 140 22:50 14.03.2021
1463 Dust 21 1016 21 4000 3.09 140 22:28 14.03.2021
1464 Dust 21 1016 21 4000 2.57 140 21:56 14.03.2021
1465 Dust 21 1016 21 4000 2.57 140 21:24 14.03.2021
1466 Dust 22 1015 21 4000 2.57 130 20:59 14.03.2021
1467 Dust 22 1015 21 4000 2.57 130 20:40 14.03.2021
1468 Dust 22 1015 21 4000 2.57 130 20:22 14.03.2021
1469 Dust 23 1015 20 4000 2.57 140 19:41 14.03.2021
1470 Dust 23 1015 20 4000 2.57 140 19:19 14.03.2021
1471 Dust 24 1015 19 4000 2.57 130 18:37 14.03.2021
1472 Dust 24 1015 16 4000 2.57 140 17:54 14.03.2021
1473 Dust 24 1015 16 4000 2.57 140 17:36 14.03.2021
1474 Dust 24 1015 16 4000 2.57 140 17:18 14.03.2021
1475 Dust 25 1015 16 3000 3.09 130 16:40 14.03.2021
1476 Dust 25 1015 16 3000 3.09 130 16:20 14.03.2021
1477 Dust 25 1015 13 2000 2.57 150 15:45 14.03.2021
1478 Dust 25 1015 13 1000 2.57 150 14:52 14.03.2021
1479 Dust 25 1015 13 1000 2.57 150 14:31 14.03.2021
1480 Dust 26 1015 12 2000 2.57 130 13:55 14.03.2021
1481 Dust 26 1015 12 2000 2.57 130 13:36 14.03.2021
1482 Dust 25 1016 12 2000 2.06 120 12:58 14.03.2021
1483 Dust 25 1016 12 2000 2.06 120 12:40 14.03.2021
1484 Dust 25 1016 12 2000 2.06 120 12:22 14.03.2021
1485 Dust 24 1017 15 2000 2.57 160 11:38 14.03.2021
1486 Dust 24 1017 15 2000 2.57 160 11:19 14.03.2021
1487 Dust 24 1018 15 2000 2.06 170 10:38 14.03.2021
1488 Dust 24 1018 15 2000 2.06 170 10:19 14.03.2021
1489 Dust 21 1019 18 3000 2.57 80 09:56 14.03.2021
1490 Dust 21 1019 18 3000 2.57 80 09:37 14.03.2021
1491 Dust 21 1019 18 3000 2.57 80 09:19 14.03.2021
1492 Dust 20 1020 19 4000 2.06 90 08:36 14.03.2021
1493 Dust 18 1020 20 4000 2.57 70 07:56 14.03.2021
1494 Dust 18 1020 20 4000 2.57 70 07:26 14.03.2021
1495 Dust 15 1019 23 4000 2.06 30 05:34 14.03.2021
1496 Dust 17 1017 36 3000 2.06 20 01:19 14.03.2021
1497 Dust 17 1017 36 3000 2.97 46 00:20 14.03.2021
1498 Dust 18 1018 32 2500 2.06 50 23:58 13.03.2021
1499 Dust 18 1018 32 2500 2.06 50 23:38 13.03.2021
1500 Dust 18 1018 32 2500 2.06 50 23:38 13.03.2021
1501 Dust 18 1018 32 2500 2.06 50 23:18 13.03.2021
1502 Dust 19 1019 30 1500 2.57 50 22:44 13.03.2021
1503 Dust 21 1019 24 1500 2.06 40 21:55 13.03.2021
1504 Dust 21 1019 24 1500 2.06 40 21:55 13.03.2021
1505 Dust 21 1019 24 1500 2.06 40 21:35 13.03.2021
1506 Dust 21 1018 24 1500 2.57 50 20:56 13.03.2021
1507 Dust 21 1018 24 1500 2.57 50 20:32 13.03.2021
1508 Dust 22 1018 23 1500 2.57 70 19:58 13.03.2021
1509 Dust 22 1018 23 1500 2.57 70 19:38 13.03.2021
1510 Dust 22 1018 23 1500 2.57 70 19:19 13.03.2021
1511 Dust 23 1017 23 1500 3.09 60 18:40 13.03.2021
1512 Dust 23 1017 23 1500 3.09 60 18:19 13.03.2021
1513 Dust 23 1016 22 1500 2.57 70 17:46 13.03.2021
1514 Dust 23 1016 22 1500 2.57 70 17:27 13.03.2021
1515 Dust 24 1016 19 1500 3.6 60 16:51 13.03.2021
1516 Dust 24 1016 19 1500 3.6 60 16:33 13.03.2021
1517 Dust 25 1016 18 2000 4.12 50 15:54 13.03.2021
1518 Dust 26 1016 17 2000 4.12 10 14:56 13.03.2021
1519 Dust 26 1016 17 2000 4.12 10 14:38 13.03.2021
1520 Dust 26 1016 17 2000 4.12 10 14:18 13.03.2021
1521 Dust 25 1017 18 1500 4.12 350 13:26 13.03.2021
1522 Dust 25 1017 16 1000 5.14 20 12:48 13.03.2021
1523 Dust 25 1017 16 1000 5.14 20 12:29 13.03.2021
1524 Dust 24 1018 17 1000 5.14 50 11:52 13.03.2021
1525 Dust 24 1018 17 1000 5.14 50 11:31 13.03.2021
1526 Dust 23 1020 20 2000 4.63 40 10:55 13.03.2021
1527 Dust 23 1020 20 2000 4.63 40 10:30 13.03.2021
1528 Dust 22 1020 17 2000 5.14 30 09:56 13.03.2021
1529 Dust 22 1020 17 2000 5.14 30 09:31 13.03.2021
1530 Dust 21 1020 17 2000 6.17 20 08:53 13.03.2021
1531 Dust 21 1020 17 2000 6.17 20 08:20 13.03.2021
1532 Dust 20 1019 18 2000 5.66 30 07:56 13.03.2021
1533 Dust 20 1019 18 2000 5.66 30 07:20 13.03.2021
1534 Dust 17 1017 24 2000 6.69 10 04:45 13.03.2021
1535 Dust 20 1015 21 2000 6.69 350 01:21 13.03.2021
1536 Dust 22 1015 23 2000 7.72 350 00:23 13.03.2021
1537 Dust 23 1015 25 2000 5.14 10 23:33 12.03.2021
1538 Dust 23 1014 25 4000 8.75 350 22:57 12.03.2021
1539 Dust 23 1014 25 4000 8.75 350 22:30 12.03.2021
1540 Dust 24 1013 19 50 8.75 350 21:56 12.03.2021
1541 Dust 24 1013 19 50 8.75 350 21:37 12.03.2021
1542 Dust 24 1013 19 50 8.75 350 21:37 12.03.2021
1543 Dust 24 1013 19 50 8.75 350 21:18 12.03.2021
1544 Dust 25 1012 15 50 8.23 360 20:47 12.03.2021
1545 Dust 25 1012 15 50 8.23 360 20:21 12.03.2021
1546 Dust 26 1012 12 50 10.29 340 19:44 12.03.2021
1547 Dust 26 1012 12 50 10.29 340 19:25 12.03.2021
1548 Dust 31 1009 10 700 7.2 160 18:43 12.03.2021
1549 Dust 31 1009 10 700 7.2 160 18:24 12.03.2021
1550 Dust 35 1006 7 800 6.69 240 17:43 12.03.2021
1551 Dust 35 1006 7 800 6.69 240 17:24 12.03.2021
1552 Dust 35 1006 7 800 6.17 240 16:44 12.03.2021
1553 Dust 35 1006 7 800 6.17 240 16:23 12.03.2021
1554 Dust 36 1006 7 900 6.69 230 15:38 12.03.2021
1555 Dust 36 1006 7 1000 8.75 220 14:52 12.03.2021
1556 Dust 36 1006 7 1000 8.75 220 14:22 12.03.2021
1557 Dust 35 1006 7 800 10.8 220 13:55 12.03.2021
1558 Dust 35 1006 7 800 10.8 220 13:37 12.03.2021
1559 Dust 35 1006 7 800 10.8 220 13:18 12.03.2021
1560 Dust 35 1007 7 800 10.8 230 12:42 12.03.2021
1561 Dust 35 1007 7 800 10.8 230 12:23 12.03.2021
1562 Dust 35 1008 7 700 10.8 220 11:52 12.03.2021
1563 Dust 35 1008 7 700 10.8 220 11:24 12.03.2021
1564 Dust 34 1009 7 900 11.83 220 10:55 12.03.2021
1565 Dust 34 1009 7 900 11.83 220 10:26 12.03.2021
1566 Clear 34 1010 8 9000 8.75 210 09:57 12.03.2021
1567 Clear 34 1010 8 9000 8.75 210 09:26 12.03.2021
1568 Clear 31 1011 11 10000 3.09 180 08:46 12.03.2021
1569 Clear 27 1011 14 10000 6.17 200 07:58 12.03.2021
1570 Clear 27 1011 14 10000 6.17 200 07:34 12.03.2021
1571 Clear 26 1011 15 10000 5.14 180 06:53 12.03.2021
1572 Clear 26 1011 15 10000 5.14 180 06:28 12.03.2021
1573 Clear 23 1011 23 10000 3.6 180 02:49 12.03.2021
1574 Clear 24 1012 19 10000 3.6 170 00:47 12.03.2021
1575 Clear 25 1012 18 10000 5.14 150 23:30 11.03.2021
1576 Clear 25 1013 18 10000 4.12 170 22:50 11.03.2021
1577 Clear 25 1013 18 10000 4.12 170 22:30 11.03.2021
1578 Clear 25 1013 20 10000 3.09 160 21:54 11.03.2021
1579 Clear 25 1013 20 10000 3.09 160 21:32 11.03.2021
1580 Clear 26 1014 18 10000 4.12 150 20:55 11.03.2021
1581 Clear 26 1014 18 10000 4.12 150 20:37 11.03.2021
1582 Clear 26 1014 18 10000 4.12 150 20:19 11.03.2021
1583 Clear 26 1013 19 10000 3.6 150 19:41 11.03.2021
1584 Clear 26 1013 19 10000 3.6 150 19:22 11.03.2021
1585 Clear 27 1013 17 10000 3.09 160 18:46 11.03.2021
1586 Clear 27 1013 17 10000 3.09 160 18:28 11.03.2021
1587 Clear 28 1013 14 9000 4.63 150 17:43 11.03.2021
1588 Clear 30 1013 12 10000 5.14 160 16:47 11.03.2021
1589 Clear 30 1013 12 10000 5.14 160 16:27 11.03.2021
1590 Clear 30 1014 12 10000 7.2 170 15:48 11.03.2021
1591 Clear 30 1014 12 10000 7.2 170 15:21 11.03.2021
1592 Clear 30 1014 13 9000 6.69 150 14:46 11.03.2021
1593 Clear 30 1014 13 9000 6.69 150 14:19 11.03.2021
1594 Clear 30 1014 11 10000 7.72 140 13:46 11.03.2021
1595 Clear 30 1014 11 10000 7.72 140 13:28 11.03.2021
1596 Clear 30 1014 10 10000 8.23 160 12:57 11.03.2021
1597 Clear 30 1014 10 10000 8.23 160 12:37 11.03.2021
1598 Clear 30 1014 10 10000 8.23 160 12:19 11.03.2021
1599 Clear 29 1016 10 10000 6.69 160 11:42 11.03.2021
1600 Clear 29 1016 10 10000 6.69 160 11:20 11.03.2021
1601 Clear 27 1017 10 10000 6.17 150 10:30 11.03.2021
1602 Clear 26 1018 11 10000 4.63 130 09:57 11.03.2021
1603 Clear 26 1018 11 10000 4.63 130 09:37 11.03.2021
1604 Clear 26 1018 11 10000 4.63 130 09:18 11.03.2021
1605 Clouds 24 1019 12 10000 4.63 140 08:44 11.03.2021
1606 Clouds 24 1019 12 10000 4.63 140 08:18 11.03.2021
1607 Clouds 22 1019 14 10000 4.63 140 07:28 11.03.2021
1608 Clouds 20 1019 17 10000 2.57 150 06:49 11.03.2021
1609 Clouds 20 1019 17 10000 2.57 150 06:24 11.03.2021
1610 Clouds 19 1017 30 8000 3.6 50 02:49 11.03.2021
1611 Clouds 20 1017 28 8000 3.6 110 00:54 11.03.2021
1612 Clouds 21 1018 23 10000 3.6 110 23:27 10.03.2021
1613 -273 0 0 0 0 0 22:52 10.03.2021
1614 Clear 21 1018 21 10000 4.12 120 22:28 10.03.2021
1615 -273 0 0 0 0 0 22:27 10.03.2021
1616 Clear 21 1018 21 10000 4.12 120 22:26 10.03.2021
1617 Clear 22 1019 24 10000 3.6 80 21:45 10.03.2021
1618 Clear 22 1019 24 10000 3.6 80 21:23 10.03.2021
1619 Clear 23 1019 20 10000 4.12 70 20:46 10.03.2021
1620 Clear 23 1019 20 10000 4.12 70 20:28 10.03.2021
1621 Clear 22 1015 35 10000 3.6 340 19:49 10.03.2021
1622 Clear 22 1015 35 10000 3.6 340 19:28 10.03.2021
1623 Clear 25 1018 13 10000 6.17 80 18:46 10.03.2021
1624 Clear 25 1018 13 10000 6.17 80 18:24 10.03.2021
1625 Clouds 27 1017 14 8000 5.14 100 17:56 10.03.2021
1626 Clouds 27 1017 14 8000 5.14 100 17:37 10.03.2021
1627 Clouds 27 1017 14 8000 5.14 100 17:19 10.03.2021
1628 Clouds 28 1017 14 9000 5.14 120 16:42 10.03.2021
1629 Clouds 28 1017 14 9000 5.14 120 16:23 10.03.2021
1630 Clouds 29 1018 14 9000 5.14 90 15:46 10.03.2021
1631 Clouds 29 1018 14 9000 5.14 90 15:23 10.03.2021
1632 Clouds 29 1018 12 10000 4.24 97 14:56 10.03.2021
1633 Clouds 29 1018 12 10000 4.12 104 14:20 10.03.2021
1634 Clouds 29 1018 11 10000 4.63 90 13:52 10.03.2021
1635 Clouds 29 1018 11 10000 4.63 90 13:30 10.03.2021
1636 Clouds 29 1017 10 10000 4.12 80 12:46 10.03.2021
1637 Clouds 29 1017 10 10000 4.12 80 12:21 10.03.2021
1638 Clouds 29 1018 10 10000 4.63 60 11:44 10.03.2021
1639 Clouds 29 1018 10 10000 4.63 60 11:21 10.03.2021
1640 Clear 28 1019 10 10000 4.63 80 10:49 10.03.2021
1641 Clear 28 1019 10 10000 4.63 80 10:30 10.03.2021
1642 Clear 26 1020 11 10000 3.6 50 09:46 10.03.2021
1643 Clear 26 1020 11 10000 3.6 50 09:27 10.03.2021
1644 Clouds 25 1021 12 10000 4.63 40 08:58 10.03.2021
1645 Clouds 25 1021 12 10000 4.63 40 08:40 10.03.2021
1646 Clouds 25 1021 12 10000 4.63 40 08:21 10.03.2021
1647 Clouds 23 1021 16 10000 3.09 40 07:40 10.03.2021
1648 Clouds 23 1021 16 10000 3.09 40 07:18 10.03.2021
1649 Clouds 21 1020 21 10000 3.09 50 06:44 10.03.2021
1650 Clear 19 1018 32 10000 3.16 44 02:42 10.03.2021
1651 Clear 22 1018 23 10000 2.57 50 23:52 09.03.2021
1652 Clear 22 1018 23 10000 2.57 50 23:25 09.03.2021
1653 Clear 24 1017 20 10000 3.09 80 22:44 09.03.2021
1654 Clear 24 1017 20 10000 3.09 80 22:26 09.03.2021
1655 Clear 25 1018 19 10000 3.09 60 21:55 09.03.2021
1656 Clear 25 1018 19 10000 3.09 60 21:36 09.03.2021
1657 Clear 25 1018 19 10000 3.09 60 21:18 09.03.2021
1658 Clear 26 1018 18 10000 5.14 50 20:41 09.03.2021
1659 Clear 26 1018 18 10000 5.14 50 20:21 09.03.2021
1660 Clear 27 1017 14 10000 6.17 50 19:53 09.03.2021
1661 Clear 27 1017 14 10000 6.17 50 19:27 09.03.2021
1662 Clear 29 1016 13 10000 4.63 50 18:51 09.03.2021
1663 Clear 29 1016 13 10000 4.63 50 18:28 09.03.2021
1664 Clear 31 1015 13 10000 3.6 50 17:53 09.03.2021
1665 Clear 31 1015 13 10000 3.6 50 17:33 09.03.2021
1666 Clear 32 1015 11 10000 2.57 50 16:55 09.03.2021
1667 Clear 32 1015 11 10000 2.57 50 16:37 09.03.2021
1668 Clear 32 1015 11 10000 2.57 50 16:18 09.03.2021
1669 Clear 32 1014 11 8000 2.57 110 15:43 09.03.2021
1670 Clear 32 1014 11 8000 2.57 110 15:21 09.03.2021
1671 Clear 33 1014 10 9000 2.06 250 14:31 09.03.2021
1672 Clear 33 1014 11 9000 2.06 240 13:59 09.03.2021
1673 Clear 33 1014 11 9000 2.06 240 13:38 09.03.2021
1674 Clear 33 1014 11 9000 2.06 240 13:19 09.03.2021
1675 Clear 33 1015 10 9000 1.54 180 12:39 09.03.2021
1676 Clear 33 1015 10 9000 1.54 180 12:19 09.03.2021
1677 Clear 31 1017 23 8000 1.54 10 11:42 09.03.2021
1678 Clear 31 1017 23 8000 1.54 10 11:21 09.03.2021
1679 Clear 29 1017 12 10000 2.57 30 10:55 09.03.2021
1680 Clear 29 1017 12 10000 2.57 30 10:55 09.03.2021
1681 Clear 29 1017 12 10000 2.57 30 10:36 09.03.2021
1682 Clear 29 1017 12 10000 2.57 30 10:18 09.03.2021
1683 Clear 28 1018 13 10000 2.57 350 09:42 09.03.2021
1684 Clear 28 1018 13 10000 2.57 350 09:23 09.03.2021
1685 Clear 27 1018 13 10000 2.57 360 08:46 09.03.2021
1686 Clear 27 1018 13 10000 2.57 360 08:21 09.03.2021
1687 Clear 25 1018 15 10000 0.51 350 07:38 09.03.2021
1688 Clear 25 1018 15 10000 0.51 350 07:20 09.03.2021
1689 Clear 17 1016 36 10000 1.54 330 05:55 09.03.2021
1690 Clear 17 1016 36 10000 1.54 330 05:35 09.03.2021
1691 Clear 21 1015 23 9000 2.06 160 00:29 09.03.2021
1692 Clear 22 1015 18 9000 1.54 150 23:42 08.03.2021
1693 Clear 22 1015 18 9000 1.54 150 23:23 08.03.2021
1694 Clear 23 1015 27 8500 4.12 170 22:45 08.03.2021
1695 Clear 23 1015 27 8500 4.12 170 22:27 08.03.2021
1696 Clear 23 1015 22 8000 3.09 170 21:55 08.03.2021
1697 Clear 23 1015 22 8000 3.09 170 21:35 08.03.2021
1698 Clear 26 1015 22 7000 4.12 180 20:47 08.03.2021
1699 Clear 26 1015 22 7000 4.12 180 20:26 08.03.2021
1700 Haze 26 1014 22 5000 3.09 170 19:59 08.03.2021
1701 Haze 26 1014 22 5000 3.09 170 19:28 08.03.2021
1702 Haze 26 1014 19 5000 2.57 160 18:42 08.03.2021
1703 Haze 26 1014 19 5000 2.57 160 18:21 08.03.2021
1704 Haze 27 1014 15 5000 2.57 140 17:51 08.03.2021
1705 Haze 27 1014 15 5000 2.57 140 17:26 08.03.2021
1706 Haze 29 1013 11 5000 4.63 140 16:48 08.03.2021
1707 Haze 29 1013 11 5000 4.63 140 16:29 08.03.2021
1708 Clear 30 1013 10 8000 4.12 130 15:49 08.03.2021
1709 Clear 30 1013 10 8000 4.12 130 15:28 08.03.2021
1710 Clear 30 1013 11 7000 4.63 40 14:43 08.03.2021
1711 Clear 31 1013 11 10000 3.09 170 14:20 08.03.2021
1712 Clear 31 1013 11 10000 3.09 170 13:38 08.03.2021
1713 Clear 31 1013 11 10000 3.09 170 13:19 08.03.2021
1714 Clear 30 1014 11 10000 4.63 140 12:42 08.03.2021
1715 Clear 30 1014 11 10000 4.63 140 12:42 08.03.2021
1716 Clear 30 1014 11 10000 4.63 140 12:23 08.03.2021
1717 Clear 28 1015 11 10000 5.14 150 11:40 08.03.2021
1718 Clear 28 1015 11 10000 5.14 150 11:18 08.03.2021
1719 Clear 27 1016 12 10000 4.12 180 10:43 08.03.2021
1720 Clear 27 1016 12 10000 4.12 180 10:22 08.03.2021
1721 Clear 25 1017 12 10000 4.12 160 09:41 08.03.2021
1722 Clear 25 1017 12 10000 4.12 160 09:22 08.03.2021
1723 Clear 23 1018 15 10000 3.6 160 08:28 08.03.2021
1724 Clear 20 1018 15 10000 6.17 150 07:24 08.03.2021
1725 Clear 19 1018 16 10000 5.14 150 06:44 08.03.2021
1726 Clear 15 1017 36 10000 4.39 142 03:39 08.03.2021
1727 Clear 16 1017 36 10000 3.39 139 00:44 08.03.2021
1728 Clear 17 1018 36 10000 2.57 140 23:57 07.03.2021
1729 Clear 17 1018 36 10000 2.57 140 23:37 07.03.2021
1730 Clear 17 1018 36 10000 2.57 140 23:18 07.03.2021
1731 Clear 18 1018 32 10000 2.57 130 22:42 07.03.2021
1732 Clear 18 1018 32 10000 2.57 130 22:23 07.03.2021
1733 Clear 19 1018 32 10000 2.57 110 21:44 07.03.2021
1734 Clear 19 1018 32 10000 2.57 110 21:25 07.03.2021
1735 Clear 19 1018 26 10000 2.06 110 20:48 07.03.2021
1736 Clear 19 1018 26 10000 2.06 110 20:30 07.03.2021
1737 Clear 21 1018 20 10000 2.06 80 19:57 07.03.2021
1738 Clear 21 1018 20 10000 2.06 80 19:38 07.03.2021
1739 Clear 21 1018 20 10000 2.06 80 19:20 07.03.2021
1740 Clear 21 1018 20 10000 2.06 80 19:20 07.03.2021
1741 Clear 22 1017 18 10000 2.57 80 18:42 07.03.2021
1742 Clear 22 1017 18 10000 2.57 80 18:19 07.03.2021
1743 Clear 24 1017 16 10000 3.09 70 17:40 07.03.2021
1744 Clear 24 1017 16 10000 3.09 70 17:20 07.03.2021
1745 Clear 25 1017 13 10000 2.57 90 16:58 07.03.2021
1746 Clear 25 1017 13 10000 2.57 90 16:38 07.03.2021
1747 Clear 25 1017 13 10000 2.57 90 16:19 07.03.2021
1748 Clear 25 1017 12 10000 2.06 80 15:42 07.03.2021
1749 Clear 25 1017 12 10000 2.06 80 15:22 07.03.2021
1750 Clear 26 1017 11 10000 1.54 270 14:30 07.03.2021
1751 Clear 26 1017 12 10000 2.06 330 13:59 07.03.2021
1752 Clear 26 1017 12 10000 2.06 330 13:40 07.03.2021
1753 Clear 26 1017 12 10000 2.06 330 13:20 07.03.2021
1754 Clear 25 1018 13 10000 2.57 20 12:44 07.03.2021
1755 Clear 25 1018 13 10000 2.57 20 12:24 07.03.2021
1756 Clear 23 1019 14 10000 3.09 360 11:25 07.03.2021
1757 Clear 22 1020 15 10000 3.09 30 10:59 07.03.2021
1758 Clear 22 1020 15 10000 3.09 30 10:38 07.03.2021
1759 Clear 22 1020 15 10000 3.09 30 10:19 07.03.2021
1760 Clear 21 1022 16 10000 2.06 330 09:40 07.03.2021
1761 Clear 21 1022 16 10000 2.06 330 09:21 07.03.2021
1762 Clear 19 1022 19 10000 3.09 360 08:45 07.03.2021
1763 Clear 19 1022 19 10000 3.09 360 08:23 07.03.2021
1764 Clear 19 1022 19 10000 2.57 30 07:23 07.03.2021
1765 Clear 14 1020 18 10000 2.57 350 02:40 07.03.2021
1766 Clear 14 1021 21 10000 2.13 5 00:36 07.03.2021
1767 Clear 15 1022 27 10000 1.54 340 23:41 06.03.2021
1768 Clear 15 1022 27 10000 1.54 340 23:22 06.03.2021
1769 Clear 16 1022 29 10000 1.54 30 22:47 06.03.2021
1770 Clear 16 1022 29 10000 1.54 30 22:25 06.03.2021
1771 Clear 17 1022 29 10000 2.57 30 21:52 06.03.2021
1772 Clear 17 1022 29 10000 2.57 30 21:21 06.03.2021
1773 Clear 19 1022 27 10000 2.57 40 20:45 06.03.2021
1774 Clear 19 1022 27 10000 2.57 40 20:21 06.03.2021
1775 Clear 19 1022 22 10000 3.09 50 19:41 06.03.2021
1776 Clear 19 1022 22 10000 3.09 50 19:18 06.03.2021
1777 Clear 21 1021 18 10000 2.57 40 18:43 06.03.2021
1778 Clear 21 1021 18 10000 2.57 40 18:23 06.03.2021
1779 Clear 22 1021 17 10000 3.6 20 17:55 06.03.2021
1780 Clear 22 1021 17 10000 3.6 20 17:33 06.03.2021
1781 Clear 23 1021 16 10000 4.12 30 17:00 06.03.2021
1782 Clear 23 1021 16 10000 4.12 30 16:37 06.03.2021
1783 Clear 23 1021 16 10000 4.12 30 16:18 06.03.2021
1784 Clear 25 1021 14 10000 3.09 10 15:41 06.03.2021
1785 Clear 25 1021 14 10000 3.09 10 15:23 06.03.2021
1786 Clear 25 1021 18 10000 3.09 360 14:33 06.03.2021
1787 Clear 24 1022 15 10000 3.6 10 13:56 06.03.2021
1788 Clear 24 1022 15 10000 3.6 10 13:37 06.03.2021
1789 Clear 24 1022 15 10000 3.6 10 13:19 06.03.2021
1790 Clear 23 1023 18 10000 4.12 10 12:43 06.03.2021
1791 Clear 23 1023 18 10000 4.12 10 12:19 06.03.2021
1792 Clear 22 1024 20 10000 4.12 10 11:47 06.03.2021
1793 Clear 22 1024 20 10000 4.12 10 11:21 06.03.2021
1794 Clear 21 1025 24 10000 4.63 30 10:45 06.03.2021
1795 Clear 21 1025 24 10000 4.63 30 10:18 06.03.2021
1796 Clear 20 1026 26 10000 5.66 20 09:40 06.03.2021
1797 Clear 20 1026 26 10000 5.66 20 09:19 06.03.2021
1798 Clear 18 1025 29 10000 5.14 10 08:33 06.03.2021
1799 Clear 17 1025 39 10000 4.12 350 07:56 06.03.2021
1800 Clear 17 1025 39 10000 4.12 350 07:23 06.03.2021
1801 Clear 16 1024 41 10000 3.09 340 06:44 06.03.2021
1802 Clear 14 1023 47 10000 3.09 340 03:49 06.03.2021
1803 Clear 14 1023 47 10000 3.09 340 03:49 06.03.2021
1804 Clear 15 1023 38 10000 4.63 340 01:43 06.03.2021
1805 Clear 15 1023 38 10000 5.14 350 00:47 06.03.2021
1806 Clear 15 1024 36 10000 3.6 350 23:51 05.03.2021
1807 Clear 15 1024 36 10000 3.6 350 23:51 05.03.2021
1808 Clear 15 1024 36 10000 3.6 350 23:22 05.03.2021
1809 Clear 15 1024 36 10000 3.09 340 22:45 05.03.2021
1810 Clear 15 1024 36 10000 3.09 340 22:45 05.03.2021
1811 Clear 15 1024 36 10000 3.09 340 22:22 05.03.2021
1812 Clear 17 1024 25 10000 4.12 10 21:52 05.03.2021
1813 Clear 17 1024 25 10000 4.12 10 21:32 05.03.2021
1814 Clear 18 1023 25 9000 4.12 10 20:53 05.03.2021
1815 Clear 18 1023 25 9000 4.12 10 20:26 05.03.2021
1816 Clear 19 1022 20 7000 5.66 10 19:56 05.03.2021
1817 Clear 19 1022 20 7000 5.66 10 19:26 05.03.2021
1818 Clear 20 1021 18 6000 5.66 20 18:57 05.03.2021
1819 Clear 20 1021 18 6000 5.66 20 18:39 05.03.2021
1820 Clear 20 1021 18 6000 5.66 20 18:18 05.03.2021
1821 Clear 21 1021 16 8000 6.69 10 17:35 05.03.2021
1822 Clear 23 1020 14 8000 6.17 10 16:49 05.03.2021
1823 Clear 23 1020 14 8000 6.17 10 16:24 05.03.2021
1824 Clear 24 1020 16 7000 6.17 360 15:58 05.03.2021
1825 Clear 24 1020 16 7000 6.17 360 15:39 05.03.2021
1826 Clear 24 1020 16 7000 6.17 360 15:20 05.03.2021
1827 Clear 25 1020 15 9000 5.14 310 14:38 05.03.2021
1828 Clear 25 1020 15 9000 5.14 310 14:38 05.03.2021
1829 Clear 25 1021 16 9000 6.17 360 13:55 05.03.2021
1830 Clear 25 1021 16 9000 6.17 360 13:22 05.03.2021
1831 Clear 23 1021 20 9000 6.69 330 12:55 05.03.2021
1832 Clear 21 1022 24 9000 5.14 290 11:56 05.03.2021
1833 Clear 21 1022 24 9000 5.14 290 11:36 05.03.2021
1834 Clear 21 1022 24 9000 5.14 290 11:18 05.03.2021
1835 Clear 21 1022 24 9000 5.66 340 10:40 05.03.2021
1836 Clear 21 1022 24 9000 5.66 340 10:22 05.03.2021
1837 Clear 21 1022 26 9000 6.69 350 09:47 05.03.2021
1838 Clear 21 1022 26 9000 6.69 350 09:26 05.03.2021
1839 Dust 21 1022 23 5000 5.14 290 08:41 05.03.2021
1840 Dust 21 1022 23 5000 5.14 290 08:22 05.03.2021
1841 Dust 20 1022 22 5000 5.14 330 07:43 05.03.2021
1842 Dust 20 1018 21 5000 6.17 330 06:56 05.03.2021
1843 Dust 20 1018 21 5000 6.17 330 06:31 05.03.2021
1844 Clear 22 1014 26 10000 2.06 250 01:59 05.03.2021
1845 Clear 22 1014 31 10000 2.57 250 00:34 05.03.2021
1846 Clear 23 1014 27 10000 3.09 260 23:36 04.03.2021
1847 Clear 24 1014 23 10000 3.09 160 22:39 04.03.2021
1848 Clear 24 1014 23 10000 3.09 160 22:19 04.03.2021
1849 Clear 25 1013 22 10000 4.12 170 21:42 04.03.2021
1850 Clear 25 1013 22 10000 4.12 170 21:23 04.03.2021
1851 Clear 26 1013 21 10000 4.12 160 20:41 04.03.2021
1852 Clear 26 1013 21 10000 4.12 160 20:21 04.03.2021
1853 Clear 27 1013 18 10000 4.63 150 19:54 04.03.2021
1854 Clear 27 1013 18 10000 4.63 150 19:31 04.03.2021
1855 Clear 28 1013 16 10000 4.12 150 18:59 04.03.2021
1856 Clear 28 1013 16 10000 4.12 150 18:59 04.03.2021
1857 Clear 28 1013 16 10000 4.12 150 18:59 04.03.2021
1858 Clear 28 1013 16 10000 4.12 150 18:38 04.03.2021
1859 Clear 28 1013 16 10000 4.12 150 18:19 04.03.2021
1860 Clear 29 1013 16 10000 3.6 150 17:42 04.03.2021
1861 Clear 29 1013 16 10000 3.6 150 17:20 04.03.2021
1862 Clear 31 1012 14 10000 5.66 150 16:44 04.03.2021
1863 Clear 31 1012 14 10000 5.66 150 16:44 04.03.2021
1864 Clear 31 1012 14 10000 5.66 150 16:24 04.03.2021
1865 Clear 31 1012 15 10000 7.72 150 15:48 04.03.2021
1866 Clear 31 1012 15 10000 7.72 150 15:30 04.03.2021
1867 Clear 31 1012 15 10000 7.72 140 14:45 04.03.2021
1868 Clear 31 1012 15 10000 7.72 140 14:22 04.03.2021
1869 Clear 31 1012 15 10000 7.2 140 13:45 04.03.2021
1870 Clear 31 1012 15 10000 7.2 140 13:23 04.03.2021
1871 Clear 30 1013 17 10000 6.69 160 12:44 04.03.2021
1872 Clear 30 1013 17 10000 6.69 160 12:20 04.03.2021
1873 Clear 28 1015 20 10000 5.14 170 11:42 04.03.2021
1874 Clear 28 1015 20 10000 5.14 170 11:20 04.03.2021
1875 Clear 27 1016 21 10000 6.69 160 10:37 04.03.2021
1876 Clear 27 1016 21 10000 6.69 160 10:18 04.03.2021
1877 Clear 25 1017 23 10000 6.17 160 09:32 04.03.2021
1878 Clear 23 1018 25 10000 5.66 150 08:56 04.03.2021
1879 Clear 23 1018 25 10000 5.66 150 08:32 04.03.2021
1880 Clear 21 1018 26 10000 6.69 160 07:49 04.03.2021
1881 Clear 19 1017 30 10000 3.6 150 06:52 04.03.2021
1882 Clear 19 1017 30 10000 3.6 150 06:23 04.03.2021
1883 Clear 18 1015 32 10000 3.09 160 02:39 04.03.2021
1884 Clear 18 1016 36 10000 2.57 140 01:24 04.03.2021
1885 Clear 19 1018 28 10000 3.09 120 22:43 03.03.2021
1886 Clear 19 1018 28 10000 3.09 120 22:25 03.03.2021
1887 Clear 20 1018 24 10000 3.09 110 21:43 03.03.2021
1888 Clear 20 1018 24 10000 3.09 110 21:24 03.03.2021
1889 Clear 20 1018 21 10000 3.09 80 20:56 03.03.2021
1890 Clear 20 1018 21 10000 3.09 80 20:38 03.03.2021
1891 Clear 21 1018 20 10000 3.09 90 19:57 03.03.2021
1892 Clear 21 1018 20 10000 3.09 90 19:39 03.03.2021
1893 Clear 21 1018 20 10000 3.09 90 19:18 03.03.2021
1894 Clear 22 1017 18 10000 3.6 90 18:45 03.03.2021
1895 Clear 22 1017 18 10000 3.6 90 18:45 03.03.2021
1896 Clear 23 1017 17 10000 4.12 100 17:59 03.03.2021
1897 Clear 23 1017 17 10000 4.12 100 17:39 03.03.2021
1898 Clear 23 1017 17 10000 4.12 100 17:18 03.03.2021
1899 Clear 24 1017 18 10000 4.63 90 16:39 03.03.2021
1900 Clear 24 1017 18 10000 4.63 90 16:21 03.03.2021
1901 Clear 25 1017 19 10000 5.14 80 15:33 03.03.2021
1902 Clear 26 1016 13 10000 5.14 100 14:52 03.03.2021
1903 Clear 26 1016 13 10000 5.14 100 14:29 03.03.2021
1904 Clear 26 1017 13 10000 5.14 110 13:52 03.03.2021
1905 Clear 26 1017 13 10000 5.14 110 13:31 03.03.2021
1906 Clear 26 1017 14 10000 5.14 110 12:44 03.03.2021
1907 Clear 26 1017 14 10000 5.14 110 12:24 03.03.2021
1908 Clear 25 1018 14 10000 2.57 50 11:47 03.03.2021
1909 Clear 25 1018 14 10000 2.57 50 11:28 03.03.2021
1910 Clouds 22 1020 20 10000 3.6 90 10:48 03.03.2021
1911 Clouds 22 1020 20 10000 3.6 90 10:26 03.03.2021
1912 Clouds 20 1021 24 8000 4.12 60 09:48 03.03.2021
1913 Clouds 20 1021 24 8000 4.12 60 09:24 03.03.2021
1914 Clouds 19 1022 30 8000 5.66 40 08:39 03.03.2021
1915 Rain 19 1022 30 8000 5.66 40 08:20 03.03.2021
1916 Clouds 18 1021 34 10000 5.66 70 07:39 03.03.2021
1917 Clouds 17 1021 36 10000 3.6 50 06:50 03.03.2021
1918 Clouds 17 1020 42 10000 3.09 50 05:46 03.03.2021
1919 Clouds 15 1019 63 10000 2.57 70 04:57 03.03.2021
1920 Clouds 15 1019 63 10000 2.57 70 04:25 03.03.2021
1921 Clear 16 1019 51 10000 2.06 30 01:46 03.03.2021
1922 Clear 17 1020 42 10000 2.06 30 23:55 02.03.2021
1923 Clear 17 1020 42 10000 2.06 30 23:21 02.03.2021
1924 Clear 18 1020 42 10000 2.06 30 22:41 02.03.2021
1925 Clear 18 1020 42 10000 2.06 30 22:18 02.03.2021
1926 Clear 19 1021 42 10000 1.54 60 21:39 02.03.2021
1927 Clear 19 1021 42 10000 1.54 60 21:19 02.03.2021
1928 Clear 20 1020 37 10000 1.54 70 20:45 02.03.2021
1929 Clear 20 1020 37 10000 1.54 70 20:22 02.03.2021
1930 Clear 21 1020 30 10000 2.57 60 19:51 02.03.2021
1931 Clear 21 1020 30 10000 2.57 60 19:32 02.03.2021
1932 Clouds 22 1019 24 10000 4.63 60 18:58 02.03.2021
1933 Clouds 22 1019 24 10000 4.63 60 18:39 02.03.2021
1934 Clouds 22 1019 24 10000 4.63 60 18:20 02.03.2021
1935 Clouds 23 1018 25 10000 4.63 40 17:49 02.03.2021
1936 Clouds 23 1018 25 10000 4.63 40 17:29 02.03.2021
1937 Clear 24 1018 20 10000 5.14 30 16:49 02.03.2021
1938 Clear 24 1018 20 10000 5.14 30 16:20 02.03.2021
1939 Clouds 25 1018 20 10000 5.66 30 15:47 02.03.2021
1940 Clouds 25 1018 20 10000 5.66 30 15:21 02.03.2021
1941 Clear 25 1018 18 10000 6.17 20 14:21 02.03.2021
1942 Clear 25 1018 18 10000 4.63 20 13:48 02.03.2021
1943 Clear 25 1018 18 10000 4.63 20 13:28 02.03.2021
1944 Clear 25 1018 16 10000 4.63 360 12:51 02.03.2021
1945 Clear 25 1018 16 10000 4.63 360 12:26 02.03.2021
1946 Clear 24 1019 19 10000 5.66 20 11:53 02.03.2021
1947 Clear 24 1019 19 10000 5.66 20 11:29 02.03.2021
1948 Clear 24 1020 22 10000 4.63 10 10:55 02.03.2021
1949 Clear 24 1020 22 10000 4.63 10 10:31 02.03.2021
1950 Clear 24 1020 22 10000 4.63 10 10:31 02.03.2021
1951 Clouds 22 1021 28 10000 5.14 20 09:44 02.03.2021
1952 Clouds 22 1021 28 10000 5.14 20 09:24 02.03.2021
1953 Haze 22 1018 64 4500 6.69 350 08:56 02.03.2021
1954 Haze 22 1018 64 4500 6.69 350 08:33 02.03.2021
1955 Clear 18 1021 36 10000 4.63 360 07:51 02.03.2021
1956 Clear 17 1021 36 10000 1.54 360 06:39 02.03.2021
1957 Clear 15 1020 39 10000 2.06 330 05:52 02.03.2021
1958 Clear 15 1020 39 10000 2.06 330 05:33 02.03.2021
1959 Clear 14 1020 47 10000 3.09 330 04:38 02.03.2021
1960 Clear 15 1019 47 10000 1.54 330 01:43 02.03.2021
1961 Clear 15 1019 47 10000 1.54 330 01:21 02.03.2021
1962 Clear 17 1019 39 10000 2.06 10 23:37 01.03.2021
1963 Clear 17 1019 39 10000 2.06 10 23:19 01.03.2021
1964 Clear 18 1019 36 10000 3.09 10 22:38 01.03.2021
1965 Clear 18 1019 36 10000 3.09 10 22:19 01.03.2021
1966 Clear 19 1019 34 10000 4.12 10 21:41 01.03.2021
1967 Clear 19 1019 34 10000 4.12 10 21:23 01.03.2021
1968 Clear 20 1018 30 10000 4.12 20 20:43 01.03.2021
1969 Clear 20 1018 30 10000 4.12 20 20:43 01.03.2021
1970 Clear 20 1018 30 10000 4.12 20 20:21 01.03.2021
1971 Clear 21 1017 30 6000 6.69 20 19:43 01.03.2021
1972 Clear 21 1017 30 6000 6.69 20 19:24 01.03.2021
1973 Clouds 23 1016 22 10000 3.6 320 18:43 01.03.2021
1974 Clouds 23 1016 22 10000 3.6 320 18:23 01.03.2021
1975 Clouds 25 1015 19 10000 4.63 310 17:47 01.03.2021
1976 Clouds 25 1015 19 10000 4.63 310 17:22 01.03.2021
1977 Clouds 25 1015 20 10000 5.66 290 16:47 01.03.2021
1978 Clouds 25 1015 20 10000 5.66 290 16:27 01.03.2021
1979 Clouds 26 1014 18 10000 6.17 290 15:49 01.03.2021
1980 Clouds 26 1014 18 10000 6.17 290 15:22 01.03.2021
1981 Clouds 27 1014 22 10000 4.63 260 14:58 01.03.2021
1982 Clouds 27 1013 21 10000 4.12 260 14:39 01.03.2021
1983 Clouds 27 1013 21 10000 4.12 260 13:50 01.03.2021
1984 Clouds 27 1013 21 10000 4.12 260 13:29 01.03.2021
1985 Clouds 27 1013 21 10000 4.63 260 12:59 01.03.2021
1986 Clouds 27 1013 21 10000 4.63 260 12:41 01.03.2021
1987 Clouds 27 1014 22 10000 4.63 250 12:21 01.03.2021
1988 Clouds 27 1014 22 10000 4.63 250 11:47 01.03.2021
1989 Clouds 27 1014 22 10000 4.63 250 11:18 01.03.2021
1990 Clouds 26 1015 22 10000 4.63 240 10:37 01.03.2021
1991 Clouds 26 1015 22 10000 4.63 240 10:37 01.03.2021
1992 Clouds 26 1015 22 10000 4.63 240 10:18 01.03.2021
1993 Clouds 25 1016 23 10000 4.12 200 09:48 01.03.2021
1994 Clouds 25 1016 23 10000 4.12 200 09:25 01.03.2021
1995 Clouds 23 1016 27 10000 4.63 180 08:55 01.03.2021
1996 Clouds 23 1016 27 10000 4.63 180 08:22 01.03.2021
1997 Clouds 20 1016 21 10000 3.6 220 06:55 01.03.2021
1998 Clouds 20 1016 21 10000 3.6 220 06:24 01.03.2021
1999 Clouds 19 1013 26 10000 5.14 180 02:38 01.03.2021
2000 Clear 21 1013 21 10000 6.69 170 23:41 28.02.2021
2001 Clear 21 1013 21 10000 6.69 160 22:56 28.02.2021
2002 Clear 21 1013 21 10000 6.69 160 22:26 28.02.2021
2003 Clear 21 1013 21 10000 6.69 160 22:26 28.02.2021
2004 Clear 21 1014 23 10000 4.12 150 21:55 28.02.2021
2005 Clear 21 1014 23 10000 4.12 150 21:33 28.02.2021
2006 Clouds 22 1014 21 7000 4.12 160 20:58 28.02.2021
2007 Clouds 22 1014 21 7000 4.12 160 20:38 28.02.2021
2008 Clouds 22 1014 21 7000 4.12 160 20:38 28.02.2021
2009 Clouds 22 1014 21 7000 4.12 160 20:18 28.02.2021
2010 Clouds 22 1014 21 7000 4.12 160 20:18 28.02.2021
2011 Dust 23 1014 20 5000 4.63 160 19:45 28.02.2021
2012 Dust 23 1014 20 5000 4.63 160 19:24 28.02.2021
2013 Clear 24 1013 19 3000 5.14 160 18:43 28.02.2021
2014 Clear 24 1013 19 3000 5.14 160 18:25 28.02.2021
2015 Clear 25 1013 15 6000 5.14 160 17:50 28.02.2021
2016 Clear 25 1013 15 6000 5.14 160 17:28 28.02.2021
2017 Clear 25 1013 15 6000 8.23 160 16:56 28.02.2021
2018 Clear 25 1013 15 6000 8.23 160 16:38 28.02.2021
2019 Clear 25 1013 15 6000 8.23 160 16:18 28.02.2021
2020 Clear 25 1013 16 7000 6.69 160 15:40 28.02.2021
2021 Clear 25 1013 16 7000 6.69 160 15:22 28.02.2021
2022 Clear 25 1013 14 7000 8.75 170 14:52 28.02.2021
2023 Clear 25 1013 14 7000 8.75 170 14:28 28.02.2021
2024 Clear 26 1013 13 7000 7.72 150 13:52 28.02.2021
2025 Clear 26 1013 13 7000 7.72 150 13:21 28.02.2021
2026 Clear 25 1013 12 10000 9.77 150 12:56 28.02.2021
2027 Clear 25 1013 12 10000 9.77 150 12:38 28.02.2021
2028 Clear 25 1013 12 10000 9.77 150 12:19 28.02.2021
2029 Clear 25 1013 12 10000 9.77 150 12:19 28.02.2021
2030 Clear 23 1016 14 10000 8.75 140 11:44 28.02.2021
2031 Clear 23 1016 14 10000 8.75 140 11:25 28.02.2021
2032 Clear 23 1016 13 10000 9.26 150 10:55 28.02.2021
2033 Clear 23 1016 13 10000 9.26 150 10:29 28.02.2021
2034 Clear 21 1017 14 10000 6.69 160 09:52 28.02.2021
2035 Clear 21 1017 14 10000 6.69 160 09:33 28.02.2021
2036 Clouds 19 1018 16 10000 6.69 140 08:50 28.02.2021
2037 Clouds 19 1018 16 10000 6.69 140 08:31 28.02.2021
2038 Clouds 18 1018 17 10000 6.17 140 07:57 28.02.2021
2039 Clouds 18 1018 17 10000 6.17 140 07:37 28.02.2021
2040 Clouds 16 1018 20 10000 3.6 150 06:55 28.02.2021
2041 Clouds 13 1017 24 10000 2.57 130 05:25 28.02.2021
2042 Clear 13 1017 24 10000 2.57 140 03:45 28.02.2021
2043 Clear 14 1016 24 10000 1.54 160 01:59 28.02.2021
2044 Clear 13 1018 30 10000 4.13 131 00:53 28.02.2021
2045 Clear 13 1018 30 10000 4.13 131 00:34 28.02.2021
2046 Clear 14 1019 41 10000 3.81 129 23:47 27.02.2021
2047 Clear 14 1019 41 10000 3.66 121 23:20 27.02.2021
2048 Clear 16 1019 33 10000 3.66 121 22:49 27.02.2021
2049 Clear 16 1019 33 10000 3.41 104 22:21 27.02.2021
2050 Clear 17 1019 31 10000 2.06 100 21:48 27.02.2021
2051 Clear 17 1019 31 10000 2.06 100 21:29 27.02.2021
2052 Clear 18 1019 25 10000 2.06 90 20:49 27.02.2021
2053 Clear 18 1019 25 10000 2.06 90 20:31 27.02.2021
2054 Clear 19 1018 22 10000 2.57 70 19:47 27.02.2021
2055 Clear 19 1018 22 10000 2.57 70 19:28 27.02.2021
2056 Clear 20 1018 22 10000 2.57 70 18:55 27.02.2021
2057 Clear 20 1018 22 10000 2.57 70 18:36 27.02.2021
2058 Clear 20 1018 22 10000 2.57 70 18:18 27.02.2021
2059 Clear 20 1018 22 10000 2.57 70 17:41 27.02.2021
2060 Clear 20 1018 22 10000 2.57 70 17:19 27.02.2021
2061 Clear 22 1018 18 10000 3.09 50 16:50 27.02.2021
2062 Clear 22 1018 18 10000 3.09 50 16:28 27.02.2021
2063 Clear 22 1018 18 10000 3.09 50 15:46 27.02.2021
2064 Clear 22 1018 18 10000 3.09 50 15:20 27.02.2021
2065 Clear 22 1018 26 10000 2.06 100 14:41 27.02.2021
2066 Clear 22 1018 26 10000 2.06 100 14:21 27.02.2021
2067 Clear 22 1018 26 10000 2.06 100 13:46 27.02.2021
2068 Clear 22 1019 21 10000 2.06 10 13:21 27.02.2021
2069 Clear 22 1019 21 10000 2.06 10 12:45 27.02.2021
2070 Clear 22 1019 21 10000 2.06 10 12:24 27.02.2021
2071 Clear 21 1020 28 10000 1.54 100 11:51 27.02.2021
2072 Clear 21 1020 28 10000 1.54 100 11:31 27.02.2021
2073 Clear 20 1021 32 10000 1.54 50 10:53 27.02.2021
2074 Clear 20 1021 32 10000 1.54 50 10:34 27.02.2021
2075 Clear 17 1022 33 10000 3.09 60 09:54 27.02.2021
2076 Clear 17 1022 33 10000 3.09 60 09:32 27.02.2021
2077 Clear 16 1022 33 10000 3.09 60 08:44 27.02.2021
2078 Clear 16 1022 33 10000 3.09 60 08:24 27.02.2021
2079 Clear 15 1021 44 10000 1.76 61 07:58 27.02.2021
2080 Clear 10 1021 53 10000 1.81 49 06:55 27.02.2021
2081 Clear 9 1019 50 10000 1.03 210 01:24 27.02.2021
2082 Clear 11 1020 43 10000 2.06 290 00:30 27.02.2021
2083 Clear 12 1020 35 10000 1.54 340 23:41 26.02.2021
2084 Clear 12 1020 35 10000 1.54 340 23:21 26.02.2021
2085 Clear 13 1020 41 10000 1.54 350 22:34 26.02.2021
2086 Clear 14 1020 23 10000 2.57 10 21:54 26.02.2021
2087 Clear 14 1020 23 10000 2.57 10 21:35 26.02.2021
2088 Clear 16 1019 17 10000 3.09 20 20:55 26.02.2021
2089 Clear 16 1019 17 10000 3.09 20 20:37 26.02.2021
2090 Clear 16 1019 17 10000 3.09 20 20:18 26.02.2021
2091 Clear 17 1019 17 10000 3.09 20 19:26 26.02.2021
2092 Clear 18 1019 16 10000 3.6 20 18:55 26.02.2021
2093 Clear 18 1019 16 10000 3.6 20 18:25 26.02.2021
2094 Clear 20 1018 22 10000 3.09 340 17:58 26.02.2021
2095 Clear 20 1018 22 10000 3.09 340 17:36 26.02.2021
2096 Clear 21 1018 20 10000 3.6 350 16:59 26.02.2021
2097 Clear 21 1018 20 10000 3.6 350 16:41 26.02.2021
2098 Clear 21 1018 20 10000 3.6 350 16:22 26.02.2021
2099 Clear 22 1018 20 10000 3.6 350 15:43 26.02.2021
2100 Clear 22 1018 20 10000 3.6 350 15:23 26.02.2021
2101 Clear 23 1018 17 10000 4.12 350 14:53 26.02.2021
2102 Clear 23 1018 17 10000 4.12 350 14:34 26.02.2021
2103 Clear 22 1018 18 10000 4.63 350 13:52 26.02.2021
2104 Clear 22 1018 18 10000 4.63 350 13:33 26.02.2021
2105 Clear 21 1020 23 10000 4.12 330 12:50 26.02.2021
2106 Clear 21 1020 23 10000 4.12 330 12:27 26.02.2021
2107 Clear 20 1021 27 10000 4.63 360 11:42 26.02.2021
2108 Clear 18 1022 27 10000 5.14 360 10:58 26.02.2021
2109 Clear 18 1022 27 10000 5.14 360 10:25 26.02.2021
2110 Clear 18 1021 24 10000 5.14 20 09:47 26.02.2021
2111 Clear 18 1021 24 10000 5.14 20 09:27 26.02.2021
2112 Clear 13 1021 54 10000 5.28 350 08:35 26.02.2021
2113 Clear 12 1021 54 10000 5.16 351 07:56 26.02.2021
2114 Clear 12 1021 54 10000 5.2 347 07:22 26.02.2021
2115 Clear 10 1021 53 10000 1.03 310 06:31 26.02.2021
2116 Clear 9 1020 53 10000 2.57 270 04:59 26.02.2021
2117 Clear 10 1020 50 10000 1.54 350 02:38 26.02.2021
2118 Clear 11 1020 47 10000 3.09 360 00:33 26.02.2021
2119 Clear 11 1020 50 10000 2.06 360 23:39 25.02.2021
2120 Clear 12 1021 47 10000 3.09 350 22:58 25.02.2021
2121 Clear 12 1021 47 10000 3.09 350 22:38 25.02.2021
2122 Clear 13 1021 47 10000 3.6 350 21:51 25.02.2021
2123 Clear 13 1021 47 10000 3.6 350 21:32 25.02.2021
2124 Clear 14 1021 44 10000 5.66 360 20:55 25.02.2021
2125 Clear 14 1021 44 10000 5.66 360 20:36 25.02.2021
2126 Clear 14 1021 44 10000 5.66 360 20:18 25.02.2021
2127 Clear 15 1020 36 10000 7.2 360 19:46 25.02.2021
2128 Clear 15 1020 36 10000 7.2 360 19:19 25.02.2021
2129 Clear 16 1019 29 10000 6.17 340 18:40 25.02.2021
2130 Clear 16 1019 29 10000 6.17 340 18:18 25.02.2021
2131 Clear 18 1018 27 10000 7.72 340 17:33 25.02.2021
2132 Clear 19 1017 26 10000 7.72 330 16:56 25.02.2021
2133 Clear 19 1017 26 10000 7.72 330 16:33 25.02.2021
2134 Clear 20 1017 24 10000 8.23 330 15:48 25.02.2021
2135 Clear 20 1017 24 10000 8.23 330 15:28 25.02.2021
2136 Clear 20 1017 28 10000 6.69 330 14:37 25.02.2021
2137 Clear 20 1017 28 10000 6.69 330 14:18 25.02.2021
2138 Clear 20 1017 26 10000 7.2 320 13:40 25.02.2021
2139 Clear 20 1017 26 10000 7.2 320 13:20 25.02.2021
2140 Clear 20 1017 28 10000 8.75 330 12:38 25.02.2021
2141 Clear 20 1017 28 10000 8.75 330 12:20 25.02.2021
2142 Clear 19 1018 32 10000 8.23 340 11:42 25.02.2021
2143 Clear 17 1019 34 10000 7.2 330 10:51 25.02.2021
2144 Clear 17 1019 34 10000 7.2 330 10:33 25.02.2021
2145 Clear 15 1020 41 10000 7.2 350 09:45 25.02.2021
2146 Clear 15 1020 41 10000 7.2 350 09:23 25.02.2021
2147 Clear 15 1021 38 10000 7.72 350 08:32 25.02.2021
2148 Clear 14 1020 51 10000 8.23 350 07:59 25.02.2021
2149 Clear 14 1020 51 10000 8.23 350 07:39 25.02.2021
2150 Clouds 13 1019 67 10000 6.69 340 06:57 25.02.2021
2151 Clouds 13 1019 67 10000 6.69 340 06:57 25.02.2021
2152 Clouds 13 1018 67 10000 6.17 340 05:28 25.02.2021
2153 Clear 16 1014 59 10000 1.54 330 01:45 25.02.2021
2154 Clear 17 1014 59 10000 2.35 293 00:48 25.02.2021
2155 Clear 17 1014 59 10000 1.19 304 00:19 25.02.2021
2156 Clear 18 1014 52 10000 1.54 120 23:36 24.02.2021
2157 Clear 19 1014 52 10000 0.9 337 22:50 24.02.2021
2158 Clear 19 1014 52 10000 0.89 337 22:30 24.02.2021
2159 Clear 19 1014 52 10000 1.23 64 21:49 24.02.2021
2160 Clear 19 1014 52 10000 1.23 64 21:30 24.02.2021
2161 Clear 20 1013 49 10000 2.57 150 20:49 24.02.2021
2162 Clear 20 1013 49 10000 2.57 150 20:26 24.02.2021
2163 Clear 20 1012 40 10000 2.57 130 19:42 24.02.2021
2164 Clear 20 1012 40 10000 2.57 130 19:20 24.02.2021
2165 Clear 21 1012 37 10000 3.6 140 18:50 24.02.2021
2166 Clear 21 1012 37 10000 3.6 140 18:30 24.02.2021
2167 Clear 22 1013 35 10000 3.6 150 17:40 24.02.2021
2168 Clear 22 1013 35 10000 3.6 150 17:22 24.02.2021
2169 Clear 23 1013 31 10000 4.63 130 16:48 24.02.2021
2170 Clear 23 1013 31 10000 4.63 130 16:21 24.02.2021
2171 Clear 23 1013 31 10000 5.14 120 15:50 24.02.2021
2172 Clear 23 1013 31 10000 5.14 120 15:31 24.02.2021
2173 Clear 23 1013 31 10000 6.69 140 14:47 24.02.2021
2174 Clear 23 1013 31 10000 6.69 140 14:27 24.02.2021
2175 Clear 22 1013 33 10000 5.14 140 13:42 24.02.2021
2176 Clear 22 1013 33 10000 5.14 140 13:23 24.02.2021
2177 Clouds 22 1013 30 10000 6.17 140 12:55 24.02.2021
2178 Clouds 22 1013 30 10000 6.17 140 12:33 24.02.2021
2179 Clear 20 1015 37 10000 3.09 150 11:52 24.02.2021
2180 Clouds 19 1016 34 10000 2.57 110 11:30 24.02.2021
2181 Clouds 19 1016 34 10000 2.57 110 10:40 24.02.2021
2182 Clouds 19 1016 34 10000 2.57 110 10:20 24.02.2021
2183 Clouds 17 1017 34 10000 2.57 100 09:24 24.02.2021
2184 Clouds 16 1018 36 10000 2.57 110 08:45 24.02.2021
2185 Clouds 16 1018 36 10000 2.57 110 08:24 24.02.2021
2186 Clouds 15 1018 39 10000 2.57 130 07:21 24.02.2021
2187 Clouds 14 1018 44 10000 2.57 150 06:56 24.02.2021
2188 Clouds 12 1017 50 10000 2.06 130 05:22 24.02.2021
2189 Clear 13 1019 54 10000 2.57 140 00:47 24.02.2021
2190 Clear 14 1020 54 7000 3.6 70 23:38 23.02.2021
2191 Clear 14 1020 51 7000 3.09 90 22:43 23.02.2021
2192 Clear 14 1020 51 7000 3.09 90 22:21 23.02.2021
2193 Dust 16 1021 48 5000 4.63 80 21:47 23.02.2021
2194 Dust 16 1021 48 5000 4.63 80 21:24 23.02.2021
2195 Dust 17 1021 39 5000 6.17 80 20:49 23.02.2021
2196 Dust 17 1021 39 5000 6.17 80 20:30 23.02.2021
2197 Clear 18 1021 45 6000 3.09 10 19:49 23.02.2021
2198 Clouds 18 1021 45 6000 3.09 10 19:29 23.02.2021
2199 Clouds 19 1020 40 6000 3.6 90 18:59 23.02.2021
2200 Clouds 19 1020 40 6000 3.6 90 18:41 23.02.2021
2201 Clouds 19 1020 40 6000 3.6 90 18:20 23.02.2021
2202 Clouds 20 1019 32 7000 5.14 80 17:46 23.02.2021
2203 Clouds 20 1019 32 7000 5.14 80 17:18 23.02.2021
2204 Clouds 21 1019 35 7000 4.63 100 16:43 23.02.2021
2205 Clouds 21 1019 35 7000 4.63 100 16:20 23.02.2021
2206 Clouds 21 1019 37 6000 4.63 90 15:42 23.02.2021
2207 Clouds 21 1019 37 6000 4.63 90 15:23 23.02.2021
2208 Clouds 21 1019 35 7000 5.14 100 14:46 23.02.2021
2209 Clouds 21 1019 35 7000 5.14 100 14:26 23.02.2021
2210 Clouds 22 1019 33 7000 4.63 110 13:55 23.02.2021
2211 Clouds 22 1019 33 7000 4.63 110 13:31 23.02.2021
2212 Clouds 20 1020 37 7000 5.14 90 12:54 23.02.2021
2213 Clouds 20 1020 37 7000 5.14 90 12:22 23.02.2021
2214 Clear 20 1021 37 10000 4.63 90 11:51 23.02.2021
2215 Clear 20 1021 37 10000 4.63 90 11:23 23.02.2021
2216 Clear 19 1022 37 10000 3.6 60 10:53 23.02.2021
2217 Clear 19 1022 37 10000 3.6 60 10:35 23.02.2021
2218 Clear 18 1023 39 10000 4.12 60 09:45 23.02.2021
2219 Clear 18 1023 39 10000 4.12 60 09:25 23.02.2021
2220 Clear 17 1023 42 10000 4.63 60 08:57 23.02.2021
2221 Clear 17 1023 42 10000 4.63 60 08:38 23.02.2021
2222 Clear 17 1023 42 10000 4.63 60 08:19 23.02.2021
2223 Clear 14 1023 31 10000 2.57 40 05:44 23.02.2021
2224 Clear 14 1023 31 10000 2.57 40 05:19 23.02.2021
2225 Clear 14 1021 51 10000 4.63 60 02:36 23.02.2021
2226 Clear 15 1021 51 10000 2.57 60 00:54 23.02.2021
2227 Clear 15 1021 51 10000 2.57 60 00:18 23.02.2021
2228 Clear 15 1021 51 10000 3.6 60 23:21 22.02.2021
2229 Clear 16 1021 51 10000 4.12 60 22:41 22.02.2021
2230 Clear 16 1021 51 10000 4.12 60 22:20 22.02.2021
2231 Clear 17 1022 51 10000 4.63 60 21:45 22.02.2021
2232 Clear 17 1022 51 10000 4.63 60 21:23 22.02.2021
2233 Clear 18 1022 52 10000 4.63 80 20:52 22.02.2021
2234 Clear 18 1022 52 10000 4.63 80 20:29 22.02.2021
2235 Clear 19 1022 45 10000 4.12 70 19:53 22.02.2021
2236 Clear 19 1022 45 10000 4.12 70 19:35 22.02.2021
2237 Clouds 19 1021 48 10000 4.63 60 18:56 22.02.2021
2238 Clouds 19 1021 48 10000 4.63 60 18:37 22.02.2021
2239 Clouds 19 1021 48 10000 4.63 60 18:19 22.02.2021
2240 Clouds 20 1021 45 10000 3.6 50 17:26 22.02.2021
2241 Clouds 21 1020 46 10000 4.63 90 16:55 22.02.2021
2242 Clouds 21 1020 46 10000 4.63 90 16:32 22.02.2021
2243 Clouds 21 1020 46 10000 4.12 110 15:47 22.02.2021
2244 Clouds 21 1020 46 10000 4.12 110 15:28 22.02.2021
2245 Clouds 21 1019 46 10000 4.63 90 14:47 22.02.2021
2246 Clouds 21 1019 46 10000 4.63 90 14:28 22.02.2021
2247 Clear 22 1019 43 10000 5.14 100 13:46 22.02.2021
2248 Clear 21 1020 43 10000 4.63 100 12:58 22.02.2021
2249 Clear 21 1020 43 10000 4.63 100 12:36 22.02.2021
2250 Clear 21 1020 43 10000 4.63 100 12:18 22.02.2021
2251 Clear 20 1021 49 10000 3.6 90 11:41 22.02.2021
2252 Clear 20 1021 49 10000 3.6 90 11:22 22.02.2021
2253 Clear 18 1022 52 10000 3.09 80 10:46 22.02.2021
2254 Clear 18 1022 52 10000 3.09 80 10:26 22.02.2021
2255 Clear 18 1023 52 10000 4.12 70 09:42 22.02.2021
2256 Clear 18 1023 52 10000 4.12 70 09:24 22.02.2021
2257 Clear 17 1024 51 10000 4.12 90 08:49 22.02.2021
2258 Clear 17 1024 51 10000 4.12 90 08:29 22.02.2021
2259 Clouds 14 1024 55 10000 1.54 110 07:56 22.02.2021
2260 Clouds 14 1024 55 10000 1.54 110 07:26 22.02.2021
2261 Clouds 12 1023 62 10000 0.51 240 06:32 22.02.2021
2262 Clear 11 1023 66 10000 1.03 60 05:38 22.02.2021
2263 Clear 11 1021 62 10000 2.68 64 03:27 22.02.2021
2264 Clear 11 1021 62 10000 2.68 64 02:48 22.02.2021
2265 Clear 12 1021 66 10000 2.06 360 00:45 22.02.2021
2266 Clear 12 1021 66 10000 2.06 360 00:20 22.02.2021
2267 Clear 12 1022 71 10000 2.06 40 23:29 21.02.2021
2268 Clear 13 1021 71 10000 3.09 80 22:43 21.02.2021
2269 Clear 13 1021 71 10000 3.09 80 22:22 21.02.2021
2270 Clouds 13 1022 76 10000 3.6 70 21:37 21.02.2021
2271 Clouds 13 1022 76 10000 3.6 70 21:19 21.02.2021
2272 Clouds 14 1021 77 10000 4.12 70 20:40 21.02.2021
2273 Clouds 14 1021 77 10000 4.12 70 20:19 21.02.2021
2274 Clouds 14 1021 72 10000 3.09 60 19:51 21.02.2021
2275 Clouds 14 1021 72 10000 3.09 60 19:32 21.02.2021
2276 Clouds 14 1021 67 10000 3.6 80 18:48 21.02.2021
2277 Clouds 14 1021 67 10000 3.6 80 18:25 21.02.2021
2278 Clouds 15 1021 63 10000 3.09 50 17:29 21.02.2021
2279 Clouds 16 1021 59 10000 3.09 60 16:58 21.02.2021
2280 Clouds 16 1021 59 10000 3.09 60 16:34 21.02.2021
2281 Clouds 17 1020 59 10000 3.09 80 15:54 21.02.2021
2282 Clouds 17 1020 59 10000 3.09 80 15:22 21.02.2021
2283 Clouds 16 1019 63 10000 4.12 90 14:51 21.02.2021
2284 Clouds 16 1019 63 10000 4.12 90 14:30 21.02.2021
2285 Clouds 15 1019 58 10000 3.6 90 13:47 21.02.2021
2286 Clouds 15 1019 58 10000 3.6 90 13:23 21.02.2021
2287 Clouds 15 1020 58 10000 4.12 90 12:32 21.02.2021
2288 Clouds 15 1020 58 10000 3.09 110 11:56 21.02.2021
2289 Clouds 15 1020 58 10000 3.09 110 11:36 21.02.2021
2290 Clouds 15 1021 55 10000 3.6 100 10:36 21.02.2021
2291 Clouds 15 1021 55 10000 3.6 100 10:18 21.02.2021
2292 Clouds 14 1022 54 10000 3.09 90 09:41 21.02.2021
2293 Clouds 14 1022 54 10000 3.09 90 09:23 21.02.2021
2294 Clouds 14 1022 58 10000 3.6 120 08:32 21.02.2021
2295 Clouds 13 1022 62 10000 3.09 90 07:43 21.02.2021
2296 Clouds 13 1022 62 10000 3.09 90 07:21 21.02.2021
2297 Clear 10 1021 87 10000 1.03 40 04:57 21.02.2021
2298 Clouds 11 1021 76 10000 2.66 74 02:32 21.02.2021
2299 Clouds 11 1021 76 10000 2.06 130 00:52 21.02.2021
2300 Clouds 11 1021 76 10000 2.06 130 00:20 21.02.2021
2301 Clouds 12 1022 76 10000 1.54 130 23:29 20.02.2021
2302 Clouds 12 1022 71 10000 2.06 100 22:49 20.02.2021
2303 Clouds 12 1022 71 10000 2.06 100 22:29 20.02.2021
2304 Clouds 12 1022 71 10000 2.57 110 21:47 20.02.2021
2305 Clouds 12 1022 71 10000 2.57 110 21:27 20.02.2021
2306 Clouds 12 1022 76 10000 1.54 80 20:51 20.02.2021
2307 Clouds 12 1022 76 10000 1.54 80 20:30 20.02.2021
2308 Clouds 12 1022 82 10000 3.6 40 19:53 20.02.2021
2309 Clouds 12 1022 82 10000 3.6 40 19:33 20.02.2021
2310 Clouds 12 1021 76 10000 1.54 50 18:47 20.02.2021
2311 Clouds 12 1021 76 10000 1.54 50 18:27 20.02.2021
2312 Clouds 12 1021 71 10000 2.06 70 17:43 20.02.2021
2313 Clouds 12 1021 71 10000 2.06 70 17:25 20.02.2021
2314 Rain 12 1021 76 10000 3.6 80 16:44 20.02.2021
2315 Rain 12 1021 76 10000 3.6 80 16:22 20.02.2021
2316 Rain 12 1021 76 10000 3.6 90 15:38 20.02.2021
2317 Rain 13 1021 62 10000 4.12 100 14:50 20.02.2021
2318 Rain 13 1021 62 10000 4.12 100 14:25 20.02.2021
2319 Rain 14 1021 51 10000 3.6 90 13:53 20.02.2021
2320 Clouds 14 1021 51 10000 3.6 90 13:28 20.02.2021
2321 Rain 14 1021 51 10000 4.63 100 12:53 20.02.2021
2322 Rain 14 1021 51 10000 4.63 100 12:32 20.02.2021
2323 Rain 14 1022 51 10000 3.09 80 11:48 20.02.2021
2324 Clouds 14 1022 51 10000 3.09 80 11:30 20.02.2021
2325 Clouds 13 1023 50 10000 2.57 80 10:50 20.02.2021
2326 Clouds 13 1023 50 10000 2.57 80 10:21 20.02.2021
2327 Clouds 12 1023 50 10000 2.57 50 09:41 20.02.2021
2328 Clouds 11 1023 58 10000 2.57 90 08:49 20.02.2021
2329 Clouds 11 1023 58 10000 2.57 90 08:22 20.02.2021
2330 Clouds 12 1021 54 10000 3.09 80 03:41 20.02.2021
2331 Clouds 12 1021 50 10000 3.09 60 02:31 20.02.2021
2332 Clouds 13 1022 47 10000 2.57 40 01:51 20.02.2021
2333 Clouds 14 1023 41 10000 2.06 100 00:49 20.02.2021
2334 Clouds 14 1023 41 10000 2.06 100 00:30 20.02.2021
2335 Clouds 14 1023 35 10000 3.09 100 23:24 19.02.2021
2336 Clouds 14 1023 44 10000 2.06 90 22:42 19.02.2021
2337 Clouds 14 1023 44 10000 2.06 90 22:19 19.02.2021
2338 Clear 15 1023 31 10000 4.12 100 21:39 19.02.2021
2339 Clear 15 1023 31 10000 4.12 100 21:39 19.02.2021
2340 Clear 15 1023 31 10000 4.12 100 21:20 19.02.2021
2341 Clear 15 1023 31 10000 3.6 90 20:40 19.02.2021
2342 Clear 15 1023 31 10000 3.6 90 20:22 19.02.2021
2343 Clear 16 1023 25 10000 3.6 100 19:43 19.02.2021
2344 Clear 16 1023 25 10000 3.6 100 19:20 19.02.2021
2345 Clear 16 1022 27 10000 4.12 110 18:43 19.02.2021
2346 Clear 16 1022 27 10000 4.12 110 18:23 19.02.2021
2347 Clouds 17 1021 25 10000 4.63 90 17:24 19.02.2021
2348 Clouds 18 1021 24 10000 4.12 60 16:40 19.02.2021
2349 Clouds 18 1021 24 10000 4.12 60 16:21 19.02.2021
2350 Clouds 17 1021 27 10000 3.6 70 15:49 19.02.2021
2351 Clouds 17 1021 27 10000 3.6 70 15:27 19.02.2021
2352 Clouds 17 1021 27 10000 4.63 40 14:46 19.02.2021
2353 Clouds 17 1021 27 10000 4.63 40 14:26 19.02.2021
2354 Clouds 17 1021 31 10000 3.6 60 13:53 19.02.2021
2355 Clouds 17 1021 31 10000 3.6 60 13:30 19.02.2021
2356 Clouds 16 1022 31 10000 2.57 60 12:52 19.02.2021
2357 Clouds 16 1022 31 10000 2.57 60 12:24 19.02.2021
2358 Clouds 16 1023 31 10000 3.6 60 11:54 19.02.2021
2359 Clouds 16 1023 31 10000 3.6 60 11:26 19.02.2021
2360 Clouds 15 1024 41 10000 4.63 50 10:54 19.02.2021
2361 Clouds 15 1024 41 10000 4.63 50 10:31 19.02.2021
2362 Clouds 14 1024 38 7000 5.14 40 09:51 19.02.2021
2363 Clouds 14 1024 38 7000 5.14 40 09:27 19.02.2021
2364 Clouds 13 1025 44 7000 3.6 30 08:54 19.02.2021
2365 Clouds 13 1025 44 7000 3.6 30 08:25 19.02.2021
2366 Clouds 12 1025 54 6000 3.6 40 07:49 19.02.2021
2367 Clouds 12 1025 54 6000 3.6 40 07:30 19.02.2021
2368 Clouds 10 1024 62 6000 2.57 40 06:54 19.02.2021
2369 Clouds 11 1023 50 5000 2.57 50 05:40 19.02.2021
2370 Rain 11 1023 50 6000 3.09 30 04:41 19.02.2021
2371 Rain 11 1023 50 6000 3.09 30 04:41 19.02.2021
2372 Clouds 13 1022 50 6000 4.63 30 01:48 19.02.2021
2373 Rain 14 1023 41 8000 3.6 40 00:37 19.02.2021
2374 Clouds 13 1023 47 7000 2.06 70 23:56 18.02.2021
2375 Rain 13 1023 47 7000 2.06 70 23:35 18.02.2021
2376 Rain 13 1022 50 8000 4.12 10 22:50 18.02.2021
2377 Clouds 13 1022 50 8000 4.12 10 22:30 18.02.2021
2378 Rain 12 1022 66 10000 6.17 30 21:52 18.02.2021
2379 Rain 12 1022 66 10000 6.17 30 21:26 18.02.2021
2380 Clouds 13 1022 62 10000 6.17 20 20:44 18.02.2021
2381 Clouds 13 1022 62 10000 6.17 20 20:24 18.02.2021
2382 Clouds 14 1022 62 10000 5.66 10 19:48 18.02.2021
2383 Clouds 14 1022 62 10000 5.66 10 19:28 18.02.2021
2384 Clouds 14 1021 67 10000 7.2 20 18:55 18.02.2021
2385 Clouds 14 1021 67 10000 7.2 20 18:32 18.02.2021
2386 Clouds 16 1020 63 8000 6.69 360 17:59 18.02.2021
2387 Clouds 16 1020 63 8000 6.69 360 17:41 18.02.2021
2388 Rain 16 1020 63 8000 6.69 360 17:19 18.02.2021
2389 Clouds 17 1018 59 10000 7.2 10 16:41 18.02.2021
2390 Clouds 18 1017 55 7000 6.69 350 16:21 18.02.2021
2391 Clouds 19 1017 55 7000 6.69 350 15:39 18.02.2021
2392 Clouds 19 1017 55 7000 6.69 350 15:21 18.02.2021
2393 Clouds 20 1017 45 8000 6.69 340 14:49 18.02.2021
2394 Clouds 20 1017 45 8000 6.69 340 14:29 18.02.2021
2395 Mist 20 1017 34 5000 6.17 320 13:46 18.02.2021
2396 Mist 20 1017 34 5000 6.17 320 13:20 18.02.2021
2397 Rain 21 1016 35 5000 6.17 310 12:47 18.02.2021
2398 Rain 21 1016 35 5000 6.17 310 12:23 18.02.2021
2399 Mist 21 1016 60 5000 6.69 300 11:46 18.02.2021
2400 Mist 21 1016 60 5000 6.69 300 11:27 18.02.2021
2401 Rain 21 1016 68 5000 7.2 280 10:48 18.02.2021
2402 Mist 21 1016 68 5000 7.2 280 10:29 18.02.2021
2403 Mist 21 1017 64 5000 8.23 250 09:50 18.02.2021
2404 Rain 21 1017 64 5000 8.23 250 09:24 18.02.2021
2405 Rain 21 1017 64 5000 4.63 250 08:48 18.02.2021
2406 Mist 21 1017 64 5000 4.63 250 08:25 18.02.2021
2407 Rain 22 1017 56 5000 4.63 260 07:35 18.02.2021
2408 Rain 23 1016 49 6000 5.14 260 06:54 18.02.2021
2409 Clouds 23 1013 46 8000 3.09 230 03:31 18.02.2021
2410 Rain 25 1012 12 10000 3.59 244 23:56 17.02.2021
2411 Clear 25 1012 12 10000 3.59 244 23:30 17.02.2021
2412 Clear 25 1012 11 10000 3.09 160 22:54 17.02.2021
2413 Clear 25 1012 11 10000 3.09 160 22:27 17.02.2021
2414 Clear 25 1012 11 10000 4.12 160 21:57 17.02.2021
2415 Clear 25 1012 11 10000 4.12 160 21:22 17.02.2021
2416 Clouds 26 1012 10 3500 5.66 150 20:52 17.02.2021
2417 Clouds 26 1012 10 3500 5.66 150 20:32 17.02.2021
2418 Dust 27 1012 10 5000 7.72 140 19:51 17.02.2021
2419 Dust 27 1012 10 5000 7.72 140 19:32 17.02.2021
2420 Dust 29 1012 9 5000 4.63 170 18:49 17.02.2021
2421 Rain 29 1012 9 5000 4.63 170 18:30 17.02.2021
2422 Rain 29 1010 13 3000 8.23 170 17:42 17.02.2021
2423 Dust 29 1010 13 3000 8.23 170 17:21 17.02.2021
2424 Dust 28 1010 10 3000 8.23 160 16:49 17.02.2021
2425 Dust 28 1010 10 3000 8.23 160 16:28 17.02.2021
2426 Haze 29 1010 9 7000 7.72 150 15:45 17.02.2021
2427 Haze 29 1010 9 7000 7.72 150 15:27 17.02.2021
2428 Haze 29 1010 9 7000 7.72 150 15:27 17.02.2021
2429 Clear 31 1010 8 10000 8.23 150 14:51 17.02.2021
2430 Clear 31 1010 8 10000 8.23 150 14:29 17.02.2021
2431 Clear 30 1010 9 10000 8.75 140 13:52 17.02.2021
2432 Clear 30 1010 9 10000 8.75 140 13:33 17.02.2021
2433 Clear 30 1010 9 10000 9.77 140 12:57 17.02.2021
2434 Clear 30 1010 9 10000 9.77 140 12:26 17.02.2021
2435 Clear 30 1011 9 10000 7.72 150 11:47 17.02.2021
2436 Clear 30 1011 9 10000 7.72 150 11:29 17.02.2021
2437 Clouds 28 1012 10 10000 8.75 140 10:50 17.02.2021
2438 Clouds 28 1012 10 10000 8.75 140 10:31 17.02.2021
2439 Clear 28 1013 11 10000 7.72 150 09:58 17.02.2021
2440 Clear 28 1013 11 10000 7.72 150 09:37 17.02.2021
2441 Clear 25 1014 13 10000 6.17 160 08:49 17.02.2021
2442 Clear 25 1014 13 10000 6.17 160 08:23 17.02.2021
2443 Clear 23 1014 15 10000 6.17 150 07:55 17.02.2021
2444 Clear 20 1013 19 10000 6.17 150 06:37 17.02.2021
2445 Clear 18 1012 26 10000 3.09 150 03:52 17.02.2021
2446 Clear 18 1012 25 10000 2.57 160 02:31 17.02.2021
2447 Clear 20 1012 22 10000 3.6 160 01:35 17.02.2021
2448 Clear 20 1013 22 10000 4.12 170 00:28 17.02.2021
2449 Clear 20 1013 24 10000 2.57 150 23:39 16.02.2021
2450 Clear 22 1013 21 10000 3.6 160 22:47 16.02.2021
2451 Clear 22 1013 21 10000 3.6 160 22:26 16.02.2021
2452 Clear 22 1013 21 10000 3.6 160 22:26 16.02.2021
2453 Clear 22 1013 20 10000 3.6 150 21:59 16.02.2021
2454 Clear 22 1013 20 10000 3.6 150 21:39 16.02.2021
2455 Clear 22 1013 20 10000 3.6 150 21:39 16.02.2021
2456 Clear 22 1013 20 10000 3.6 150 21:39 16.02.2021
2457 Clear 22 1013 20 10000 3.6 150 21:21 16.02.2021
2458 Clear 23 1013 18 10000 3.6 160 20:55 16.02.2021
2459 Clear 23 1013 18 10000 3.6 160 20:24 16.02.2021
2460 Clear 24 1013 16 10000 3.09 100 19:49 16.02.2021
2461 Clear 24 1013 16 10000 3.09 100 19:29 16.02.2021
2462 Clear 25 1012 13 10000 5.14 110 18:53 16.02.2021
2463 Clear 25 1012 13 10000 5.14 110 18:26 16.02.2021
2464 Clear 26 1012 10 10000 6.17 140 17:56 16.02.2021
2465 Clear 26 1012 10 10000 6.17 140 17:37 16.02.2021
2466 Clear 26 1012 10 10000 6.17 140 17:19 16.02.2021
2467 Clear 27 1012 10 10000 6.17 140 16:42 16.02.2021
2468 Clear 27 1012 10 10000 6.17 140 16:20 16.02.2021
2469 Clear 28 1012 10 10000 7.2 150 15:36 16.02.2021
2470 Clear 28 1012 10 10000 7.2 150 15:18 16.02.2021
2471 Clear 29 1011 9 10000 8.23 160 14:41 16.02.2021
2472 Clear 29 1011 9 10000 8.23 160 14:23 16.02.2021
2473 Clear 29 1011 9 10000 8.23 150 13:47 16.02.2021
2474 Clear 29 1011 9 10000 8.23 150 13:18 16.02.2021
2475 Clear 29 1012 10 10000 8.75 140 12:42 16.02.2021
2476 Clear 29 1013 10 10000 8.23 150 12:20 16.02.2021
2477 Clear 29 1012 10 10000 8.75 140 12:20 16.02.2021
2478 Clear 29 1013 10 10000 8.23 150 11:43 16.02.2021
2479 Clear 29 1013 10 10000 8.23 150 11:21 16.02.2021
2480 Clear 28 1014 12 10000 6.69 160 10:49 16.02.2021
2481 Clear 28 1014 12 10000 6.69 160 10:30 16.02.2021
2482 Clear 26 1015 13 10000 6.69 160 09:54 16.02.2021
2483 Clear 26 1015 13 10000 6.69 160 09:28 16.02.2021
2484 Clear 26 1015 13 10000 6.69 160 09:28 16.02.2021
2485 Clear 25 1016 14 10000 5.14 170 08:52 16.02.2021
2486 Clear 25 1016 14 10000 5.14 170 08:29 16.02.2021
2487 Clear 22 1016 17 10000 3.09 150 07:58 16.02.2021
2488 Clear 18 1016 22 10000 2.06 150 06:58 16.02.2021
2489 Clear 15 1016 39 10000 3.68 155 02:47 16.02.2021
2490 Clear 17 1016 36 10000 1.03 160 00:23 16.02.2021
2491 Clear 17 1017 32 10000 3.78 144 23:30 15.02.2021
2492 Clear 17 1017 32 10000 3.78 144 23:30 15.02.2021
2493 Clear 18 1017 24 10000 2.57 190 22:51 15.02.2021
2494 Clear 18 1017 24 10000 2.57 190 22:29 15.02.2021
2495 Clear 20 1017 23 10000 2.57 170 21:49 15.02.2021
2496 Clear 20 1017 23 10000 2.57 170 21:25 15.02.2021
2497 Clear 21 1017 21 10000 2.57 140 20:57 15.02.2021
2498 Clear 21 1017 21 10000 2.57 140 20:39 15.02.2021
2499 Clouds 22 1017 17 10000 2.57 150 19:51 15.02.2021
2500 Clouds 22 1017 17 10000 2.57 150 19:30 15.02.2021
2501 Clouds 23 1016 17 10000 2.57 160 18:58 15.02.2021
2502 Clouds 23 1016 17 10000 2.57 160 18:29 15.02.2021
2503 Clouds 24 1016 18 10000 3.09 150 17:58 15.02.2021
2504 Clouds 24 1016 18 10000 3.09 150 17:40 15.02.2021
2505 Clouds 24 1016 18 10000 3.09 150 17:21 15.02.2021
2506 Clouds 26 1016 14 10000 4.12 160 16:45 15.02.2021
2507 Clouds 26 1016 14 10000 4.12 160 16:22 15.02.2021
2508 Clouds 26 1016 13 10000 5.66 140 15:44 15.02.2021
2509 Clouds 26 1016 13 10000 5.66 140 15:19 15.02.2021
2510 Clouds 27 1016 12 10000 6.17 140 14:48 15.02.2021
2511 Clouds 27 1016 12 10000 6.17 140 14:21 15.02.2021
2512 Clouds 26 1016 13 10000 5.14 150 13:49 15.02.2021
2513 Clouds 26 1016 13 10000 5.14 150 13:27 15.02.2021
2514 Clouds 27 1017 13 10000 4.63 170 12:51 15.02.2021
2515 Clouds 27 1017 13 10000 4.63 170 12:27 15.02.2021
2516 Clouds 27 1017 12 10000 5.66 140 11:53 15.02.2021
2517 Clouds 27 1017 12 10000 5.66 140 11:27 15.02.2021
2518 Clouds 26 1019 15 10000 4.12 170 10:55 15.02.2021
2519 Clouds 26 1019 15 10000 4.12 170 10:36 15.02.2021
2520 Clouds 26 1019 15 10000 4.12 170 10:18 15.02.2021
2521 Clouds 25 1020 14 10000 3.6 190 09:47 15.02.2021
2522 Clouds 25 1020 14 10000 3.6 190 09:25 15.02.2021
2523 Clear 23 1020 16 10000 4.63 180 08:22 15.02.2021
2524 Clear 21 1020 18 10000 3.47 169 07:20 15.02.2021
2525 Clear 17 1020 25 10000 3.22 170 06:41 15.02.2021
2526 Clear 14 1019 44 10000 1.97 146 03:33 15.02.2021
2527 Clear 15 1019 39 10000 2.87 153 02:20 15.02.2021
2528 Clear 18 1020 24 10000 1.03 130 23:59 14.02.2021
2529 Clear 18 1020 24 10000 1.03 130 23:25 14.02.2021
2530 Clear 19 1020 24 10000 1.54 130 22:46 14.02.2021
2531 Clear 19 1020 24 10000 1.54 130 22:23 14.02.2021
2532 Clear 20 1020 19 10000 2.06 130 21:51 14.02.2021
2533 Clear 20 1020 19 10000 2.06 130 21:29 14.02.2021
2534 Clear 21 1020 21 10000 2.06 120 20:53 14.02.2021
2535 Clear 21 1020 21 10000 2.06 120 20:30 14.02.2021
2536 Clear 22 1019 18 10000 2.06 140 19:49 14.02.2021
2537 Clear 23 1019 17 10000 3.09 120 18:59 14.02.2021
2538 Clear 23 1019 17 10000 3.09 120 18:39 14.02.2021
2539 Clear 23 1019 17 10000 3.09 120 18:20 14.02.2021
2540 Clear 25 1018 19 10000 3.6 130 17:39 14.02.2021
2541 Clear 26 1018 15 10000 3.6 120 16:57 14.02.2021
2542 Clear 26 1018 15 10000 3.6 120 16:38 14.02.2021
2543 Clear 26 1018 15 10000 3.6 120 16:18 14.02.2021
2544 Clear 27 1018 12 10000 4.12 130 15:40 14.02.2021
2545 Clear 27 1018 12 10000 5.14 120 14:51 14.02.2021
2546 Clear 27 1018 12 10000 5.14 120 14:27 14.02.2021
2547 Clear 27 1018 12 10000 4.63 110 13:54 14.02.2021
2548 Clear 27 1018 12 10000 4.63 110 13:30 14.02.2021
2549 Clear 28 1018 11 10000 4.12 140 12:44 14.02.2021
2550 Clear 28 1018 11 10000 4.12 140 12:20 14.02.2021
2551 Clear 27 1019 12 10000 2.57 120 11:50 14.02.2021
2552 Clear 27 1019 12 10000 2.57 120 11:21 14.02.2021
2553 Clear 26 1020 24 10000 1.54 130 10:39 14.02.2021
2554 Clear 25 1021 27 10000 3.09 129 09:56 14.02.2021
2555 Clear 25 1021 27 10000 3.09 129 09:38 14.02.2021
2556 Clear 25 1021 27 10000 2.79 141 09:19 14.02.2021
2557 Clear 22 1022 33 10000 2.79 141 08:39 14.02.2021
2558 Clear 18 1021 39 10000 1.03 160 07:56 14.02.2021
2559 Clear 15 1021 41 10000 2.57 158 06:49 14.02.2021
2560 Clear 11 1021 46 10000 1.88 149 05:41 14.02.2021
2561 Clear 12 1019 43 10000 1.61 126 03:30 14.02.2021
2562 Clear 14 1020 41 10000 1.91 117 01:54 14.02.2021
2563 Clear 15 1020 38 10000 2.09 134 00:47 14.02.2021
2564 Clear 15 1020 38 10000 2.26 140 00:18 14.02.2021
2565 Clear 15 1019 39 10000 2.06 160 23:38 13.02.2021
2566 Clear 15 1019 39 10000 2.06 160 23:20 13.02.2021
2567 Clear 15 1019 39 10000 2.06 160 23:20 13.02.2021
2568 Clear 17 1020 36 10000 2.06 170 22:33 13.02.2021
2569 Clear 18 1020 32 10000 1.54 180 21:53 13.02.2021
2570 Clear 18 1020 32 10000 1.54 180 21:35 13.02.2021
2571 Clear 19 1020 34 10000 2.26 102 20:52 13.02.2021
2572 Clear 19 1020 34 10000 2.89 90 20:28 13.02.2021
2573 Clear 19 1020 34 10000 2.89 90 20:28 13.02.2021
2574 Clear 20 1019 32 10000 2.06 90 19:49 13.02.2021
2575 Clear 20 1019 32 10000 2.06 90 19:49 13.02.2021
2576 Clear 20 1019 32 10000 2.06 90 19:25 13.02.2021
2577 Clouds 21 1018 23 10000 2.06 100 18:52 13.02.2021
2578 Clouds 21 1018 23 10000 2.06 100 18:33 13.02.2021
2579 Clouds 23 1018 27 10000 1.54 80 17:45 13.02.2021
2580 Clouds 23 1018 27 10000 1.54 80 17:26 13.02.2021
2581 Clouds 24 1018 23 10000 1.03 110 16:55 13.02.2021
2582 Clouds 24 1018 23 10000 1.03 110 16:37 13.02.2021
2583 Clouds 26 1017 24 10000 1.03 150 15:46 13.02.2021
2584 Clouds 26 1017 24 10000 1.03 150 15:26 13.02.2021
2585 Clouds 26 1017 24 10000 1.03 150 14:41 13.02.2021
2586 Clouds 25 1017 19 10000 2.06 230 13:54 13.02.2021
2587 Clouds 25 1017 19 10000 2.06 230 13:29 13.02.2021
2588 Clouds 24 1018 22 10000 2.57 190 12:57 13.02.2021
2589 Clouds 24 1018 22 10000 2.57 190 12:23 13.02.2021
2590 Clouds 24 1018 22 10000 2.57 190 12:23 13.02.2021
2591 Clear 23 1019 23 10000 2.57 170 11:58 13.02.2021
2592 Clear 23 1019 23 10000 2.57 170 11:39 13.02.2021
2593 Clear 23 1019 23 10000 2.57 170 11:18 13.02.2021
2594 Clear 23 1019 23 10000 2.57 170 10:43 13.02.2021
2595 Clear 23 1019 23 10000 2.57 170 10:43 13.02.2021
2596 Clear 23 1019 23 10000 2.57 170 10:22 13.02.2021
2597 Clear 21 1020 30 10000 2.57 130 09:46 13.02.2021
2598 Clear 21 1020 30 10000 2.57 130 09:28 13.02.2021
2599 Clear 19 1020 45 10000 1.03 130 08:47 13.02.2021
2600 Clear 19 1020 45 10000 1.03 130 08:18 13.02.2021
2601 Clear 14 1019 47 10000 2.37 155 06:59 13.02.2021
2602 Clear 12 1018 53 10000 1.87 142 06:24 13.02.2021
2603 Clear 11 1017 54 10000 1.51 133 04:31 13.02.2021
2604 Clear 11 1017 50 10000 1.35 128 02:37 13.02.2021
2605 Clear 14 1017 41 10000 1.43 116 00:54 13.02.2021
2606 Clear 14 1017 41 10000 1.43 116 00:54 13.02.2021
2607 Clear 14 1017 41 10000 1.23 89 00:18 13.02.2021
2608 Clear 16 1018 29 10000 1.54 90 23:44 12.02.2021
2609 Clear 16 1018 29 10000 1.54 90 23:18 12.02.2021
2610 Clear 18 1018 24 10000 2.06 70 22:32 12.02.2021
2611 Clear 20 1018 24 10000 2.57 60 21:58 12.02.2021
2612 Clear 20 1018 24 10000 2.57 60 21:38 12.02.2021
2613 Clear 20 1018 24 10000 2.57 60 21:20 12.02.2021
2614 Clear 20 1018 26 10000 2.06 50 20:40 12.02.2021
2615 Clear 20 1018 26 10000 2.06 50 20:21 12.02.2021
2616 Clear 21 1018 26 10000 2.06 30 19:49 12.02.2021
2617 Clear 21 1018 26 10000 2.06 30 19:27 12.02.2021
2618 Clear 22 1017 28 10000 2.06 90 18:32 12.02.2021
2619 Clear 23 1017 22 10000 2.06 30 17:53 12.02.2021
2620 Clear 23 1017 22 10000 2.06 30 17:35 12.02.2021
2621 Clear 25 1017 19 10000 2.57 360 16:44 12.02.2021
2622 Clouds 25 1016 19 10000 3.09 10 15:49 12.02.2021
2623 Clouds 25 1016 19 10000 3.09 10 15:24 12.02.2021
2624 Clear 26 1016 22 10000 1.03 290 14:59 12.02.2021
2625 Clear 26 1016 22 10000 1.03 290 14:34 12.02.2021
2626 Clear 26 1017 25 10000 1.03 40 13:47 12.02.2021
2627 Clear 26 1017 25 10000 1.03 40 13:28 12.02.2021
2628 Clear 25 1017 25 10000 1.54 300 12:53 12.02.2021
2629 Clear 25 1017 25 10000 1.54 300 12:35 12.02.2021
2630 Clear 24 1018 29 10000 1.03 310 11:47 12.02.2021
2631 Clear 24 1018 29 10000 1.03 310 11:20 12.02.2021
2632 Clear 25 1019 23 10000 1.03 340 10:47 12.02.2021
2633 Clear 23 1020 30 10000 1.25 303 09:57 12.02.2021
2634 Clear 23 1020 30 10000 1.25 303 09:39 12.02.2021
2635 Clear 23 1020 30 10000 0.37 342 09:19 12.02.2021
2636 Clear 19 1020 36 10000 0.37 342 08:40 12.02.2021
2637 Clear 19 1020 36 10000 0.22 321 08:20 12.02.2021
2638 Clear 15 1019 44 10000 0.22 321 07:51 12.02.2021
2639 Clear 11 1019 46 10000 1.42 264 06:58 12.02.2021
2640 Clear 10 1019 46 10000 1.21 281 05:51 12.02.2021
2641 Clear 10 1019 46 10000 1 276 05:26 12.02.2021
2642 Clear 12 1018 37 10000 1.03 300 01:59 12.02.2021
2643 Clear 14 1019 41 10000 2.57 90 23:58 11.02.2021
2644 Clear 14 1019 41 10000 2.57 90 23:23 11.02.2021
2645 Clear 15 1019 41 10000 3.09 90 22:58 11.02.2021
2646 Clear 15 1019 41 10000 3.09 90 22:40 11.02.2021
2647 Clear 15 1019 41 10000 3.09 90 22:21 11.02.2021
2648 Clear 16 1019 36 10000 1.26 75 21:39 11.02.2021
2649 Clear 16 1019 36 10000 2.25 59 21:20 11.02.2021
2650 Clear 18 1019 27 10000 2.25 59 20:46 11.02.2021
2651 Clear 18 1019 27 10000 2.86 47 20:23 11.02.2021
2652 Clear 20 1019 23 10000 1.54 60 19:50 11.02.2021
2653 Clear 20 1019 23 10000 1.54 60 19:32 11.02.2021
2654 Clear 21 1018 21 10000 3.09 60 18:59 11.02.2021
2655 Clear 21 1018 21 10000 3.09 60 18:31 11.02.2021
2656 Clear 23 1018 17 10000 3.6 60 17:58 11.02.2021
2657 Clear 23 1018 17 10000 3.6 60 17:36 11.02.2021
2658 Clear 23 1018 17 10000 3.6 60 17:18 11.02.2021
2659 Clear 24 1017 10 10000 2.57 340 16:41 11.02.2021
2660 Clear 24 1017 10 10000 2.57 340 16:22 11.02.2021
2661 Clear 25 1017 9 10000 3.6 360 15:44 11.02.2021
2662 Clear 25 1017 9 10000 3.6 360 15:26 11.02.2021
2663 Clear 25 1017 10 10000 4.12 360 14:47 11.02.2021
2664 Clear 25 1017 10 10000 4.12 360 14:29 11.02.2021
2665 Clear 25 1017 9 10000 3.09 360 13:41 11.02.2021
2666 Clear 25 1017 9 10000 3.09 360 13:19 11.02.2021
2667 Clear 24 1018 10 10000 3.09 360 12:51 11.02.2021
2668 Clear 24 1018 10 10000 3.09 360 12:28 11.02.2021
2669 Clear 24 1019 10 10000 2.06 20 11:46 11.02.2021
2670 Clear 24 1019 10 10000 2.06 20 11:25 11.02.2021
2671 Clear 23 1020 13 10000 2.57 20 10:45 11.02.2021
2672 Clear 23 1020 13 10000 2.57 20 10:45 11.02.2021
2673 Clear 23 1020 13 10000 2.57 20 10:26 11.02.2021
2674 Clear 22 1020 17 10000 2.57 30 09:53 11.02.2021
2675 Clear 22 1020 17 10000 2.57 30 09:22 11.02.2021
2676 Clear 20 1021 21 10000 2.06 360 08:53 11.02.2021
2677 Clear 20 1021 21 10000 2.06 360 08:24 11.02.2021
2678 Clear 19 1020 22 10000 2.25 2 07:30 11.02.2021
2679 Clear 14 1020 31 10000 2.47 333 06:40 11.02.2021
2680 Clear 11 1020 35 10000 1.54 300 04:58 11.02.2021
2681 Clear 12 1020 41 10000 2.57 300 02:29 11.02.2021
2682 Clear 14 1021 33 10000 3.09 290 00:50 11.02.2021
2683 Clear 14 1021 33 10000 3.09 290 00:20 11.02.2021
2684 Clear 16 1021 27 10000 2.57 310 23:44 10.02.2021
2685 Clear 17 1021 29 10000 2.57 340 22:53 10.02.2021
2686 Clear 17 1021 29 10000 2.57 340 22:29 10.02.2021
2687 Clear 17 1021 29 10000 2.57 340 22:29 10.02.2021
2688 Clear 17 1021 27 10000 3.09 20 21:59 10.02.2021
2689 Clear 17 1021 27 10000 3.09 20 21:38 10.02.2021
2690 Clear 17 1021 27 10000 3.09 20 21:19 10.02.2021
2691 Clear 19 1021 24 10000 2.57 10 20:40 10.02.2021
2692 Clear 19 1021 24 10000 2.57 10 20:22 10.02.2021
2693 Clear 20 1021 19 10000 3.09 10 19:45 10.02.2021
2694 Clear 20 1021 19 10000 3.09 10 19:24 10.02.2021
2695 Clear 20 1021 18 10000 3.6 40 18:42 10.02.2021
2696 Clear 20 1021 18 10000 3.6 40 18:22 10.02.2021
2697 Clear 21 1020 16 10000 3.6 40 17:55 10.02.2021
2698 Clear 21 1020 16 10000 3.6 40 17:24 10.02.2021
2699 Clear 21 1020 16 10000 3.6 40 17:24 10.02.2021
2700 Clear 22 1020 15 10000 3.6 20 16:53 10.02.2021
2701 Clear 22 1020 15 10000 3.6 20 16:31 10.02.2021
2702 Clear 24 1019 13 10000 4.12 10 15:55 10.02.2021
2703 Clear 24 1019 13 10000 4.12 10 15:23 10.02.2021
2704 Clear 24 1019 19 10000 3.6 50 14:47 10.02.2021
2705 Clear 23 1020 18 10000 3.6 350 14:29 10.02.2021
2706 Clear 24 1020 18 10000 3.6 350 13:52 10.02.2021
2707 Clear 24 1020 18 10000 3.6 350 13:28 10.02.2021
2708 Clear 23 1020 18 10000 3.6 330 12:50 10.02.2021
2709 Clear 23 1020 18 10000 3.6 330 12:30 10.02.2021
2710 Clear 22 1021 20 10000 4.12 340 11:54 10.02.2021
2711 Clear 22 1021 20 10000 4.12 340 11:36 10.02.2021
2712 Clear 22 1021 20 10000 4.12 340 11:18 10.02.2021
2713 Clear 20 1022 26 10000 4.12 340 10:22 10.02.2021
2714 Clear 19 1023 32 10000 4.12 330 09:45 10.02.2021
2715 Clear 19 1023 32 10000 4.12 330 09:26 10.02.2021
2716 Clear 18 1024 34 10000 3.6 360 08:51 10.02.2021
2717 Clear 18 1024 34 10000 3.6 360 08:30 10.02.2021
2718 Clear 16 1025 39 10000 4.12 330 07:25 10.02.2021
2719 Clear 11 1024 50 10000 2.57 310 05:40 10.02.2021
2720 Clear 11 1023 50 10000 2.57 290 01:21 10.02.2021
2721 Clear 13 1024 50 10000 1.54 320 23:42 09.02.2021
2722 Clear 13 1024 50 10000 1.54 320 23:24 09.02.2021
2723 Clear 15 1025 44 10000 1.54 320 22:41 09.02.2021
2724 Clear 15 1025 44 10000 1.54 320 22:23 09.02.2021
2725 Clear 15 1025 44 10000 1.54 330 21:42 09.02.2021
2726 Clear 15 1025 44 10000 1.54 330 21:19 09.02.2021
2727 Clear 16 1025 44 10000 1.03 30 20:42 09.02.2021
2728 Clear 16 1025 44 10000 1.03 30 20:24 09.02.2021
2729 Clear 17 1025 39 10000 1.54 20 19:42 09.02.2021
2730 Clear 17 1025 39 10000 1.54 20 19:22 09.02.2021
2731 Clear 19 1024 30 10000 3.09 30 18:43 09.02.2021
2732 Clear 19 1024 30 10000 3.09 30 18:25 09.02.2021
2733 Clear 20 1024 28 10000 3.6 30 17:47 09.02.2021
2734 Clear 20 1024 28 10000 3.6 30 17:26 09.02.2021
2735 Clear 21 1024 23 10000 4.12 10 16:52 09.02.2021
2736 Clear 21 1024 23 10000 4.12 10 16:19 09.02.2021
2737 Clear 23 1023 20 10000 5.14 10 15:51 09.02.2021
2738 Clear 23 1023 20 10000 5.14 10 15:29 09.02.2021
2739 Clear 23 1024 18 10000 5.66 10 14:59 09.02.2021
2740 Clear 23 1024 18 10000 5.66 10 14:31 09.02.2021
2741 Clear 23 1024 27 10000 4.63 10 13:59 09.02.2021
2742 Clear 23 1024 27 10000 4.63 10 13:40 09.02.2021
2743 Clear 23 1024 27 10000 4.63 10 13:19 09.02.2021
2744 Clear 22 1024 28 10000 4.63 350 12:41 09.02.2021
2745 Clear 22 1024 28 10000 4.63 350 12:23 09.02.2021
2746 Clear 21 1026 32 10000 5.14 10 11:44 09.02.2021
2747 Clear 21 1026 32 10000 5.14 10 11:21 09.02.2021
2748 Clear 19 1026 37 10000 4.63 350 10:56 09.02.2021
2749 Clear 19 1026 37 10000 4.63 350 10:20 09.02.2021
2750 Clear 18 1027 45 10000 4.63 340 09:51 09.02.2021
2751 Clear 18 1027 45 10000 4.63 340 09:26 09.02.2021
2752 Clear 18 1028 52 10000 4.12 340 08:53 09.02.2021
2753 Clear 18 1028 52 10000 4.12 340 08:28 09.02.2021
2754 Clear 14 1027 62 8000 3.6 340 07:39 09.02.2021
2755 Clear 9 1026 81 10000 1.54 300 04:59 09.02.2021
2756 Clear 10 1026 76 10000 1.54 290 03:45 09.02.2021
2757 Clear 11 1027 76 10000 1.54 330 01:38 09.02.2021
2758 Clear 12 1027 71 10000 1.54 280 00:18 09.02.2021
2759 Clear 12 1027 76 10000 2.06 10 23:22 08.02.2021
2760 Clear 13 1027 62 10000 3.09 20 22:59 08.02.2021
2761 Clear 13 1027 62 10000 3.09 20 22:39 08.02.2021
2762 Clear 13 1027 62 10000 3.09 20 22:21 08.02.2021
2763 Clear 14 1027 58 10000 3.6 20 21:39 08.02.2021
2764 Clear 14 1027 58 10000 3.6 20 21:20 08.02.2021
2765 Clear 15 1026 55 10000 3.09 30 20:44 08.02.2021
2766 Clear 15 1026 55 10000 3.09 30 20:23 08.02.2021
2767 Clear 16 1026 51 10000 3.6 30 19:49 08.02.2021
2768 Clear 16 1026 51 10000 3.6 30 19:30 08.02.2021
2769 Clear 16 1025 48 10000 3.6 40 18:50 08.02.2021
2770 Clear 16 1025 48 10000 3.6 40 18:25 08.02.2021
2771 Clear 17 1025 45 10000 3.6 30 17:59 08.02.2021
2772 Clear 17 1025 45 10000 3.6 30 17:41 08.02.2021
2773 Clear 17 1025 45 10000 3.6 30 17:21 08.02.2021
2774 Clear 17 1025 48 10000 5.04 12 16:40 08.02.2021
2775 Clear 17 1025 48 10000 4.53 17 16:20 08.02.2021
2776 Clear 19 1025 39 10000 4.12 20 15:38 08.02.2021
2777 Clear 19 1025 39 10000 4.12 20 15:18 08.02.2021
2778 Clear 19 1025 39 10000 4.81 23 14:50 08.02.2021
2779 Clear 19 1025 39 10000 4.6 24 14:28 08.02.2021
2780 Clear 19 1025 39 10000 3.09 350 13:49 08.02.2021
2781 Clear 19 1025 39 10000 3.09 350 13:28 08.02.2021
2782 Clear 19 1025 39 10000 3.09 360 12:39 08.02.2021
2783 Clear 19 1025 39 10000 3.09 360 12:20 08.02.2021
2784 Clear 18 1025 45 10000 4.63 360 11:39 08.02.2021
2785 Clear 17 1026 48 10000 4.63 350 10:47 08.02.2021
2786 Clear 17 1026 48 10000 4.63 350 10:26 08.02.2021
2787 Clouds 15 1026 55 10000 7.72 340 09:59 08.02.2021
2788 Clouds 15 1026 55 10000 7.72 340 09:36 08.02.2021
2789 Clouds 15 1026 58 10000 7.72 350 08:57 08.02.2021
2790 Clouds 15 1026 58 10000 7.72 350 08:27 08.02.2021
2791 Clouds 14 1027 67 10000 7.2 340 07:47 08.02.2021
2792 Clear 14 1026 72 10000 5.14 350 06:39 08.02.2021
2793 Clear 13 1025 71 10000 5.14 330 05:18 08.02.2021
2794 Clear 13 1023 71 10000 4.12 330 02:27 08.02.2021
2795 Clear 14 1023 72 10000 4.12 330 00:26 08.02.2021
2796 Clear 15 1023 67 10000 4.12 330 23:55 07.02.2021
2797 Clear 15 1023 67 10000 4.12 330 23:30 07.02.2021
2798 Clear 15 1023 63 10000 4.12 340 22:59 07.02.2021
2799 Clear 15 1023 63 10000 4.12 340 22:41 07.02.2021
2800 Clear 15 1023 63 10000 4.12 340 22:22 07.02.2021
2801 Clear 15 1022 58 10000 5.14 350 21:50 07.02.2021
2802 Clear 15 1022 58 10000 5.14 350 21:25 07.02.2021
2803 Clear 16 1022 51 10000 4.12 340 20:51 07.02.2021
2804 Clear 16 1022 51 10000 4.12 340 20:32 07.02.2021
2805 Clear 16 1021 51 10000 4.63 340 19:54 07.02.2021
2806 Clear 16 1021 51 10000 4.63 340 19:29 07.02.2021
2807 Clear 17 1021 48 10000 5.14 350 18:51 07.02.2021
2808 Clear 17 1021 48 10000 5.14 350 18:31 07.02.2021
2809 Clear 18 1020 42 10000 6.17 340 17:58 07.02.2021
2810 Clear 18 1020 42 10000 6.17 340 17:40 07.02.2021
2811 Clear 18 1020 42 10000 6.17 340 17:18 07.02.2021
2812 Clear 19 1020 32 10000 7.2 340 16:43 07.02.2021
2813 Clear 19 1020 32 10000 7.2 340 16:22 07.02.2021
2814 Clear 20 1019 32 10000 7.2 330 15:46 07.02.2021
2815 Clear 20 1019 32 10000 7.2 330 15:27 07.02.2021
2816 Clear 21 1018 28 10000 8.75 340 14:47 07.02.2021
2817 Clear 21 1018 28 10000 8.75 340 14:29 07.02.2021
2818 Clouds 21 1018 30 10000 6.17 320 13:52 07.02.2021
2819 Clouds 21 1018 30 10000 6.17 320 13:33 07.02.2021
2820 Clear 20 1018 32 10000 4.63 300 12:44 07.02.2021
2821 Clear 20 1018 32 10000 4.63 300 12:22 07.02.2021
2822 Clear 20 1019 34 10000 7.2 320 11:49 07.02.2021
2823 Clear 20 1019 34 10000 7.2 320 11:27 07.02.2021
2824 Clear 18 1020 39 10000 6.69 310 10:48 07.02.2021
2825 Clear 18 1020 39 10000 6.69 310 10:25 07.02.2021
2826 Clear 17 1021 45 10000 7.2 330 09:48 07.02.2021
2827 Clear 17 1021 45 10000 7.2 330 09:21 07.02.2021
2828 Clear 16 1021 44 10000 5.66 310 08:23 07.02.2021
2829 Clear 14 1020 58 10000 4.63 310 06:34 07.02.2021
2830 Clear 12 1018 76 10000 3.09 330 05:57 07.02.2021
2831 Clear 12 1017 76 10000 1.54 310 03:50 07.02.2021
2832 Clear 13 1016 71 10000 2.57 330 01:37 07.02.2021
2833 Clear 14 1018 72 10000 3.6 310 00:35 07.02.2021
2834 Clear 15 1017 67 10000 3.6 310 23:46 06.02.2021
2835 Clear 16 1017 63 10000 2.06 320 22:41 06.02.2021
2836 Clouds 17 1017 63 10000 3.09 360 21:42 06.02.2021
2837 Clouds 17 1017 63 10000 3.09 360 21:22 06.02.2021
2838 Clouds 17 1017 59 10000 3.09 360 20:52 06.02.2021
2839 Clouds 17 1017 59 10000 3.09 360 20:25 06.02.2021
2840 Clear 16 1016 63 10000 4.12 350 19:57 06.02.2021
2841 Clear 16 1016 63 10000 4.12 350 19:32 06.02.2021
2842 Clouds 18 1016 55 10000 4.12 350 18:52 06.02.2021
2843 Clouds 18 1016 55 10000 4.12 350 18:32 06.02.2021
2844 Clouds 19 1015 52 10000 4.63 330 17:49 06.02.2021
2845 Clouds 19 1015 52 10000 4.63 330 17:22 06.02.2021
2846 Clouds 20 1015 45 10000 2.57 40 16:59 06.02.2021
2847 Clouds 20 1015 45 10000 2.57 40 16:41 06.02.2021
2848 Clouds 20 1015 45 10000 2.57 40 16:22 06.02.2021
2849 Clouds 21 1014 49 9000 1.54 60 15:48 06.02.2021
2850 Clouds 21 1014 49 9000 1.54 60 15:22 06.02.2021
2851 Clouds 21 1013 46 8000 4.12 20 14:45 06.02.2021
2852 Clouds 21 1013 46 8000 4.12 20 14:26 06.02.2021
2853 Clouds 20 1014 56 9000 3.6 40 13:49 06.02.2021
2854 Clouds 20 1014 56 9000 3.6 40 13:29 06.02.2021
2855 Clouds 21 1014 43 9000 3.6 50 12:22 06.02.2021
2856 Clouds 20 1016 49 9000 4.12 10 11:48 06.02.2021
2857 Clouds 20 1016 49 9000 4.12 10 11:25 06.02.2021
2858 Clouds 19 1016 55 9000 5.14 350 10:57 06.02.2021
2859 Clouds 19 1016 55 9000 5.14 350 10:39 06.02.2021
2860 Clouds 19 1016 55 9000 5.14 350 10:20 06.02.2021
2861 Clouds 19 1017 59 8000 4.12 10 09:37 06.02.2021
2862 Clouds 19 1017 59 8000 4.12 10 09:18 06.02.2021
2863 Clouds 18 1017 63 8000 2.57 20 08:39 06.02.2021
2864 Clouds 18 1017 63 8000 2.57 20 08:20 06.02.2021
2865 Clouds 16 1016 72 7000 4.12 340 05:44 06.02.2021
2866 Clouds 16 1015 72 6000 6.17 340 04:37 06.02.2021
2867 Dust 17 1015 63 4000 7.72 240 02:34 06.02.2021
2868 Clouds 21 1014 28 10000 3.09 200 00:48 06.02.2021
2869 Clouds 21 1014 28 10000 3.09 200 00:20 06.02.2021
2870 Clouds 21 1013 30 10000 3.09 170 23:46 05.02.2021
2871 Clouds 21 1013 30 10000 3.09 170 23:26 05.02.2021
2872 Clouds 20 1014 21 10000 4.12 150 22:47 05.02.2021
2873 Clouds 20 1014 21 10000 4.12 150 22:23 05.02.2021
2874 Clouds 21 1014 19 10000 4.63 140 21:49 05.02.2021
2875 Clouds 21 1014 19 10000 4.63 140 21:28 05.02.2021
2876 Clear 22 1014 17 10000 4.12 140 20:47 05.02.2021
2877 Clouds 23 1014 14 10000 4.63 150 19:53 05.02.2021
2878 Clouds 23 1014 14 10000 4.63 150 19:21 05.02.2021
2879 Clear 23 1014 14 10000 4.63 150 18:54 05.02.2021
2880 Clear 23 1014 14 10000 4.63 150 18:28 05.02.2021
2881 Clouds 24 1013 15 9000 6.69 140 17:48 05.02.2021
2882 Clouds 24 1013 15 9000 6.69 140 17:27 05.02.2021
2883 Clouds 25 1013 13 7000 7.2 140 16:57 05.02.2021
2884 Clouds 25 1013 13 7000 7.2 140 16:37 05.02.2021
2885 Clouds 25 1013 13 7000 7.2 140 16:19 05.02.2021
2886 Clouds 26 1013 13 7000 8.75 140 15:29 05.02.2021
2887 Dust 27 1013 14 5000 9.77 150 14:57 05.02.2021
2888 Dust 27 1013 14 5000 9.77 150 14:37 05.02.2021
2889 Dust 27 1013 14 5000 9.77 150 14:18 05.02.2021
2890 Dust 27 1013 14 5000 9.77 160 13:39 05.02.2021
2891 Dust 27 1013 14 5000 9.77 160 13:19 05.02.2021
2892 Dust 26 1013 17 5000 10.29 160 12:41 05.02.2021
2893 Clouds 26 1016 18 6000 9.26 160 11:58 05.02.2021
2894 Clouds 25 1016 18 6000 9.26 160 11:37 05.02.2021
2895 Clouds 25 1016 18 6000 9.26 160 11:19 05.02.2021
2896 Clouds 24 1016 20 6000 9.77 150 10:43 05.02.2021
2897 Clouds 24 1016 20 6000 9.77 150 10:22 05.02.2021
2898 Clouds 23 1016 20 6000 8.75 150 09:42 05.02.2021
2899 Clear 23 1016 20 6000 8.75 150 09:22 05.02.2021
2900 Clear 21 1017 23 10000 8.23 140 08:37 05.02.2021
2901 Clear 19 1017 26 10000 8.23 150 07:40 05.02.2021
2902 Clear 19 1017 26 10000 8.23 150 07:19 05.02.2021
2903 Clear 15 1017 33 10000 4.12 160 05:40 05.02.2021
2904 Clear 14 1016 41 10000 2.06 150 04:59 05.02.2021
2905 Clear 16 1016 29 10000 2.06 160 02:25 05.02.2021
2906 Clear 18 1017 25 10000 2.57 150 00:44 05.02.2021
2907 Clear 18 1017 25 10000 2.57 150 00:21 05.02.2021
2908 Clear 18 1017 24 10000 1.54 120 23:59 04.02.2021
2909 Clear 18 1017 24 10000 1.54 120 23:40 04.02.2021
2910 Clear 18 1017 24 10000 1.54 120 23:22 04.02.2021
2911 Clear 19 1017 26 10000 2.06 120 22:52 04.02.2021
2912 Clear 19 1017 26 10000 2.06 120 22:30 04.02.2021
2913 Clear 19 1017 30 10000 1.54 120 21:43 04.02.2021
2914 Clear 19 1017 30 10000 1.54 120 21:23 04.02.2021
2915 Clear 20 1017 28 10000 2.06 110 20:54 04.02.2021
2916 Clear 20 1017 28 10000 2.06 110 20:34 04.02.2021
2917 Clear 20 1017 28 10000 2.06 110 20:34 04.02.2021
2918 Clear 21 1017 24 10000 2.06 110 19:51 04.02.2021
2919 Clear 21 1017 24 10000 2.06 110 19:23 04.02.2021
2920 Clear 22 1017 23 10000 3.09 130 18:40 04.02.2021
2921 Clear 22 1017 23 10000 3.09 130 18:21 04.02.2021
2922 Clear 23 1016 20 10000 3.6 140 17:45 04.02.2021
2923 Clear 23 1016 20 10000 3.6 140 17:21 04.02.2021
2924 Clear 24 1016 18 10000 5.14 110 16:48 04.02.2021
2925 Clear 24 1016 18 10000 5.14 110 16:19 04.02.2021
2926 Clear 22 1015 24 10000 5.14 130 15:41 04.02.2021
2927 Clear 22 1015 24 10000 5.14 130 15:21 04.02.2021
2928 Clear 27 1016 13 10000 7.2 150 14:56 04.02.2021
2929 Clear 27 1016 13 10000 7.2 150 14:37 04.02.2021
2930 Clear 27 1016 13 10000 7.2 150 14:19 04.02.2021
2931 Clear 27 1016 13 10000 7.2 160 13:41 04.02.2021
2932 Clear 27 1016 13 10000 6.69 150 12:57 04.02.2021
2933 Clear 27 1016 13 10000 6.69 150 12:21 04.02.2021
2934 Clear 26 1017 14 10000 5.66 160 11:50 04.02.2021
2935 Clear 26 1017 14 10000 5.66 160 11:32 04.02.2021
2936 Clear 25 1018 16 10000 4.63 160 10:45 04.02.2021
2937 Clear 25 1018 16 10000 4.63 160 10:18 04.02.2021
2938 Clear 23 1019 18 10000 6.17 160 09:43 04.02.2021
2939 Clear 23 1019 18 10000 6.17 160 09:19 04.02.2021
2940 Clear 21 1020 21 10000 6.17 140 08:41 04.02.2021
2941 Clear 21 1020 21 10000 6.17 140 08:20 04.02.2021
2942 Clear 19 1020 24 10000 3.6 140 07:42 04.02.2021
2943 Clear 16 1020 29 10000 5.49 154 06:55 04.02.2021
2944 Clear 16 1020 29 10000 5.49 154 06:37 04.02.2021
2945 Clear 15 1018 39 10000 2.06 140 03:54 04.02.2021
2946 Clear 16 1019 34 10000 1.54 160 02:26 04.02.2021
2947 Clear 18 1020 32 10000 2.06 150 00:48 04.02.2021
2948 Clear 19 1020 28 10000 2.06 160 23:40 03.02.2021
2949 Clear 19 1020 28 10000 2.57 150 22:44 03.02.2021
2950 Clear 19 1020 28 10000 2.57 150 22:23 03.02.2021
2951 Clear 19 1020 32 10000 2.57 140 21:59 03.02.2021
2952 Clear 19 1020 32 10000 2.57 140 21:40 03.02.2021
2953 Clear 19 1020 32 10000 2.57 140 21:20 03.02.2021
2954 Clear 20 1020 30 10000 2.06 130 20:46 03.02.2021
2955 Clear 20 1020 30 10000 2.06 130 20:26 03.02.2021
2956 Clear 21 1020 25 10000 2.57 140 19:46 03.02.2021
2957 Clear 21 1020 25 10000 2.57 140 19:23 03.02.2021
2958 Clear 22 1019 23 10000 3.09 140 18:49 03.02.2021
2959 Clear 22 1019 23 10000 3.09 140 18:21 03.02.2021
2960 Clear 24 1019 20 10000 2.57 150 17:53 03.02.2021
2961 Clear 24 1019 20 10000 2.57 150 17:33 03.02.2021
2962 Clear 24 1019 16 10000 3.09 150 16:57 03.02.2021
2963 Clear 24 1019 16 10000 3.09 150 16:35 03.02.2021
2964 Clear 25 1019 16 10000 2.57 140 15:46 03.02.2021
2965 Clear 25 1019 16 10000 2.57 140 15:26 03.02.2021
2966 Clear 25 1020 19 10000 4.63 150 14:54 03.02.2021
2967 Clear 25 1020 19 10000 4.63 150 14:30 03.02.2021
2968 Clear 25 1020 18 10000 5.14 140 13:56 03.02.2021
2969 Clear 25 1020 18 10000 5.14 140 13:29 03.02.2021
2970 Clear 24 1019 16 10000 5.14 130 12:52 03.02.2021
2971 Clear 24 1019 16 10000 5.14 130 12:27 03.02.2021
2972 Clear 23 1020 17 10000 5.66 140 11:59 03.02.2021
2973 Clear 23 1020 17 10000 5.66 140 11:37 03.02.2021
2974 Clear 22 1023 23 10000 5.14 140 10:58 03.02.2021
2975 Clear 22 1023 23 10000 5.14 140 10:23 03.02.2021
2976 Clear 20 1023 27 10000 4.63 150 09:51 03.02.2021
2977 Clear 20 1023 27 10000 4.63 150 09:32 03.02.2021
2978 Clear 19 1023 27 10000 3.6 150 08:54 03.02.2021
2979 Clear 19 1023 27 10000 3.6 150 08:54 03.02.2021
2980 Clear 19 1023 27 10000 3.6 150 08:35 03.02.2021
2981 Clear 14 1023 47 10000 1.03 100 07:42 03.02.2021
2982 Clear 12 1022 50 10000 2.06 130 06:42 03.02.2021
2983 Clear 12 1021 43 10000 2.06 140 04:55 03.02.2021
2984 Clear 12 1021 43 10000 2.06 140 04:34 03.02.2021
2985 Clear 13 1021 33 10000 2.06 170 03:40 03.02.2021
2986 Clear 14 1021 35 10000 2.06 170 02:37 03.02.2021
2987 Clear 15 1022 33 10000 2.57 140 01:20 03.02.2021
2988 Clear 15 1022 31 10000 2.57 150 00:20 03.02.2021
2989 Clear 15 1022 27 10000 3.09 140 23:40 02.02.2021
2990 Clear 15 1022 27 10000 3.09 140 23:22 02.02.2021
2991 Clear 16 1023 29 10000 2.57 150 22:37 02.02.2021
2992 Clear 16 1023 29 10000 2.57 150 22:18 02.02.2021
2993 Clear 16 1023 31 10000 2.06 140 21:39 02.02.2021
2994 Clear 16 1023 31 10000 2.06 140 21:21 02.02.2021
2995 Clear 18 1023 24 10000 3.6 110 20:47 02.02.2021
2996 Clear 18 1023 24 10000 3.6 110 20:21 02.02.2021
2997 Clear 19 1023 32 10000 2.06 160 19:48 02.02.2021
2998 Clear 19 1023 32 10000 2.06 160 19:30 02.02.2021
2999 Clear 19 1023 32 10000 2.06 160 19:30 02.02.2021
3000 Clear 19 1023 32 10000 2.06 160 19:30 02.02.2021
3001 Clear 20 1023 30 10000 2.06 150 18:46 02.02.2021
3002 Clear 20 1023 30 10000 2.06 150 18:26 02.02.2021
3003 Clear 21 1022 24 10000 2.57 150 17:52 02.02.2021
3004 Clear 21 1022 24 10000 2.57 150 17:24 02.02.2021
3005 Clear 22 1022 23 10000 3.09 140 16:58 02.02.2021
3006 Clear 22 1022 23 10000 3.09 140 16:38 02.02.2021
3007 Clear 22 1022 23 10000 3.09 140 16:18 02.02.2021
3008 Clear 24 1022 19 10000 2.57 140 15:42 02.02.2021
3009 Clear 24 1022 19 10000 2.57 140 15:21 02.02.2021
3010 Clear 25 1022 17 10000 3.6 130 14:41 02.02.2021
3011 Clear 25 1022 17 10000 3.6 130 14:20 02.02.2021
3012 Clear 25 1022 18 10000 2.57 150 13:54 02.02.2021
3013 Clear 25 1022 18 10000 2.57 150 13:36 02.02.2021
3014 Clear 25 1022 18 10000 2.57 150 13:18 02.02.2021
3015 Clear 25 1023 21 10000 3.6 170 12:31 02.02.2021
3016 Clear 24 1024 20 10000 3.6 160 11:44 02.02.2021
3017 Clear 24 1024 20 10000 3.6 160 11:22 02.02.2021
3018 Clear 24 1025 20 10000 2.57 150 10:53 02.02.2021
3019 Clear 24 1025 20 10000 2.57 150 10:27 02.02.2021
3020 Clear 21 1025 28 10000 2.06 130 09:46 02.02.2021
3021 Clear 21 1025 28 10000 2.06 130 09:25 02.02.2021
3022 Clear 17 1026 44 10000 1.54 100 08:48 02.02.2021
3023 Clear 17 1026 44 10000 1.54 100 08:22 02.02.2021
3024 Clear 14 1025 47 10000 2.8 137 07:28 02.02.2021
3025 Clear 13 1025 47 10000 2.84 138 06:42 02.02.2021
3026 Clear 10 1025 54 10000 2.25 131 05:52 02.02.2021
3027 Clear 11 1024 37 10000 1.93 124 04:37 02.02.2021
3028 Clear 13 1024 33 10000 1.54 150 02:25 02.02.2021
3029 Clear 13 1024 33 10000 1.54 150 01:28 02.02.2021
3030 Clear 14 1024 31 10000 2.32 140 00:31 02.02.2021
3031 Clear 15 1024 31 10000 1.54 140 23:18 01.02.2021
3032 Clear 16 1024 29 10000 2.06 110 22:40 01.02.2021
3033 Clear 16 1024 29 10000 2.06 110 22:21 01.02.2021
3034 Clear 17 1024 25 10000 2.57 90 21:48 01.02.2021
3035 Clear 17 1024 25 10000 2.57 90 21:26 01.02.2021
3036 Clear 17 1024 25 10000 3.09 90 20:47 01.02.2021
3037 Clear 17 1024 25 10000 3.09 90 20:25 01.02.2021
3038 Clear 18 1024 24 10000 2.57 100 19:55 01.02.2021
3039 Clear 18 1024 24 10000 2.57 100 19:37 01.02.2021
3040 Clear 18 1024 24 10000 2.57 100 19:18 01.02.2021
3041 Clear 19 1024 19 10000 2.57 90 18:41 01.02.2021
3042 Clear 19 1024 19 10000 2.57 90 18:22 01.02.2021
3043 Clear 20 1023 24 10000 2.57 110 17:45 01.02.2021
3044 Clear 20 1023 24 10000 2.57 110 17:22 01.02.2021
3045 Clear 21 1023 23 10000 2.57 100 16:42 01.02.2021
3046 Clear 22 1022 26 10000 2.06 140 16:42 01.02.2021
3047 Clear 22 1022 26 10000 2.06 140 16:22 01.02.2021
3048 Clear 22 1022 26 10000 2.06 140 15:41 01.02.2021
3049 Clear 22 1022 26 10000 2.06 140 15:19 01.02.2021
3050 Clear 22 1022 24 10000 3.09 150 14:51 01.02.2021
3051 Clear 22 1022 24 10000 3.09 150 14:23 01.02.2021
3052 Clear 22 1022 20 10000 3.6 120 13:44 01.02.2021
3053 Clear 22 1022 20 10000 3.6 120 13:25 01.02.2021
3054 Clear 22 1022 18 10000 3.6 130 12:44 01.02.2021
3055 Clear 22 1022 18 10000 3.6 130 12:25 01.02.2021
3056 Clouds 22 1023 18 9000 3.09 110 11:43 01.02.2021
3057 Clouds 22 1023 18 9000 3.09 110 11:21 01.02.2021
3058 Clear 21 1024 19 10000 2.06 140 10:47 01.02.2021
3059 Clear 21 1024 19 10000 2.06 140 10:21 01.02.2021
3060 Clear 19 1025 22 10000 3.6 130 09:51 01.02.2021
3061 Clear 19 1025 22 10000 3.6 130 09:25 01.02.2021
3062 Clear 17 1025 24 10000 3.09 150 08:56 01.02.2021
3063 Clear 17 1025 24 10000 3.09 150 08:24 01.02.2021
3064 Clear 13 1025 30 10000 2.06 100 06:58 01.02.2021
3065 Clear 11 1024 35 10000 1.84 115 04:32 01.02.2021
3066 Clear 12 1022 33 10000 1.54 140 02:38 01.02.2021
3067 Clear 14 1022 35 10000 1.54 140 23:52 31.01.2021
3068 Clear 14 1022 33 10000 1.54 110 22:56 31.01.2021
3069 Clear 14 1022 33 10000 1.54 110 22:37 31.01.2021
3070 Clear 14 1022 33 10000 1.54 110 22:37 31.01.2021
3071 Clear 14 1022 33 10000 1.54 110 22:18 31.01.2021
3072 Clear 15 1022 31 10000 1.54 120 21:42 31.01.2021
3073 Clear 15 1022 31 10000 1.54 120 21:19 31.01.2021
3074 Clear 16 1022 29 10000 1.54 110 20:42 31.01.2021
3075 Clear 16 1022 29 10000 1.54 110 20:20 31.01.2021
3076 Clear 17 1022 27 10000 1.54 100 19:38 31.01.2021
3077 Clear 17 1022 27 10000 1.54 100 19:19 31.01.2021
3078 Clear 18 1022 24 10000 2.06 90 18:47 31.01.2021
3079 Clear 18 1022 24 10000 2.06 90 18:25 31.01.2021
3080 Clear 19 1021 28 10000 1.54 0 17:57 31.01.2021
3081 Clear 19 1021 28 10000 1.54 0 17:38 31.01.2021
3082 Clear 19 1021 28 10000 1.54 0 17:19 31.01.2021
3083 Clear 19 1021 28 10000 1.54 0 17:19 31.01.2021
3084 Clear 20 1021 32 10000 2.06 330 16:41 31.01.2021
3085 Clear 20 1021 32 10000 2.06 330 16:20 31.01.2021
3086 Clear 22 1021 23 10000 2.06 40 15:48 31.01.2021
3087 Clear 22 1021 23 10000 2.06 40 15:18 31.01.2021
3088 Clear 22 1021 21 10000 2.06 50 14:36 31.01.2021
3089 Clear 22 1021 21 10000 2.06 50 14:18 31.01.2021
3090 Clear 22 1021 18 10000 2.06 60 13:39 31.01.2021
3091 Clear 22 1021 18 10000 2.06 60 13:18 31.01.2021
3092 Clear 21 1021 19 10000 2.89 121 12:45 31.01.2021
3093 Clear 21 1021 19 10000 2.62 118 12:20 31.01.2021
3094 Clear 20 1021 22 10000 2.06 50 11:39 31.01.2021
3095 Clear 20 1021 22 10000 2.06 50 11:20 31.01.2021
3096 Clear 19 1022 24 10000 2.46 105 10:45 31.01.2021
3097 Clear 19 1022 24 10000 2.52 91 10:26 31.01.2021
3098 Clear 17 1023 29 10000 2.06 100 09:39 31.01.2021
3099 Clear 15 1024 31 10000 2.57 90 08:34 31.01.2021
3100 Clear 15 1024 31 10000 2.57 90 08:34 31.01.2021
3101 Clear 13 1024 35 10000 2.57 60 07:55 31.01.2021
3102 Clear 12 1023 37 10000 2.94 67 06:36 31.01.2021
3103 Clear 10 1022 50 10000 2.57 20 02:19 31.01.2021
3104 Clear 11 1022 46 10000 2.57 30 00:28 31.01.2021
3105 Clear 11 1022 46 10000 2.57 30 00:28 31.01.2021
3106 Clear 12 1023 43 10000 2.06 30 23:43 30.01.2021
3107 Clear 12 1023 43 10000 2.06 30 23:22 30.01.2021
3108 Clear 13 1023 41 10000 2.06 40 22:38 30.01.2021
3109 Clear 14 1023 35 10000 3.09 30 21:45 30.01.2021
3110 Clear 14 1023 35 10000 3.09 30 21:25 30.01.2021
3111 Clear 15 1023 36 10000 3.09 40 20:58 30.01.2021
3112 Clear 15 1023 36 10000 3.09 40 20:38 30.01.2021
3113 Clear 16 1023 31 10000 3.6 30 19:59 30.01.2021
3114 Clear 16 1023 31 10000 3.6 30 19:40 30.01.2021
3115 Clear 16 1023 31 10000 3.6 30 19:19 30.01.2021
3116 Clear 16 1023 31 10000 3.6 30 19:19 30.01.2021
3117 Clear 17 1022 29 10000 3.6 30 18:40 30.01.2021
3118 Clear 17 1022 29 10000 3.6 30 18:20 30.01.2021
3119 Clear 18 1021 29 10000 3.6 30 17:45 30.01.2021
3120 Clear 18 1021 29 10000 3.6 30 17:18 30.01.2021
3121 Clear 19 1020 26 10000 4.63 30 16:41 30.01.2021
3122 Clear 19 1020 26 10000 4.63 30 16:22 30.01.2021
3123 Clear 21 1021 23 8000 4.12 20 15:49 30.01.2021
3124 Clear 21 1021 23 8000 4.12 20 15:24 30.01.2021
3125 Clear 21 1019 23 8000 5.14 40 14:52 30.01.2021
3126 Clear 21 1019 23 8000 5.14 40 14:28 30.01.2021
3127 Clear 21 1019 11 8000 4.12 20 13:53 30.01.2021
3128 Clear 21 1019 11 8000 4.12 20 13:20 30.01.2021
3129 Clear 20 1020 26 8000 4.63 30 12:43 30.01.2021
3130 Clear 20 1020 26 8000 4.63 30 12:23 30.01.2021
3131 Clear 19 1021 27 8000 4.63 30 11:46 30.01.2021
3132 Clear 18 1022 29 8000 5.66 20 10:56 30.01.2021
3133 Clear 18 1022 29 8000 5.66 20 10:27 30.01.2021
3134 Clear 17 1022 31 8000 5.66 20 09:41 30.01.2021
3135 Clear 17 1022 31 8000 5.66 20 09:22 30.01.2021
3136 Clear 16 1022 33 8000 5.66 20 08:44 30.01.2021
3137 Clear 15 1021 33 8000 5.66 350 07:41 30.01.2021
3138 Clouds 15 1021 33 8000 5.66 350 06:25 30.01.2021
3139 Clouds 17 1018 25 7000 4.63 350 03:46 30.01.2021
3140 Clouds 18 1018 22 7000 4.63 350 02:52 30.01.2021
3141 Clouds 18 1018 22 7000 4.63 350 02:21 30.01.2021
3142 Clouds 19 1016 34 7000 2.06 320 00:53 30.01.2021
3143 Clouds 19 1016 34 7000 2.06 320 00:21 30.01.2021
3144 Clouds 18 1016 27 7000 1.75 268 23:50 29.01.2021
3145 Clouds 18 1016 27 7000 2.32 252 23:27 29.01.2021
3146 Clouds 19 1016 37 7000 2.32 252 22:45 29.01.2021
3147 Clear 19 1016 37 7000 3.39 172 22:25 29.01.2021
3148 Clear 19 1016 26 7000 3.39 172 21:45 29.01.2021
3149 Clear 19 1016 26 7000 3.32 158 21:26 29.01.2021
3150 Clear 20 1016 28 7000 1.54 160 20:42 29.01.2021
3151 Clear 20 1016 28 7000 1.54 160 20:21 29.01.2021
3152 Clear 23 1016 27 7000 1.54 170 19:39 29.01.2021
3153 Clouds 23 1016 27 7000 1.54 170 19:20 29.01.2021
3154 Clouds 25 1015 25 7000 1.54 160 18:48 29.01.2021
3155 Clouds 26 1015 17 6000 3.09 200 17:47 29.01.2021
3156 Clouds 26 1015 17 6000 3.09 200 17:22 29.01.2021
3157 Clouds 28 1015 16 6000 4.63 240 16:47 29.01.2021
3158 Clouds 28 1015 16 6000 4.63 240 16:24 29.01.2021
3159 Clouds 28 1014 15 6000 5.14 250 15:54 29.01.2021
3160 Clouds 28 1014 15 6000 5.14 250 15:36 29.01.2021
3161 Clear 28 1016 18 10000 4.12 220 14:58 29.01.2021
3162 Clear 28 1016 18 10000 4.12 220 14:21 29.01.2021
3163 Clear 28 1015 16 10000 4.12 220 13:45 29.01.2021
3164 Clear 28 1015 16 10000 4.12 220 13:26 29.01.2021
3165 Clear 27 1015 18 10000 3.6 200 12:30 29.01.2021
3166 Clear 25 1017 20 10000 4.63 180 11:58 29.01.2021
3167 Clear 25 1017 20 10000 4.63 180 11:40 29.01.2021
3168 Clear 25 1017 20 10000 4.63 180 11:18 29.01.2021
3169 Clear 24 1018 20 10000 4.63 180 10:41 29.01.2021
3170 Clear 19 1018 39 10000 1.54 140 09:56 29.01.2021
3171 Clear 19 1018 39 10000 1.54 140 09:36 29.01.2021
3172 Clear 22 1018 21 10000 4.63 170 08:48 29.01.2021
3173 Clear 18 1018 39 10000 1.54 140 08:26 29.01.2021
3174 Clear 17 1018 39 10000 1.54 140 07:44 29.01.2021
3175 Clear 17 1018 39 10000 1.54 140 07:23 29.01.2021
3176 Clear 15 1017 41 10000 1.54 150 06:35 29.01.2021
3177 Clear 17 1017 27 10000 3.6 160 03:53 29.01.2021
3178 Clear 19 1018 27 10000 3.09 160 00:51 29.01.2021
3179 Clear 19 1018 27 10000 3.09 160 00:23 29.01.2021
3180 Clouds 19 1018 27 9000 3.09 160 23:47 28.01.2021
3181 Clouds 19 1018 27 9000 3.09 160 23:28 28.01.2021
3182 Clouds 19 1018 24 9000 3.6 160 22:59 28.01.2021
3183 Clouds 19 1018 24 9000 3.6 160 22:39 28.01.2021
3184 Clouds 19 1018 24 9000 3.6 160 22:21 28.01.2021
3185 Clouds 19 1018 24 9000 3.6 160 22:21 28.01.2021
3186 Clouds 19 1018 24 8000 4.12 150 21:42 28.01.2021
3187 Clouds 19 1018 24 8000 4.12 150 21:22 28.01.2021
3188 Clouds 19 1018 32 8000 3.09 140 20:45 28.01.2021
3189 Clear 19 1018 32 8000 3.09 140 20:19 28.01.2021
3190 Clear 21 1017 23 8000 5.66 160 19:52 28.01.2021
3191 Clear 21 1017 23 8000 5.66 160 19:28 28.01.2021
3192 Clear 22 1017 23 7000 5.14 150 18:49 28.01.2021
3193 Clear 22 1017 23 7000 5.14 150 18:49 28.01.2021
3194 Clear 22 1017 23 7000 5.14 150 18:30 28.01.2021
3195 Clear 23 1017 19 7000 4.63 160 17:54 28.01.2021
3196 Clear 23 1017 19 7000 4.63 160 17:34 28.01.2021
3197 Clear 25 1016 18 7000 5.14 160 16:58 28.01.2021
3198 Clear 25 1016 18 7000 5.14 160 16:39 28.01.2021
3199 Clear 25 1016 18 7000 5.14 160 16:20 28.01.2021
3200 Clear 26 1017 18 8000 5.66 160 15:25 28.01.2021
3201 Clear 25 1017 18 8000 6.69 180 14:48 28.01.2021
3202 Clear 25 1017 18 8000 6.69 180 14:26 28.01.2021
3203 Clear 25 1017 18 8000 5.14 150 13:59 28.01.2021
3204 Clear 25 1017 18 8000 5.14 150 13:25 28.01.2021
3205 Clouds 25 1017 18 8000 6.17 150 12:50 28.01.2021
3206 Clouds 25 1017 18 8000 6.17 150 12:32 28.01.2021
3207 Clouds 24 1018 19 8000 6.69 150 11:57 28.01.2021
3208 Clouds 24 1018 19 8000 6.69 150 11:39 28.01.2021
3209 Clouds 24 1018 19 8000 6.69 150 11:18 28.01.2021
3210 Clouds 22 1019 21 9000 9.26 150 10:48 28.01.2021
3211 Clear 22 1019 21 9000 9.26 150 10:24 28.01.2021
3212 Clear 21 1019 21 9000 10.29 180 09:39 28.01.2021
3213 Clear 21 1019 21 9000 10.29 180 09:19 28.01.2021
3214 Clear 20 1020 22 9000 9.26 160 08:44 28.01.2021
3215 Clear 18 1020 27 10000 6.17 150 07:50 28.01.2021
3216 Clear 18 1020 27 10000 6.17 150 07:21 28.01.2021
3217 Clear 16 1019 29 10000 4.63 150 06:48 28.01.2021
3218 Clear 15 1019 31 10000 4.63 170 04:31 28.01.2021
3219 Clear 15 1019 31 10000 3.09 160 02:45 28.01.2021
3220 Clear 17 1020 27 10000 4.12 160 00:45 28.01.2021
3221 Clear 18 1020 25 10000 3.6 160 23:26 27.01.2021
3222 Clear 19 1020 30 10000 2.57 140 22:57 27.01.2021
3223 Clear 19 1020 30 10000 2.57 140 22:39 27.01.2021
3224 Clear 19 1020 30 10000 2.57 140 22:18 27.01.2021
3225 Clear 19 1020 28 10000 2.57 150 21:41 27.01.2021
3226 Clear 19 1020 28 10000 2.57 150 21:22 27.01.2021
3227 Clear 19 1020 30 10000 3.6 140 20:42 27.01.2021
3228 Clear 19 1020 30 10000 3.6 140 20:18 27.01.2021
3229 Clear 20 1020 28 10000 4.63 160 19:41 27.01.2021
3230 Clear 20 1020 28 10000 4.63 160 19:21 27.01.2021
3231 Clear 21 1020 24 10000 3.6 150 18:43 27.01.2021
3232 Clear 21 1020 24 10000 3.6 150 18:23 27.01.2021
3233 Clear 22 1019 21 10000 3.6 140 17:47 27.01.2021
3234 Clear 22 1019 21 10000 3.6 140 17:28 27.01.2021
3235 Clear 23 1019 18 10000 5.14 140 16:49 27.01.2021
3236 Clear 23 1019 18 10000 5.14 140 16:28 27.01.2021
3237 Clear 23 1019 17 10000 4.63 130 15:51 27.01.2021
3238 Clear 24 1019 15 10000 6.17 140 15:32 27.01.2021
3239 Clear 24 1019 15 10000 6.17 140 14:45 27.01.2021
3240 Clear 24 1019 15 10000 6.17 140 14:23 27.01.2021
3241 Clear 24 1019 15 10000 7.72 150 13:48 27.01.2021
3242 Clear 24 1019 15 10000 7.72 150 13:19 27.01.2021
3243 Clear 24 1019 15 10000 7.2 140 12:40 27.01.2021
3244 Clear 24 1019 15 10000 7.2 140 12:21 27.01.2021
3245 Clear 23 1020 17 10000 6.69 140 11:44 27.01.2021
3246 Clear 23 1020 17 10000 6.69 140 11:22 27.01.2021
3247 Clear 23 1020 17 10000 6.69 140 11:22 27.01.2021
3248 Clear 23 1020 17 10000 6.69 140 11:22 27.01.2021
3249 Clear 22 1022 14 10000 5.14 170 10:40 27.01.2021
3250 Clear 22 1022 14 10000 5.14 170 10:21 27.01.2021
3251 Clear 21 1023 12 10000 6.17 140 09:47 27.01.2021
3252 Clear 19 1023 14 9000 4.63 140 08:59 27.01.2021
3253 Clear 19 1023 14 9000 4.63 140 08:31 27.01.2021
3254 Clear 18 1023 22 9000 4.74 152 07:43 27.01.2021
3255 Clear 18 1023 22 9000 4.74 152 07:43 27.01.2021
3256 Clear 18 1023 22 9000 3.45 147 07:19 27.01.2021
3257 Clear 13 1023 28 9000 2.91 142 06:19 27.01.2021
3258 Clear 10 1022 34 9000 2.91 142 05:44 27.01.2021
3259 Clear 10 1021 30 10000 2.93 140 03:35 27.01.2021
3260 Clear 11 1021 30 10000 2.35 145 02:23 27.01.2021
3261 Clear 11 1021 30 10000 2.35 145 01:50 27.01.2021
3262 Clear 12 1022 28 10000 2.73 143 00:34 27.01.2021
3263 Clear 13 1022 26 10000 2.53 138 23:49 26.01.2021
3264 Clear 13 1022 26 10000 2.53 138 23:30 26.01.2021
3265 Clear 14 1022 26 10000 2.73 134 22:51 26.01.2021
3266 Clear 14 1022 26 10000 3.07 129 22:24 26.01.2021
3267 Clear 15 1022 23 10000 2.06 160 21:54 26.01.2021
3268 Clear 15 1022 23 10000 2.06 160 21:34 26.01.2021
3269 Clear 16 1022 23 10000 2.06 160 20:58 26.01.2021
3270 Clear 16 1022 23 10000 2.06 160 20:40 26.01.2021
3271 Clear 16 1022 23 10000 2.06 160 20:21 26.01.2021
3272 Clear 18 1022 22 10000 3.23 127 19:45 26.01.2021
3273 Clear 18 1022 22 10000 3.13 122 19:22 26.01.2021
3274 Clear 19 1022 22 10000 2.06 120 18:47 26.01.2021
3275 Clear 19 1022 22 10000 2.06 120 18:27 26.01.2021
3276 Clear 19 1022 22 10000 2.06 120 18:27 26.01.2021
3277 Clear 20 1021 21 10000 2.57 130 17:52 26.01.2021
3278 Clear 20 1021 21 10000 2.57 130 17:33 26.01.2021
3279 Clear 21 1021 17 10000 3.6 130 16:56 26.01.2021
3280 Clear 21 1021 17 10000 3.6 130 16:37 26.01.2021
3281 Clear 21 1021 17 10000 3.6 130 16:18 26.01.2021
3282 Clear 25 1020 15 10000 2.57 120 15:44 26.01.2021
3283 Clear 25 1020 15 10000 2.57 120 15:24 26.01.2021
3284 Clear 24 1020 16 10000 2.06 120 14:43 26.01.2021
3285 Clear 24 1020 16 10000 2.06 120 14:25 26.01.2021
3286 Clear 24 1020 15 10000 2.57 150 13:34 26.01.2021
3287 Clear 23 1020 14 10000 2.57 90 12:58 26.01.2021
3288 Clear 23 1020 14 10000 2.57 90 12:38 26.01.2021
3289 Clear 23 1020 14 10000 2.57 90 12:19 26.01.2021
3290 Clear 23 1021 14 10000 2.06 120 11:50 26.01.2021
3291 Clear 23 1021 14 10000 2.06 120 11:19 26.01.2021
3292 Clear 22 1022 20 10000 3.09 150 10:42 26.01.2021
3293 Clear 22 1022 20 10000 3.09 150 10:21 26.01.2021
3294 Clear 21 1024 19 10000 3.6 160 09:40 26.01.2021
3295 Clear 21 1024 19 10000 3.6 160 09:40 26.01.2021
3296 Clear 21 1024 19 10000 3.6 160 09:21 26.01.2021
3297 Clear 19 1024 19 10000 1.54 170 08:48 26.01.2021
3298 Clear 16 1024 19 10000 2.57 150 07:57 26.01.2021
3299 Clear 16 1024 19 10000 2.57 150 07:19 26.01.2021
3300 Clear 9 1023 23 10000 2.7 146 05:52 26.01.2021
3301 Clear 9 1023 23 10000 2.7 146 05:33 26.01.2021
3302 Clear 10 1021 22 10000 2.57 170 03:39 26.01.2021
3303 Clear 11 1021 22 10000 3.6 150 01:19 26.01.2021
3304 Clear 11 1022 20 10000 3.6 170 00:30 26.01.2021
3305 Clear 12 1022 20 10000 3.6 160 23:33 25.01.2021
3306 Clear 13 1022 19 10000 2.57 160 22:51 25.01.2021
3307 Clear 13 1022 19 10000 2.57 160 22:31 25.01.2021
3308 Clear 14 1022 17 10000 3.09 150 21:48 25.01.2021
3309 Clear 14 1022 17 10000 3.09 150 21:20 25.01.2021
3310 Clear 15 1022 17 10000 2.57 140 20:44 25.01.2021
3311 Clear 15 1022 17 10000 2.57 140 20:24 25.01.2021
3312 Clear 16 1022 14 10000 3.6 140 19:49 25.01.2021
3313 Clear 16 1022 14 10000 3.6 140 19:24 25.01.2021
3314 Clear 18 1022 11 10000 2.57 140 18:47 25.01.2021
3315 Clear 18 1022 11 10000 2.57 140 18:25 25.01.2021
3316 Clear 19 1021 10 10000 2.57 130 17:49 25.01.2021
3317 Clear 19 1021 10 10000 2.57 130 17:26 25.01.2021
3318 Clear 21 1020 8 10000 2.57 140 16:57 25.01.2021
3319 Clear 21 1020 8 10000 2.57 140 16:39 25.01.2021
3320 Clear 21 1020 8 10000 2.57 140 16:20 25.01.2021
3321 Clear 22 1020 8 10000 3.09 140 15:41 25.01.2021
3322 Clear 22 1020 8 10000 3.09 140 15:21 25.01.2021
3323 Clear 23 1020 7 10000 2.57 150 14:39 25.01.2021
3324 Clear 23 1020 7 10000 2.57 150 14:18 25.01.2021
3325 Clear 23 1020 7 10000 3.6 170 13:44 25.01.2021
3326 Clear 23 1020 7 10000 3.6 170 13:44 25.01.2021
3327 Clear 23 1020 7 10000 3.6 170 13:22 25.01.2021
3328 Clear 22 1021 7 10000 3.6 150 12:44 25.01.2021
3329 Clear 22 1021 7 10000 3.6 150 12:19 25.01.2021
3330 Clear 21 1021 8 10000 3.6 150 11:31 25.01.2021
3331 Clear 21 1022 9 10000 2.57 150 10:53 25.01.2021
3332 Clear 21 1022 9 10000 2.57 150 10:22 25.01.2021
3333 Clear 19 1023 10 10000 3.09 160 09:54 25.01.2021
3334 Clear 19 1023 10 10000 3.09 160 09:31 25.01.2021
3335 Clear 17 1024 12 10000 1.54 160 08:48 25.01.2021
3336 Clear 17 1024 12 10000 1.54 160 08:23 25.01.2021
3337 Clear 15 1024 12 10000 2.57 150 07:29 25.01.2021
3338 Clear 12 1024 15 10000 1.54 130 06:39 25.01.2021
3339 Clear 9 1022 29 10000 2.34 149 02:56 25.01.2021
3340 Clear 11 1023 24 10000 1.54 140 00:45 25.01.2021
3341 Clear 11 1023 22 10000 2.06 140 23:39 24.01.2021
3342 Clear 11 1023 22 10000 2.06 140 23:18 24.01.2021
3343 Clear 12 1023 20 10000 2.06 130 22:40 24.01.2021
3344 Clear 12 1023 20 10000 2.06 130 22:18 24.01.2021
3345 Clear 13 1023 16 10000 2.06 100 21:37 24.01.2021
3346 Clear 13 1023 16 10000 2.06 100 21:18 24.01.2021
3347 Clear 14 1023 17 10000 2.06 110 20:41 24.01.2021
3348 Clear 14 1023 17 10000 2.06 110 20:19 24.01.2021
3349 Clear 14 1023 17 10000 2.06 110 20:19 24.01.2021
3350 Clear 15 1023 17 10000 2.06 100 19:48 24.01.2021
3351 Clear 15 1023 17 10000 2.06 100 19:25 24.01.2021
3352 Clear 16 1022 13 10000 3.09 90 18:56 24.01.2021
3353 Clear 16 1022 13 10000 3.09 90 18:56 24.01.2021
3354 Clear 16 1022 13 10000 3.09 90 18:37 24.01.2021
3355 Clear 16 1022 13 10000 3.09 90 18:18 24.01.2021
3356 Clear 17 1022 13 10000 2.57 100 17:45 24.01.2021
3357 Clear 17 1022 13 10000 2.57 100 17:20 24.01.2021
3358 Clear 19 1021 13 10000 2.06 130 16:42 24.01.2021
3359 Clear 19 1021 13 10000 2.06 130 16:21 24.01.2021
3360 Clear 20 1021 11 10000 2.06 140 15:48 24.01.2021
3361 Clear 20 1021 11 10000 2.06 140 15:21 24.01.2021
3362 Clear 21 1021 10 10000 3.09 150 14:57 24.01.2021
3363 Clear 21 1021 10 10000 3.09 150 14:34 24.01.2021
3364 Clear 20 1021 10 10000 3.09 120 13:40 24.01.2021
3365 Clear 20 1021 10 10000 3.09 120 13:18 24.01.2021
3366 Clear 19 1022 11 10000 3.09 130 12:40 24.01.2021
3367 Clear 19 1022 11 10000 3.09 130 12:19 24.01.2021
3368 Clear 19 1022 12 10000 2.06 130 11:46 24.01.2021
3369 Clear 19 1022 12 10000 2.06 130 11:23 24.01.2021
3370 Clear 18 1023 12 10000 2.06 130 10:42 24.01.2021
3371 Clear 16 1025 16 10000 2.06 160 09:57 24.01.2021
3372 Clear 16 1025 16 10000 2.06 160 09:22 24.01.2021
3373 Clear 14 1025 19 10000 1.54 130 08:52 24.01.2021
3374 Clear 12 1025 22 10000 1.54 0 07:22 24.01.2021
3375 Clear 7 1023 39 10000 1.12 135 02:34 24.01.2021
3376 Clear 8 1024 34 10000 2.57 50 00:59 24.01.2021
3377 Clear 8 1024 34 10000 2.57 50 00:24 24.01.2021
3378 Clear 8 1024 34 10000 2.57 40 23:47 23.01.2021
3379 Clear 8 1024 34 10000 2.57 40 23:24 23.01.2021
3380 Clear 9 1024 29 10000 2.57 50 22:41 23.01.2021
3381 Clear 9 1024 29 10000 2.57 50 22:21 23.01.2021
3382 Clear 9 1024 29 10000 2.57 50 22:21 23.01.2021
3383 Clear 10 1024 29 10000 2.06 40 21:47 23.01.2021
3384 Clear 10 1024 29 10000 2.06 40 21:19 23.01.2021
3385 Clear 11 1025 24 10000 2.57 60 20:40 23.01.2021
3386 Clear 11 1025 24 10000 2.57 60 20:21 23.01.2021
3387 Clear 12 1024 22 10000 2.57 80 19:45 23.01.2021
3388 Clear 12 1024 22 10000 2.57 80 19:20 23.01.2021
3389 Clear 12 1024 22 10000 2.57 80 19:20 23.01.2021
3390 Clear 13 1024 18 10000 2.57 70 18:44 23.01.2021
3391 Clear 13 1024 18 10000 2.57 70 18:24 23.01.2021
3392 Clear 15 1023 18 10000 2.57 80 17:45 23.01.2021
3393 Clear 15 1023 18 10000 2.57 80 17:26 23.01.2021
3394 Clear 16 1023 20 10000 3.09 70 16:47 23.01.2021
3395 Clear 16 1023 20 10000 3.09 70 16:24 23.01.2021
3396 Clear 16 1023 17 10000 2.57 80 15:31 23.01.2021
3397 Clear 17 1023 19 10000 2.06 40 14:58 23.01.2021
3398 Clear 17 1023 19 10000 2.06 40 14:30 23.01.2021
3399 Clear 17 1023 17 10000 2.06 30 13:50 23.01.2021
3400 Clear 17 1023 17 10000 2.06 30 13:50 23.01.2021
3401 Clear 17 1023 17 10000 2.06 30 13:32 23.01.2021
3402 Clear 17 1024 15 10000 2.06 20 12:49 23.01.2021
3403 Clear 17 1024 15 10000 2.06 20 12:49 23.01.2021
3404 Clear 17 1024 15 10000 2.06 20 12:26 23.01.2021
3405 Clear 15 1025 17 10000 2.06 50 11:45 23.01.2021
3406 Clear 15 1025 17 10000 2.06 50 11:24 23.01.2021
3407 Clear 14 1025 19 10000 2.57 40 10:46 23.01.2021
3408 Clear 14 1025 19 10000 2.57 40 10:18 23.01.2021
3409 Clear 12 1026 20 10000 3.09 30 09:44 23.01.2021
3410 Clear 11 1025 19 10000 3.09 10 08:53 23.01.2021
3411 Clear 9 1025 23 10000 2.57 340 07:57 23.01.2021
3412 Clear 9 1025 23 10000 2.57 340 07:24 23.01.2021
3413 Clear 7 1025 29 10000 3.09 330 03:36 23.01.2021
3414 Clear 8 1025 25 10000 3.09 10 00:38 23.01.2021
3415 Clear 8 1025 27 10000 3.09 90 23:38 22.01.2021
3416 Clear 8 1025 27 10000 3.09 90 23:38 22.01.2021
3417 Clear 9 1025 23 10000 3.6 10 22:46 22.01.2021
3418 Clear 9 1025 23 10000 3.6 10 22:22 22.01.2021
3419 Clear 9 1025 21 10000 3.6 10 21:46 22.01.2021
3420 Clear 9 1025 21 10000 3.6 10 21:26 22.01.2021
3421 Clear 10 1025 20 10000 3.6 20 20:55 22.01.2021
3422 Clear 10 1025 20 10000 3.6 20 20:33 22.01.2021
3423 Clear 11 1025 17 10000 3.6 40 19:54 22.01.2021
3424 Clear 11 1025 17 10000 3.6 40 19:21 22.01.2021
3425 Clear 12 1025 16 10000 3.6 40 18:55 22.01.2021
3426 Clear 12 1025 16 10000 3.6 40 18:28 22.01.2021
3427 Clear 13 1025 15 10000 3.6 30 17:58 22.01.2021
3428 Clear 13 1025 15 10000 3.6 30 17:39 22.01.2021
3429 Clear 14 1024 15 10000 4.12 40 16:59 22.01.2021
3430 Clear 14 1024 15 10000 4.12 40 16:36 22.01.2021
3431 Clear 14 1025 14 10000 4.63 30 15:55 22.01.2021
3432 Clear 14 1025 14 10000 4.63 30 15:26 22.01.2021
3433 Clear 15 1025 13 10000 5.14 10 14:43 22.01.2021
3434 Clear 15 1025 13 10000 5.14 10 14:25 22.01.2021
3435 Clear 15 1025 15 10000 5.14 360 13:46 22.01.2021
3436 Clear 15 1025 15 10000 5.14 360 13:26 22.01.2021
3437 Clear 15 1024 15 10000 5.66 350 12:40 22.01.2021
3438 Clear 15 1024 15 10000 5.66 350 12:18 22.01.2021
3439 Clear 15 1026 18 10000 5.66 350 11:39 22.01.2021
3440 Clear 14 1027 21 10000 6.17 350 10:48 22.01.2021
3441 Clear 14 1027 21 10000 6.17 350 10:25 22.01.2021
3442 Clear 13 1029 26 10000 5.14 340 09:45 22.01.2021
3443 Clear 11 1029 30 10000 5.14 320 08:58 22.01.2021
3444 Clear 11 1029 30 10000 5.14 320 08:32 22.01.2021
3445 Clear 9 1028 32 10000 5.14 320 07:48 22.01.2021
3446 Clear 7 1027 31 10000 5.14 330 05:26 22.01.2021
3447 Clear 7 1027 39 10000 5.66 340 01:54 22.01.2021
3448 Clear 7 1027 39 10000 4.63 360 00:30 22.01.2021
3449 Clear 6 1027 52 10000 3.97 354 23:49 21.01.2021
3450 Clear 6 1027 52 10000 3.94 357 23:20 21.01.2021
3451 Clear 7 1027 49 10000 2.06 340 22:48 21.01.2021
3452 Clear 8 1028 46 10000 3.6 360 21:59 21.01.2021
3453 Clear 8 1028 46 10000 3.6 360 21:39 21.01.2021
3454 Clear 8 1028 46 10000 3.6 360 21:18 21.01.2021
3455 Clear 10 1028 37 10000 9.77 10 20:44 21.01.2021
3456 Clear 10 1028 37 10000 9.77 10 20:21 21.01.2021
3457 Clear 11 1027 35 10000 6.69 10 19:49 21.01.2021
3458 Clear 11 1027 35 10000 6.69 10 19:26 21.01.2021
3459 Clear 11 1027 32 10000 7.2 360 18:47 21.01.2021
3460 Clear 11 1027 32 10000 7.2 360 18:22 21.01.2021
3461 Clear 12 1027 30 9000 7.72 10 17:58 21.01.2021
3462 Clear 12 1027 30 9000 7.72 10 17:22 21.01.2021
3463 Clear 13 1026 24 8000 3.09 10 16:59 21.01.2021
3464 Clear 13 1026 24 8000 3.09 10 16:40 21.01.2021
3465 Clear 13 1026 24 8000 3.09 10 16:22 21.01.2021
3466 Clear 15 1025 23 6000 8.23 10 15:47 21.01.2021
3467 Clear 15 1025 23 6000 8.23 10 15:26 21.01.2021
3468 Clear 15 1025 23 6000 7.72 340 14:46 21.01.2021
3469 Clear 15 1025 23 6000 7.72 340 14:24 21.01.2021
3470 Clear 16 1024 21 6000 3.6 360 13:43 21.01.2021
3471 Clear 16 1024 21 6000 3.6 360 13:23 21.01.2021
3472 Clear 16 1024 21 6000 3.6 360 13:23 21.01.2021
3473 Clear 16 1024 21 6000 3.6 360 13:23 21.01.2021
3474 Clear 16 1025 23 5000 8.75 340 12:44 21.01.2021
3475 Clear 16 1025 23 5000 8.75 340 12:24 21.01.2021
3476 Clear 15 1025 29 6000 7.72 340 11:51 21.01.2021
3477 Clear 15 1025 29 6000 7.72 340 11:30 21.01.2021
3478 Clear 15 1025 29 6000 7.72 340 11:30 21.01.2021
3479 Clouds 15 1026 29 6000 7.72 340 10:52 21.01.2021
3480 Clouds 15 1026 29 6000 7.72 340 10:33 21.01.2021
3481 Dust 14 1027 33 4000 7.72 350 09:47 21.01.2021
3482 Clear 13 1027 35 5000 7.72 350 09:26 21.01.2021
3483 Clear 13 1027 35 5000 7.72 350 08:55 21.01.2021
3484 Clear 13 1027 35 5000 7.72 350 08:27 21.01.2021
3485 Clear 12 1027 37 5000 8.23 350 07:45 21.01.2021
3486 Clouds 12 1027 37 5000 8.23 350 07:23 21.01.2021
3487 Dust 11 1025 43 4000 7.2 340 05:50 21.01.2021
3488 Clear 13 1023 41 10000 5.14 10 04:28 21.01.2021
3489 Clear 16 1022 31 10000 6.17 360 01:25 21.01.2021
3490 Clear 17 1022 24 10000 6.69 360 00:40 21.01.2021
3491 Clear 18 1021 22 10000 4.63 20 23:39 20.01.2021
3492 Clear 18 1021 22 10000 4.63 20 23:21 20.01.2021
3493 Clear 19 1020 26 10000 4.63 10 22:48 20.01.2021
3494 Clear 19 1020 26 10000 4.63 10 22:28 20.01.2021
3495 Clear 21 1019 24 10000 2.57 200 21:43 20.01.2021
3496 Clear 21 1019 24 10000 2.57 200 21:22 20.01.2021
3497 Clear 21 1019 21 10000 3.6 220 20:50 20.01.2021
3498 Clear 21 1019 21 10000 3.6 220 20:20 20.01.2021
3499 Clear 22 1018 19 10000 4.63 240 19:46 20.01.2021
3500 Clear 22 1018 19 10000 4.63 240 19:27 20.01.2021
3501 Clear 24 1018 16 10000 4.63 220 18:42 20.01.2021
3502 Clear 24 1018 16 10000 4.63 220 18:19 20.01.2021
3503 Clear 24 1017 16 8000 4.63 210 17:42 20.01.2021
3504 Clear 24 1017 16 8000 4.63 210 17:23 20.01.2021
3505 Dust 25 1017 15 7000 5.14 230 16:44 20.01.2021
3506 Clear 26 1017 17 10000 5.66 240 15:56 20.01.2021
3507 Clear 26 1017 17 10000 5.66 240 15:36 20.01.2021
3508 Clear 27 1016 13 6000 6.17 220 14:51 20.01.2021
3509 Clear 27 1016 13 6000 6.17 220 14:28 20.01.2021
3510 Clear 28 1015 14 8000 4.12 160 13:59 20.01.2021
3511 Clear 28 1015 14 8000 4.12 160 13:36 20.01.2021
3512 Clear 27 1016 14 10000 4.12 200 12:54 20.01.2021
3513 Clear 27 1016 14 10000 4.12 200 12:22 20.01.2021
3514 Clear 25 1017 19 10000 4.12 170 11:39 20.01.2021
3515 Clear 25 1017 19 10000 4.12 170 11:18 20.01.2021
3516 Clear 23 1018 25 10000 5.14 180 10:44 20.01.2021
3517 Clear 23 1018 25 10000 5.14 180 10:18 20.01.2021
3518 Clear 21 1019 28 10000 5.66 160 09:31 20.01.2021
3519 Clear 20 1020 30 10000 5.66 170 08:59 20.01.2021
3520 Clear 20 1020 30 10000 5.66 170 08:35 20.01.2021
3521 Clear 18 1019 32 10000 6.17 160 07:59 20.01.2021
3522 Clear 18 1019 32 10000 6.17 160 07:37 20.01.2021
3523 Clear 15 1019 36 10000 3.6 170 06:56 20.01.2021
3524 Clear 13 1018 47 10000 1.54 180 03:30 20.01.2021
3525 Clear 14 1018 33 10000 3.6 160 01:51 20.01.2021
3526 Clear 14 1019 33 10000 3.6 160 00:49 20.01.2021
3527 Clear 15 1019 31 10000 3.09 150 23:50 19.01.2021
3528 Clear 15 1019 31 10000 3.09 150 23:32 19.01.2021
3529 Clear 14 1019 29 10000 3.6 140 22:58 19.01.2021
3530 Clear 14 1019 29 10000 3.6 140 22:37 19.01.2021
3531 Clear 14 1019 29 10000 3.6 140 22:19 19.01.2021
3532 Clear 16 1020 27 10000 3.09 140 21:52 19.01.2021
3533 Clear 16 1020 27 10000 3.09 140 21:28 19.01.2021
3534 Clear 17 1021 25 10000 5.66 110 20:49 19.01.2021
3535 Clear 17 1021 25 10000 5.66 110 20:26 19.01.2021
3536 Clear 17 1021 24 10000 5.66 100 19:55 19.01.2021
3537 Clear 17 1021 24 10000 5.66 100 19:30 19.01.2021
3538 Clear 18 1020 22 10000 4.12 80 18:49 19.01.2021
3539 Clear 18 1020 22 10000 4.12 80 18:30 19.01.2021
3540 Clear 19 1020 21 10000 4.12 100 17:47 19.01.2021
3541 Clear 19 1020 21 10000 4.12 100 17:29 19.01.2021
3542 Clear 20 1019 22 9000 5.14 120 16:59 19.01.2021
3543 Clear 20 1019 22 9000 5.14 120 16:38 19.01.2021
3544 Clear 20 1019 22 9000 5.14 120 16:18 19.01.2021
3545 Clear 21 1019 21 7000 4.63 120 15:41 19.01.2021
3546 Clear 21 1019 21 7000 4.63 120 15:21 19.01.2021
3547 Clear 22 1018 20 10000 5.14 130 14:41 19.01.2021
3548 Clear 22 1018 20 10000 4.63 90 14:23 19.01.2021
3549 Clear 22 1018 20 10000 4.63 90 13:48 19.01.2021
3550 Clear 22 1018 20 10000 4.63 90 13:21 19.01.2021
3551 Clear 22 1018 20 10000 4.63 90 13:21 19.01.2021
3552 Clear 22 1019 21 10000 4.63 100 12:48 19.01.2021
3553 Clear 22 1019 21 10000 4.63 100 12:29 19.01.2021
3554 Clear 21 1020 23 10000 3.09 80 11:44 19.01.2021
3555 Clear 21 1020 23 10000 3.09 80 11:26 19.01.2021
3556 Clear 20 1021 24 10000 3.6 70 10:51 19.01.2021
3557 Clear 20 1021 24 10000 3.6 70 10:32 19.01.2021
3558 Clear 18 1022 32 10000 4.63 80 09:53 19.01.2021
3559 Clear 18 1022 32 10000 4.63 80 09:30 19.01.2021
3560 Clear 17 1023 36 10000 4.12 70 08:56 19.01.2021
3561 Clear 17 1023 36 10000 4.12 70 08:24 19.01.2021
3562 Clear 15 1023 39 10000 3.6 50 07:47 19.01.2021
3563 Clear 13 1022 38 10000 2.57 20 06:53 19.01.2021
3564 Clear 13 1021 35 10000 1.54 50 02:32 19.01.2021
3565 Clear 14 1021 33 10000 1.54 40 00:55 19.01.2021
3566 Clear 15 1021 31 10000 2.06 50 23:58 18.01.2021
3567 Clear 15 1021 31 10000 2.06 50 23:32 18.01.2021
3568 Clear 16 1021 29 10000 2.57 60 22:51 18.01.2021
3569 Clear 16 1021 29 10000 2.57 60 22:26 18.01.2021
3570 Clear 17 1021 29 10000 3.09 50 21:55 18.01.2021
3571 Clear 17 1021 29 10000 3.09 50 21:37 18.01.2021
3572 Clear 17 1021 29 10000 3.09 50 21:19 18.01.2021
3573 Clear 18 1021 27 10000 3.09 60 20:42 18.01.2021
3574 Clear 18 1021 27 10000 3.09 60 20:22 18.01.2021
3575 Clear 19 1021 24 10000 4.12 50 19:48 18.01.2021
3576 Clear 19 1021 24 10000 4.12 50 19:30 18.01.2021
3577 Clear 20 1020 19 10000 4.12 70 18:47 18.01.2021
3578 Clear 20 1020 19 10000 4.12 70 18:22 18.01.2021
3579 Clear 21 1020 20 10000 5.14 60 17:44 18.01.2021
3580 Clear 21 1020 20 10000 5.14 60 17:21 18.01.2021
3581 Clear 21 1018 23 10000 4.63 80 16:46 18.01.2021
3582 Clear 21 1018 23 10000 4.63 80 16:20 18.01.2021
3583 Clear 21 1018 23 10000 4.63 80 16:20 18.01.2021
3584 Clear 22 1018 23 10000 4.63 50 15:42 18.01.2021
3585 Clear 22 1018 23 10000 4.63 50 15:20 18.01.2021
3586 Clear 24 1017 17 10000 3.09 90 14:43 18.01.2021
3587 Clear 24 1017 17 10000 3.09 90 14:25 18.01.2021
3588 Clear 24 1017 17 10000 2.57 60 13:46 18.01.2021
3589 Clear 24 1017 17 10000 2.57 60 13:26 18.01.2021
3590 Clear 25 1017 16 10000 0.53 38 12:52 18.01.2021
3591 Clear 25 1017 16 10000 0.13 162 12:20 18.01.2021
3592 Clear 25 1017 16 10000 0.13 155 12:20 18.01.2021
3593 Clear 23 1018 18 10000 2.57 150 11:56 18.01.2021
3594 Clear 23 1018 18 10000 2.57 150 11:37 18.01.2021
3595 Clear 23 1018 18 10000 2.57 150 11:18 18.01.2021
3596 Clear 22 1019 21 10000 4.12 160 10:39 18.01.2021
3597 Clear 21 1019 23 10000 4.12 140 09:43 18.01.2021
3598 Clear 21 1019 23 10000 4.12 140 09:24 18.01.2021
3599 Clear 19 1020 24 10000 4.12 140 08:50 18.01.2021
3600 Clear 17 1020 27 10000 3.09 140 07:56 18.01.2021
3601 Clear 17 1020 27 10000 3.09 140 07:33 18.01.2021
3602 Clear 13 1018 35 10000 1.03 120 05:32 18.01.2021
3603 Clear 13 1018 38 10000 2.59 128 04:33 18.01.2021
3604 Clear 13 1017 33 10000 2.5 126 03:59 18.01.2021
3605 Clear 13 1017 33 10000 2.5 126 03:41 18.01.2021
3606 Clear 13 1017 33 10000 2.17 118 03:19 18.01.2021
3607 Clear 14 1016 31 10000 2.17 118 02:37 18.01.2021
3608 Clear 15 1016 29 10000 1.91 72 00:46 18.01.2021
3609 Clear 15 1016 29 10000 1.91 53 00:27 18.01.2021
3610 Clear 16 1016 27 10000 1.91 53 23:46 17.01.2021
3611 Clear 16 1016 27 10000 2.16 48 23:20 17.01.2021
3612 Clear 17 1016 32 10000 2.57 10 22:39 17.01.2021
3613 Clear 17 1016 32 10000 2.57 10 22:39 17.01.2021
3614 Clear 17 1016 32 10000 2.57 10 22:19 17.01.2021
3615 Clear 17 1016 29 10000 2.57 30 21:39 17.01.2021
3616 Clear 17 1016 29 10000 2.57 30 21:21 17.01.2021
3617 Clear 16 1016 39 10000 1.03 10 20:48 17.01.2021
3618 Clear 18 1015 30 10000 3.6 20 20:27 17.01.2021
3619 Clear 19 1015 30 10000 3.6 20 19:42 17.01.2021
3620 Clear 19 1015 30 10000 3.6 20 19:22 17.01.2021
3621 Clear 21 1015 43 10000 3.09 10 18:41 17.01.2021
3622 Clear 21 1015 43 10000 3.09 10 18:21 17.01.2021
3623 Clear 21 1015 43 10000 4.44 356 17:47 17.01.2021
3624 Clear 23 1014 27 10000 3.09 260 17:26 17.01.2021
3625 Clear 24 1014 27 10000 3.09 260 16:44 17.01.2021
3626 Clear 24 1014 27 10000 3.09 260 16:20 17.01.2021
3627 Clear 25 1013 27 10000 5.14 260 15:43 17.01.2021
3628 Clear 25 1013 27 10000 5.14 260 15:24 17.01.2021
3629 Clear 26 1013 25 10000 4.63 260 14:49 17.01.2021
3630 Clear 26 1013 25 10000 4.63 260 14:26 17.01.2021
3631 Clear 26 1013 24 10000 4.63 270 13:45 17.01.2021
3632 Clear 26 1013 24 10000 4.63 270 13:27 17.01.2021
3633 Clear 25 1013 22 10000 5.14 260 12:53 17.01.2021
3634 Clear 25 1013 22 10000 5.14 260 12:31 17.01.2021
3635 Clear 26 1013 18 10000 5.66 260 11:56 17.01.2021
3636 Clear 26 1013 18 10000 5.66 260 11:23 17.01.2021
3637 Clear 24 1015 16 10000 7.2 260 10:48 17.01.2021
3638 Clear 24 1015 16 10000 7.2 260 10:21 17.01.2021
3639 Clear 24 1016 15 10000 6.69 260 09:26 17.01.2021
3640 Clear 22 1016 17 10000 6.17 250 08:44 17.01.2021
3641 Clear 19 1015 24 10000 4.12 230 06:52 17.01.2021
3642 Clear 15 1013 47 10000 2.06 160 04:28 17.01.2021
3643 Clear 15 1013 47 10000 1.54 150 02:46 17.01.2021
3644 Clear 16 1014 44 10000 2.06 160 00:48 17.01.2021
3645 Clear 16 1014 44 10000 2.06 160 00:18 17.01.2021
3646 Clear 17 1014 42 10000 2.06 160 23:49 16.01.2021
3647 Clear 17 1014 42 10000 2.06 160 23:19 16.01.2021
3648 Clear 17 1014 42 10000 2.06 160 22:36 16.01.2021
3649 Clear 17 1014 42 10000 2.06 160 21:58 16.01.2021
3650 Clear 17 1014 42 10000 2.06 160 21:25 16.01.2021
3651 Clear 18 1015 37 10000 2.06 160 20:59 16.01.2021
3652 Clear 18 1015 37 10000 2.06 160 20:41 16.01.2021
3653 Clear 18 1015 37 10000 2.06 160 20:19 16.01.2021
3654 Clear 19 1015 37 10000 2.06 160 19:42 16.01.2021
3655 Clear 19 1015 37 10000 2.06 160 19:24 16.01.2021
3656 Clear 20 1015 37 10000 1.54 150 18:42 16.01.2021
3657 Clear 20 1015 37 10000 1.54 150 18:24 16.01.2021
3658 Clear 21 1015 35 10000 2.57 140 17:46 16.01.2021
3659 Clear 21 1015 35 10000 2.57 140 17:28 16.01.2021
3660 Clear 22 1015 30 10000 3.09 140 16:45 16.01.2021
3661 Clear 22 1015 30 10000 3.09 140 16:26 16.01.2021
3662 Clear 23 1015 31 10000 3.09 140 15:51 16.01.2021
3663 Clear 23 1015 31 10000 3.09 140 15:20 16.01.2021
3664 Clear 23 1014 31 10000 2.06 160 14:21 16.01.2021
3665 Clear 22 1016 35 10000 3.09 100 13:48 16.01.2021
3666 Clear 22 1016 35 10000 3.09 100 13:21 16.01.2021
3667 Clear 21 1016 35 10000 3.09 100 12:39 16.01.2021
3668 Clear 21 1016 35 10000 3.09 100 12:20 16.01.2021
3669 Clear 20 1018 42 10000 2.06 100 11:48 16.01.2021
3670 Clear 20 1018 42 10000 2.06 100 11:24 16.01.2021
3671 Clouds 19 1019 42 10000 3.6 170 10:46 16.01.2021
3672 Clouds 19 1019 42 10000 3.6 170 10:21 16.01.2021
3673 Clouds 17 1020 48 10000 2.57 60 09:33 16.01.2021
3674 Clouds 15 1020 55 10000 3.09 20 08:35 16.01.2021
3675 Clouds 14 1019 62 9000 2.64 47 07:32 16.01.2021
3676 Clouds 12 1018 76 9000 3.17 61 06:43 16.01.2021
3677 Clouds 12 1018 71 8000 1.54 310 04:39 16.01.2021
3678 Haze 13 1017 67 5000 1.03 330 02:56 16.01.2021
3679 Haze 14 1018 58 4000 2.06 340 00:50 16.01.2021
3680 Haze 14 1018 58 4000 2.06 340 00:28 16.01.2021
3681 Haze 15 1018 51 4000 3.09 350 23:58 15.01.2021
3682 Haze 15 1018 51 4000 3.09 350 23:21 15.01.2021
3683 Haze 16 1018 48 4000 3.6 350 22:25 15.01.2021
3684 Haze 17 1018 45 4000 4.12 360 21:46 15.01.2021
3685 Haze 18 1018 45 4000 3.6 10 20:59 15.01.2021
3686 Haze 18 1018 45 4000 3.6 10 20:40 15.01.2021
3687 Haze 18 1018 45 4000 3.6 10 20:21 15.01.2021
3688 Haze 17 1017 48 5000 3.6 10 19:40 15.01.2021
3689 Haze 17 1017 48 5000 3.6 10 19:22 15.01.2021
3690 Clear 19 1017 42 10000 2.06 310 18:43 15.01.2021
3691 Clear 19 1017 42 10000 2.06 310 18:19 15.01.2021
3692 Clouds 20 1017 37 10000 4.12 330 17:51 15.01.2021
3693 Clouds 20 1017 37 10000 4.12 330 17:26 15.01.2021
3694 Clouds 21 1016 35 10000 4.63 330 16:54 15.01.2021
3695 Clouds 21 1016 35 10000 4.63 330 16:25 15.01.2021
3696 Clouds 23 1015 29 10000 5.14 310 15:43 15.01.2021
3697 Clouds 23 1015 29 10000 5.14 310 15:23 15.01.2021
3698 Clear 24 1015 35 10000 4.12 260 14:51 15.01.2021
3699 Clear 24 1015 35 10000 4.12 260 14:28 15.01.2021
3700 Clear 24 1015 25 10000 5.66 280 13:46 15.01.2021
3701 Clear 24 1015 25 10000 5.66 280 13:24 15.01.2021
3702 Clear 24 1015 31 10000 5.66 260 12:59 15.01.2021
3703 Clear 24 1015 31 10000 5.66 260 12:37 15.01.2021
3704 Clear 24 1015 31 10000 5.66 260 12:18 15.01.2021
3705 Clear 24 1015 31 10000 5.66 250 11:42 15.01.2021
3706 Clear 23 1016 28 10000 2.06 210 10:58 15.01.2021
3707 Clear 23 1016 28 10000 2.06 210 10:39 15.01.2021
3708 Clear 23 1016 28 10000 2.06 210 10:19 15.01.2021
3709 Clear 23 1016 28 10000 2.06 210 10:19 15.01.2021
3710 Clear 23 1017 27 10000 2.06 180 09:47 15.01.2021
3711 Clear 23 1017 27 10000 2.06 180 09:47 15.01.2021
3712 Clear 23 1017 27 10000 2.06 180 09:27 15.01.2021
3713 Clear 20 1018 32 10000 2.06 160 08:27 15.01.2021
3714 Clear 17 1017 36 10000 2.57 150 07:42 15.01.2021
3715 Clear 17 1017 36 10000 2.57 150 07:21 15.01.2021
3716 Clear 11 1017 58 10000 1.03 230 05:56 15.01.2021
3717 Clear 12 1015 37 10000 2.06 160 02:26 15.01.2021
3718 Clear 12 1016 33 10000 3.55 162 00:32 15.01.2021
3719 Clear 13 1016 30 10000 3.77 162 23:29 14.01.2021
3720 Clear 15 1016 27 10000 3.77 162 22:50 14.01.2021
3721 Clear 15 1016 27 10000 3.39 160 22:27 14.01.2021
3722 Clear 13 1016 47 10000 3.39 160 21:56 14.01.2021
3723 Clear 15 1016 21 10000 2.57 150 21:38 14.01.2021
3724 Clear 15 1016 21 10000 2.57 150 21:19 14.01.2021
3725 Clear 15 1016 21 10000 2.57 150 20:42 14.01.2021
3726 Clear 16 1016 23 10000 4.12 140 19:57 14.01.2021
3727 Clear 16 1016 23 10000 4.12 140 19:36 14.01.2021
3728 Clear 16 1016 23 10000 4.12 140 19:36 14.01.2021
3729 Clear 18 1016 25 10000 2.06 140 18:57 14.01.2021
3730 Clear 18 1016 25 10000 2.06 140 18:36 14.01.2021
3731 Clear 18 1016 24 10000 2.57 130 17:55 14.01.2021
3732 Clear 18 1016 24 10000 2.57 130 17:29 14.01.2021
3733 Clear 20 1016 22 10000 2.06 140 16:54 14.01.2021
3734 Clear 20 1016 22 10000 2.06 140 16:30 14.01.2021
3735 Clear 22 1015 18 10000 3.6 120 15:54 14.01.2021
3736 Clear 22 1015 18 10000 3.6 120 15:28 14.01.2021
3737 Clear 23 1015 16 10000 4.12 210 14:42 14.01.2021
3738 Clear 23 1015 16 10000 4.12 210 14:22 14.01.2021
3739 Clear 23 1016 16 10000 3.09 170 13:54 14.01.2021
3740 Clear 23 1016 16 10000 3.09 170 13:23 14.01.2021
3741 Clear 23 1016 17 10000 3.09 210 12:56 14.01.2021
3742 Clear 23 1016 17 10000 3.09 210 12:21 14.01.2021
3743 Clear 22 1017 18 10000 2.57 200 11:54 14.01.2021
3744 Clear 22 1017 18 10000 2.57 200 11:27 14.01.2021
3745 Clear 20 1018 19 10000 2.57 200 10:58 14.01.2021
3746 Clear 20 1018 19 10000 2.57 200 10:38 14.01.2021
3747 Clear 20 1018 19 10000 2.57 200 10:18 14.01.2021
3748 Clear 19 1019 18 10000 3.09 160 09:42 14.01.2021
3749 Clear 19 1019 18 10000 3.09 160 09:20 14.01.2021
3750 Clear 17 1020 19 10000 4.12 170 08:30 14.01.2021
3751 Clear 15 1021 25 10000 3.61 182 07:53 14.01.2021
3752 Clear 15 1021 25 10000 3.61 182 07:30 14.01.2021
3753 Clear 11 1020 26 10000 1.54 150 06:30 14.01.2021
3754 Clear 5 1020 65 10000 2.25 167 04:56 14.01.2021
3755 Clear 10 1021 26 10000 0.93 153 23:59 13.01.2021
3756 Clear 10 1021 26 10000 0.58 106 23:27 13.01.2021
3757 Clear 9 1021 34 10000 0.58 106 22:48 13.01.2021
3758 Clear 9 1021 34 10000 0.72 53 22:20 13.01.2021
3759 Clear 9 1021 29 10000 0.72 53 21:43 13.01.2021
3760 Clear 9 1021 29 10000 1.28 39 21:20 13.01.2021
3761 Clear 10 1021 28 10000 1.28 39 20:48 13.01.2021
3762 Clear 10 1021 28 10000 1.98 16 20:22 13.01.2021
3763 Clear 12 1021 26 10000 1.98 16 19:47 13.01.2021
3764 Clear 12 1021 26 10000 2.76 17 19:23 13.01.2021
3765 Clear 13 1021 22 10000 2.57 10 18:45 13.01.2021
3766 Clear 13 1021 22 10000 2.57 10 18:23 13.01.2021
3767 Clear 16 1021 16 10000 3.09 350 17:41 13.01.2021
3768 Clear 16 1021 16 10000 3.09 350 17:18 13.01.2021
3769 Clear 18 1021 15 10000 2.06 280 16:42 13.01.2021
3770 Clear 18 1021 15 10000 2.06 280 16:21 13.01.2021
3771 Clear 19 1021 12 10000 3.09 320 15:41 13.01.2021
3772 Clear 19 1021 12 10000 3.09 320 15:20 13.01.2021
3773 Clear 20 1020 11 10000 3.6 320 14:28 13.01.2021
3774 Clear 20 1020 11 10000 4.12 310 13:46 13.01.2021
3775 Clear 20 1020 11 10000 4.12 310 13:21 13.01.2021
3776 Clear 20 1021 12 10000 4.63 300 12:45 13.01.2021
3777 Clear 20 1021 12 10000 4.63 300 12:24 13.01.2021
3778 Clear 18 1022 17 10000 5.66 290 11:50 13.01.2021
3779 Clear 18 1022 17 10000 5.66 290 11:32 13.01.2021
3780 Clear 17 1023 19 10000 5.14 290 10:48 13.01.2021
3781 Clear 17 1023 19 10000 5.14 290 10:27 13.01.2021
3782 Clear 16 1024 23 10000 4.12 330 09:40 13.01.2021
3783 Clear 14 1024 25 10000 2.57 320 08:59 13.01.2021
3784 Clear 14 1024 25 10000 2.57 320 08:40 13.01.2021
3785 Clear 14 1024 25 10000 2.57 320 08:20 13.01.2021
3786 Clear 12 1025 30 10000 1.03 280 07:28 13.01.2021
3787 Clear 5 1024 52 10000 1.78 306 05:52 13.01.2021
3788 Clear 7 1024 46 10000 1.03 40 04:18 13.01.2021
3789 Clear 7 1024 46 10000 1.03 270 03:43 13.01.2021
3790 Clear 7 1024 46 10000 1.03 270 03:21 13.01.2021
3791 Clear 8 1024 42 10000 2.66 324 00:47 13.01.2021
3792 Clear 8 1024 43 10000 1.03 340 23:40 12.01.2021
3793 Clear 9 1024 37 10000 2.83 329 22:57 12.01.2021
3794 Clear 9 1024 37 10000 2.83 329 22:36 12.01.2021
3795 Clear 9 1024 37 10000 3.08 339 22:18 12.01.2021
3796 Clear 10 1025 32 10000 0.51 300 21:42 12.01.2021
3797 Clear 10 1025 32 10000 0.51 300 21:23 12.01.2021
3798 Clear 11 1025 32 10000 3.33 352 20:46 12.01.2021
3799 Clear 11 1025 32 10000 3.66 0 20:26 12.01.2021
3800 Clear 12 1025 28 10000 2.57 20 19:43 12.01.2021
3801 Clear 14 1024 26 10000 3.09 350 18:54 12.01.2021
3802 Clear 14 1024 26 10000 3.09 350 18:26 12.01.2021
3803 Clear 15 1024 23 10000 3.6 350 17:58 12.01.2021
3804 Clear 15 1024 23 10000 3.6 350 17:33 12.01.2021
3805 Clear 16 1024 25 10000 4.12 350 16:46 12.01.2021
3806 Clear 16 1024 25 10000 4.12 350 16:27 12.01.2021
3807 Clear 18 1023 19 10000 4.63 330 15:54 12.01.2021
3808 Clear 18 1023 19 10000 4.63 330 15:27 12.01.2021
3809 Clear 18 1023 19 10000 4.12 320 14:55 12.01.2021
3810 Clear 18 1023 19 10000 4.12 320 14:37 12.01.2021
3811 Clear 18 1023 19 10000 4.12 320 14:18 12.01.2021
3812 Clear 18 1023 19 10000 3.6 310 13:43 12.01.2021
3813 Clear 17 1024 20 10000 3.6 340 12:38 12.01.2021
3814 Clear 17 1024 23 10000 3.09 320 11:53 12.01.2021
3815 Clear 17 1024 23 10000 3.09 320 11:53 12.01.2021
3816 Clear 17 1024 23 10000 3.09 320 11:34 12.01.2021
3817 Clear 16 1025 25 10000 4.63 350 10:44 12.01.2021
3818 Clear 16 1025 25 10000 4.63 350 10:20 12.01.2021
3819 Clear 15 1027 29 10000 5.14 330 09:53 12.01.2021
3820 Clear 15 1027 29 10000 5.14 330 09:23 12.01.2021
3821 Clear 14 1027 33 10000 4.63 330 08:28 12.01.2021
3822 Clear 12 1027 38 10000 4.12 320 07:56 12.01.2021
3823 Clear 12 1027 38 10000 4.12 320 07:33 12.01.2021
3824 Clear 8 1026 61 10000 3.09 300 05:46 12.01.2021
3825 Clear 9 1025 100 10000 2.06 300 03:46 12.01.2021
3826 Clear 9 1025 100 10000 2.06 300 03:22 12.01.2021
3827 Clear 9 1025 53 10000 2.57 310 02:18 12.01.2021
3828 Clear 10 1026 58 10000 1.54 340 00:35 12.01.2021
3829 Clear 11 1025 58 10000 3.09 10 23:43 11.01.2021
3830 Clear 11 1025 58 10000 3.09 10 23:20 11.01.2021
3831 Clear 11 1025 54 10000 3.09 360 22:46 11.01.2021
3832 Clear 11 1025 54 10000 3.09 360 22:28 11.01.2021
3833 Clear 12 1026 54 10000 3.6 10 21:46 11.01.2021
3834 Clear 12 1026 54 10000 3.6 10 21:25 11.01.2021
3835 Clear 13 1026 47 10000 3.6 20 20:59 11.01.2021
3836 Clear 13 1026 47 10000 3.6 20 20:39 11.01.2021
3837 Clear 13 1026 47 10000 3.6 20 20:39 11.01.2021
3838 Clear 13 1026 47 10000 3.6 20 20:20 11.01.2021
3839 Clear 14 1026 47 10000 4.12 10 19:50 11.01.2021
3840 Clear 14 1026 47 10000 4.12 10 19:22 11.01.2021
3841 Clear 16 1026 41 10000 5.66 20 18:43 11.01.2021
3842 Clear 16 1026 41 10000 5.66 20 18:23 11.01.2021
3843 Clear 17 1025 36 10000 5.66 10 17:42 11.01.2021
3844 Clear 17 1025 36 10000 5.66 10 17:24 11.01.2021
3845 Clear 18 1024 36 10000 50.42 340 16:48 11.01.2021
3846 Clear 18 1024 36 10000 50.42 340 16:29 11.01.2021
3847 Clear 19 1023 32 10000 3.6 350 15:57 11.01.2021
3848 Clear 19 1023 32 10000 3.6 350 15:36 11.01.2021
3849 Clear 20 1023 40 10000 4.12 350 14:58 11.01.2021
3850 Clear 20 1023 40 10000 4.12 350 14:36 11.01.2021
3851 Clear 20 1023 39 10000 4.12 10 13:48 11.01.2021
3852 Clear 20 1023 39 10000 4.12 10 13:23 11.01.2021
3853 Clear 19 1023 37 10000 3.09 10 12:44 11.01.2021
3854 Clear 19 1023 37 10000 3.09 10 12:25 11.01.2021
3855 Clear 19 1023 34 9000 4.12 350 11:48 11.01.2021
3856 Clear 19 1023 34 9000 4.12 350 11:18 11.01.2021
3857 Clear 19 1024 42 7000 2.06 0 10:42 11.01.2021
3858 Clear 19 1024 42 7000 2.06 0 10:21 11.01.2021
3859 Clear 17 1026 52 6000 2.57 120 09:37 11.01.2021
3860 Clear 17 1026 52 6000 2.57 120 09:19 11.01.2021
3861 Clear 16 1026 59 6000 2.06 110 08:38 11.01.2021
3862 Clear 13 1026 67 6000 2.06 150 07:50 11.01.2021
3863 Clear 13 1026 67 6000 2.06 150 07:25 11.01.2021
3864 Haze 11 1025 62 5000 1.79 164 06:49 11.01.2021
3865 Clear 11 1023 58 6000 1.54 20 02:52 11.01.2021
3866 Clear 12 1023 58 9000 1.54 70 00:57 11.01.2021
3867 Clear 13 1023 54 9000 2.06 80 23:48 10.01.2021
3868 Clear 13 1023 54 9000 2.06 80 23:23 10.01.2021
3869 Clear 14 1023 55 9000 2.06 90 22:44 10.01.2021
3870 Clear 14 1023 55 9000 2.06 90 22:20 10.01.2021
3871 Clear 14 1023 51 9000 2.57 90 21:41 10.01.2021
3872 Clear 14 1023 51 9000 2.57 90 21:20 10.01.2021
3873 Clear 15 1023 51 9000 2.57 80 20:49 10.01.2021
3874 Clear 15 1023 51 9000 2.57 80 20:29 10.01.2021
3875 Clear 16 1023 48 9000 1.54 80 19:42 10.01.2021
3876 Clear 16 1023 48 9000 1.54 80 19:23 10.01.2021
3877 Clear 17 1022 52 10000 2.06 110 18:45 10.01.2021
3878 Clear 17 1022 52 10000 2.06 110 18:20 10.01.2021
3879 Clear 17 1022 52 9000 1.54 120 17:26 10.01.2021
3880 Clear 18 1022 48 9000 0.51 110 16:51 10.01.2021
3881 Clear 18 1022 48 9000 0.51 110 16:31 10.01.2021
3882 Clouds 19 1021 48 8000 1.54 140 15:42 10.01.2021
3883 Clouds 19 1021 48 8000 1.54 140 15:24 10.01.2021
3884 Clouds 18 1021 48 8000 1.54 130 14:41 10.01.2021
3885 Clouds 18 1021 48 8000 1.54 130 14:23 10.01.2021
3886 Clouds 18 1021 48 6000 1.54 160 13:48 10.01.2021
3887 Clouds 18 1021 48 6000 1.54 160 13:27 10.01.2021
3888 Clear 18 1022 48 6000 1.54 180 12:59 10.01.2021
3889 Clear 18 1022 48 6000 1.54 180 12:41 10.01.2021
3890 Mist 18 1022 48 5000 2.57 160 11:57 10.01.2021
3891 Mist 18 1022 48 5000 2.57 160 11:21 10.01.2021
3892 Mist 17 1023 51 5000 3.6 130 10:52 10.01.2021
3893 Mist 17 1023 51 5000 3.6 130 10:24 10.01.2021
3894 Mist 17 1024 55 5000 5.14 130 09:46 10.01.2021
3895 Mist 16 1025 63 4000 3.6 120 08:50 10.01.2021
3896 Mist 16 1025 63 4000 3.6 120 08:18 10.01.2021
3897 Mist 12 1025 71 4000 1.03 130 06:52 10.01.2021
3898 Mist 12 1025 71 4000 1.03 130 06:18 10.01.2021
3899 Mist 9 1023 87 4000 1.03 160 05:28 10.01.2021
3900 Clear 10 1022 76 8000 2.57 100 02:38 10.01.2021
3901 Clear 11 1023 82 9000 1.03 100 00:25 10.01.2021
3902 Haze 11 1022 87 5000 2.57 90 23:42 09.01.2021
3903 Haze 11 1022 87 5000 2.57 90 23:22 09.01.2021
3904 Clear 11 1022 87 7000 2.57 100 22:25 09.01.2021
3905 Clear 12 1022 82 10000 2.57 90 21:59 09.01.2021
3906 Clear 12 1022 82 10000 2.57 90 21:40 09.01.2021
3907 Clear 12 1022 82 10000 2.57 90 21:21 09.01.2021
3908 Clear 13 1022 76 10000 2.57 80 20:58 09.01.2021
3909 Clear 13 1022 76 10000 2.57 80 20:37 09.01.2021
3910 Clear 14 1022 72 10000 2.57 90 19:42 09.01.2021
3911 Clear 14 1022 72 10000 2.57 90 19:21 09.01.2021
3912 Clear 15 1022 67 10000 2.57 100 18:39 09.01.2021
3913 Clear 15 1022 67 10000 2.57 100 18:19 09.01.2021
3914 Clear 16 1021 63 8000 2.06 130 17:43 09.01.2021
3915 Clear 16 1021 63 8000 2.06 130 17:23 09.01.2021
3916 Clear 17 1021 55 8000 3.09 140 16:31 09.01.2021
3917 Clouds 18 1021 52 8000 2.57 150 15:47 09.01.2021
3918 Clouds 18 1021 52 8000 2.57 150 15:27 09.01.2021
3919 Clouds 17 1021 55 7000 4.63 170 14:38 09.01.2021
3920 Clouds 17 1021 55 7000 4.63 170 14:20 09.01.2021
3921 Clouds 18 1021 55 6000 4.63 150 13:47 09.01.2021
3922 Clouds 18 1021 55 6000 4.63 150 13:28 09.01.2021
3923 Clouds 17 1021 59 6000 4.12 150 12:47 09.01.2021
3924 Clouds 17 1021 59 6000 4.12 150 12:21 09.01.2021
3925 Haze 17 1022 63 5000 1.54 140 11:50 09.01.2021
3926 Haze 17 1022 63 5000 1.54 140 11:27 09.01.2021
3927 Haze 16 1024 67 4000 1.54 100 10:52 09.01.2021
3928 Haze 16 1024 67 4000 1.54 100 10:27 09.01.2021
3929 Haze 15 1024 72 4000 2.06 140 09:46 09.01.2021
3930 Haze 15 1024 72 4000 2.06 140 09:21 09.01.2021
3931 Haze 13 1024 82 4000 1.03 150 08:26 09.01.2021
3932 Mist 11 1023 87 4000 2.06 80 06:56 09.01.2021
3933 Mist 11 1023 87 4000 2.06 80 06:38 09.01.2021
3934 Mist 10 1022 87 4000 2.06 60 04:43 09.01.2021
3935 Mist 11 1022 93 3000 1.54 70 02:48 09.01.2021
3936 Mist 11 1022 93 3000 1.54 70 02:29 09.01.2021
3937 Mist 11 1022 87 3000 1.03 60 01:36 09.01.2021
3938 Mist 12 1022 87 3000 1.03 70 00:34 09.01.2021
3939 Mist 12 1022 87 4000 1.54 50 23:50 08.01.2021
3940 Mist 12 1022 87 4000 1.54 50 23:50 08.01.2021
3941 Mist 12 1022 87 4000 1.54 20 22:54 08.01.2021
3942 Mist 12 1022 82 4000 1.03 360 21:58 08.01.2021
3943 Mist 12 1022 82 4000 1.03 360 21:31 08.01.2021
3944 Mist 13 1023 77 5000 1.54 70 20:41 08.01.2021
3945 Mist 13 1023 77 5000 1.54 70 20:21 08.01.2021
3946 Clear 14 1023 72 6000 2.06 90 19:38 08.01.2021
3947 Clouds 14 1023 72 6000 2.06 90 19:19 08.01.2021
3948 Clouds 13 1022 76 7000 1.54 70 18:34 08.01.2021
3949 Clouds 13 1021 71 7000 1.54 120 17:55 08.01.2021
3950 Clouds 13 1021 71 7000 1.54 120 17:30 08.01.2021
3951 Clouds 14 1021 67 8000 1.54 110 16:51 08.01.2021
3952 Clouds 14 1021 72 7000 1.54 90 15:55 08.01.2021
3953 Clouds 14 1021 72 7000 1.54 90 15:33 08.01.2021
3954 Clouds 15 1021 72 6000 2.06 90 14:41 08.01.2021
3955 Clouds 15 1021 72 6000 2.06 90 14:20 08.01.2021
3956 Clouds 14 1021 72 6000 1.54 60 13:22 08.01.2021
3957 Clouds 14 1021 77 6000 2.06 100 12:52 08.01.2021
3958 Clouds 14 1021 77 6000 2.06 100 12:23 08.01.2021
3959 Clouds 14 1022 72 6000 2.06 100 11:59 08.01.2021
3960 Clouds 14 1022 72 6000 2.06 100 11:39 08.01.2021
3961 Clouds 14 1022 72 6000 2.06 100 11:39 08.01.2021
3962 Clouds 14 1022 72 6000 2.06 100 11:19 08.01.2021
3963 Clouds 13 1023 76 6000 2.57 110 10:42 08.01.2021
3964 Clouds 12 1024 82 7000 3.6 130 09:54 08.01.2021
3965 Clouds 12 1024 82 7000 3.6 130 09:36 08.01.2021
3966 Clouds 12 1024 82 7000 3.6 130 09:18 08.01.2021
3967 Clouds 12 1025 76 6000 2.57 100 07:43 08.01.2021
3968 Clouds 12 1025 76 6000 2.57 100 07:24 08.01.2021
3969 Rain 12 1023 71 6000 2.57 160 04:18 08.01.2021
3970 Clouds 15 1022 88 4000 1.89 48 23:43 07.01.2021
3971 Clouds 15 1022 88 4000 2.62 70 22:55 07.01.2021
3972 Clouds 15 1022 88 4000 2.62 70 22:36 07.01.2021
3973 Clouds 15 1022 82 4000 3.04 67 21:50 07.01.2021
3974 Clouds 15 1022 82 4000 3.04 67 21:31 07.01.2021
3975 Clouds 15 1023 82 4000 3.6 240 20:55 07.01.2021
3976 Rain 15 1023 82 4000 3.6 240 20:36 07.01.2021
3977 Rain 16 1023 77 4000 4.21 54 19:49 07.01.2021
3978 Rain 16 1023 77 4000 3.53 75 19:26 07.01.2021
3979 Rain 15 1023 88 4000 2.57 220 18:47 07.01.2021
3980 Rain 15 1023 88 4000 2.57 220 18:20 07.01.2021
3981 Rain 16 1022 72 10000 3.09 180 17:35 07.01.2021
3982 Rain 17 1022 59 10000 2.06 210 16:57 07.01.2021
3983 Rain 17 1022 59 10000 2.06 210 16:32 07.01.2021
3984 Rain 18 1021 45 10000 2.57 120 15:56 07.01.2021
3985 Rain 18 1021 45 10000 2.57 120 15:31 07.01.2021
3986 Clouds 20 1020 40 10000 3.6 130 14:34 07.01.2021
3987 Clear 20 1020 40 10000 3.09 90 13:59 07.01.2021
3988 Clear 20 1020 40 10000 3.09 90 13:30 07.01.2021
3989 Clouds 20 1019 40 10000 1.72 126 12:55 07.01.2021
3990 Clear 19 1021 45 10000 3.1 170 12:24 07.01.2021
3991 Clear 19 1021 45 10000 3.1 170 11:43 07.01.2021
3992 Clear 18 1022 52 10000 3.6 140 11:25 07.01.2021
3993 Clear 18 1022 52 10000 3.6 140 10:38 07.01.2021
3994 Clear 17 1024 55 10000 3.1 150 10:19 07.01.2021
3995 Clear 17 1024 55 10000 3.1 150 09:41 07.01.2021
3996 Clear 16 1025 59 10000 3.1 130 08:51 07.01.2021
3997 Clear 15 1024 54 10000 2.1 140 08:23 07.01.2021
3998 Clear 15 1024 54 10000 2.1 140 07:43 07.01.2021
3999 Clear 12 1024 66 10000 2.1 90 06:50 07.01.2021
4000 Clouds 13 1022 50 10000 1 190 02:19 07.01.2021
4001 Clear 14 1022 50 10000 1 50 00:22 07.01.2021
4002 Clear 14 1022 50 10000 1 50 23:31 06.01.2021
4003 Clear 15 1023 47 10000 1 120 22:29 06.01.2021
4004 Clear 15 1023 47 10000 1 120 21:42 06.01.2021
4005 Clear 16 1023 48 10000 3.1 90 21:22 06.01.2021
4006 Clear 16 1023 48 10000 3.1 90 20:47 06.01.2021
4007 Clear 17 1023 48 10000 4.1 80 20:22 06.01.2021
4008 Clear 17 1023 48 10000 4.1 80 20:22 06.01.2021
4009 Clear 17 1023 48 10000 4.1 80 19:48 06.01.2021
4010 Clear 17 1023 48 10000 4.1 80 19:28 06.01.2021
4011 Clear 18 1023 48 10000 2.6 110 18:50 06.01.2021
4012 Clear 19 1022 48 10000 1.5 120 18:31 06.01.2021
4013 Clear 19 1022 48 10000 1.5 120 17:47 06.01.2021
4014 Clear 19 1022 48 10000 1.5 120 17:28 06.01.2021
4015 Clear 20 1022 45 10000 1 130 16:57 06.01.2021
4016 Clear 21 1022 40 10000 2.1 120 16:21 06.01.2021
4017 Clear 21 1022 40 10000 2.1 120 15:59 06.01.2021
4018 Clear 21 1022 40 10000 2.1 120 15:39 06.01.2021
4019 Clear 22 1021 43 10000 1.5 160 15:21 06.01.2021
4020 Clear 22 1021 43 10000 1.5 160 14:31 06.01.2021
4021 Clear 22 1021 43 10000 2.1 150 13:52 06.01.2021
4022 Clear 22 1021 37 10000 3.1 170 13:26 06.01.2021
4023 Clear 22 1021 37 10000 3.1 170 12:55 06.01.2021
4024 Clear 22 1021 37 10000 3.1 170 12:30 06.01.2021
4025 Clouds 21 1022 40 10000 2.6 160 11:44 06.01.2021
4026 Clear 20 1022 40 10000 3.6 170 11:21 06.01.2021
4027 Clear 20 1022 40 10000 3.6 170 10:35 06.01.2021
4028 Clear 19 1023 42 10000 3.1 150 09:52 06.01.2021
4029 Clear 19 1023 42 10000 3.1 150 09:27 06.01.2021
4030 Clear 17 1024 48 10000 2.6 140 08:51 06.01.2021
4031 Clear 15 1025 58 10000 1.5 160 08:18 06.01.2021
4032 Clear 15 1025 58 10000 1.5 160 07:49 06.01.2021
4033 Clear 11 1023 62 10000 1 130 05:59 06.01.2021
4034 Clear 11 1023 62 10000 1 130 05:28 06.01.2021
4035 Clear 12 1022 58 10000 1.5 100 02:59 06.01.2021
4036 Clear 12 1022 58 10000 1.5 100 02:40 06.01.2021
4037 Clear 12 1021 62 10000 1 120 02:19 06.01.2021
4038 Clear 13 1022 58 10000 1.5 150 23:48 05.01.2021
4039 Clear 13 1022 66 10000 1 140 22:55 05.01.2021
4040 Clear 13 1022 66 10000 1 140 22:36 05.01.2021
4041 Clear 14 1022 62 10000 1 130 22:18 05.01.2021
4042 Clear 15 1022 58 10000 1 110 21:19 05.01.2021
4043 Clear 15 1022 58 10000 1 110 20:30 05.01.2021
4044 Clear 16 1022 55 10000 1 130 19:45 05.01.2021
4045 Clear 16 1022 55 10000 1 130 19:27 05.01.2021
4046 Clear 17 1022 48 10000 2.6 110 18:50 05.01.2021
4047 Clear 18 1021 52 10000 1.5 120 18:28 05.01.2021
4048 Clear 18 1021 52 10000 1.5 120 17:54 05.01.2021
4049 Clear 18 1021 52 10000 1.5 120 17:32 05.01.2021
4050 Clear 19 1021 42 10000 2.1 140 16:57 05.01.2021
4051 Clear 19 1021 42 10000 2.1 140 16:36 05.01.2021
4052 Clear 21 1020 37 10000 2.6 140 16:18 05.01.2021
4053 Clear 21 1020 37 10000 2.6 140 15:40 05.01.2021
4054 Clear 21 1020 37 10000 2.6 150 14:48 05.01.2021
4055 Clear 21 1020 40 10000 2.6 160 14:18 05.01.2021
4056 Clear 21 1020 40 10000 2.6 160 13:43 05.01.2021
4057 Clear 21 1020 37 10000 2.6 160 13:20 05.01.2021
4058 Clear 21 1020 37 10000 2.6 160 12:46 05.01.2021
4059 Clear 20 1020 40 10000 3.6 160 12:20 05.01.2021
4060 Clear 20 1020 40 10000 3.6 160 11:33 05.01.2021
4061 -273 0 0 0 0 0 11:33 05.01.2021
4062 Clear 20 1020 40 10000 3.6 160 11:31 05.01.2021
4063 Clear 19 1021 42 10000 3.1 140 10:45 05.01.2021
4064 Clear 18 1022 45 10000 3.1 140 10:24 05.01.2021
4065 Clear 18 1022 45 10000 3.1 140 09:45 05.01.2021
4066 Clear 17 1023 48 10000 3.1 130 09:25 05.01.2021
4067 Clear 15 1023 62 10000 2.6 130 08:19 05.01.2021
4068 Clouds 11 1021 76 7000 1.5 150 05:38 05.01.2021
4069 Clear 12 1020 71 10000 1 130 03:40 05.01.2021
4070 Clouds 15 1020 58 10000 1.5 130 00:24 05.01.2021
4071 Clouds 15 1020 58 10000 1.5 130 23:43 04.01.2021
4072 Clouds 15 1020 54 10000 2.1 110 23:24 04.01.2021
4073 Clouds 15 1020 54 10000 2.1 110 22:46 04.01.2021
4074 Clouds 15 1020 58 10000 1.5 120 22:21 04.01.2021
4075 Clouds 15 1020 58 10000 1.5 120 21:40 04.01.2021
4076 Clouds 16 1020 51 10000 2.1 130 21:22 04.01.2021
4077 Clouds 16 1020 51 10000 2.1 130 20:42 04.01.2021
4078 Clouds 17 1020 55 10000 1.5 130 20:21 04.01.2021
4079 Clouds 17 1020 55 10000 1.5 130 19:43 04.01.2021
4080 Clouds 18 1020 52 10000 1 130 19:19 04.01.2021
4081 Clouds 18 1020 52 10000 1 130 18:46 04.01.2021
4082 Clouds 18 1020 45 10000 2.1 130 17:59 04.01.2021
4083 Clouds 18 1020 45 10000 2.1 130 17:39 04.01.2021
4084 Clouds 19 1019 48 10000 2.1 150 17:21 04.01.2021
4085 Clouds 19 1019 48 10000 2.1 150 16:42 04.01.2021
4086 Clouds 20 1018 42 10000 3.1 140 16:24 04.01.2021
4087 Clouds 20 1018 42 10000 3.1 140 15:48 04.01.2021
4088 Clouds 20 1018 40 10000 3.6 140 15:24 04.01.2021
4089 Clouds 20 1018 40 10000 3.1 140 13:58 04.01.2021
4090 Clouds 20 1018 40 10000 3.1 140 13:36 04.01.2021
4091 Clouds 19 1018 42 10000 3.1 140 12:57 04.01.2021
4092 Clouds 19 1018 42 10000 3.1 140 12:30 04.01.2021
4093 Drizzle 19 1018 42 10000 3.1 150 11:45 04.01.2021
4094 Clouds 19 1020 42 10000 3.6 140 11:19 04.01.2021
4095 Clouds 19 1020 42 10000 3.6 140 10:45 04.01.2021
4096 Clouds 18 1021 48 9000 3.1 130 10:23 04.01.2021
4097 Clouds 18 1021 48 9000 3.1 130 09:44 04.01.2021
4098 Drizzle 15 1022 62 8000 2.6 120 09:18 04.01.2021
4099 Rain 15 1022 62 8000 2.6 120 08:32 04.01.2021
4100 Clouds 15 1021 62 8000 2.6 130 07:47 04.01.2021
4101 Haze 13 1021 71 5000 2.6 100 06:40 04.01.2021
4102 Clouds 14 1019 62 10000 1.5 130 05:20 04.01.2021
4103 Clear 13 1018 62 10000 1.5 160 02:27 04.01.2021
4104 Clear 14 1019 62 10000 1.5 140 00:27 04.01.2021
4105 Clear 15 1019 58 10000 1.5 140 23:38 03.01.2021
4106 Clear 16 1020 55 10000 2.1 150 22:59 03.01.2021
4107 Clear 16 1020 55 10000 2.1 150 22:40 03.01.2021
4108 Clear 17 1020 59 10000 2.1 120 22:22 03.01.2021
4109 Clear 17 1020 59 10000 2.1 120 21:45 03.01.2021
4110 Clear 17 1020 59 10000 1.5 150 21:24 03.01.2021
4111 Clear 17 1020 59 10000 1.5 150 20:42 03.01.2021
4112 Clear 18 1020 55 10000 1.5 140 20:20 03.01.2021
4113 Clear 18 1020 55 10000 1.5 140 19:47 03.01.2021
4114 Clear 18 1020 55 10000 1.5 140 19:28 03.01.2021
4115 Clear 18 1020 59 10000 1.5 130 18:50 03.01.2021
4116 Clear 18 1020 59 10000 1.5 130 18:30 03.01.2021
4117 Clear 20 1020 49 10000 2.1 130 17:53 03.01.2021
4118 Clouds 21 1020 49 10000 1.5 130 17:27 03.01.2021
4119 Clouds 21 1020 49 10000 1.5 130 16:56 03.01.2021
4120 Clouds 21 1020 49 10000 1.5 130 16:37 03.01.2021
4121 Clear 22 1019 46 10000 2.1 130 16:18 03.01.2021
4122 Clear 22 1019 46 10000 2.1 130 15:40 03.01.2021
4123 Clear 22 1019 46 10000 1.5 120 14:59 03.01.2021
4124 Clear 22 1019 46 10000 1.5 120 14:40 03.01.2021
4125 Clear 23 1019 46 7000 1.5 140 13:54 03.01.2021
4126 Clouds 23 1019 46 7000 1.5 140 13:25 03.01.2021
4127 Clouds 23 1019 46 7000 1 110 12:57 03.01.2021
4128 Clear 22 1020 53 7000 1.5 180 11:44 03.01.2021
4129 Clear 22 1020 53 7000 1.5 180 11:26 03.01.2021
4130 Clear 21 1021 56 6000 2.1 190 10:56 03.01.2021
4131 Clear 21 1021 56 6000 2.1 190 10:31 03.01.2021
4132 Clear 19 1022 59 6000 3.1 160 09:43 03.01.2021
4133 Haze 18 1023 63 5000 3.1 160 09:23 03.01.2021
4134 Haze 15 1023 77 4000 1 130 07:59 03.01.2021
4135 Mist 11 1023 87 3000 2.07 151 06:25 03.01.2021
4136 Clear 13 1021 87 6000 2.1 160 02:45 03.01.2021
4137 Clear 13 1021 82 6000 1 150 02:20 03.01.2021
4138 Clear 14 1022 82 8000 1.5 110 00:24 03.01.2021
4139 Clear 14 1022 82 8000 1.5 110 23:30 02.01.2021
4140 Clear 14 1022 76 8000 2.61 110 22:59 02.01.2021
4141 Clear 14 1022 76 8000 2.61 110 22:33 02.01.2021
4142 Clear 15 1022 72 10000 3.28 99 21:55 02.01.2021
4143 Clear 15 1022 72 10000 3.28 99 21:33 02.01.2021
4144 Clear 16 1022 67 10000 2.1 110 20:59 02.01.2021
4145 Clear 16 1022 67 10000 2.1 110 20:39 02.01.2021
4146 Clear 17 1022 59 10000 2.6 80 20:19 02.01.2021
4147 Clear 17 1022 59 10000 2.6 80 19:40 02.01.2021
4148 Clear 18 1022 52 10000 2.6 80 19:18 02.01.2021
4149 Clear 18 1022 52 10000 2.6 80 18:40 02.01.2021
4150 Clear 18 1022 55 10000 1.5 100 18:21 02.01.2021
4151 Clear 18 1022 55 10000 1.5 100 17:45 02.01.2021
4152 Clear 20 1022 52 10000 1.5 110 17:22 02.01.2021
4153 Clear 20 1022 52 10000 1.5 110 16:24 02.01.2021
4154 Clear 21 1021 46 10000 3.1 110 15:57 02.01.2021
4155 Clear 21 1021 46 10000 3.1 110 15:38 02.01.2021
4156 Clear 21 1021 49 10000 2.6 110 15:20 02.01.2021
4157 Clear 21 1021 49 10000 2.6 110 14:36 02.01.2021
4158 Clear 22 1020 43 10000 2.1 120 13:54 02.01.2021
4159 Clear 22 1021 49 10000 1.5 140 13:26 02.01.2021
4160 Clear 22 1021 49 10000 1.5 140 12:52 02.01.2021
4161 Clear 22 1021 49 10000 1.5 140 12:31 02.01.2021
4162 Clear 21 1021 52 10000 1.5 130 11:45 02.01.2021
4163 Clear 20 1022 56 10000 2.1 150 11:22 02.01.2021
4164 Clear 20 1022 56 10000 2.1 150 10:46 02.01.2021
4165 Clear 20 1022 56 10000 2.1 150 10:28 02.01.2021
4166 Clear 19 1023 63 10000 2.1 160 09:45 02.01.2021
4167 Clouds 17 1024 67 10000 2.1 130 09:23 02.01.2021
4168 Clouds 17 1024 67 10000 2.1 130 08:49 02.01.2021
4169 Clouds 15 1024 72 10000 1.5 130 08:25 02.01.2021
4170 Clouds 15 1024 72 10000 1.5 130 07:44 02.01.2021
4171 Clouds 12 1023 81 8000 3.15 140 07:21 02.01.2021
4172 Clouds 12 1023 81 8000 2.52 125 06:28 02.01.2021
4173 Clouds 10 1022 87 7000 2.05 106 04:44 02.01.2021
4174 Clear 12 1021 81 10000 1.5 150 00:56 02.01.2021
4175 Clear 12 1021 81 10000 1.5 150 00:35 02.01.2021
4176 Clear 13 1021 76 10000 2.1 90 23:51 01.01.2021
4177 Clear 13 1021 76 10000 2.1 40 23:20 01.01.2021
4178 Clear 13 1021 76 10000 2.1 40 22:47 01.01.2021
4179 Clear 14 1021 76 10000 2.09 90 22:24 01.01.2021
4180 Clear 14 1021 76 10000 2.09 90 21:44 01.01.2021
4181 Clear 14 1021 76 10000 2.84 96 21:22 01.01.2021
4182 Clear 14 1021 76 10000 2.84 96 20:52 01.01.2021
4183 Clear 15 1021 72 10000 3.33 96 20:20 01.01.2021
4184 Clear 15 1021 72 10000 3.33 96 19:43 01.01.2021
4185 Clear 16 1020 72 10000 3.9 87 19:24 01.01.2021
4186 Clear 16 1020 72 10000 3.9 87 18:57 01.01.2021
4187 Clear 16 1020 72 10000 3.87 86 18:39 01.01.2021
4188 Clear 17 1020 67 10000 3.79 74 17:59 01.01.2021
4189 Clear 17 1020 67 10000 3.79 74 17:41 01.01.2021
4190 Clear 18 1020 63 10000 2.1 110 17:18 01.01.2021
4191 Clear 18 1020 63 10000 2.1 110 16:37 01.01.2021
4192 Clear 19 1019 59 10000 1.5 130 15:46 01.01.2021
4193 Clouds 19 1019 59 9000 2.6 130 14:57 01.01.2021
4194 Clouds 19 1019 59 9000 2.6 130 14:39 01.01.2021
4195 Clear 19 1018 59 8000 2.6 170 13:52 01.01.2021
4196 Clear 19 1018 59 8000 2.6 170 13:33 01.01.2021
4197 Clouds 18 1019 63 8000 3.1 150 12:47 01.01.2021
4198 Clouds 18 1019 63 8000 3.6 130 12:20 01.01.2021
4199 Clouds 18 1019 63 8000 3.6 130 11:39 01.01.2021
4200 Clouds 17 1020 67 8000 3.6 160 11:18 01.01.2021
4201 Clouds 17 1020 67 8000 3.6 160 10:43 01.01.2021
4202 Clouds 17 1022 67 8000 3.1 150 09:50 01.01.2021
4203 Clouds 16 1022 72 8000 2.6 160 09:22 01.01.2021
4204 Clouds 16 1022 72 8000 2.6 160 08:30 01.01.2021
4205 Clouds 14 1020 67 10000 2.1 100 04:54 01.01.2021
4206 Clouds 14 1020 67 10000 2.1 100 04:30 01.01.2021
4207 Clouds 14 1019 67 10000 2.6 130 01:39 01.01.2021
4208 Clouds 15 1019 67 10000 2.1 120 00:31 01.01.2021
4209 Clouds 15 1019 62 10000 2.1 160 23:37 31.12.2020
4210 Clouds 16 1019 55 10000 2.6 120 23:19 31.12.2020
4211 Clouds 16 1019 55 10000 2.6 120 22:41 31.12.2020
4212 Clouds 16 1020 55 10000 2.6 120 22:21 31.12.2020
4213 Clouds 16 1020 55 10000 2.6 120 21:47 31.12.2020
4214 Clouds 16 1020 55 10000 2.6 120 21:29 31.12.2020
4215 Clouds 16 1019 63 10000 3.88 120 20:57 31.12.2020
4216 Clouds 16 1019 59 10000 2.1 130 20:24 31.12.2020
4217 Clouds 16 1019 59 10000 2.1 130 19:49 31.12.2020
4218 Clouds 16 1019 59 10000 2.1 130 19:31 31.12.2020
4219 Clouds 17 1019 55 10000 1 130 18:50 31.12.2020
4220 Clear 17 1019 55 10000 1.5 130 18:25 31.12.2020
4221 Clear 17 1019 55 10000 1.5 130 17:45 31.12.2020
4222 Clear 18 1019 52 10000 1.5 130 17:24 31.12.2020
4223 Clear 18 1019 52 10000 1.5 130 16:44 31.12.2020
4224 Clear 19 1018 52 10000 2.1 140 16:25 31.12.2020
4225 Clear 19 1018 52 10000 2.1 140 15:55 31.12.2020
4226 Clear 19 1018 52 10000 2.1 140 15:36 31.12.2020
4227 Clear 20 1018 42 10000 2.6 130 15:18 31.12.2020
4228 Clear 20 1018 42 10000 2.6 130 14:39 31.12.2020
4229 Clear 20 1018 49 10000 2.1 150 14:21 31.12.2020
4230 Clear 20 1018 49 10000 2.1 150 13:42 31.12.2020
4231 Clear 20 1018 49 10000 2.1 150 13:24 31.12.2020
4232 Clear 20 1018 42 10000 3.1 160 12:55 31.12.2020
4233 Clear 20 1018 42 10000 3.1 160 12:37 31.12.2020
4234 Clear 20 1019 42 10000 3.1 160 11:53 31.12.2020
4235 Clear 20 1019 42 10000 3.1 160 11:32 31.12.2020
4236 Clear 18 1020 45 10000 3.6 170 10:52 31.12.2020
4237 Clear 18 1020 45 10000 3.6 170 10:31 31.12.2020
4238 Clear 17 1021 51 10000 3.1 150 09:59 31.12.2020
4239 Clear 17 1021 51 10000 3.1 150 09:39 31.12.2020
4240 Clear 16 1022 55 10000 2.6 140 09:21 31.12.2020
4241 Clear 16 1022 55 10000 2.6 140 08:46 31.12.2020
4242 Clear 16 1022 55 10000 2.6 140 08:27 31.12.2020
4243 Clear 14 1022 58 10000 2.1 140 07:52 31.12.2020
4244 Clear 11 1022 66 10000 1.5 140 06:49 31.12.2020
4245 Clear 7 1021 75 10000 2.55 109 05:30 31.12.2020
4246 Clear 11 1020 62 10000 2.6 170 03:24 31.12.2020
4247 Clear 11 1020 62 10000 2.6 170 02:26 31.12.2020
4248 Clear 10 1020 66 10000 1 150 01:53 31.12.2020
4249 Clear 10 1020 66 10000 1 150 01:33 31.12.2020
4250 Clear 10 1021 71 8000 1 160 00:52 31.12.2020
4251 Clear 10 1021 76 8000 1 170 23:55 30.12.2020
4252 Clear 10 1021 81 8000 1 90 23:20 30.12.2020
4253 Clear 10 1021 81 8000 1 90 22:52 30.12.2020
4254 Clear 10 1021 81 8000 1 90 22:32 30.12.2020
4255 Clear 11 1021 76 8000 2.79 131 21:49 30.12.2020
4256 Clear 12 1021 71 10000 1 120 21:25 30.12.2020
4257 Clear 12 1021 71 10000 1 120 20:52 30.12.2020
4258 Clear 13 1021 71 10000 1 140 20:25 30.12.2020
4259 Clear 13 1021 71 10000 1 140 19:42 30.12.2020
4260 Clear 15 1020 58 10000 1.5 140 19:23 30.12.2020
4261 Clear 15 1020 58 10000 1.5 140 18:57 30.12.2020
4262 Clear 15 1020 58 10000 1.5 140 18:37 30.12.2020
4263 Clear 16 1020 59 10000 1.5 120 18:19 30.12.2020
4264 Clear 16 1020 59 10000 1.5 120 17:41 30.12.2020
4265 Clear 18 1020 52 10000 2.1 140 17:21 30.12.2020
4266 Clear 18 1020 52 10000 2.1 140 16:41 30.12.2020
4267 Clear 18 1020 48 10000 2.6 140 15:50 30.12.2020
4268 Clear 18 1020 48 10000 2.6 140 15:29 30.12.2020
4269 Clear 19 1019 45 10000 3.1 140 14:45 30.12.2020
4270 Clear 19 1019 45 10000 3.1 140 14:26 30.12.2020
4271 Clear 20 1020 40 10000 2.6 140 13:53 30.12.2020
4272 Clear 19 1020 48 10000 2.6 150 12:49 30.12.2020
4273 Clear 19 1020 52 10000 3.1 160 12:24 30.12.2020
4274 Clear 19 1020 52 10000 3.1 160 11:39 30.12.2020
4275 Clear 17 1021 59 10000 2.6 150 11:20 30.12.2020
4276 Clear 17 1021 59 10000 2.6 150 10:55 30.12.2020
4277 Clear 17 1021 59 10000 2.6 150 10:36 30.12.2020
4278 Clear 17 1022 59 10000 3.1 150 09:55 30.12.2020
4279 Clear 17 1022 59 10000 3.1 150 09:36 30.12.2020
4280 Clouds 15 1023 62 8000 2.6 160 08:35 30.12.2020
4281 Haze 13 1023 76 5000 2.1 140 07:32 30.12.2020
4282 Mist 10 1022 93 4000 3.3 144 06:54 30.12.2020
4283 Mist 10 1022 93 4000 3.3 144 06:35 30.12.2020
4284 Mist 7 1022 93 2000 2.6 129 05:46 30.12.2020
4285 Mist 7 1022 93 2000 2.31 127 05:27 30.12.2020
4286 Mist 8 1021 93 3000 2.27 135 03:29 30.12.2020
4287 Mist 8 1021 93 3000 2.27 135 02:46 30.12.2020
4288 Mist 8 1021 93 3000 2.54 141 02:27 30.12.2020
4289 Mist 8 1021 93 3000 2.54 141 01:34 30.12.2020
4290 Mist 8 1021 93 3000 2.61 140 00:51 30.12.2020
4291 Mist 8 1021 93 3000 2.61 140 00:32 30.12.2020
4292 Mist 9 1021 93 4000 2.68 141 23:58 29.12.2020
4293 Mist 9 1021 93 4000 2.68 141 23:40 29.12.2020
4294 Mist 9 1022 93 4000 2.75 138 23:21 29.12.2020
4295 Mist 9 1022 93 4000 2.75 138 22:43 29.12.2020
4296 Clouds 11 1022 87 6000 1 80 22:23 29.12.2020
4297 Clouds 11 1022 87 6000 1 80 21:47 29.12.2020
4298 Clouds 12 1022 87 7000 2.6 180 21:29 29.12.2020
4299 Clouds 12 1022 87 7000 2.6 180 20:48 29.12.2020
4300 Clouds 12 1022 81 7000 1 150 20:26 29.12.2020
4301 Clouds 12 1022 81 7000 1 150 19:56 29.12.2020
4302 Clouds 12 1022 81 7000 1 150 19:37 29.12.2020
4303 Clear 13 1022 76 7000 2.1 140 19:18 29.12.2020
4304 Clear 13 1022 76 7000 2.1 140 18:39 29.12.2020
4305 Clear 13 1022 82 7000 1.5 130 18:19 29.12.2020
4306 Clear 13 1022 82 7000 1.5 130 17:44 29.12.2020
4307 Clear 14 1022 76 7000 1.5 120 17:19 29.12.2020
4308 Clear 14 1022 76 7000 1.5 120 16:36 29.12.2020
4309 Clear 15 1021 72 7000 2.1 130 15:59 29.12.2020
4310 Clear 15 1021 72 7000 2.1 130 15:36 29.12.2020
4311 Clear 16 1021 67 7000 2.1 130 14:58 29.12.2020
4312 Clear 16 1021 67 7000 2.1 130 14:36 29.12.2020
4313 Clear 16 1021 67 6000 3.1 150 14:18 29.12.2020
4314 Clear 16 1021 67 6000 3.1 150 13:39 29.12.2020
4315 Haze 16 1021 67 5000 3.1 150 13:18 29.12.2020
4316 Haze 16 1021 67 5000 3.1 150 12:37 29.12.2020
4317 Haze 14 1022 71 5000 3.6 160 12:19 29.12.2020
4318 Haze 14 1022 71 5000 3.6 160 11:52 29.12.2020
4319 Haze 14 1022 71 5000 3.6 160 11:31 29.12.2020
4320 Mist 12 1024 81 5000 2.6 130 10:23 29.12.2020
4321 Mist 12 1024 81 5000 2.6 130 09:48 29.12.2020
4322 Mist 11 1024 81 5000 3.6 130 09:20 29.12.2020
4323 Mist 11 1024 81 5000 3.6 130 08:52 29.12.2020
4324 Haze 11 1024 81 5000 2.1 130 08:19 29.12.2020
4325 Haze 11 1024 81 5000 2.1 130 07:26 29.12.2020
4326 Mist 8 1024 93 1000 2.6 120 06:26 29.12.2020
4327 Clear 8 1022 81 7000 1 130 03:32 29.12.2020
4328 Clear 8 1023 81 10000 2.66 138 00:44 29.12.2020
4329 Clear 11 1023 76 10000 1.5 90 23:55 28.12.2020
4330 Clear 11 1023 71 10000 2.53 115 23:33 28.12.2020
4331 Clear 11 1023 71 10000 2.8 108 22:24 28.12.2020
4332 Clear 12 1024 71 10000 2.8 108 21:44 28.12.2020
4333 Clear 12 1024 71 10000 3.06 86 21:24 28.12.2020
4334 Clear 12 1024 71 10000 3.06 86 20:40 28.12.2020
4335 Clear 13 1024 66 10000 1.5 90 20:22 28.12.2020
4336 Clear 13 1024 66 10000 1.5 90 19:47 28.12.2020
4337 Clear 15 1023 62 10000 1.5 100 19:23 28.12.2020
4338 Clear 15 1023 62 10000 1.5 100 18:51 28.12.2020
4339 Clear 15 1023 62 10000 1.5 100 18:28 28.12.2020
4340 Clear 16 1023 55 10000 2.1 100 17:44 28.12.2020
4341 Clear 17 1022 55 10000 2.6 110 17:25 28.12.2020
4342 Clear 17 1022 55 10000 2.6 110 16:43 28.12.2020
4343 Clear 18 1022 48 10000 2.1 100 16:23 28.12.2020
4344 Clear 18 1022 48 10000 2.1 100 15:46 28.12.2020
4345 Clear 18 1021 45 10000 3.1 110 14:57 28.12.2020
4346 Clear 19 1021 45 10000 2.6 120 13:56 28.12.2020
4347 Clear 19 1021 45 10000 2.6 120 13:35 28.12.2020
4348 Clear 18 1021 52 10000 2.6 120 12:51 28.12.2020
4349 Clear 17 1022 59 10000 3.1 150 12:23 28.12.2020
4350 Clear 17 1022 59 10000 3.1 150 11:47 28.12.2020
4351 Clear 17 1022 59 10000 3.1 150 11:24 28.12.2020
4352 Clouds 15 1023 72 7000 2.1 120 10:49 28.12.2020
4353 Clouds 15 1023 72 7000 2.1 120 10:27 28.12.2020
4354 Clouds 13 1025 76 7000 1.5 160 09:46 28.12.2020
4355 Clear 13 1026 71 10000 1.5 160 09:20 28.12.2020
4356 Clear 11 1025 71 10000 2.1 120 07:40 28.12.2020
4357 Clear 10 1025 57 10000 1 40 06:50 28.12.2020
4358 Clear 8 1024 70 10000 1.85 60 04:41 28.12.2020
4359 Clear 8 1023 75 10000 1.96 67 02:44 28.12.2020
4360 Clear 8 1023 75 10000 1.79 110 00:53 28.12.2020
4361 Clear 9 1023 70 10000 2.02 123 23:49 27.12.2020
4362 Clear 10 1023 66 10000 1 130 23:20 27.12.2020
4363 Clear 10 1024 66 10000 1 90 21:58 27.12.2020
4364 Clear 10 1024 66 10000 1 90 21:27 27.12.2020
4365 Clear 11 1024 57 10000 1 110 20:48 27.12.2020
4366 Clear 11 1024 48 10000 2.1 100 19:48 27.12.2020
4367 Clear 12 1024 40 10000 2.1 80 19:22 27.12.2020
4368 Clear 12 1024 40 10000 2.1 80 18:47 27.12.2020
4369 Clear 13 1023 37 10000 2.6 80 18:19 27.12.2020
4370 Clear 13 1023 37 10000 2.6 80 17:47 27.12.2020
4371 Clear 15 1023 33 10000 2.6 80 17:27 27.12.2020
4372 Clear 15 1023 33 10000 2.6 80 16:43 27.12.2020
4373 Clear 16 1023 29 10000 3.1 80 15:59 27.12.2020
4374 Clear 17 1023 17 10000 3.1 80 15:19 27.12.2020
4375 Clear 17 1023 17 10000 3.1 80 14:41 27.12.2020
4376 Clear 17 1022 16 10000 2.6 70 14:22 27.12.2020
4377 Clear 17 1023 23 10000 2.1 80 13:22 27.12.2020
4378 Clear 17 1023 23 10000 2.1 80 12:47 27.12.2020
4379 Clear 16 1023 18 10000 2.6 110 12:18 27.12.2020
4380 Clear 16 1023 18 10000 2.6 110 11:39 27.12.2020
4381 Clear 16 1024 17 10000 3.1 120 10:52 27.12.2020
4382 Clear 14 1025 24 10000 2.6 130 10:25 27.12.2020
4383 Clear 14 1025 24 10000 2.6 130 09:53 27.12.2020
4384 Clear 12 1026 27 10000 2.6 90 08:50 27.12.2020
4385 Clear 12 1026 27 10000 2.6 90 08:25 27.12.2020
4386 Clear 10 1026 37 10000 1.5 80 07:26 27.12.2020
4387 Clear 5 1025 56 10000 1.71 89 05:45 27.12.2020
4388 Clear 6 1024 48 10000 1.7 76 04:25 27.12.2020
4389 Clear 6 1024 52 10000 1.71 73 03:20 27.12.2020
4390 Clear 7 1024 48 10000 1.84 74 01:34 27.12.2020
4391 Clear 7 1025 45 10000 1.94 61 00:24 27.12.2020
4392 Clear 7 1025 45 10000 1.94 61 23:32 26.12.2020
4393 Clear 8 1026 42 10000 1.99 61 22:57 26.12.2020
4394 Clear 8 1026 42 10000 1.99 61 22:36 26.12.2020
4395 Clear 9 1026 39 10000 1 80 22:18 26.12.2020
4396 Clear 9 1026 39 10000 1 80 22:18 26.12.2020
4397 Clear 9 1026 39 10000 1 80 21:43 26.12.2020
4398 Clear 11 1026 34 10000 1 80 21:22 26.12.2020
4399 Clear 11 1026 34 10000 1 80 20:42 26.12.2020
4400 Clear 11 1025 29 10000 1 50 20:19 26.12.2020
4401 Clear 11 1025 29 10000 1 50 19:27 26.12.2020
4402 Clear 12 1025 25 10000 1.5 50 18:53 26.12.2020
4403 Clear 12 1025 25 10000 1.5 50 18:29 26.12.2020
4404 Clear 13 1025 20 10000 2.1 50 17:42 26.12.2020
4405 Clear 14 1024 19 10000 2.1 50 17:21 26.12.2020
4406 Clear 14 1024 19 10000 2.1 50 16:37 26.12.2020
4407 Clear 15 1024 16 10000 3.1 40 15:38 26.12.2020
4408 Clear 16 1023 14 10000 3.6 50 15:18 26.12.2020
4409 Clear 16 1023 14 10000 3.6 50 14:29 26.12.2020
4410 Clear 16 1023 13 10000 3.1 40 13:53 26.12.2020
4411 Clear 16 1023 13 10000 3.1 40 13:32 26.12.2020
4412 Clear 16 1024 17 10000 2.6 50 12:49 26.12.2020
4413 Clear 16 1024 17 10000 2.6 50 12:30 26.12.2020
4414 Clear 15 1025 18 10000 2.1 10 11:51 26.12.2020
4415 Clouds 13 1026 20 10000 2.6 20 11:24 26.12.2020
4416 Clouds 13 1026 20 10000 2.6 20 10:55 26.12.2020
4417 Clouds 13 1026 20 10000 2.6 20 10:28 26.12.2020
4418 Clouds 11 1027 25 10000 2.6 20 09:52 26.12.2020
4419 Clouds 11 1027 25 10000 2.6 20 09:32 26.12.2020
4420 Clouds 10 1027 29 10000 2.6 20 08:39 26.12.2020
4421 Clouds 9 1027 31 10000 3.6 20 07:56 26.12.2020
4422 Clouds 8 1027 36 10000 2.6 20 06:47 26.12.2020
4423 Clear 9 1025 39 10000 2.1 40 03:52 26.12.2020
4424 Clear 10 1025 72 10000 3.1 30 01:49 26.12.2020
4425 Clear 11 1025 62 10000 2.6 40 00:27 26.12.2020
4426 Clear 11 1025 62 10000 2.6 40 23:41 25.12.2020
4427 Clear 11 1025 62 10000 2.6 40 23:41 25.12.2020
4428 Clear 12 1025 58 10000 2.6 30 23:23 25.12.2020
4429 Clear 12 1025 58 10000 2.6 30 22:50 25.12.2020
4430 Clear 12 1025 62 10000 2.6 40 22:23 25.12.2020
4431 Clear 12 1025 62 10000 2.6 40 21:35 25.12.2020
4432 Clear 13 1025 54 10000 3.6 40 20:59 25.12.2020
4433 Clear 13 1025 54 10000 3.6 40 20:37 25.12.2020
4434 Clear 14 1025 50 10000 3.6 40 19:50 25.12.2020
4435 Clear 15 1025 51 10000 3.6 50 19:30 25.12.2020
4436 Clear 15 1025 51 10000 3.6 50 18:39 25.12.2020
4437 Clear 15 1024 47 10000 3.1 50 17:54 25.12.2020
4438 Clear 15 1024 47 10000 3.1 50 17:34 25.12.2020
4439 Clear 16 1024 41 10000 5.1 40 16:38 25.12.2020
4440 Clouds 17 1023 36 10000 5.1 40 16:19 25.12.2020
4441 Clouds 17 1023 36 10000 5.1 40 15:36 25.12.2020
4442 Clouds 19 1022 32 10000 4.1 60 14:58 25.12.2020
4443 Clouds 19 1022 32 10000 4.1 60 14:30 25.12.2020
4444 Clear 19 1022 34 10000 2.1 50 13:46 25.12.2020
4445 Clear 19 1022 34 10000 2.1 50 13:26 25.12.2020
4446 Clear 19 1022 32 10000 4.1 70 12:47 25.12.2020
4447 Clear 19 1022 32 10000 3.6 60 12:24 25.12.2020
4448 Clear 19 1022 32 10000 3.6 60 11:45 25.12.2020
4449 Clear 19 1023 34 10000 4.1 40 11:20 25.12.2020
4450 Clear 19 1023 34 10000 4.1 40 10:30 25.12.2020
4451 Clear 17 1024 42 10000 1.5 60 09:49 25.12.2020
4452 Clear 15 1024 44 10000 2.1 100 08:49 25.12.2020
4453 Clear 14 1024 50 10000 1 30 08:28 25.12.2020
4454 Clear 11 1023 62 10000 1.5 280 06:48 25.12.2020
4455 Clear 10 1021 61 10000 2.1 300 04:47 25.12.2020
4456 Clear 12 1020 58 10000 2.6 360 02:19 25.12.2020
4457 Clear 12 1019 62 10000 1.5 20 00:19 25.12.2020
4458 Clear 12 1019 62 10000 1.5 20 23:28 24.12.2020
4459 Clear 13 1019 54 10000 2.1 360 22:53 24.12.2020
4460 Clear 14 1019 50 10000 3.1 360 22:23 24.12.2020
4461 Clear 14 1019 50 10000 3.1 360 21:42 24.12.2020
4462 Clear 14 1019 50 10000 2.1 10 20:48 24.12.2020
4463 Clear 16 1019 44 10000 3.6 40 19:20 24.12.2020
4464 Clear 17 1018 42 10000 4.1 30 18:21 24.12.2020
4465 Clear 17 1018 42 10000 4.1 30 17:37 24.12.2020
4466 Clear 19 1017 37 10000 5.1 20 16:59 24.12.2020
4467 Clear 21 1016 32 10000 5.1 20 16:24 24.12.2020
4468 Clear 21 1016 32 10000 5.1 20 15:43 24.12.2020
4469 Clear 22 1015 35 10000 3.1 30 15:21 24.12.2020
4470 Clear 22 1015 35 10000 3.1 30 14:55 24.12.2020
4471 Clear 22 1015 35 10000 3.1 30 14:24 24.12.2020
4472 Clear 23 1015 31 10000 3.1 30 13:49 24.12.2020
4473 Clouds 23 1015 33 10000 3.6 360 13:30 24.12.2020
4474 Clouds 23 1015 33 10000 3.6 360 12:45 24.12.2020
4475 Clouds 22 1016 37 10000 1.5 30 12:22 24.12.2020
4476 Clouds 22 1016 37 10000 1.5 30 11:59 24.12.2020
4477 Clouds 22 1016 37 10000 1.5 30 11:37 24.12.2020
4478 Clouds 21 1017 32 10000 2.6 360 11:18 24.12.2020
4479 Clouds 21 1017 32 10000 2.6 360 10:42 24.12.2020
4480 Clouds 20 1018 34 10000 2.6 360 09:53 24.12.2020
4481 Clouds 20 1018 34 10000 2.6 360 09:32 24.12.2020
4482 Clear 18 1019 39 10000 2.1 360 08:44 24.12.2020
4483 Clear 17 1019 45 10000 1.5 360 07:43 24.12.2020
4484 Clear 13 1018 50 10000 2.6 350 07:21 24.12.2020
4485 Clouds 12 1018 54 10000 1.9 180 05:56 24.12.2020
4486 Clear 12 1016 62 10000 1 130 02:50 24.12.2020
4487 Clear 14 1016 50 10000 1.5 150 01:47 24.12.2020
4488 Clear 14 1016 50 10000 1.5 140 01:18 24.12.2020
4489 Clear 15 1017 51 10000 1.5 150 00:23 24.12.2020
4490 Clear 15 1017 51 10000 1.5 150 23:49 23.12.2020
4491 Clear 15 1017 51 10000 1.5 150 23:31 23.12.2020
4492 Clear 16 1017 44 10000 2.1 170 22:59 23.12.2020
4493 Clear 16 1017 44 10000 2.1 170 22:40 23.12.2020
4494 Clear 16 1018 48 10000 1.5 140 22:18 23.12.2020
4495 Clear 16 1018 48 10000 1.5 140 21:31 23.12.2020
4496 Clear 18 1018 42 10000 2.1 160 20:57 23.12.2020
4497 Clear 18 1018 42 10000 2.1 160 20:37 23.12.2020
4498 Clear 18 1018 39 10000 2.6 170 20:19 23.12.2020
4499 Clear 18 1018 39 10000 2.6 170 19:41 23.12.2020
4500 Clear 18 1019 42 10000 2.1 160 19:22 23.12.2020
4501 Clear 18 1019 42 10000 2.1 160 18:51 23.12.2020
4502 Clear 18 1019 42 10000 2.1 160 18:33 23.12.2020
4503 Clear 19 1018 45 10000 1.5 130 17:43 23.12.2020
4504 Clear 20 1017 42 10000 1 120 17:22 23.12.2020
4505 Clear 20 1017 42 10000 1 120 16:52 23.12.2020
4506 Clear 20 1017 42 10000 1 120 16:30 23.12.2020
4507 Clear 23 1017 33 10000 1.5 140 15:59 23.12.2020
4508 Clear 23 1017 33 10000 1.5 140 15:39 23.12.2020
4509 Clear 24 1017 31 10000 2.1 190 15:21 23.12.2020
4510 Clear 24 1017 31 10000 2.1 190 14:45 23.12.2020
4511 Clear 24 1017 36 10000 1.5 160 14:22 23.12.2020
4512 Clear 24 1017 36 10000 1.5 160 13:46 23.12.2020
4513 Clear 23 1017 31 10000 2.6 190 13:20 23.12.2020
4514 Clear 23 1017 31 10000 2.6 190 12:58 23.12.2020
4515 Clear 23 1017 31 10000 2.6 190 12:37 23.12.2020
4516 Clear 22 1018 33 10000 2.1 200 12:18 23.12.2020
4517 Clear 22 1018 33 10000 2.1 200 11:43 23.12.2020
4518 Clear 22 1020 33 10000 2.6 190 10:57 23.12.2020
4519 Clear 22 1020 33 10000 2.6 190 10:39 23.12.2020
4520 Clear 21 1021 32 10000 3.1 180 09:39 23.12.2020
4521 Clear 18 1022 39 10000 2.6 180 08:58 23.12.2020
4522 Clear 18 1022 39 10000 2.6 180 08:33 23.12.2020
4523 Clear 17 1022 42 10000 2.6 160 07:49 23.12.2020
4524 Clear 13 1022 58 10000 1.5 140 06:53 23.12.2020
4525 Clear 13 1022 58 10000 1.5 140 06:34 23.12.2020
4526 Clear 12 1021 58 10000 2.1 170 05:24 23.12.2020
4527 Clear 12 1020 58 10000 1 150 01:59 23.12.2020
4528 Clear 12 1021 58 10000 1 150 00:33 23.12.2020
4529 Clear 13 1021 54 10000 2.1 130 23:45 22.12.2020
4530 Clear 14 1022 54 10000 1.5 120 23:23 22.12.2020
4531 Clear 14 1022 54 10000 1.5 120 22:43 22.12.2020
4532 Clear 14 1022 54 10000 1.5 120 22:24 22.12.2020
4533 Clear 14 1022 54 10000 2.1 140 21:54 22.12.2020
4534 Clear 15 1022 54 10000 1 130 21:21 22.12.2020
4535 Clear 15 1022 54 10000 1 130 20:54 22.12.2020
4536 Clear 15 1022 54 10000 1 130 20:35 22.12.2020
4537 Clear 16 1022 51 10000 2.1 110 19:59 22.12.2020
4538 Clear 16 1022 51 10000 2.1 110 19:41 22.12.2020
4539 Clear 17 1022 45 10000 2.1 90 19:20 22.12.2020
4540 Clear 17 1022 45 10000 2.1 90 18:44 22.12.2020
4541 Clear 18 1022 45 10000 1.5 100 18:24 22.12.2020
4542 Clear 18 1022 45 10000 1.5 100 17:41 22.12.2020
4543 Clear 20 1021 42 10000 2.1 80 17:18 22.12.2020
4544 Clear 20 1021 42 10000 2.1 80 16:47 22.12.2020
4545 Clear 21 1021 40 10000 1.5 80 16:21 22.12.2020
4546 Clear 21 1021 40 10000 1.5 80 15:47 22.12.2020
4547 Clear 21 1021 40 10000 1.5 80 15:47 22.12.2020
4548 Clear 21 1021 40 10000 1.5 80 15:29 22.12.2020
4549 Clear 22 1021 40 10000 1.5 120 14:58 22.12.2020
4550 Clear 22 1021 40 10000 1.5 120 14:39 22.12.2020
4551 Clear 22 1020 40 10000 1.5 110 14:20 22.12.2020
4552 Clear 22 1020 40 10000 1.5 110 13:44 22.12.2020
4553 Clear 22 1021 37 10000 1.5 150 13:19 22.12.2020
4554 Clear 22 1021 37 10000 1.5 150 12:52 22.12.2020
4555 Clear 22 1021 37 10000 1.5 150 12:33 22.12.2020
4556 Clear 20 1022 37 10000 2.1 100 11:57 22.12.2020
4557 Clear 20 1022 37 10000 2.1 100 11:39 22.12.2020
4558 Clear 20 1023 40 10000 1.5 150 11:20 22.12.2020
4559 Clear 20 1023 40 10000 1.5 150 10:51 22.12.2020
4560 Clear 18 1025 42 10000 1.5 130 10:24 22.12.2020
4561 Clear 18 1025 42 10000 1.5 130 09:56 22.12.2020
4562 Clear 16 1025 48 10000 1 120 09:23 22.12.2020
4563 Clear 16 1025 48 10000 1 120 08:53 22.12.2020
4564 Clear 16 1025 48 10000 1 120 08:30 22.12.2020
4565 Clear 14 1026 54 10000 2.62 139 07:48 22.12.2020
4566 Clear 12 1025 62 10000 2.75 150 06:48 22.12.2020
4567 Clear 9 1025 70 10000 1.68 139 05:47 22.12.2020
4568 Clear 9 1024 66 10000 1 140 03:40 22.12.2020
4569 Clear 10 1024 61 10000 1.11 123 00:47 22.12.2020
4570 Clear 11 1024 62 10000 2.29 134 23:54 21.12.2020
4571 Clear 11 1024 62 10000 2.29 134 23:36 21.12.2020
4572 Clear 13 1024 58 10000 1.34 126 22:38 21.12.2020
4573 Clear 14 1024 50 10000 1.5 80 22:20 21.12.2020
4574 Clear 14 1024 50 10000 1.5 80 21:59 21.12.2020
4575 Clear 14 1024 50 10000 1.5 80 21:39 21.12.2020
4576 Clear 14 1024 50 10000 1.5 80 21:39 21.12.2020
4577 Clear 14 1025 54 10000 1.5 90 21:19 21.12.2020
4578 Clear 14 1025 54 10000 1.5 90 20:29 21.12.2020
4579 Clear 16 1025 48 10000 2.6 90 19:59 21.12.2020
4580 Clear 16 1025 48 10000 2.6 90 19:41 21.12.2020
4581 Clear 16 1024 51 10000 2.6 70 19:19 21.12.2020
4582 Clear 16 1024 51 10000 2.6 70 18:51 21.12.2020
4583 Clear 16 1024 51 10000 2.6 70 18:33 21.12.2020
4584 Clear 17 1024 51 10000 2.1 110 17:43 21.12.2020
4585 Clear 18 1023 55 10000 1 130 17:24 21.12.2020
4586 Clear 18 1023 55 10000 1 130 16:47 21.12.2020
4587 Clear 19 1023 48 10000 1.5 130 16:26 21.12.2020
4588 Clear 19 1023 48 10000 1.5 130 15:47 21.12.2020
4589 Clear 20 1022 45 10000 1.5 120 15:29 21.12.2020
4590 Clear 20 1022 45 10000 1.5 120 14:57 21.12.2020
4591 Clear 20 1022 45 10000 1.5 150 14:21 21.12.2020
4592 Clear 20 1022 45 10000 1.5 150 13:43 21.12.2020
4593 Clear 20 1023 40 10000 2.1 110 13:24 21.12.2020
4594 Clear 20 1023 40 10000 2.1 110 12:44 21.12.2020
4595 Clear 20 1023 40 10000 2.1 110 12:44 21.12.2020
4596 Clear 20 1023 40 10000 2.1 110 12:25 21.12.2020
4597 Clear 19 1023 42 10000 3.1 150 11:56 21.12.2020
4598 Clear 19 1023 42 10000 3.1 150 11:37 21.12.2020
4599 Clear 18 1024 48 10000 2.6 150 11:19 21.12.2020
4600 Clear 18 1024 48 10000 2.6 150 10:41 21.12.2020
4601 Clouds 17 1026 51 8000 2.1 130 10:22 21.12.2020
4602 Clouds 17 1026 51 8000 2.1 130 09:43 21.12.2020
4603 Clouds 17 1026 51 8000 2.1 130 09:24 21.12.2020
4604 Clouds 15 1026 58 7000 2.1 120 08:50 21.12.2020
4605 Clouds 14 1027 67 7000 1.5 130 07:51 21.12.2020
4606 Clouds 12 1026 76 6000 1.5 110 06:43 21.12.2020
4607 Clouds 10 1025 81 7000 1.8 128 04:46 21.12.2020
4608 Clouds 12 1025 76 10000 2.33 88 01:25 21.12.2020
4609 Clouds 12 1025 76 10000 2.06 84 00:31 21.12.2020
4610 Clear 12 1025 76 10000 1.93 91 23:34 20.12.2020
4611 Clear 12 1025 71 10000 1 80 22:59 20.12.2020
4612 Clear 12 1025 71 10000 1 80 22:40 20.12.2020
4613 Clear 13 1025 66 10000 1.5 100 22:21 20.12.2020
4614 Clear 13 1025 66 10000 1.5 100 22:21 20.12.2020
4615 Clear 13 1025 66 10000 1.5 100 21:39 20.12.2020
4616 Clear 14 1025 62 10000 1 90 21:20 20.12.2020
4617 Clear 14 1025 62 10000 1 90 20:50 20.12.2020
4618 Clear 15 1025 58 10000 1.5 80 20:23 20.12.2020
4619 Clear 15 1025 58 10000 1.5 80 19:46 20.12.2020
4620 Clear 15 1025 58 10000 1.5 80 19:27 20.12.2020
4621 Clear 15 1025 58 10000 1 70 18:57 20.12.2020
4622 Clear 15 1025 58 10000 1 70 18:38 20.12.2020
4623 Clear 16 1025 55 10000 2.6 80 18:19 20.12.2020
4624 Clear 16 1025 55 10000 2.6 80 17:43 20.12.2020
4625 Clouds 17 1024 51 10000 3.6 80 17:22 20.12.2020
4626 Clouds 17 1024 51 10000 3.6 80 16:44 20.12.2020
4627 Clouds 18 1024 48 10000 3.6 80 16:25 20.12.2020
4628 Clouds 18 1024 48 10000 3.6 80 15:45 20.12.2020
4629 Clear 18 1023 48 10000 3.1 70 15:24 20.12.2020
4630 Clear 18 1023 48 10000 3.1 70 14:49 20.12.2020
4631 Clear 18 1023 48 10000 3.1 70 14:30 20.12.2020
4632 Clear 18 1023 48 10000 3.1 70 14:30 20.12.2020
4633 Clear 19 1023 48 10000 3.1 80 13:46 20.12.2020
4634 Clouds 18 1023 48 10000 3.1 90 13:24 20.12.2020
4635 Clouds 18 1023 48 10000 3.1 90 12:54 20.12.2020
4636 Clouds 18 1023 48 10000 3.1 90 12:36 20.12.2020
4637 Clouds 18 1024 48 10000 3.1 50 12:18 20.12.2020
4638 Clouds 18 1024 48 10000 3.1 50 11:42 20.12.2020
4639 Clouds 17 1025 51 8000 2.6 90 10:55 20.12.2020
4640 Clouds 17 1025 51 8000 2.6 90 10:37 20.12.2020
4641 Clouds 16 1026 55 7000 2.6 70 10:19 20.12.2020
4642 Clouds 16 1026 55 7000 2.6 70 09:42 20.12.2020
4643 Clouds 16 1027 59 7000 2.6 80 09:24 20.12.2020
4644 Clouds 16 1027 59 7000 2.6 80 08:50 20.12.2020
4645 Clouds 16 1027 59 7000 2.6 80 08:32 20.12.2020
4646 Clouds 15 1026 67 6000 2.1 80 07:23 20.12.2020
4647 Clouds 13 1026 82 6000 2.15 73 05:44 20.12.2020
4648 Clear 12 1024 81 10000 2.83 75 01:32 20.12.2020
4649 Clear 14 1024 71 10000 1.5 50 00:22 20.12.2020
4650 Clear 14 1024 67 10000 2.6 60 23:19 19.12.2020
4651 Clear 14 1024 67 10000 2.6 60 22:46 19.12.2020
4652 Clear 14 1024 67 10000 2.6 60 22:25 19.12.2020
4653 Clouds 15 1024 54 10000 2.1 60 21:59 19.12.2020
4654 Clouds 15 1024 54 10000 2.1 60 21:41 19.12.2020
4655 Clouds 15 1024 58 10000 2.6 70 21:22 19.12.2020
4656 Clouds 15 1024 58 10000 2.6 70 20:41 19.12.2020
4657 Clouds 15 1024 58 10000 2.6 50 20:18 19.12.2020
4658 Clouds 15 1024 58 10000 2.6 50 19:50 19.12.2020
4659 Clouds 15 1024 58 10000 2.6 50 19:29 19.12.2020
4660 Clouds 16 1024 51 10000 2.1 70 18:38 19.12.2020
4661 Clouds 17 1023 55 10000 2.6 70 18:20 19.12.2020
4662 Clouds 17 1023 55 10000 2.6 70 17:45 19.12.2020
4663 Clouds 18 1023 52 10000 3.1 60 17:23 19.12.2020
4664 Clouds 18 1023 52 10000 3.1 60 16:44 19.12.2020
4665 Clouds 18 1023 52 10000 3.1 60 16:26 19.12.2020
4666 Clouds 18 1022 52 10000 3.1 70 15:55 19.12.2020
4667 Clouds 18 1022 52 10000 3.1 70 15:34 19.12.2020
4668 Clouds 19 1022 52 10000 4.6 70 14:41 19.12.2020
4669 Clouds 19 1021 48 10000 3.6 90 14:21 19.12.2020
4670 Clouds 19 1021 48 10000 3.6 90 13:41 19.12.2020
4671 Clouds 19 1021 48 10000 3.6 90 13:41 19.12.2020
4672 Clouds 19 1021 48 10000 3.1 80 13:19 19.12.2020
4673 Clouds 19 1021 48 10000 3.1 80 12:44 19.12.2020
4674 Clouds 19 1022 52 8000 3.6 70 12:25 19.12.2020
4675 Clouds 19 1022 52 8000 3.6 70 11:57 19.12.2020
4676 Clouds 19 1022 52 8000 3.6 70 11:35 19.12.2020
4677 Clouds 18 1023 55 7000 3.6 60 10:43 19.12.2020
4678 Clouds 17 1024 55 7000 3.6 70 10:23 19.12.2020
4679 Clouds 17 1024 55 7000 3.6 70 09:47 19.12.2020
4680 Clouds 17 1024 55 7000 3.6 70 09:29 19.12.2020
4681 Clouds 16 1025 67 7000 3.1 50 08:32 19.12.2020
4682 Clouds 14 1025 76 7000 3.1 30 07:24 19.12.2020
4683 Clouds 13 1024 76 6000 2.1 10 06:52 19.12.2020
4684 Clouds 12 1023 81 8000 1 10 06:19 19.12.2020
4685 Clouds 12 1023 87 8000 1.5 350 05:18 19.12.2020
4686 Clear 13 1021 82 6000 2.1 10 03:19 19.12.2020
4687 Clouds 13 1021 82 8000 2.1 20 00:37 19.12.2020
4688 Clear 14 1021 76 10000 2.6 30 00:18 19.12.2020
4689 Clear 14 1021 76 10000 2.6 30 23:47 18.12.2020
4690 Clear 14 1021 67 10000 2.6 50 23:23 18.12.2020
4691 Clear 14 1021 67 10000 2.6 50 22:46 18.12.2020
4692 Clear 15 1021 67 10000 1.5 50 22:22 18.12.2020
4693 Clear 15 1021 67 10000 1.5 50 21:50 18.12.2020
4694 Clear 16 1021 63 10000 2.6 90 21:31 18.12.2020
4695 Clear 16 1021 63 10000 2.6 90 20:41 18.12.2020
4696 Clear 17 1020 59 10000 3.1 90 20:21 18.12.2020
4697 Clear 17 1020 59 10000 3.1 90 19:44 18.12.2020
4698 Clear 18 1020 55 10000 2.6 70 19:21 18.12.2020
4699 Clear 18 1020 55 10000 2.6 70 18:42 18.12.2020
4700 Clear 19 1020 52 10000 1.5 60 18:24 18.12.2020
4701 Clear 20 1019 45 10000 2.6 90 17:24 18.12.2020
4702 Clear 20 1019 45 10000 2.6 90 16:55 18.12.2020
4703 Clear 20 1019 45 10000 2.6 90 16:37 18.12.2020
4704 Clear 21 1018 43 10000 3.1 90 16:18 18.12.2020
4705 Clear 21 1018 43 10000 3.1 90 15:41 18.12.2020
4706 Clear 21 1018 46 10000 2.6 110 15:23 18.12.2020
4707 Clear 21 1018 46 10000 2.6 110 14:55 18.12.2020
4708 Clear 21 1018 46 10000 3.1 70 14:22 18.12.2020
4709 Clear 21 1018 46 10000 3.1 70 13:50 18.12.2020
4710 Clear 21 1018 46 10000 3.1 70 13:31 18.12.2020
4711 Clear 21 1019 49 10000 1.5 90 12:50 18.12.2020
4712 Clouds 20 1019 52 9000 2.1 90 12:22 18.12.2020
4713 Clouds 18 1020 55 7000 3.1 100 11:23 18.12.2020
4714 Clouds 18 1020 55 7000 3.1 100 10:40 18.12.2020
4715 Clouds 17 1021 63 7000 2.1 70 10:21 18.12.2020
4716 Clouds 17 1021 63 7000 2.1 70 09:40 18.12.2020
4717 Clouds 15 1022 72 7000 3.1 20 09:22 18.12.2020
4718 Clouds 15 1022 72 7000 3.1 20 08:55 18.12.2020
4719 Clouds 15 1022 72 7000 3.1 20 08:30 18.12.2020
4720 Clouds 14 1022 76 8000 3.1 40 07:46 18.12.2020
4721 Clouds 13 1021 76 8000 3.1 360 07:18 18.12.2020
4722 Clouds 13 1021 76 8000 3.1 360 06:51 18.12.2020
4723 Clouds 12 1020 81 8000 2.6 350 05:42 18.12.2020
4724 Clouds 12 1019 76 10000 2.1 10 04:51 18.12.2020
4725 Clear 13 1019 66 10000 2.6 10 02:24 18.12.2020
4726 Clear 14 1019 58 10000 2.6 30 01:40 18.12.2020
4727 Clear 15 1018 47 10000 2.6 90 00:27 18.12.2020
4728 Clear 15 1019 51 10000 2.1 60 23:50 17.12.2020
4729 Clear 16 1019 48 10000 2.1 40 23:19 17.12.2020
4730 Clear 16 1019 48 10000 2.1 40 22:47 17.12.2020
4731 Clear 17 1019 48 10000 1.5 340 22:26 17.12.2020
4732 Clear 17 1019 48 10000 1.5 340 21:43 17.12.2020
4733 Clear 18 1019 45 10000 1 150 21:20 17.12.2020
4734 Clear 18 1019 45 10000 1 150 20:43 17.12.2020
4735 Clear 18 1019 45 10000 1.5 150 20:19 17.12.2020
4736 Clear 18 1019 45 10000 1.5 150 19:49 17.12.2020
4737 Clear 19 1019 42 10000 1 140 19:25 17.12.2020
4738 Clear 19 1019 42 10000 1 140 18:47 17.12.2020
4739 Clear 19 1019 42 10000 1 140 18:27 17.12.2020
4740 Clear 21 1018 37 10000 1.5 120 17:58 17.12.2020
4741 Clear 21 1018 37 10000 1.5 120 17:36 17.12.2020
4742 Clear 23 1018 35 10000 2.52 137 17:18 17.12.2020
4743 Clear 23 1018 35 10000 2.52 137 16:37 17.12.2020
4744 Clear 25 1017 29 10000 1.5 260 16:18 17.12.2020
4745 Clear 25 1017 29 10000 1.5 260 15:41 17.12.2020
4746 Clear 26 1017 24 10000 2.1 270 15:20 17.12.2020
4747 Clear 26 1017 24 10000 2.1 270 14:47 17.12.2020
4748 Clear 26 1017 22 10000 3.6 240 14:19 17.12.2020
4749 Clear 26 1017 22 10000 3.6 240 13:42 17.12.2020
4750 Clear 25 1017 23 10000 3.1 220 12:58 17.12.2020
4751 Clear 25 1017 23 10000 3.1 220 12:38 17.12.2020
4752 Clear 24 1018 23 10000 3.1 210 12:20 17.12.2020
4753 Clear 24 1018 23 10000 3.1 210 11:40 17.12.2020
4754 Clear 23 1019 27 10000 4.1 190 11:20 17.12.2020
4755 Clear 23 1019 27 10000 4.1 190 10:40 17.12.2020
4756 Clear 22 1020 28 10000 3.6 180 09:36 17.12.2020
4757 Clear 21 1020 30 10000 3.1 170 08:40 17.12.2020
4758 Clear 19 1020 37 10000 2.6 160 07:42 17.12.2020
4759 Clear 15 1020 47 10000 1.5 140 07:20 17.12.2020
4760 Clear 15 1020 47 10000 1.5 140 06:47 17.12.2020
4761 Clear 15 1020 47 10000 1.5 140 06:27 17.12.2020
4762 Clear 15 1018 41 10000 3.6 170 03:29 17.12.2020
4763 Clear 16 1018 41 10000 2.6 160 00:20 17.12.2020
4764 Clear 16 1018 41 10000 2.6 160 23:38 16.12.2020
4765 Clear 15 1019 47 10000 1.5 150 23:18 16.12.2020
4766 Clear 15 1019 47 10000 1.5 150 22:47 16.12.2020
4767 Clear 15 1019 47 10000 1.5 150 22:28 16.12.2020
4768 Clear 16 1019 41 10000 2.1 160 21:42 16.12.2020
4769 Clear 17 1019 36 10000 2.1 160 21:22 16.12.2020
4770 Clear 17 1019 36 10000 2.1 160 20:49 16.12.2020
4771 Clear 18 1019 34 10000 2.6 160 20:20 16.12.2020
4772 Clear 18 1019 34 10000 2.6 160 19:38 16.12.2020
4773 Clear 19 1019 29 10000 2.6 160 19:18 16.12.2020
4774 Clear 19 1019 29 10000 2.6 160 18:44 16.12.2020
4775 Clear 20 1018 32 10000 1.5 160 18:22 16.12.2020
4776 Clear 20 1018 32 10000 1.5 160 17:36 16.12.2020
4777 Clear 21 1018 26 10000 2.1 160 16:46 16.12.2020
4778 Clear 23 1017 23 10000 2.6 140 16:28 16.12.2020
4779 Clear 23 1017 23 10000 2.6 140 15:57 16.12.2020
4780 Clear 23 1017 23 10000 2.6 140 15:37 16.12.2020
4781 Clear 25 1017 22 10000 2.1 170 15:18 16.12.2020
4782 Clear 25 1017 22 10000 2.1 170 14:41 16.12.2020
4783 Clear 25 1017 17 10000 3.6 190 14:22 16.12.2020
4784 Clear 25 1017 17 10000 3.6 190 13:40 16.12.2020
4785 Clear 24 1017 16 10000 3.6 180 13:20 16.12.2020
4786 Clear 24 1017 16 10000 3.6 180 12:43 16.12.2020
4787 Clear 23 1018 20 10000 4.1 170 11:49 16.12.2020
4788 Clear 21 1019 22 10000 4.6 180 11:27 16.12.2020
4789 Clear 21 1019 22 10000 4.6 180 10:54 16.12.2020
4790 Clear 21 1019 22 10000 4.6 180 10:28 16.12.2020
4791 Clear 20 1020 24 10000 4.6 180 09:55 16.12.2020
4792 Clear 19 1020 25 10000 4.6 170 09:24 16.12.2020
4793 Clear 17 1020 29 10000 4.6 170 08:22 16.12.2020
4794 Clear 17 1020 29 10000 4.6 170 07:44 16.12.2020
4795 Clear 14 1020 26 10000 3.6 170 07:20 16.12.2020
4796 Clear 13 1018 38 10000 2.6 170 03:35 16.12.2020
4797 Clear 15 1018 33 10000 4.1 180 01:57 16.12.2020
4798 Clear 13 1019 43 10000 2.1 160 23:46 15.12.2020
4799 Clear 15 1019 39 10000 3.1 170 23:18 15.12.2020
4800 Clear 15 1019 39 10000 3.1 170 22:40 15.12.2020
4801 Clear 16 1019 38 10000 3.6 170 22:20 15.12.2020
4802 Clear 16 1019 38 10000 3.6 170 21:45 15.12.2020
4803 Clear 17 1020 37 10000 5.1 170 21:22 15.12.2020
4804 Clear 17 1020 37 10000 5.1 170 20:45 15.12.2020
4805 Clear 17 1019 35 10000 3.1 160 20:26 15.12.2020
4806 Clear 17 1019 35 10000 3.1 160 19:55 15.12.2020
4807 Clear 17 1019 35 10000 3.1 160 19:30 15.12.2020
4808 Clear 18 1019 31 10000 2.6 160 18:40 15.12.2020
4809 Clear 19 1019 31 10000 3.6 160 18:22 15.12.2020
4810 Clear 19 1019 31 10000 3.6 160 17:56 15.12.2020
4811 Clear 19 1019 31 10000 3.6 160 17:37 15.12.2020
4812 Clear 20 1018 29 10000 3.6 160 17:18 15.12.2020
4813 Clear 20 1018 27 10000 3.6 160 16:32 15.12.2020
4814 Clear 21 1018 27 10000 3.6 160 15:51 15.12.2020
4815 Clear 21 1018 27 10000 3.6 160 15:30 15.12.2020
4816 Clear 22 1018 24 10000 4.1 150 14:47 15.12.2020
4817 Clear 23 1018 20 10000 4.6 160 14:21 15.12.2020
4818 Clear 23 1018 20 10000 4.6 160 13:51 15.12.2020
4819 Clear 23 1018 20 10000 4.6 160 13:32 15.12.2020
4820 Clear 23 1018 19 10000 5.1 170 12:47 15.12.2020
4821 Clear 22 1019 24 10000 4.6 170 12:20 15.12.2020
4822 Clear 22 1019 24 10000 4.6 170 11:56 15.12.2020
4823 Clear 21 1020 26 10000 5.7 180 11:26 15.12.2020
4824 Clear 21 1020 26 10000 5.7 180 10:55 15.12.2020
4825 Clear 21 1020 26 10000 5.7 180 10:32 15.12.2020
4826 Clear 20 1021 30 10000 3.6 160 09:51 15.12.2020
4827 Clear 20 1021 30 10000 3.6 160 09:32 15.12.2020
4828 Clear 18 1021 34 10000 3.6 170 08:53 15.12.2020
4829 Clear 18 1021 34 10000 3.6 170 08:26 15.12.2020
4830 Clear 16 1022 41 10000 2.6 160 07:49 15.12.2020
4831 Clear 16 1022 41 10000 2.6 160 07:49 15.12.2020
4832 Clear 12 1021 54 10000 1 150 07:25 15.12.2020
4833 Clear 12 1021 54 10000 1 150 06:33 15.12.2020
4834 Clear 10 1019 66 10000 1 140 03:25 15.12.2020
4835 Clear 12 1020 54 10000 1.5 140 00:34 15.12.2020
4836 Clear 13 1020 54 10000 1.5 150 23:26 14.12.2020
4837 Clear 14 1020 50 10000 2.1 140 22:56 14.12.2020
4838 Clear 14 1020 50 10000 1 150 22:32 14.12.2020
4839 Clear 14 1020 50 10000 1 150 21:45 14.12.2020
4840 Clear 15 1020 47 10000 1.5 140 21:23 14.12.2020
4841 Clear 15 1020 47 10000 1.5 140 20:51 14.12.2020
4842 Clear 16 1020 44 10000 1.5 130 20:30 14.12.2020
4843 Clear 16 1020 44 10000 1.5 130 19:53 14.12.2020
4844 Clear 16 1020 44 10000 1.5 130 19:29 14.12.2020
4845 Clear 16 1020 44 10000 1 140 18:51 14.12.2020
4846 Clear 16 1020 44 10000 1 140 18:30 14.12.2020
4847 Clear 18 1020 39 10000 1.5 120 17:46 14.12.2020
4848 Clear 20 1019 37 10000 1.5 110 17:24 14.12.2020
4849 Clear 20 1019 37 10000 1.5 110 16:50 14.12.2020
4850 Clear 22 1019 28 10000 2.1 110 16:29 14.12.2020
4851 Clear 22 1019 28 10000 2.1 110 15:40 14.12.2020
4852 Clear 23 1019 33 10000 2.1 110 15:20 14.12.2020
4853 Clear 23 1019 33 10000 2.1 110 14:42 14.12.2020
4854 Clear 23 1019 33 10000 1.5 140 14:24 14.12.2020
4855 Clear 23 1019 33 10000 1.5 140 13:43 14.12.2020
4856 Clear 24 1019 36 10000 1 150 13:19 14.12.2020
4857 Clear 24 1019 36 10000 1 150 12:52 14.12.2020
4858 Clear 23 1020 28 10000 2.1 180 12:24 14.12.2020
4859 Clear 23 1020 28 10000 2.1 180 11:35 14.12.2020
4860 Clear 21 1021 32 10000 2.1 170 10:38 14.12.2020
4861 Clear 19 1022 37 10000 2.6 180 10:19 14.12.2020
4862 Clear 19 1022 37 10000 2.6 180 09:31 14.12.2020
4863 Clear 17 1023 42 10000 2.1 170 08:46 14.12.2020
4864 Clear 17 1023 42 10000 2.1 170 08:28 14.12.2020
4865 Clear 14 1023 54 10000 1.5 120 07:44 14.12.2020
4866 Clear 11 1023 66 10000 1.97 151 06:46 14.12.2020
4867 Clear 7 1022 70 10000 1.15 139 05:21 14.12.2020
4868 Clear 9 1021 66 10000 1.37 128 02:26 14.12.2020
4869 Clear 11 1021 62 10000 1.18 119 00:55 14.12.2020
4870 Clear 11 1021 62 10000 1.18 119 00:33 14.12.2020
4871 Clear 10 1022 66 10000 1.04 114 23:50 13.12.2020
4872 Clear 10 1022 66 10000 1.04 114 23:30 13.12.2020
4873 Clear 12 1022 58 10000 1 70 22:47 13.12.2020
4874 Clear 12 1022 62 10000 1 110 22:20 13.12.2020
4875 Clear 12 1022 62 10000 1 110 21:45 13.12.2020
4876 Clear 12 1021 46 10000 2.32 76 21:26 13.12.2020
4877 Clear 12 1021 46 10000 2.32 76 20:35 13.12.2020
4878 Clear 13 1021 45 10000 2.21 73 19:57 13.12.2020
4879 Clear 17 1021 39 10000 3.1 90 19:37 13.12.2020
4880 Clear 17 1021 39 10000 3.1 90 19:19 13.12.2020
4881 Clear 17 1021 39 10000 3.1 90 18:42 13.12.2020
4882 Clear 18 1021 36 10000 3.1 60 18:20 13.12.2020
4883 Clear 18 1021 36 10000 3.1 60 17:46 13.12.2020
4884 Clear 17 1020 45 10000 1 90 17:21 13.12.2020
4885 Clear 17 1020 45 10000 1 90 16:55 13.12.2020
4886 Clear 17 1020 45 10000 1 90 16:36 13.12.2020
4887 Clear 21 1020 37 10000 1 70 15:58 13.12.2020
4888 Clear 21 1020 37 10000 1 70 15:38 13.12.2020
4889 Clear 22 1020 35 10000 1 80 15:20 13.12.2020
4890 Clear 22 1020 35 10000 1 80 14:43 13.12.2020
4891 Clear 23 1020 33 10000 1.5 220 14:20 13.12.2020
4892 Clear 23 1020 33 10000 1.5 220 13:42 13.12.2020
4893 Clear 23 1020 33 10000 1.5 220 13:22 13.12.2020
4894 Clear 22 1020 35 10000 1.5 120 13:22 13.12.2020
4895 Clear 22 1020 35 10000 1.5 120 12:42 13.12.2020
4896 Clear 21 1021 32 10000 2.1 130 12:22 13.12.2020
4897 Clear 21 1021 32 10000 2.1 130 11:36 13.12.2020
4898 Clear 20 1022 40 10000 1.5 130 10:52 13.12.2020
4899 Clear 20 1022 40 10000 1.5 130 10:34 13.12.2020
4900 Clear 18 1023 42 10000 2.1 110 09:54 13.12.2020
4901 Clear 16 1024 44 10000 1.77 147 08:58 13.12.2020
4902 Clear 16 1024 44 10000 1.77 147 08:33 13.12.2020
4903 Clear 15 1024 51 10000 2.02 142 07:35 13.12.2020
4904 Clear 8 1023 70 10000 1.17 98 04:23 13.12.2020
4905 Clear 10 1022 66 10000 1.47 102 02:40 13.12.2020
4906 Clear 9 1022 66 10000 1.67 114 01:37 13.12.2020
4907 Clear 9 1022 66 10000 1.67 114 01:37 13.12.2020
4908 Clear 11 1022 62 10000 1.98 115 00:48 13.12.2020
4909 Clear 11 1023 62 10000 2.3 108 23:51 12.12.2020
4910 Clear 11 1023 62 10000 2.36 107 23:31 12.12.2020
4911 Clear 12 1023 62 10000 2.36 107 22:46 12.12.2020
4912 Clear 14 1023 50 10000 1.5 100 21:56 12.12.2020
4913 Clear 14 1023 50 10000 1.5 100 21:34 12.12.2020
4914 Clear 14 1023 54 10000 1 90 20:55 12.12.2020
4915 Clear 14 1023 54 10000 1 90 20:24 12.12.2020
4916 Clear 16 1023 44 10000 2.6 90 19:57 12.12.2020
4917 Clear 16 1023 44 10000 2.6 90 19:38 12.12.2020
4918 Clear 16 1023 44 10000 2.1 80 19:20 12.12.2020
4919 Clear 16 1023 44 10000 2.1 80 18:41 12.12.2020
4920 Clear 18 1022 42 10000 1.5 130 18:23 12.12.2020
4921 Clear 18 1022 42 10000 1.5 130 17:45 12.12.2020
4922 Clear 19 1021 34 10000 2.6 100 16:54 12.12.2020
4923 Clear 20 1020 34 10000 2.6 90 16:19 12.12.2020
4924 Clear 20 1020 34 10000 2.6 90 15:44 12.12.2020
4925 Clear 21 1020 30 10000 2.1 120 15:26 12.12.2020
4926 Clear 21 1020 30 10000 2.1 120 14:44 12.12.2020
4927 Clear 22 1020 30 10000 2.1 130 13:54 12.12.2020
4928 Clear 22 1020 30 10000 2.1 130 13:36 12.12.2020
4929 Clear 21 1020 37 10000 2.1 110 12:47 12.12.2020
4930 Clear 20 1021 34 10000 2.6 100 11:46 12.12.2020
4931 Clear 19 1022 37 10000 2.1 120 10:53 12.12.2020
4932 Clear 19 1022 37 10000 2.1 120 10:53 12.12.2020
4933 Clear 18 1023 45 10000 1.5 150 09:32 12.12.2020
4934 Clear 15 1024 54 10000 1.5 90 08:53 12.12.2020
4935 Clear 10 1021 66 10000 1.54 79 02:53 12.12.2020
4936 Clear 11 1021 57 10000 1.5 30 23:54 11.12.2020
4937 Clear 12 1022 58 10000 2.47 99 22:28 11.12.2020
4938 Clear 14 1022 50 10000 1.5 80 20:40 11.12.2020
4939 Clear 17 1022 39 10000 2.6 80 17:58 11.12.2020
4940 Clear 21 1020 37 10000 1.5 40 14:53 11.12.2020
4941 Clear 21 1020 40 10000 1.5 70 13:59 11.12.2020
4942 Clear 21 1020 40 10000 1.5 70 13:23 11.12.2020
4943 Clear 19 1021 48 10000 1 140 12:18 11.12.2020
4944 Clear 19 1021 48 10000 1 140 12:18 11.12.2020
4945 Clear 19 1021 48 10000 1 140 11:50 11.12.2020
4946 Clear 18 1022 52 10000 1.5 80 10:46 11.12.2020
4947 Clear 14 1024 71 10000 2.1 80 08:48 11.12.2020
4948 Clear 9 1023 76 10000 1.5 290 05:42 11.12.2020
4949 Clear 9 1022 76 10000 1.5 300 04:52 11.12.2020
4950 Clear 11 1022 66 10000 2.1 300 01:38 11.12.2020
4951 Clear 12 1022 66 10000 1.5 290 00:21 11.12.2020
4952 Clear 12 1022 62 10000 1.5 340 22:44 10.12.2020
4953 Clear 13 1022 62 10000 1.5 360 21:36 10.12.2020
4954 Clear 14 1022 58 10000 1.5 10 20:41 10.12.2020
4955 Clear 15 1022 51 10000 1.5 10 19:37 10.12.2020
4956 Clear 16 1022 48 10000 1.5 10 18:56 10.12.2020
4957 Clear 17 1021 42 10000 3.1 10 17:54 10.12.2020
4958 Clear 19 1021 37 10000 3.1 20 16:30 10.12.2020
4959 Clear 20 1020 37 10000 3.6 20 15:27 10.12.2020
4960 Clear 22 1020 33 10000 3.6 20 14:50 10.12.2020
4961 Clear 23 1020 28 10000 4.6 350 14:27 10.12.2020
4962 Clear 22 1020 30 10000 4.6 10 12:47 10.12.2020
4963 Clear 22 1020 30 10000 5.7 20 11:35 10.12.2020
4964 Clear 18 1023 55 10000 5.1 350 08:51 10.12.2020
4965 Clear 16 1023 63 10000 5.1 330 07:45 10.12.2020
4966 Clear 14 1022 71 10000 6.2 310 06:41 10.12.2020
4967 Clear 12 1019 62 10000 0.5 203 02:53 10.12.2020
4968 Clear 12 1019 58 10000 1 320 01:59 10.12.2020
4969 Clear 14 1020 54 10000 2.35 159 23:52 09.12.2020
4970 Clear 16 1020 48 10000 1 130 20:59 09.12.2020
4971 Clear 16 1020 48 10000 1 130 20:28 09.12.2020
4972 Clear 18 1020 42 10000 1.5 130 19:21 09.12.2020
4973 Clear 20 1020 40 10000 1.5 150 17:42 09.12.2020
4974 Clear 21 1019 40 10000 1.5 150 16:41 09.12.2020
4975 Clear 24 1019 36 10000 1 270 16:20 09.12.2020
4976 Clear 24 1019 36 10000 1 270 16:20 09.12.2020
4977 Clear 25 1019 25 10000 2.1 280 14:58 09.12.2020
4978 Clear 25 1019 25 10000 2.1 280 14:27 09.12.2020
4979 Clear 25 1019 31 10000 1 220 13:51 09.12.2020
4980 Clear 25 1019 31 10000 1.5 210 13:19 09.12.2020
4981 Clear 25 1019 31 10000 1.5 210 12:43 09.12.2020
4982 Clear 23 1020 31 10000 2.1 210 11:48 09.12.2020
4983 Clear 22 1021 28 10000 3.1 200 10:31 09.12.2020
4984 Clear 19 1023 32 10000 3.6 180 08:45 09.12.2020
4985 Clear 16 1024 41 10000 2.1 160 07:42 09.12.2020
4986 Clear 10 1023 66 10000 2.23 156 05:42 09.12.2020
4987 Clear 10 1023 71 10000 1.39 147 03:21 09.12.2020
4988 Clear 11 1023 66 10000 1.14 146 01:21 09.12.2020
4989 Clear 12 1023 62 10000 1.24 136 23:41 08.12.2020
4990 Clear 12 1023 62 10000 1.28 118 22:43 08.12.2020
4991 Clear 14 1024 58 10000 1.34 93 20:50 08.12.2020
4992 Clear 14 1024 58 10000 1.62 69 19:32 08.12.2020
4993 Clear 16 1024 48 10000 1.5 360 18:57 08.12.2020
4994 Clear 18 1023 42 10000 2.1 10 17:31 08.12.2020
4995 Clear 20 1022 34 10000 3.1 360 15:43 08.12.2020
4996 Clear 21 1022 37 10000 1.5 10 13:59 08.12.2020
4997 Clear 21 1022 37 10000 1.5 10 13:24 08.12.2020
4998 Clear 21 1022 37 10000 1 350 12:24 08.12.2020
4999 Clear 20 1023 37 10000 2.1 280 11:39 08.12.2020
5000 Clear 19 1024 45 10000 1 300 10:43 08.12.2020
5001 Clear 18 1025 52 10000 1 210 09:47 08.12.2020
5002 Clear 15 1026 58 10000 1 200 07:50 08.12.2020
5003 Clear 12 1025 71 10000 1 260 06:33 08.12.2020
5004 Clear 9 1023 76 10000 1 310 03:23 08.12.2020
5005 Clear 11 1024 71 10000 1 290 00:46 08.12.2020
5006 Clear 12 1024 66 10000 1.5 340 23:50 07.12.2020
5007 Clear 12 1024 66 10000 1 350 22:33 07.12.2020
5008 Clear 13 1024 62 10000 1.5 10 21:50 07.12.2020
5009 Clear 15 1024 51 10000 3.1 10 19:51 07.12.2020
5010 Clear 16 1024 51 10000 3.6 330 18:29 07.12.2020
5011 Clear 17 1023 48 10000 3.6 320 17:26 07.12.2020
5012 Clear 17 1023 48 10000 3.6 320 16:52 07.12.2020
5013 Clear 20 1022 34 10000 3.1 320 15:26 07.12.2020
5014 Clear 20 1022 34 10000 3.1 320 14:46 07.12.2020
5015 Clear 21 1021 32 10000 3.6 350 13:45 07.12.2020
5016 Clear 21 1022 35 10000 3.1 330 12:38 07.12.2020
5017 Clear 19 1022 45 10000 3.1 360 11:43 07.12.2020
5018 Clear 18 1023 48 10000 3.6 360 10:56 07.12.2020
5019 Clear 17 1024 51 10000 3.1 10 09:40 07.12.2020
5020 Clear 15 1024 62 10000 3.1 350 08:21 07.12.2020
5021 Clear 10 1022 87 10000 3.1 310 06:21 07.12.2020
5022 Clear 11 1022 81 10000 2.6 300 04:48 07.12.2020
5023 Clear 12 1020 76 10000 2.1 330 01:48 07.12.2020
5024 Clear 13 1020 76 10000 1.5 300 23:50 06.12.2020
5025 Clear 14 1020 67 10000 2.6 350 22:23 06.12.2020
5026 Clear 16 1020 48 10000 3.6 360 20:53 06.12.2020
5027 Clear 16 1020 48 10000 3.6 360 20:34 06.12.2020
5028 Clear 17 1019 42 10000 5.7 350 19:45 06.12.2020
5029 Clear 18 1018 42 10000 4.6 340 17:55 06.12.2020
5030 Clear 19 1017 39 10000 5.1 330 16:42 06.12.2020
5031 Clear 23 1015 28 10000 6.7 330 14:52 06.12.2020
5032 Clear 24 1015 25 10000 6.2 330 13:32 06.12.2020
5033 Clear 23 1015 28 10000 6.7 320 12:39 06.12.2020
5034 Clear 23 1015 27 10000 6.7 320 11:55 06.12.2020
5035 Clear 23 1015 27 10000 6.7 320 11:30 06.12.2020
5036 Clear 23 1016 27 10000 6.7 320 10:42 06.12.2020
5037 Clear 23 1017 27 10000 6.2 330 09:39 06.12.2020
5038 Clouds 20 1017 32 10000 7.2 320 08:22 06.12.2020
5039 Clouds 18 1016 42 10000 3.6 310 05:38 06.12.2020
5040 Clear 22 1013 53 10000 1 220 00:57 06.12.2020
5041 Clear 22 1013 53 10000 1 220 00:37 06.12.2020
5042 Clear 22 1012 49 10000 3.6 170 00:19 06.12.2020
5043 Clear 23 1012 43 10000 5.7 180 22:26 05.12.2020
5044 Clear 23 1012 46 10000 5.1 180 21:58 05.12.2020
5045 Clear 23 1012 46 10000 5.1 180 21:37 05.12.2020
5046 Clear 24 1013 44 10000 4.6 170 21:19 05.12.2020
5047 Clouds 24 1013 47 10000 3.6 160 18:55 05.12.2020
5048 Clouds 25 1013 44 10000 4.1 160 17:57 05.12.2020
5049 Clouds 26 1013 41 10000 3.6 160 16:49 05.12.2020
5050 Clouds 26 1013 41 10000 3.6 160 16:29 05.12.2020
5051 Clouds 27 1013 42 10000 5.1 170 15:24 05.12.2020
5052 Clear 27 1013 42 10000 5.1 170 13:53 05.12.2020
5053 Clear 25 1015 53 8000 6.2 170 11:50 05.12.2020
5054 Clear 23 1016 60 8000 6.7 170 10:41 05.12.2020
5055 Clouds 22 1017 64 8000 5.1 160 09:38 05.12.2020
5056 Clouds 19 1019 77 10000 3.1 140 07:48 05.12.2020
5057 Mist 17 1018 88 5000 2.6 120 05:58 05.12.2020
5058 Clear 19 1017 82 10000 2.1 130 02:18 05.12.2020
5059 Clouds 20 1017 72 10000 3.1 130 23:39 04.12.2020
5060 Thunderstorm 22 1017 60 9000 4.6 130 21:37 04.12.2020
5061 Thunderstorm 24 1017 53 9000 3.1 150 19:35 04.12.2020
5062 Clear 24 1017 53 10000 2.1 140 18:40 04.12.2020
5063 Clear 25 1017 50 10000 2.1 140 17:47 04.12.2020
5064 Clear 26 1017 47 10000 2.1 140 16:37 04.12.2020
5065 Clear 27 1016 44 10000 3.6 130 15:26 04.12.2020
5066 Clear 27 1016 44 10000 3.6 140 13:38 04.12.2020
5067 Clear 27 1016 44 10000 4.1 160 13:20 04.12.2020
5068 Clear 27 1016 44 10000 4.1 160 12:26 04.12.2020
5069 Clear 25 1018 50 10000 4.6 150 10:37 04.12.2020
5070 Clear 24 1019 53 10000 4.1 150 09:30 04.12.2020
5071 Clouds 19 1019 68 10000 2.6 130 06:40 04.12.2020
5072 Clear 18 1018 72 10000 1 120 04:54 04.12.2020
5073 Clear 20 1017 64 10000 3.1 140 01:54 04.12.2020
5074 Clear 22 1018 56 10000 2.6 150 22:51 03.12.2020
5075 Clear 22 1018 60 10000 2.1 150 21:38 03.12.2020
5076 Clear 22 1019 60 10000 1.5 140 20:47 03.12.2020
5077 Clear 24 1018 53 10000 2.6 130 19:25 03.12.2020
5078 Clear 24 1018 53 10000 2.6 130 18:48 03.12.2020
5079 Clouds 25 1018 50 10000 2.1 130 17:21 03.12.2020
5080 Clouds 25 1018 50 10000 2.1 130 16:43 03.12.2020
5081 Clouds 27 1018 44 10000 1.5 150 15:33 03.12.2020
5082 Clear 27 1017 42 10000 2.6 160 14:49 03.12.2020
5083 Clear 27 1017 42 10000 4.1 170 13:55 03.12.2020
5084 Clouds 27 1018 39 10000 4.6 170 12:54 03.12.2020
5085 Clouds 27 1018 39 10000 4.6 170 12:24 03.12.2020
5086 Clouds 26 1019 44 10000 4.6 160 10:55 03.12.2020
5087 Clouds 23 1020 53 10000 5.7 160 08:49 03.12.2020
5088 Clear 16 1019 82 10000 1.5 150 04:24 03.12.2020
5089 Clear 17 1018 82 10000 2.1 160 02:20 03.12.2020
5090 Clear 17 1018 82 10000 2.1 160 02:20 03.12.2020
5091 Clear 17 1018 82 10000 1 160 00:41 03.12.2020
5092 Clouds 19 1018 77 8000 2.1 140 22:47 02.12.2020
5093 Clouds 19 1019 77 8000 2.1 130 21:56 02.12.2020
5094 Clouds 19 1019 82 8000 1.5 140 20:52 02.12.2020
5095 Clouds 19 1019 82 8000 1.5 140 20:34 02.12.2020
5096 Clouds 19 1019 77 8000 1 140 19:55 02.12.2020
5097 Clouds 20 1019 77 8000 1 60 17:53 02.12.2020
5098 Clouds 20 1019 77 8000 1 60 17:34 02.12.2020
5099 Clouds 21 1018 73 8000 1 110 16:57 02.12.2020
5100 Clouds 23 1017 60 7000 4.1 170 14:47 02.12.2020
5101 Haze 21 1018 68 4000 3.6 160 11:34 02.12.2020
5102 Haze 20 1020 72 2000 4.1 180 10:28 02.12.2020
5103 Mist 19 1021 82 3000 3.6 160 08:24 02.12.2020
5104 Mist 17 1020 93 2000 2.6 150 00:57 02.12.2020
5105 Mist 17 1020 93 2000 2.1 140 22:21 01.12.2020
5106 Mist 17 1020 93 4000 2.6 140 20:36 01.12.2020
5107 Clouds 18 1019 88 6000 2.1 160 19:34 01.12.2020
5108 Clouds 18 1018 82 6000 2.6 140 17:29 01.12.2020
5109 Mist 19 1018 82 2000 4.1 160 15:24 01.12.2020
5110 Mist 18 1018 88 2000 3.1 160 13:37 01.12.2020
5111 Rain 18 1019 88 2000 2.6 150 11:44 01.12.2020
5112 Haze 19 1020 77 3000 3.1 150 11:26 01.12.2020
5113 Rain 19 1020 77 3000 3.1 150 10:32 01.12.2020
5114 Rain 16 1021 93 2000 2.6 120 08:18 01.12.2020
5115 Mist 16 1020 87 1000 1 130 06:46 01.12.2020
5116 Mist 15 1019 87 4000 1.5 280 01:51 01.12.2020
5117 Mist 15 1019 87 4000 1.5 280 01:51 01.12.2020
5118 Mist 14 1019 93 4000 1 350 00:52 01.12.2020
5119 Mist 15 1019 87 5000 2.6 90 23:21 30.11.2020
5120 Mist 15 1019 87 5000 2.6 90 22:42 30.11.2020
5121 Clouds 16 1020 82 7000 2.6 70 22:23 30.11.2020
5122 Clouds 15 1020 87 10000 2.1 70 20:47 30.11.2020
5123 Clouds 16 1020 82 10000 2.1 70 19:41 30.11.2020
5124 Clouds 17 1020 77 8000 3.1 50 18:22 30.11.2020
5125 Clouds 17 1020 77 8000 3.1 50 17:46 30.11.2020
5126 Clouds 18 1020 72 8000 3.1 60 16:54 30.11.2020
5127 Clouds 18 1020 72 7000 2.6 50 15:45 30.11.2020
5128 Clouds 18 1019 72 8000 2.1 60 14:21 30.11.2020
5129 Clouds 18 1019 72 8000 2.1 60 13:41 30.11.2020
5130 Clouds 17 1020 77 8000 2.6 10 12:26 30.11.2020
5131 Clouds 17 1020 77 8000 2.6 10 11:56 30.11.2020
5132 Clouds 18 1021 68 8000 2.6 20 10:25 30.11.2020
5133 Clouds 17 1022 72 7000 2.6 40 09:34 30.11.2020
5134 Mist 16 1020 82 5000 5.1 20 04:27 30.11.2020
5135 Mist 17 1020 88 5000 3.6 20 23:28 29.11.2020
5136 Mist 18 1021 82 5000 4.1 20 21:46 29.11.2020
5137 Mist 18 1021 82 5000 4.1 20 21:26 29.11.2020
5138 Clear 19 1020 82 10000 4.6 360 19:20 29.11.2020
5139 Clouds 20 1019 77 10000 6.7 10 17:43 29.11.2020
5140 Clouds 26 1016 44 10000 2.1 290 14:49 29.11.2020
5141 Clouds 26 1016 39 10000 3.1 180 12:46 29.11.2020
5142 Clouds 25 1017 38 10000 4.6 170 11:37 29.11.2020
5143 Clouds 23 1019 46 10000 5.1 170 08:54 29.11.2020
5144 Clouds 23 1019 46 10000 5.1 170 08:35 29.11.2020
5145 Clear 17 1017 77 7000 1 140 02:32 29.11.2020
5146 Clouds 19 1017 72 10000 2.1 140 22:59 28.11.2020
5147 Clouds 19 1017 72 10000 2.1 140 22:27 28.11.2020
5148 Clouds 19 1017 72 6000 2.6 140 20:24 28.11.2020
5149 Clouds 19 1017 72 6000 2.6 140 19:28 28.11.2020
5150 Haze 19 1017 77 5000 3.1 140 18:57 28.11.2020
5151 Haze 20 1018 72 5000 3.1 130 18:21 28.11.2020
5152 Clouds 21 1018 77 5000 1.5 130 16:57 28.11.2020
5153 Rain 23 1018 53 3000 5.1 180 14:59 28.11.2020
5154 Rain 24 1016 47 3000 5.7 170 13:55 28.11.2020
5155 Clouds 22 1019 60 10000 4.6 170 11:28 28.11.2020
5156 Clouds 21 1020 64 10000 5.1 160 09:26 28.11.2020
5157 Clouds 16 1020 93 7000 2.2 142 03:44 28.11.2020
5158 Clouds 16 1020 93 10000 1.5 20 01:53 28.11.2020
5159 Rain 20 1019 56 10000 2.1 140 23:22 27.11.2020
5160 Clear 20 1019 56 10000 2.1 140 22:38 27.11.2020
5161 Clouds 20 1020 60 10000 3.1 160 20:40 27.11.2020
5162 Clouds 21 1020 52 10000 3.1 150 19:34 27.11.2020
5163 Clouds 21 1020 52 10000 3.6 140 18:58 27.11.2020
5164 Clouds 23 1020 35 10000 3.6 170 16:58 27.11.2020
5165 Clouds 23 1018 33 10000 6.2 170 14:45 27.11.2020
5166 Clouds 24 1018 36 10000 3.6 150 13:21 27.11.2020
5167 Clouds 24 1018 36 10000 3.6 150 12:47 27.11.2020
5168 Clouds 23 1018 46 10000 2.1 160 11:34 27.11.2020
5169 Clouds 21 1020 49 10000 2.6 180 10:45 27.11.2020
5170 Clouds 21 1021 46 10000 3.6 190 09:53 27.11.2020
5171 Drizzle 21 1018 30 10000 4.1 160 23:50 26.11.2020
5172 Clouds 20 1017 25 10000 5.51 161 22:25 26.11.2020
5173 Clear 22 1018 26 10000 2.1 150 21:46 26.11.2020
5174 Clear 22 1018 26 10000 2.1 150 20:49 26.11.2020
5175 Clear 22 1017 33 10000 1.5 140 18:37 26.11.2020
5176 Clear 23 1016 27 10000 2.1 150 17:34 26.11.2020
5177 Clear 27 1015 19 10000 3.6 160 14:24 26.11.2020
5178 Clear 27 1015 19 10000 4.1 180 12:58 26.11.2020
5179 Clear 27 1015 19 10000 4.1 180 12:40 26.11.2020
5180 Clear 25 1017 22 10000 4.6 180 11:20 26.11.2020
5181 Clear 25 1017 22 10000 4.6 180 10:23 26.11.2020
5182 Clear 23 1018 23 10000 4.1 180 09:39 26.11.2020
5183 Clear 22 1019 26 10000 4.1 180 09:18 26.11.2020
5184 Clear 22 1019 26 10000 4.1 180 08:34 26.11.2020
5185 Clear 16 1017 36 10000 3.6 170 02:19 26.11.2020
5186 Clear 17 1018 36 10000 2.6 160 22:31 25.11.2020
5187 Clear 18 1018 36 10000 2.6 140 20:38 25.11.2020
5188 Clear 18 1018 42 10000 1.5 150 19:27 25.11.2020
5189 Clear 21 1017 32 10000 2.6 140 18:22 25.11.2020
5190 Clear 24 1016 29 10000 3.1 140 15:55 25.11.2020
5191 Clear 24 1016 29 10000 3.1 140 15:32 25.11.2020
5192 Clear 26 1016 26 10000 2.6 160 13:47 25.11.2020
5193 Clear 25 1017 25 10000 3.1 170 12:59 25.11.2020
5194 Clear 25 1017 25 10000 3.1 160 11:27 25.11.2020
5195 Clear 21 1020 32 10000 2.6 150 09:23 25.11.2020
5196 Clear 21 1020 32 10000 2.6 150 08:51 25.11.2020
5197 Clear 21 1020 32 10000 2.6 150 08:29 25.11.2020
5198 Clear 12 1019 58 10000 1.85 156 03:55 25.11.2020
5199 Clear 12 1019 62 10000 1.31 117 01:50 25.11.2020
5200 Clear 12 1019 62 10000 1.51 105 00:22 25.11.2020
5201 Clear 13 1019 54 10000 1.51 105 23:36 24.11.2020
5202 Clear 15 1020 47 10000 1 180 22:52 24.11.2020
5203 Clear 16 1020 48 10000 1 50 21:50 24.11.2020
5204 Clear 16 1020 48 10000 1 50 21:27 24.11.2020
5205 Clear 17 1020 48 10000 1 50 20:19 24.11.2020
5206 Clear 18 1020 45 10000 1.5 60 18:39 24.11.2020
5207 Clear 21 1019 35 10000 2.6 40 17:29 24.11.2020
5208 Clear 21 1019 35 10000 2.6 40 16:38 24.11.2020
5209 Clear 23 1019 31 10000 3.1 40 15:56 24.11.2020
5210 Clear 23 1019 31 10000 3.1 40 15:36 24.11.2020
5211 Clear 24 1018 29 10000 2.6 30 15:18 24.11.2020
5212 Clear 24 1018 29 10000 2.6 30 14:31 24.11.2020
5213 Clear 23 1019 31 10000 2.6 30 12:42 24.11.2020
5214 Clear 24 1020 29 10000 3.1 330 12:21 24.11.2020
5215 Clear 24 1020 29 10000 3.1 330 11:35 24.11.2020
5216 Clear 22 1021 33 10000 3.1 20 10:26 24.11.2020
5217 Clear 21 1022 35 10000 3.1 10 09:42 24.11.2020
5218 Clear 21 1022 35 10000 2.1 350 09:22 24.11.2020
5219 Clear 15 1022 51 10000 2.1 280 06:50 24.11.2020
5220 Clear 12 1021 58 10000 1 310 04:18 24.11.2020
5221 Clear 15 1022 51 10000 2.39 9 22:27 23.11.2020
5222 Clear 16 1022 44 10000 1 10 21:34 23.11.2020
5223 Clear 17 1022 42 10000 2.1 20 20:50 23.11.2020
5224 Clear 18 1022 36 10000 3.1 20 20:20 23.11.2020
5225 Clear 20 1021 32 10000 3.6 20 18:20 23.11.2020
5226 Clear 22 1021 28 10000 3.6 20 17:24 23.11.2020
5227 Clear 23 1020 25 10000 4.1 330 16:22 23.11.2020
5228 Clear 25 1020 23 10000 4.1 330 14:46 23.11.2020
5229 Clear 25 1020 23 10000 4.1 330 14:46 23.11.2020
5230 Clear 24 1019 27 10000 2.6 10 12:55 23.11.2020
5231 Clear 24 1019 27 10000 2.6 10 12:36 23.11.2020
5232 Clear 23 1020 27 10000 3.1 20 11:46 23.11.2020
5233 Clear 23 1021 35 10000 1.5 330 10:47 23.11.2020
5234 Clear 23 1022 35 10000 2.1 340 09:31 23.11.2020
5235 Clear 20 1023 37 10000 2.1 10 08:39 23.11.2020
5236 Clear 19 1023 45 10000 1.5 10 07:25 23.11.2020
5237 Clear 17 1021 48 10000 1.5 320 00:32 23.11.2020
5238 Clear 18 1021 39 10000 2.6 360 23:28 22.11.2020
5239 Clear 17 1021 48 10000 1.5 350 21:59 22.11.2020
5240 Clear 18 1022 45 10000 1.5 360 20:53 22.11.2020
5241 Clear 19 1021 37 10000 3.1 20 19:53 22.11.2020
5242 Clear 20 1021 37 10000 3.1 30 18:40 22.11.2020
5243 Clear 23 1020 31 10000 5.1 20 16:52 22.11.2020
5244 Clear 24 1019 31 10000 5.1 30 15:44 22.11.2020
5245 Clear 25 1018 29 10000 4.1 20 14:29 22.11.2020
5246 Clear 26 1018 27 10000 4.6 10 12:49 22.11.2020
5247 Clear 26 1019 29 10000 4.1 10 11:56 22.11.2020
5248 Clear 25 1020 33 10000 3.1 350 11:20 22.11.2020
5249 Clear 25 1020 33 10000 3.1 350 10:44 22.11.2020
5250 Clear 22 1021 43 10000 4.6 360 08:51 22.11.2020
5251 Clear 18 1017 39 10000 2.1 340 01:48 22.11.2020
5252 Clear 21 1016 35 10000 2.6 170 23:35 21.11.2020
5253 Clear 21 1016 35 10000 2.6 160 21:57 21.11.2020
5254 Clear 22 1017 30 10000 2.1 160 21:19 21.11.2020
5255 Clear 22 1017 30 10000 2.1 160 20:33 21.11.2020
5256 Clear 23 1017 31 10000 2.1 160 19:53 21.11.2020
5257 Clear 23 1017 31 10000 2.1 160 19:27 21.11.2020
5258 Clear 25 1016 27 10000 2.6 160 17:57 21.11.2020
5259 Clear 26 1015 27 10000 2.6 150 16:48 21.11.2020
5260 Clear 29 1015 26 10000 1.5 160 15:52 21.11.2020
5261 Clear 30 1015 17 10000 3.6 170 15:22 21.11.2020
5262 Clear 30 1015 17 10000 3.6 170 14:43 21.11.2020
5263 Clear 30 1015 17 10000 4.1 190 13:58 21.11.2020
5264 Clear 29 1015 20 10000 4.6 200 12:27 21.11.2020
5265 Clear 29 1016 21 10000 5.1 190 11:56 21.11.2020
5266 Clear 27 1017 24 10000 6.7 190 10:39 21.11.2020
5267 Clear 26 1018 26 10000 6.7 190 09:32 21.11.2020
5268 Clear 25 1019 27 10000 7.7 180 08:51 21.11.2020
5269 Clear 19 1019 42 10000 3.6 170 05:47 21.11.2020
5270 Clear 19 1018 42 10000 3.1 170 04:27 21.11.2020
5271 Clear 22 1018 35 10000 4.6 180 00:27 21.11.2020
5272 Clear 22 1018 33 10000 4.6 170 23:25 20.11.2020
5273 Clear 23 1018 33 10000 4.1 170 21:56 20.11.2020
5274 Clear 23 1018 33 10000 4.1 170 21:38 20.11.2020
5275 Clear 23 1018 33 10000 4.1 170 21:38 20.11.2020
5276 Clear 23 1018 35 10000 3.1 160 21:18 20.11.2020
5277 Clear 24 1018 33 10000 4.1 170 19:44 20.11.2020
5278 Clear 24 1018 33 10000 3.6 170 18:32 20.11.2020
5279 Clear 25 1017 31 10000 3.6 160 17:42 20.11.2020
5280 Clear 26 1017 31 10000 4.1 160 17:23 20.11.2020
5281 Clear 26 1017 31 10000 4.1 160 16:37 20.11.2020
5282 Clear 27 1016 28 10000 5.1 170 15:51 20.11.2020
5283 Clear 28 1016 28 10000 5.1 170 14:49 20.11.2020
5284 Clear 28 1016 28 10000 6.2 180 13:43 20.11.2020
5285 Clear 28 1017 28 9000 6.2 170 13:18 20.11.2020
5286 Clear 28 1017 28 9000 6.2 170 12:31 20.11.2020
5287 Clear 27 1017 32 8000 6.2 180 11:43 20.11.2020
5288 Clear 27 1018 32 8000 6.7 160 10:45 20.11.2020
5289 Clear 24 1020 38 7000 6.7 170 08:52 20.11.2020
5290 Clear 24 1020 38 7000 6.7 170 08:23 20.11.2020
5291 Clear 18 1019 55 10000 2.6 160 05:20 20.11.2020
5292 Clear 18 1019 55 10000 2.1 150 03:43 20.11.2020
5293 Clear 19 1019 52 10000 1.5 130 22:33 19.11.2020
5294 Clear 19 1019 48 10000 2.1 110 21:55 19.11.2020
5295 Clear 21 1018 46 10000 1.5 160 20:59 19.11.2020
5296 Clear 21 1018 46 10000 1.5 160 20:30 19.11.2020
5297 Clear 22 1018 43 10000 1.5 160 19:44 19.11.2020
5298 Clear 22 1018 43 10000 1.5 160 19:22 19.11.2020
5299 Clear 25 1018 31 10000 3.1 180 17:38 19.11.2020
5300 Clear 26 1018 27 10000 3.1 170 16:47 19.11.2020
5301 Clear 27 1017 28 10000 3.6 160 15:31 19.11.2020
5302 Clear 28 1017 28 10000 4.6 170 13:59 19.11.2020
5303 Clear 28 1017 28 10000 4.6 170 13:39 19.11.2020
5304 Clear 28 1017 32 10000 4.1 180 12:57 19.11.2020
5305 Clear 28 1017 32 10000 4.1 180 12:34 19.11.2020
5306 Clear 27 1018 34 10000 4.6 180 11:41 19.11.2020
5307 Clear 26 1019 39 10000 4.1 180 11:22 19.11.2020
5308 Clear 26 1019 39 10000 4.1 180 10:51 19.11.2020
5309 Clear 23 1020 49 10000 5.1 170 09:49 19.11.2020
5310 Clear 23 1020 49 10000 5.1 170 09:28 19.11.2020
5311 Clear 22 1021 49 10000 4.6 160 08:58 19.11.2020
5312 Clear 21 1021 43 10000 5.1 160 07:57 19.11.2020
5313 Clear 16 1020 59 10000 2.78 125 01:48 19.11.2020
5314 Clear 16 1020 59 10000 3.2 105 00:33 19.11.2020
5315 Clear 18 1020 55 10000 3.2 105 23:32 18.11.2020
5316 Clear 18 1020 52 10000 1.5 70 22:59 18.11.2020
5317 Clear 18 1020 52 10000 1.5 70 22:29 18.11.2020
5318 Clear 19 1020 52 10000 1.5 90 21:44 18.11.2020
5319 Clear 19 1020 52 10000 1.5 90 21:25 18.11.2020
5320 Clear 20 1020 45 10000 3.1 70 20:37 18.11.2020
5321 Clear 21 1020 46 10000 3.1 70 19:43 18.11.2020
5322 Clear 22 1020 43 10000 3.6 60 19:22 18.11.2020
5323 Clear 22 1020 43 10000 3.6 60 18:45 18.11.2020
5324 Clear 23 1020 46 10000 3.1 60 17:44 18.11.2020
5325 Clear 23 1020 46 10000 3.1 60 17:44 18.11.2020
5326 Clear 24 1019 44 10000 2.6 50 16:35 18.11.2020
5327 Clear 25 1019 41 10000 3.1 60 15:59 18.11.2020
5328 Clear 26 1019 41 10000 2.1 90 14:41 18.11.2020
5329 Clear 26 1019 39 10000 2.6 70 14:19 18.11.2020
5330 Clear 25 1019 47 10000 2.1 80 13:22 18.11.2020
5331 Clear 25 1019 47 10000 2.1 80 12:43 18.11.2020
5332 Clear 24 1020 47 10000 3.1 100 11:51 18.11.2020
5333 Clear 24 1020 50 10000 3.1 100 10:56 18.11.2020
5334 Clear 24 1020 50 10000 3.1 100 10:27 18.11.2020
5335 Clouds 22 1022 56 9000 3.6 50 08:40 18.11.2020
5336 Clouds 19 1022 72 8000 2.1 60 06:48 18.11.2020
5337 Clouds 19 1020 82 6000 2.6 40 03:48 18.11.2020
5338 Clear 20 1019 72 7000 3.1 50 00:18 18.11.2020
5339 Clear 20 1019 72 7000 3.1 50 23:23 17.11.2020
5340 Clear 21 1019 56 10000 2.6 50 22:41 17.11.2020
5341 Clear 21 1019 56 10000 2.6 50 22:23 17.11.2020
5342 Clear 22 1019 49 10000 2.6 80 21:46 17.11.2020
5343 Clear 22 1019 46 10000 1 300 21:18 17.11.2020
5344 Clear 22 1019 46 10000 1 300 20:42 17.11.2020
5345 Clear 23 1019 40 10000 2.6 50 20:22 17.11.2020
5346 Clear 24 1018 36 10000 3.1 60 18:37 17.11.2020
5347 Clear 26 1018 29 10000 3.1 20 18:18 17.11.2020
5348 Clear 28 1017 30 10000 1.5 250 16:59 17.11.2020
5349 Clear 28 1017 30 10000 1.5 250 16:29 17.11.2020
5350 Clear 29 1017 25 10000 3.1 260 15:51 17.11.2020
5351 Clear 29 1017 25 10000 3.1 260 15:33 17.11.2020
5352 Clear 30 1017 23 10000 2.6 250 14:57 17.11.2020
5353 Clear 30 1017 23 10000 2.6 250 14:28 17.11.2020
5354 Clear 30 1017 23 10000 3.1 280 13:38 17.11.2020
5355 Clear 30 1017 23 9000 3.6 260 13:18 17.11.2020
5356 Clear 30 1017 23 9000 3.6 260 12:40 17.11.2020
5357 Clear 29 1018 26 6000 3.1 230 11:44 17.11.2020
5358 Dust 28 1019 32 5000 2.6 290 10:50 17.11.2020
5359 Dust 28 1019 32 5000 2.6 290 10:23 17.11.2020
5360 Dust 26 1020 39 5000 2.1 250 09:51 17.11.2020
5361 Dust 26 1020 39 5000 2.1 250 09:27 17.11.2020
5362 Haze 24 1020 41 5000 1.5 160 08:23 17.11.2020
5363 Haze 22 1021 53 5000 2.25 236 07:44 17.11.2020
5364 Haze 18 1021 59 5000 1.5 280 06:34 17.11.2020
5365 Haze 18 1019 52 5000 3.1 330 03:31 17.11.2020
5366 Clear 19 1019 48 10000 3.6 320 02:35 17.11.2020
5367 Clear 20 1019 40 10000 2.6 320 01:23 17.11.2020
5368 Clear 19 1019 45 10000 3.6 310 01:23 17.11.2020
5369 Clear 20 1019 40 10000 2.6 320 00:50 17.11.2020
5370 Clear 21 1019 37 10000 2.6 320 23:45 16.11.2020
5371 Clear 20 1019 42 10000 1.5 360 23:23 16.11.2020
5372 Clear 20 1019 42 10000 1.5 360 22:42 16.11.2020
5373 Clear 21 1019 43 10000 2.6 80 22:20 16.11.2020
5374 Clear 21 1019 43 10000 2.6 80 21:44 16.11.2020
5375 Clear 24 1018 38 10000 2.1 330 21:24 16.11.2020
5376 Clear 24 1018 38 10000 2.1 330 20:27 16.11.2020
5377 Clear 25 1018 31 10000 3.1 330 19:56 16.11.2020
5378 Clear 25 1018 31 10000 3.1 330 19:32 16.11.2020
5379 Clear 25 1017 38 10000 2.05 180 18:56 16.11.2020
5380 Clear 25 1017 38 10000 1 220 18:28 16.11.2020
5381 Clear 25 1017 38 10000 1 220 17:41 16.11.2020
5382 Clear 28 1016 28 10000 2.1 260 17:19 16.11.2020
5383 Clear 28 1016 28 10000 2.1 260 16:51 16.11.2020
5384 Clear 28 1016 28 10000 2.1 260 16:26 16.11.2020
5385 Clear 29 1016 26 10000 3.1 250 15:47 16.11.2020
5386 Dust 30 1015 23 5000 4.6 250 15:28 16.11.2020
5387 Dust 30 1015 23 5000 4.6 250 14:53 16.11.2020
5388 Dust 30 1015 23 5000 6.2 250 13:59 16.11.2020
5389 Dust 29 1015 25 5000 6.2 240 13:21 16.11.2020
5390 Dust 29 1015 25 5000 6.2 240 12:32 16.11.2020
5391 Dust 29 1016 25 5000 6.2 240 11:43 16.11.2020
5392 Dust 29 1016 25 2000 6.7 220 11:23 16.11.2020
5393 Dust 29 1016 25 2000 6.7 220 10:44 16.11.2020
5394 Dust 28 1017 26 2000 7.2 210 10:26 16.11.2020
5395 Dust 28 1017 26 2000 7.2 210 09:53 16.11.2020
5396 Dust 28 1017 26 2000 7.2 210 09:34 16.11.2020
5397 Clear 26 1018 31 10000 4.6 190 08:48 16.11.2020
5398 Clear 24 1018 38 10000 3.6 180 08:21 16.11.2020
5399 Clear 21 1018 49 10000 2.1 150 07:19 16.11.2020
5400 Clear 21 1018 49 10000 2.1 150 06:45 16.11.2020
5401 Clear 18 1017 59 10000 2.1 150 05:44 16.11.2020
5402 Clear 19 1016 55 10000 1.5 170 03:54 16.11.2020
5403 Clear 19 1015 52 10000 3.1 160 01:45 16.11.2020
5404 Clear 19 1015 52 10000 3.1 160 00:28 16.11.2020
5405 Clear 19 1016 55 10000 2.1 140 23:29 15.11.2020
5406 Clear 20 1016 52 10000 1.5 150 22:57 15.11.2020
5407 Clear 20 1016 52 10000 1.5 150 22:24 15.11.2020
5408 Clear 20 1017 52 10000 1.5 160 21:51 15.11.2020
5409 Clear 20 1017 52 10000 1.5 160 21:29 15.11.2020
5410 Clear 21 1017 46 10000 1.5 140 20:51 15.11.2020
5411 Clear 21 1017 46 10000 1.5 140 20:32 15.11.2020
5412 Clear 22 1017 43 10000 1.5 150 19:55 15.11.2020
5413 Clear 22 1017 43 10000 1.5 150 19:36 15.11.2020
5414 Clear 23 1017 38 10000 1.5 150 19:18 15.11.2020
5415 Clear 23 1017 38 10000 1.5 150 18:43 15.11.2020
5416 Clear 23 1017 38 10000 1.5 150 18:24 15.11.2020
5417 Clear 24 1017 38 10000 2.1 140 17:47 15.11.2020
5418 Clear 24 1017 38 10000 2.1 140 17:26 15.11.2020
5419 Clear 25 1016 31 10000 2.6 150 16:52 15.11.2020
5420 Clear 25 1016 31 10000 2.6 150 16:24 15.11.2020
5421 Clear 26 1015 27 10000 3.1 150 15:58 15.11.2020
5422 Clear 26 1015 27 10000 3.1 150 15:39 15.11.2020
5423 Clear 27 1015 26 10000 3.1 150 15:21 15.11.2020
5424 Clear 27 1015 26 10000 3.1 150 14:45 15.11.2020
5425 Clear 27 1015 26 10000 3.1 150 14:22 15.11.2020
5426 Clear 27 1016 24 10000 3.1 150 13:41 15.11.2020
5427 Clear 26 1016 24 10000 3.6 160 12:54 15.11.2020
5428 Clear 26 1016 24 10000 3.6 160 12:29 15.11.2020
5429 Clear 26 1017 24 10000 5.7 180 11:58 15.11.2020
5430 Clear 26 1017 24 10000 5.7 180 11:40 15.11.2020
5431 Clear 25 1017 25 10000 3.6 150 11:18 15.11.2020
5432 Clear 25 1017 25 10000 3.6 150 10:49 15.11.2020
5433 Clear 25 1017 25 10000 3.6 150 10:29 15.11.2020
5434 Clear 23 1018 25 10000 5.1 160 09:45 15.11.2020
5435 Clear 22 1019 24 10000 3.6 140 09:22 15.11.2020
5436 Clear 22 1019 24 10000 3.6 140 08:54 15.11.2020
5437 Clear 20 1020 28 10000 3.1 130 08:31 15.11.2020
5438 Clear 20 1020 28 10000 3.1 130 07:43 15.11.2020
5439 Clear 15 1019 47 10000 3.28 124 05:33 15.11.2020
5440 Clear 14 1018 50 10000 3.28 124 04:51 15.11.2020
5441 Clear 16 1018 48 10000 1.77 114 01:25 15.11.2020
5442 Clear 16 1019 48 10000 1.35 109 00:29 15.11.2020
5443 Clear 16 1019 48 10000 1.35 109 23:41 14.11.2020
5444 Clear 17 1019 45 10000 1.57 71 22:51 14.11.2020
5445 Clear 17 1019 45 10000 2.14 58 22:32 14.11.2020
5446 Clear 18 1020 39 10000 1 40 21:45 14.11.2020
5447 Clear 18 1020 39 10000 1 40 21:23 14.11.2020
5448 Clear 19 1020 39 10000 1.5 70 20:59 14.11.2020
5449 Clear 19 1020 39 10000 1.5 70 20:30 14.11.2020
5450 Clear 20 1020 37 10000 2.1 70 19:58 14.11.2020
5451 Clear 20 1020 37 10000 2.1 70 19:36 14.11.2020
5452 Clear 21 1020 32 10000 2.1 70 18:55 14.11.2020
5453 Clear 21 1020 32 10000 2.1 70 18:36 14.11.2020
5454 Clear 22 1020 35 10000 1.5 60 18:18 14.11.2020
5455 Clear 22 1020 35 10000 1.5 60 17:41 14.11.2020
5456 Clear 23 1019 33 10000 1.5 50 17:20 14.11.2020
5457 Clear 23 1019 33 10000 1.5 50 16:44 14.11.2020
5458 Clear 23 1019 33 10000 1.5 50 16:24 14.11.2020
5459 Clear 24 1018 33 10000 1.5 50 15:52 14.11.2020
5460 Clear 24 1018 33 10000 1.5 50 15:29 14.11.2020
5461 Clear 25 1018 31 10000 1.5 80 14:49 14.11.2020
5462 Clear 25 1018 31 10000 1.5 80 14:26 14.11.2020
5463 Clear 25 1018 25 10000 2.1 80 13:49 14.11.2020
5464 Clear 25 1018 25 10000 2.1 80 13:25 14.11.2020
5465 Clear 25 1019 25 10000 2.6 90 12:48 14.11.2020
5466 Clear 25 1019 25 10000 2.6 90 12:30 14.11.2020
5467 Clear 24 1019 29 10000 2.6 50 11:46 14.11.2020
5468 Clear 24 1019 29 10000 2.6 50 11:25 14.11.2020
5469 Clear 23 1020 28 10000 3.6 40 10:49 14.11.2020
5470 Clear 23 1020 28 10000 3.6 40 10:26 14.11.2020
5471 Clear 22 1022 33 10000 3.6 50 09:51 14.11.2020
5472 Clear 22 1022 33 10000 3.6 50 09:28 14.11.2020
5473 Clear 22 1022 33 10000 3.6 50 09:28 14.11.2020
5474 Clear 21 1022 40 10000 4.6 30 08:59 14.11.2020
5475 Clear 21 1022 40 10000 4.6 30 08:38 14.11.2020
5476 Clear 19 1022 55 10000 4.1 40 07:51 14.11.2020
5477 Clear 19 1022 55 10000 4.1 40 07:28 14.11.2020
5478 Clear 17 1022 72 10000 3.1 30 06:35 14.11.2020
5479 Clear 17 1022 67 10000 2.1 10 05:37 14.11.2020
5480 Clear 17 1021 67 10000 2.1 360 04:20 14.11.2020
5481 Clear 18 1020 63 10000 2.6 30 01:20 14.11.2020
5482 Clear 18 1021 63 10000 3.6 30 23:49 13.11.2020
5483 Clear 19 1021 63 10000 4.1 30 23:26 13.11.2020
5484 Clear 19 1021 63 10000 4.1 30 22:55 13.11.2020
5485 Clear 19 1021 63 10000 4.1 30 22:29 13.11.2020
5486 Clear 20 1021 60 10000 3.6 30 21:59 13.11.2020
5487 Clear 20 1021 60 10000 3.6 30 21:39 13.11.2020
5488 Clear 21 1021 60 10000 5.1 30 21:20 13.11.2020
5489 Clear 21 1021 60 10000 5.1 30 20:42 13.11.2020
5490 Clear 21 1021 60 10000 5.1 30 20:22 13.11.2020
5491 Clear 21 1021 60 8000 6.2 30 19:46 13.11.2020
5492 Clear 23 1021 49 6000 6.2 30 19:23 13.11.2020
5493 Clear 23 1021 49 6000 6.2 30 18:56 13.11.2020
5494 Clear 23 1021 49 6000 6.2 30 18:25 13.11.2020
5495 Dust 24 1020 47 5000 6.7 30 17:43 13.11.2020
5496 Dust 25 1019 47 5000 7.7 30 17:19 13.11.2020
5497 Dust 25 1019 47 5000 7.7 30 17:19 13.11.2020
5498 Dust 25 1019 47 5000 7.7 30 16:49 13.11.2020
5499 Dust 25 1019 47 5000 7.7 30 16:24 13.11.2020
5500 Dust 25 1018 47 5000 7.2 30 15:49 13.11.2020
5501 Clear 27 1017 39 6000 6.7 30 15:27 13.11.2020
5502 Clear 30 1017 27 10000 3.6 10 14:48 13.11.2020
5503 Clear 30 1017 27 10000 3.6 10 14:24 13.11.2020
5504 Clear 31 1017 25 10000 3.1 360 13:47 13.11.2020
5505 Clear 31 1017 25 10000 3.1 360 13:23 13.11.2020
5506 Clear 30 1017 33 10000 1.5 30 12:47 13.11.2020
5507 Clear 29 1018 35 10000 1.5 280 12:24 13.11.2020
5508 Clear 29 1018 35 10000 1.5 280 11:49 13.11.2020
5509 Clear 29 1018 35 10000 1.5 280 11:29 13.11.2020
5510 Clear 28 1019 34 10000 1.5 220 10:56 13.11.2020
5511 Clear 28 1019 34 10000 1.5 220 10:35 13.11.2020
5512 Clear 26 1020 47 10000 2.1 20 09:57 13.11.2020
5513 Clear 26 1020 47 10000 2.1 20 09:38 13.11.2020
5514 Clear 23 1021 60 10000 3.1 10 09:19 13.11.2020
5515 Clear 23 1021 60 10000 3.1 10 09:19 13.11.2020
5516 Clear 23 1021 60 10000 3.1 10 09:19 13.11.2020
5517 Clear 23 1021 60 10000 3.1 10 08:36 13.11.2020
5518 Clear 21 1021 64 10000 3.1 360 07:58 13.11.2020
5519 Clear 21 1021 64 10000 3.1 360 07:40 13.11.2020
5520 Clear 19 1020 48 10000 3.6 10 07:21 13.11.2020
5521 Clear 19 1020 48 10000 3.6 10 06:48 13.11.2020
5522 Clear 17 1019 42 10000 2.6 10 05:43 13.11.2020
5523 Clear 18 1018 45 10000 1.5 340 04:59 13.11.2020
5524 Clear 20 1017 45 10000 2.1 220 01:45 13.11.2020
5525 Clear 20 1017 42 10000 1.5 140 00:38 13.11.2020
5526 Clear 21 1017 40 10000 1.5 150 00:18 13.11.2020
5527 Clear 21 1017 40 10000 1.5 150 23:37 12.11.2020
5528 Clear 22 1017 37 10000 1 140 23:19 12.11.2020
5529 Clear 22 1017 37 10000 1 140 22:48 12.11.2020
5530 Clear 22 1017 37 10000 1 140 22:30 12.11.2020
5531 Clear 23 1017 38 10000 1 150 21:43 12.11.2020
5532 Clear 25 1017 29 10000 2.1 160 21:24 12.11.2020
5533 Clear 25 1017 29 10000 2.1 160 20:58 12.11.2020
5534 Clear 25 1017 29 10000 2.1 160 20:39 12.11.2020
5535 Clear 25 1018 27 10000 2.1 160 20:19 12.11.2020
5536 Clear 25 1018 27 10000 2.1 160 19:44 12.11.2020
5537 Clear 25 1018 27 10000 2.1 160 19:26 12.11.2020
5538 Clear 26 1017 29 10000 1 220 18:48 12.11.2020
5539 Clear 27 1017 28 10000 1 250 18:23 12.11.2020
5540 Clear 27 1017 28 10000 1 250 17:45 12.11.2020
5541 Clear 27 1017 28 10000 1 250 17:26 12.11.2020
5542 Clear 29 1017 25 10000 1 220 16:47 12.11.2020
5543 Clear 29 1017 25 10000 1 220 16:26 12.11.2020
5544 Clear 31 1016 23 10000 1.5 210 15:57 12.11.2020
5545 Clear 31 1016 23 10000 1.5 210 15:39 12.11.2020
5546 Clear 32 1016 19 10000 3.1 240 15:20 12.11.2020
5547 Clear 32 1016 19 10000 3.1 240 14:43 12.11.2020
5548 Clear 32 1016 18 10000 4.1 220 14:25 12.11.2020
5549 Clear 32 1016 18 10000 4.1 220 13:49 12.11.2020
5550 Clear 32 1016 18 10000 4.1 220 13:21 12.11.2020
5551 Clear 32 1016 18 10000 4.1 220 12:59 12.11.2020
5552 Clear 32 1016 18 10000 4.1 220 12:38 12.11.2020
5553 Clear 32 1017 19 10000 4.6 220 12:18 12.11.2020
5554 Clear 32 1017 19 10000 4.6 220 11:42 12.11.2020
5555 Clear 31 1018 20 10000 5.1 240 11:22 12.11.2020
5556 Clear 31 1018 20 10000 5.1 240 10:41 12.11.2020
5557 Clear 30 1019 22 10000 4.1 230 10:23 12.11.2020
5558 Clear 30 1019 22 10000 4.1 230 09:42 12.11.2020
5559 Clear 29 1020 25 10000 3.1 230 09:22 12.11.2020
5560 Clear 29 1020 25 10000 3.1 230 08:41 12.11.2020
5561 Clear 26 1020 31 10000 2.6 240 08:21 12.11.2020
5562 Clear 26 1020 31 10000 2.6 240 07:59 12.11.2020
5563 Clear 26 1020 31 10000 2.6 240 07:39 12.11.2020
5564 Clear 24 1019 33 10000 2.1 180 06:55 12.11.2020
5565 Clear 24 1019 33 10000 2.1 180 06:27 12.11.2020
5566 Clear 20 1017 45 10000 1.5 160 03:51 12.11.2020
5567 Clear 21 1017 37 10000 2.6 170 03:20 12.11.2020
5568 Clear 20 1017 42 10000 1.5 140 00:49 12.11.2020
5569 Clear 21 1017 35 10000 2.6 130 23:46 11.11.2020
5570 Clear 21 1017 35 10000 2.6 130 23:25 11.11.2020
5571 Clear 22 1017 37 10000 1.5 130 22:56 11.11.2020
5572 Clear 22 1017 37 10000 1.5 130 22:38 11.11.2020
5573 Clear 23 1018 35 10000 1 140 22:18 11.11.2020
5574 Clear 23 1018 35 10000 1 140 21:41 11.11.2020
5575 Clear 23 1017 35 10000 1 140 21:21 11.11.2020
5576 Clear 23 1017 35 10000 1 140 20:55 11.11.2020
5577 Clear 23 1017 35 10000 1 140 20:36 11.11.2020
5578 Clear 23 1017 35 10000 1 140 20:36 11.11.2020
5579 Clear 24 1017 33 10000 1 150 20:18 11.11.2020
5580 Clear 24 1017 33 10000 1 150 19:43 11.11.2020
5581 Clear 24 1017 33 10000 1 150 19:24 11.11.2020
5582 Clear 26 1017 29 10000 1 130 18:47 11.11.2020
5583 Clear 26 1017 29 10000 1 130 18:27 11.11.2020
5584 Clear 29 1017 25 10000 1 140 17:41 11.11.2020
5585 Clear 27 1016 36 10000 4.06 144 17:22 11.11.2020
5586 Clear 27 1016 36 10000 4.06 144 16:46 11.11.2020
5587 Clear 27 1016 36 10000 4.55 136 16:28 11.11.2020
5588 Clear 32 1016 24 10000 1 310 15:47 11.11.2020
5589 Clear 33 1016 22 10000 1.5 190 15:26 11.11.2020
5590 Clear 33 1016 22 10000 1.5 190 14:52 11.11.2020
5591 Clear 33 1016 22 10000 1.5 190 14:52 11.11.2020
5592 Clear 33 1016 22 10000 1.5 190 14:31 11.11.2020
5593 Clear 33 1015 22 10000 1.5 250 13:55 11.11.2020
5594 Clear 33 1015 22 10000 1.5 250 13:33 11.11.2020
5595 Clear 34 1016 17 10000 2.6 210 12:41 11.11.2020
5596 Clear 32 1016 24 10000 2.1 290 12:20 11.11.2020
5597 Clear 32 1016 24 10000 2.1 290 11:49 11.11.2020
5598 Clear 32 1016 24 10000 2.1 290 11:29 11.11.2020
5599 Clear 31 1017 31 10000 1.5 250 10:40 11.11.2020
5600 Clear 30 1018 30 10000 2.6 220 10:21 11.11.2020
5601 Clear 30 1018 30 10000 2.6 220 09:45 11.11.2020
5602 Clear 30 1018 30 10000 2.6 220 09:26 11.11.2020
5603 Clear 29 1019 32 10000 4.1 210 08:46 11.11.2020
5604 Clear 27 1018 36 10000 5.7 180 08:27 11.11.2020
5605 Clear 27 1018 36 10000 5.7 180 07:49 11.11.2020
5606 Clear 24 1018 47 10000 3.1 160 07:18 11.11.2020
5607 Clear 24 1018 47 10000 3.1 160 06:26 11.11.2020
5608 Clear 20 1017 56 10000 1.5 140 04:30 11.11.2020
5609 Clear 22 1017 53 10000 1.5 140 01:31 11.11.2020
5610 Clear 22 1017 53 10000 1.5 150 00:34 11.11.2020
5611 Clear 23 1017 46 10000 2.6 160 23:55 10.11.2020
5612 Clear 23 1017 46 10000 2.6 160 23:24 10.11.2020
5613 Clear 23 1017 43 10000 2.6 160 22:57 10.11.2020
5614 Clear 23 1017 43 10000 2.6 160 22:27 10.11.2020
5615 Clear 23 1018 43 10000 2.1 160 21:54 10.11.2020
5616 Clear 23 1018 43 10000 2.1 160 21:36 10.11.2020
5617 Clear 25 1018 38 10000 2.6 160 21:18 10.11.2020
5618 Clear 25 1018 38 10000 2.6 160 20:42 10.11.2020
5619 Clear 25 1018 41 10000 1.5 150 20:23 10.11.2020
5620 Clear 25 1018 41 10000 1.5 150 19:50 10.11.2020
5621 Clear 25 1018 41 10000 1.5 150 19:32 10.11.2020
5622 Clear 25 1018 41 10000 1 140 18:59 10.11.2020
5623 Clear 25 1018 41 10000 1 140 18:40 10.11.2020
5624 Clear 27 1018 36 10000 1.5 150 18:19 10.11.2020
5625 Clear 27 1018 36 10000 1.5 150 17:44 10.11.2020
5626 Clear 28 1017 30 10000 2.6 140 17:26 10.11.2020
5627 Clear 28 1017 30 10000 2.6 140 16:57 10.11.2020
5628 Clear 28 1017 30 10000 2.6 140 16:57 10.11.2020
5629 Clear 28 1017 30 10000 2.6 140 16:37 10.11.2020
5630 Clear 30 1017 27 10000 2.1 150 16:18 10.11.2020
5631 Clear 30 1017 27 10000 2.1 150 15:45 10.11.2020
5632 Clear 31 1016 25 10000 3.1 150 15:23 10.11.2020
5633 Clear 31 1016 25 10000 3.1 150 14:41 10.11.2020
5634 Clear 31 1016 22 10000 3.1 160 14:22 10.11.2020
5635 Clear 31 1016 22 10000 3.1 160 13:54 10.11.2020
5636 Clear 31 1016 22 10000 3.1 160 13:36 10.11.2020
5637 Clear 31 1017 25 10000 3.1 180 13:18 10.11.2020
5638 Clear 31 1017 25 10000 3.1 180 12:44 10.11.2020
5639 Clear 31 1017 25 10000 3.1 180 12:23 10.11.2020
5640 Clear 30 1017 28 10000 3.6 160 11:39 10.11.2020
5641 Clear 30 1018 28 10000 4.1 190 11:20 10.11.2020
5642 Clear 30 1018 28 10000 4.1 190 10:44 10.11.2020
5643 Clear 30 1018 28 10000 4.1 190 10:26 10.11.2020
5644 Clear 29 1019 32 10000 3.6 160 09:51 10.11.2020
5645 Clear 29 1019 32 10000 3.6 160 09:27 10.11.2020
5646 Clear 28 1020 34 10000 3.1 150 08:59 10.11.2020
5647 Clear 28 1020 34 10000 3.1 150 08:38 10.11.2020
5648 Clear 26 1020 44 10000 1.5 140 08:19 10.11.2020
5649 Clear 26 1020 44 10000 1.5 140 07:38 10.11.2020
5650 Clear 21 1020 56 10000 4.35 175 07:18 10.11.2020
5651 Clear 21 1020 56 10000 4.35 175 06:38 10.11.2020
5652 Clear 19 1019 63 10000 2.53 168 05:29 10.11.2020
5653 Clear 19 1018 55 10000 3.1 30 03:36 10.11.2020
5654 Clear 22 1017 49 10000 2.1 170 01:41 10.11.2020
5655 Clear 23 1018 46 10000 2.6 170 00:50 10.11.2020
5656 Clear 24 1018 44 10000 3.6 180 23:46 09.11.2020
5657 Clear 24 1019 44 10000 3.1 170 23:00 09.11.2020
5658 Clear 24 1019 44 10000 3.1 170 22:41 09.11.2020
5659 Clear 23 1019 43 10000 2.1 160 22:22 09.11.2020
5660 Clear 23 1019 43 10000 2.1 160 21:43 09.11.2020
5661 Clear 23 1019 43 10000 2.1 160 21:25 09.11.2020
5662 Clear 23 1019 43 10000 2.1 160 21:25 09.11.2020
5663 Clear 25 1019 41 10000 2.1 150 20:42 09.11.2020
5664 Clear 25 1020 41 10000 1.5 150 20:22 09.11.2020
5665 Clear 25 1020 41 10000 1.5 150 19:48 09.11.2020
5666 Clear 25 1020 41 10000 1.5 150 19:23 09.11.2020
5667 Clear 25 1020 41 10000 1.5 150 19:23 09.11.2020
5668 Clear 26 1019 36 10000 2.1 130 18:58 09.11.2020
5669 Clear 26 1019 36 10000 2.1 130 18:39 09.11.2020
5670 Clear 27 1019 36 10000 2.1 140 18:19 09.11.2020
5671 Clear 27 1019 36 10000 2.1 140 17:43 09.11.2020
5672 Clear 28 1019 32 10000 2.1 160 17:25 09.11.2020
5673 Clear 28 1019 32 10000 2.1 160 16:44 09.11.2020
5674 Clear 30 1018 27 10000 3.1 160 16:23 09.11.2020
5675 Clear 30 1018 27 10000 3.1 160 15:45 09.11.2020
5676 Clear 30 1018 27 10000 3.1 160 15:25 09.11.2020
5677 Clear 31 1018 25 10000 3.6 170 14:49 09.11.2020
5678 Clear 31 1018 23 10000 4.1 170 14:28 09.11.2020
5679 Clear 31 1018 23 10000 4.1 170 13:52 09.11.2020
5680 Clear 31 1018 23 10000 4.1 170 13:25 09.11.2020
5681 Clear 31 1018 27 10000 4.6 170 12:57 09.11.2020
5682 Clear 31 1018 27 10000 4.6 170 12:39 09.11.2020
5683 Clear 30 1019 30 10000 5.1 180 12:20 09.11.2020
5684 Clear 30 1019 30 10000 5.1 180 11:42 09.11.2020
5685 Clear 30 1019 30 10000 5.1 180 11:24 09.11.2020
5686 Clear 30 1020 28 10000 5.1 180 11:24 09.11.2020
5687 Clear 30 1020 28 10000 5.1 180 10:44 09.11.2020
5688 Clear 29 1021 32 10000 4.6 160 10:25 09.11.2020
5689 Clear 29 1021 32 10000 4.6 160 09:52 09.11.2020
5690 Clear 29 1021 32 10000 4.6 160 09:28 09.11.2020
5691 Clear 28 1022 34 10000 5.1 170 08:49 09.11.2020
5692 Clear 28 1022 34 10000 5.1 170 08:27 09.11.2020
5693 Clear 26 1022 39 10000 4.6 170 07:43 09.11.2020
5694 Clear 22 1022 56 10000 1 190 07:21 09.11.2020
5695 Clear 22 1022 56 10000 1 190 06:48 09.11.2020
5696 Clear 19 1020 63 10000 1 130 03:51 09.11.2020
5697 Clear 21 1020 56 10000 1 130 01:56 09.11.2020
5698 Clear 21 1020 56 10000 1 130 01:38 09.11.2020
5699 Clear 22 1020 53 10000 2.1 160 00:35 09.11.2020
5700 Clear 23 1020 49 10000 2.6 160 23:39 08.11.2020
5701 Clear 23 1020 49 10000 1.5 140 23:20 08.11.2020
5702 Clear 23 1020 49 10000 1.5 140 22:42 08.11.2020
5703 Clear 23 1020 46 10000 4.4 140 22:20 08.11.2020
5704 Clear 23 1020 46 10000 4.4 140 21:43 08.11.2020
5705 Clear 24 1020 44 10000 1.5 150 21:20 08.11.2020
5706 Clear 24 1020 44 10000 1.5 150 20:55 08.11.2020
5707 Clear 24 1020 44 10000 1.5 150 20:37 08.11.2020
5708 Clear 24 1020 41 10000 3.7 147 20:19 08.11.2020
5709 Clear 24 1020 41 10000 3.7 147 19:43 08.11.2020
5710 Clear 24 1020 41 10000 3.98 140 19:21 08.11.2020
5711 Clear 26 1019 34 10000 2.1 140 18:49 08.11.2020
5712 Clear 26 1019 36 10000 2.1 130 18:22 08.11.2020
5713 Clear 26 1019 36 10000 2.1 130 17:58 08.11.2020
5714 Clear 26 1019 36 10000 2.1 130 17:39 08.11.2020
5715 Clear 27 1018 32 10000 4.3 112 17:19 08.11.2020
5716 Clear 27 1018 32 10000 4.3 112 16:56 08.11.2020
5717 Clear 27 1018 32 10000 4.3 112 16:36 08.11.2020
5718 Clear 29 1018 25 10000 2.6 150 16:18 08.11.2020
5719 Clear 29 1018 25 10000 2.6 150 15:43 08.11.2020
5720 Clear 30 1017 19 10000 3.6 170 15:22 08.11.2020
5721 Clear 30 1017 19 10000 3.6 170 14:42 08.11.2020
5722 Clear 31 1017 18 10000 4.1 170 14:22 08.11.2020
5723 Clear 30 1017 19 10000 3.6 170 14:22 08.11.2020
5724 Clear 31 1017 18 10000 4.1 170 13:47 08.11.2020
5725 Clear 31 1017 18 10000 4.1 170 13:24 08.11.2020
5726 Clear 31 1017 20 10000 3.6 150 12:46 08.11.2020
5727 Clear 31 1017 20 10000 3.6 150 12:28 08.11.2020
5728 Clear 30 1018 19 10000 5.1 190 11:58 08.11.2020
5729 Clear 30 1018 19 10000 5.1 190 11:40 08.11.2020
5730 Clear 29 1019 20 10000 5.1 180 11:20 08.11.2020
5731 Clear 29 1019 20 10000 5.1 180 11:20 08.11.2020
5732 Clear 29 1019 20 10000 5.1 180 10:50 08.11.2020
5733 Clear 28 1020 21 10000 6.2 170 10:19 08.11.2020
5734 Clear 28 1020 21 10000 6.2 170 09:55 08.11.2020
5735 Clear 28 1020 21 10000 6.2 170 09:37 08.11.2020
5736 Clear 27 1020 19 10000 5.1 170 09:18 08.11.2020
5737 Clear 27 1020 19 10000 5.1 170 08:39 08.11.2020
5738 Clear 25 1020 23 10000 3.1 160 08:18 08.11.2020
5739 Clear 25 1020 23 10000 3.1 160 07:52 08.11.2020
5740 Clear 21 1020 35 10000 1.5 160 07:24 08.11.2020
5741 Clear 20 1019 37 10000 1 140 06:22 08.11.2020
5742 Clear 20 1019 37 10000 1 140 05:52 08.11.2020
5743 Clear 18 1019 39 10000 1 140 04:31 08.11.2020
5744 Clear 18 1017 39 10000 1.5 130 01:51 08.11.2020
5745 Clear 18 1017 42 10000 3.82 147 01:18 08.11.2020
5746 Clear 18 1017 42 10000 3.77 150 00:27 08.11.2020
5747 Clear 20 1017 37 10000 1 140 23:46 07.11.2020
5748 Clear 21 1017 35 10000 1.5 120 23:28 07.11.2020
5749 Clear 21 1017 35 10000 1.5 120 22:43 07.11.2020
5750 Clear 21 1017 35 10000 1.5 120 22:25 07.11.2020
5751 Clear 21 1017 35 10000 1.5 150 21:46 07.11.2020
5752 Clear 21 1017 35 10000 1.5 150 21:23 07.11.2020
5753 Clear 22 1017 33 10000 1.5 140 20:55 07.11.2020
5754 Clear 22 1017 33 10000 1.5 140 20:37 07.11.2020
5755 Clear 23 1017 31 10000 2.1 140 20:19 07.11.2020
5756 Clear 23 1017 31 10000 2.1 140 19:41 07.11.2020
5757 Clear 23 1017 31 10000 2.1 140 19:22 07.11.2020
5758 Clear 24 1017 29 10000 1 140 18:40 07.11.2020
5759 Clear 25 1017 29 10000 1.5 120 18:21 07.11.2020
5760 Clear 25 1017 29 10000 1.5 120 17:46 07.11.2020
5761 Clear 25 1017 29 10000 1.5 120 17:26 07.11.2020
5762 Clear 27 1016 21 10000 3.1 130 16:44 07.11.2020
5763 Clear 27 1016 21 10000 3.1 130 16:24 07.11.2020
5764 Clear 29 1016 20 10000 2.6 140 15:48 07.11.2020
5765 Clear 29 1016 20 10000 2.6 140 15:25 07.11.2020
5766 Clear 31 1016 18 10000 2.6 150 14:58 07.11.2020
5767 Clear 31 1016 18 10000 2.6 150 14:40 07.11.2020
5768 Clear 31 1016 19 10000 2.6 140 14:20 07.11.2020
5769 Clear 31 1016 19 10000 2.6 140 13:42 07.11.2020
5770 Clear 31 1016 19 10000 3.1 170 13:22 07.11.2020
5771 Clear 31 1016 19 10000 3.1 170 12:35 07.11.2020
5772 Clear 30 1017 19 10000 4.6 190 11:47 07.11.2020
5773 Clear 29 1017 20 10000 5.1 180 11:25 07.11.2020
5774 Clear 29 1017 20 10000 5.1 180 10:59 07.11.2020
5775 Clear 29 1017 20 10000 5.1 180 10:40 07.11.2020
5776 Clear 28 1018 20 10000 6.2 170 10:22 07.11.2020
5777 Clear 28 1018 20 10000 6.2 170 09:47 07.11.2020
5778 Clear 26 1019 24 10000 6.2 170 09:21 07.11.2020
5779 Clear 26 1019 24 10000 6.2 170 08:47 07.11.2020
5780 Clear 25 1020 22 10000 5.1 180 08:29 07.11.2020
5781 Clear 25 1020 22 10000 5.1 180 07:48 07.11.2020
5782 Clear 22 1019 26 10000 3.6 170 06:54 07.11.2020
5783 Clear 18 1018 36 10000 1.5 150 05:54 07.11.2020
5784 Clear 19 1017 34 10000 2.1 160 04:22 07.11.2020
5785 Clear 18 1017 36 10000 1 140 02:46 07.11.2020
5786 Clear 20 1017 28 10000 2.6 160 01:27 07.11.2020
5787 Clear 20 1017 28 10000 2.6 160 00:38 07.11.2020
5788 Clear 20 1017 32 10000 1.5 150 23:40 06.11.2020
5789 Clear 21 1017 28 10000 2.1 140 23:18 06.11.2020
5790 Clear 21 1017 28 10000 2.1 140 22:40 06.11.2020
5791 Clear 22 1017 24 10000 2.6 170 22:18 06.11.2020
5792 Clear 22 1017 24 10000 2.6 170 21:43 06.11.2020
5793 Clear 22 1017 30 10000 1.5 150 21:20 06.11.2020
5794 Clear 22 1017 30 10000 1.5 150 20:47 06.11.2020
5795 Clear 23 1017 28 10000 1.5 140 20:20 06.11.2020
5796 Clear 23 1017 28 10000 1.5 140 20:20 06.11.2020
5797 Clear 23 1017 28 10000 1.5 140 19:46 06.11.2020
5798 Clear 23 1017 28 10000 1.5 140 19:28 06.11.2020
5799 Clear 25 1016 25 10000 1.5 140 18:57 06.11.2020
5800 Clear 25 1016 25 10000 1.5 140 18:39 06.11.2020
5801 Clear 25 1016 20 10000 2.1 140 18:19 06.11.2020
5802 Clear 25 1016 20 10000 2.1 140 18:19 06.11.2020
5803 Clear 25 1016 20 10000 2.1 140 17:46 06.11.2020
5804 Clear 28 1015 23 10000 2.1 140 17:24 06.11.2020
5805 Clear 28 1015 23 10000 2.1 140 16:43 06.11.2020
5806 Clear 29 1015 20 10000 3.1 130 16:22 06.11.2020
5807 Clear 29 1015 20 10000 3.1 130 15:47 06.11.2020
5808 Clear 29 1015 20 10000 3.1 130 15:26 06.11.2020
5809 Clear 31 1014 16 10000 2.6 170 14:50 06.11.2020
5810 Clear 31 1014 16 10000 2.6 170 14:23 06.11.2020
5811 Clear 31 1014 20 10000 2.1 210 13:44 06.11.2020
5812 Clear 31 1014 16 10000 2.6 150 13:21 06.11.2020
5813 Clear 31 1014 16 10000 2.6 150 12:44 06.11.2020
5814 Clear 31 1014 16 10000 2.6 150 12:23 06.11.2020
5815 Clear 30 1015 15 10000 4.1 210 11:40 06.11.2020
5816 Clear 30 1016 15 10000 4.6 180 11:21 06.11.2020
5817 Clear 30 1016 15 10000 4.6 180 10:38 06.11.2020
5818 Clear 29 1016 16 10000 4.1 170 10:19 06.11.2020
5819 Clear 29 1016 16 10000 4.1 170 09:46 06.11.2020
5820 Clear 27 1017 14 10000 5.1 170 09:21 06.11.2020
5821 Clear 27 1017 14 10000 5.1 170 08:49 06.11.2020
5822 Clear 27 1017 15 10000 5.1 170 08:28 06.11.2020
5823 Clear 25 1017 25 10000 1.5 160 07:48 06.11.2020
5824 Clear 25 1017 25 10000 1.5 160 07:29 06.11.2020
5825 Clear 19 1017 34 10000 1.5 160 06:51 06.11.2020
5826 Clear 17 1016 42 10000 4.45 169 05:42 06.11.2020
5827 Clear 16 1015 36 10000 1 130 03:18 06.11.2020
5828 Clear 16 1014 41 10000 3.62 160 00:46 06.11.2020
5829 Clear 17 1015 39 10000 1 160 00:18 06.11.2020
5830 Clear 17 1015 39 10000 1 160 23:26 05.11.2020
5831 Clear 18 1015 36 10000 3.62 150 22:51 05.11.2020
5832 Clear 18 1015 36 10000 3.62 150 22:51 05.11.2020
5833 Clear 19 1015 34 10000 1 190 22:26 05.11.2020
5834 Clear 19 1015 34 10000 1 190 21:59 05.11.2020
5835 Clear 19 1015 34 10000 1 190 21:41 05.11.2020
5836 Clear 21 1015 32 10000 3.65 141 21:21 05.11.2020
5837 Clear 21 1015 32 10000 3.65 141 21:21 05.11.2020
5838 Clear 21 1015 32 10000 3.65 141 20:44 05.11.2020
5839 Clear 21 1015 32 10000 3.18 144 20:26 05.11.2020
5840 Clear 22 1015 26 10000 1 150 19:58 05.11.2020
5841 Clear 22 1015 26 10000 1 150 19:40 05.11.2020
5842 Clear 22 1015 33 10000 2.96 143 19:20 05.11.2020
5843 Clear 22 1015 33 10000 3.05 145 18:42 05.11.2020
5844 Clear 23 1014 31 10000 2.91 141 18:23 05.11.2020
5845 Clear 23 1014 31 10000 2.91 141 17:51 05.11.2020
5846 Clear 23 1014 31 10000 2.16 123 17:27 05.11.2020
5847 Clear 24 1014 31 10000 2.16 123 16:50 05.11.2020
5848 Clear 24 1014 31 10000 0.46 53 16:29 05.11.2020
5849 Clear 29 1014 26 10000 0.46 53 15:57 05.11.2020
5850 Clear 29 1014 26 10000 0.46 53 15:39 05.11.2020
5851 Clear 31 1013 20 10000 1.5 330 15:20 05.11.2020
5852 Clear 31 1013 20 10000 1.5 330 14:44 05.11.2020
5853 Clear 31 1013 15 10000 2.1 290 14:24 05.11.2020
5854 Clear 31 1013 15 10000 2.1 290 13:41 05.11.2020
5855 Clear 31 1013 15 10000 2.1 290 13:23 05.11.2020
5856 Clear 32 1014 15 10000 2.6 320 12:45 05.11.2020
5857 Clear 30 1014 20 10000 1.5 260 12:23 05.11.2020
5858 Clear 30 1014 20 10000 1.5 260 11:46 05.11.2020
5859 Clear 30 1015 16 10000 2.1 260 11:25 05.11.2020
5860 Clear 30 1015 16 10000 2.1 260 10:52 05.11.2020
5861 Clear 30 1015 16 10000 2.1 260 10:30 05.11.2020
5862 Clear 29 1016 13 10000 3.1 250 09:55 05.11.2020
5863 Clear 29 1016 13 10000 3.1 250 09:37 05.11.2020
5864 Clear 27 1017 18 10000 2.1 240 09:18 05.11.2020
5865 Clear 27 1017 18 10000 2.1 240 08:43 05.11.2020
5866 Clear 25 1017 29 10000 2.93 222 08:23 05.11.2020
5867 Clear 25 1017 29 10000 2.29 215 07:29 05.11.2020
5868 Clear 20 1017 37 10000 2.55 227 06:51 05.11.2020
5869 Clear 20 1017 37 10000 2.55 227 06:33 05.11.2020
5870 Clear 16 1015 41 10000 1.16 163 03:46 05.11.2020
5871 Clear 17 1016 39 10000 2.02 161 00:45 05.11.2020
5872 Clear 17 1016 39 10000 2.01 181 00:25 05.11.2020
5873 Clear 17 1016 39 10000 2.01 181 23:43 04.11.2020
5874 Clear 17 1016 39 10000 2.1 196 23:24 04.11.2020
5875 Clear 21 1016 32 10000 1.5 170 22:44 04.11.2020
5876 Clear 21 1016 32 10000 1.5 170 22:23 04.11.2020
5877 Clear 20 1017 37 10000 2.45 200 21:47 04.11.2020
5878 Clear 20 1017 37 10000 2.45 203 21:28 04.11.2020
5879 Clear 22 1017 33 10000 1 130 20:56 04.11.2020
5880 Clear 22 1017 33 10000 1 130 20:36 04.11.2020
5881 Clear 23 1017 28 10000 1.5 170 20:18 04.11.2020
5882 Clear 23 1017 28 10000 1.5 170 19:41 04.11.2020
5883 Clear 23 1017 28 10000 1.5 170 19:23 04.11.2020
5884 Clear 24 1017 27 10000 1.5 160 18:43 04.11.2020
5885 Clear 24 1017 31 10000 1 30 18:24 04.11.2020
5886 Clear 24 1017 31 10000 1 30 17:48 04.11.2020
5887 Clear 24 1017 31 10000 1 30 17:28 04.11.2020
5888 Clear 24 1016 29 10000 1 50 16:57 04.11.2020
5889 Clear 24 1016 29 10000 1 50 16:37 04.11.2020
5890 Clear 28 1016 28 10000 3.58 129 16:18 04.11.2020
5891 Clear 28 1016 28 10000 3.58 129 15:42 04.11.2020
5892 Clear 32 1016 19 10000 1.5 340 15:23 04.11.2020
5893 Clear 32 1016 19 10000 1.5 340 14:46 04.11.2020
5894 Clear 31 1016 22 10000 1.5 40 14:25 04.11.2020
5895 Clear 31 1016 22 10000 1.5 40 13:52 04.11.2020
5896 Clear 31 1016 22 10000 1.5 40 13:22 04.11.2020
5897 Clear 31 1017 20 10000 2.1 280 12:59 04.11.2020
5898 Clear 31 1017 20 10000 2.1 280 12:59 04.11.2020
5899 Clear 31 1017 20 10000 2.1 280 12:41 04.11.2020
5900 Clear 30 1017 22 10000 1.5 250 12:22 04.11.2020
5901 Clear 30 1017 22 10000 1.5 250 11:46 04.11.2020
5902 Clear 30 1018 22 10000 1.5 270 11:23 04.11.2020
5903 Clear 30 1018 22 10000 1.5 270 10:49 04.11.2020
5904 Clear 29 1019 23 10000 2.1 310 10:24 04.11.2020
5905 Clear 30 1018 22 10000 1.5 270 10:24 04.11.2020
5906 Clear 29 1019 23 10000 2.1 310 09:56 04.11.2020
5907 Clear 29 1019 23 10000 2.1 310 09:28 04.11.2020
5908 Clear 28 1020 24 10000 1.5 240 08:50 04.11.2020
5909 Clear 28 1020 24 10000 1.5 240 08:24 04.11.2020
5910 Clear 26 1020 27 10000 1 220 07:58 04.11.2020
5911 Clear 26 1020 27 10000 1 220 07:37 04.11.2020
5912 Clear 20 1020 37 10000 2.18 224 07:18 04.11.2020
5913 Clear 20 1020 37 10000 2.18 224 06:39 04.11.2020
5914 Clear 15 1019 41 10000 1.81 227 04:59 04.11.2020
5915 Clear 16 1019 38 10000 1.93 204 02:31 04.11.2020
5916 Clear 17 1019 36 10000 2.08 186 01:38 04.11.2020
5917 Clear 18 1019 39 10000 2.14 179 00:25 04.11.2020
5918 Clear 18 1019 39 10000 2.25 183 23:28 03.11.2020
5919 Clear 19 1020 37 10000 2.25 183 22:57 03.11.2020
5920 Clear 19 1020 37 10000 2.25 183 22:38 03.11.2020
5921 Clear 19 1020 39 10000 2.27 176 22:19 03.11.2020
5922 Clear 19 1020 39 10000 2.27 176 21:42 03.11.2020
5923 Clear 19 1020 39 10000 2.89 169 21:24 03.11.2020
5924 Clear 22 1020 30 10000 1 170 20:49 03.11.2020
5925 Clear 22 1020 30 10000 1 170 20:27 03.11.2020
5926 Clear 22 1020 30 10000 2.83 151 19:55 03.11.2020
5927 Clear 22 1020 30 10000 2.83 151 19:37 03.11.2020
5928 Clear 24 1020 27 10000 1.5 130 19:19 03.11.2020
5929 Clear 24 1020 27 10000 1.5 130 18:41 03.11.2020
5930 Clear 25 1020 27 10000 2.1 110 18:19 03.11.2020
5931 Clear 25 1020 27 10000 2.1 110 17:46 03.11.2020
5932 Clear 25 1020 27 10000 2.1 110 17:27 03.11.2020
5933 Clear 27 1019 26 10000 3.96 113 16:51 03.11.2020
5934 Clear 27 1019 26 10000 4.18 112 16:31 03.11.2020
5935 Clear 29 1019 25 10000 1.5 90 15:55 03.11.2020
5936 Clear 29 1019 25 10000 1.5 90 15:37 03.11.2020
5937 Clear 31 1019 22 10000 2.6 30 15:18 03.11.2020
5938 Clear 31 1019 22 10000 2.6 30 14:41 03.11.2020
5939 Clear 31 1019 22 10000 2.6 30 14:23 03.11.2020
5940 Clear 31 1019 22 10000 1.5 280 13:41 03.11.2020
5941 Clear 31 1019 22 10000 1 50 13:21 03.11.2020
5942 Clear 31 1019 22 10000 1 50 12:45 03.11.2020
5943 Clear 31 1020 23 10000 2.6 220 12:24 03.11.2020
5944 Clear 31 1020 23 10000 2.6 220 11:47 03.11.2020
5945 Clear 30 1021 19 10000 2.1 250 11:25 03.11.2020
5946 Clear 30 1021 19 10000 2.1 250 10:56 03.11.2020
5947 Clear 30 1021 19 10000 2.1 250 10:37 03.11.2020
5948 Clear 29 1021 18 10000 3.6 220 10:18 03.11.2020
5949 Clear 29 1021 18 10000 3.6 220 09:45 03.11.2020
5950 Clear 29 1022 21 10000 2.6 180 09:22 03.11.2020
5951 Clear 29 1022 21 10000 2.6 180 08:49 03.11.2020
5952 Clear 29 1022 21 10000 2.6 180 08:29 03.11.2020
5953 Clear 26 1022 34 9000 4.86 178 07:41 03.11.2020
5954 Clear 21 1022 40 10000 4.78 185 07:19 03.11.2020
5955 Clear 17 1021 45 10000 3.2 191 06:21 03.11.2020
5956 Clear 15 1021 47 10000 2.34 184 04:34 03.11.2020
5957 Clear 18 1021 39 10000 2.7 172 00:45 03.11.2020
5958 Clear 19 1021 37 10000 2.92 163 00:20 03.11.2020
5959 Clear 19 1021 37 10000 2.92 163 23:43 02.11.2020
5960 Clear 20 1021 34 10000 1.5 150 23:20 02.11.2020
5961 Clear 20 1021 34 10000 1.5 150 22:43 02.11.2020
5962 Clear 20 1021 34 10000 1.5 150 22:23 02.11.2020
5963 Clear 21 1021 32 10000 1.5 150 21:39 02.11.2020
5964 Clear 22 1021 30 10000 1.5 140 21:20 02.11.2020
5965 Clear 22 1021 30 10000 1.5 140 20:55 02.11.2020
5966 Clear 22 1021 30 10000 1.5 140 20:36 02.11.2020
5967 Clear 23 1021 31 10000 1.5 140 20:18 02.11.2020
5968 Clear 23 1021 31 10000 1.5 140 20:18 02.11.2020
5969 Clear 23 1021 31 10000 1.5 140 19:42 02.11.2020
5970 Clear 23 1021 31 10000 1.5 140 19:22 02.11.2020
5971 Clear 24 1021 29 10000 3.14 137 18:42 02.11.2020
5972 Clear 26 1021 27 10000 1.5 110 18:21 02.11.2020
5973 Clear 26 1021 27 10000 1.5 110 17:56 02.11.2020
5974 Clear 26 1021 27 10000 1.5 110 17:38 02.11.2020
5975 Clear 27 1020 26 10000 2.1 100 17:19 02.11.2020
5976 Clear 27 1020 26 10000 2.1 100 16:40 02.11.2020
5977 Clear 27 1020 26 10000 2.1 100 16:40 02.11.2020
5978 Clear 29 1020 25 10000 3.65 118 16:22 02.11.2020
5979 Clear 29 1020 25 10000 3.65 118 15:40 02.11.2020
5980 Clear 31 1020 22 10000 1.5 140 15:21 02.11.2020
5981 Clear 31 1020 22 10000 1.5 140 14:53 02.11.2020
5982 Clear 31 1020 22 10000 1.5 140 14:53 02.11.2020
5983 Clear 31 1020 22 10000 2.1 150 14:20 02.11.2020
5984 Clear 31 1020 22 10000 2.1 150 13:54 02.11.2020
5985 Clear 31 1020 18 10000 2.1 170 13:23 02.11.2020
5986 Clear 31 1020 22 10000 2.1 150 13:23 02.11.2020
5987 Clear 31 1020 18 10000 2.1 170 12:59 02.11.2020
5988 Clear 31 1020 18 10000 2.1 170 12:31 02.11.2020
5989 Clear 30 1020 19 10000 2.1 210 11:58 02.11.2020
5990 Clear 30 1020 19 10000 2.1 210 11:38 02.11.2020
5991 Clear 30 1021 19 10000 3.6 170 11:19 02.11.2020
5992 Clear 30 1021 19 10000 3.6 170 10:42 02.11.2020
5993 Clear 29 1022 18 10000 4.1 190 10:21 02.11.2020
5994 Clear 29 1022 18 10000 4.1 190 09:49 02.11.2020
5995 Clear 29 1022 18 10000 4.1 190 09:24 02.11.2020
5996 Clear 28 1022 23 10000 2.1 160 08:45 02.11.2020
5997 Clear 28 1022 23 10000 2.1 160 08:24 02.11.2020
5998 Clear 24 1022 38 10000 4.94 161 07:50 02.11.2020
5999 Clear 20 1022 42 10000 4.19 163 06:59 02.11.2020
6000 Clear 20 1022 42 10000 4.43 163 06:36 02.11.2020
6001 Clear 15 1020 47 10000 1.94 170 03:35 02.11.2020
6002 Clear 16 1020 48 10000 2.61 170 01:25 02.11.2020
6003 Clear 17 1020 45 10000 2.78 170 00:35 02.11.2020
6004 Clear 17 1020 48 10000 3.05 162 23:42 01.11.2020
6005 Clear 17 1020 48 10000 3.01 158 23:24 01.11.2020
6006 Clear 19 1021 42 10000 3.01 158 22:46 01.11.2020
6007 Clear 19 1021 42 10000 3.01 151 22:26 01.11.2020
6008 Clear 21 1021 35 10000 3.01 151 21:59 01.11.2020
6009 Clear 21 1021 35 10000 3.01 151 21:59 01.11.2020
6010 Clear 21 1021 35 10000 3.01 151 21:38 01.11.2020
6011 Clear 21 1021 35 10000 1.5 140 21:20 01.11.2020
6012 Clear 21 1021 35 10000 1.5 140 20:42 01.11.2020
6013 Clear 22 1021 33 10000 2.92 135 20:23 01.11.2020
6014 Clear 22 1021 33 10000 2.92 135 19:43 01.11.2020
6015 Clear 22 1021 33 10000 3.25 121 19:24 01.11.2020
6016 Clear 24 1020 29 10000 2.1 130 18:44 01.11.2020
6017 Clear 25 1020 29 10000 1.5 120 18:20 01.11.2020
6018 Clear 25 1020 29 10000 1.5 120 17:59 01.11.2020
6019 Clear 25 1020 29 10000 1.5 120 17:41 01.11.2020
6020 Clear 27 1020 22 10000 2.1 120 17:21 01.11.2020
6021 Clear 27 1020 22 10000 2.1 120 16:41 01.11.2020
6022 Clear 28 1019 26 10000 1.5 120 16:19 01.11.2020
6023 Clear 28 1019 26 10000 1.5 120 15:54 01.11.2020
6024 Clear 28 1019 26 10000 1.5 120 15:36 01.11.2020
6025 Clear 29 1019 23 10000 2.1 80 15:18 01.11.2020
6026 Clear 29 1019 23 10000 2.1 80 14:43 01.11.2020
6027 Clear 30 1019 19 10000 2.6 90 14:21 01.11.2020
6028 Clear 30 1019 19 10000 2.6 90 13:49 01.11.2020
6029 Clear 30 1019 19 10000 2.6 90 13:31 01.11.2020
6030 Clear 30 1019 19 10000 2.6 180 12:44 01.11.2020
6031 Clear 30 1020 19 10000 2.6 150 12:24 01.11.2020
6032 Clear 30 1020 19 10000 2.6 150 11:53 01.11.2020
6033 Clear 29 1020 18 10000 4.1 180 11:19 01.11.2020
6034 Clear 29 1020 18 10000 4.1 180 10:59 01.11.2020
6035 Clear 29 1020 18 10000 4.1 180 10:40 01.11.2020
6036 Clear 29 1021 18 10000 4.1 160 10:21 01.11.2020
6037 Clear 29 1021 18 10000 4.1 160 09:46 01.11.2020
6038 Clear 28 1022 21 10000 3.1 160 08:49 01.11.2020
6039 Clear 28 1022 21 10000 3.1 160 08:24 01.11.2020
6040 Clear 25 1022 33 10000 2.1 140 07:43 01.11.2020
6041 Clear 15 1020 51 10000 2.4 139 05:23 01.11.2020
6042 Clear 17 1019 48 10000 2.32 151 01:52 01.11.2020
6043 Clear 18 1019 45 10000 2.58 158 00:53 01.11.2020
6044 Clear 20 1019 37 10000 1.5 150 23:29 31.10.2020
6045 Clear 21 1019 37 10000 1.5 160 22:59 31.10.2020
6046 Clear 21 1019 37 10000 1.5 160 22:41 31.10.2020
6047 Clear 20 1019 42 10000 1 150 22:22 31.10.2020
6048 Clear 20 1019 42 10000 1 150 21:44 31.10.2020
6049 Clear 21 1019 40 10000 1 140 21:20 31.10.2020
6050 Clear 21 1019 40 10000 1 140 20:39 31.10.2020
6051 Clear 22 1019 40 10000 1 130 20:18 31.10.2020
6052 Clear 22 1019 40 10000 1 130 19:41 31.10.2020
6053 Clear 22 1019 40 10000 1 130 19:23 31.10.2020
6054 Clear 24 1019 33 10000 2.1 120 18:48 31.10.2020
6055 Clear 24 1019 33 10000 2.1 120 18:30 31.10.2020
6056 Clear 25 1019 31 10000 1.5 130 17:41 31.10.2020
6057 Clear 26 1018 24 10000 2.1 140 17:23 31.10.2020
6058 Clear 26 1018 24 10000 2.1 140 16:48 31.10.2020
6059 Clear 28 1018 21 10000 3.1 140 16:29 31.10.2020
6060 Clear 28 1018 21 10000 3.1 140 15:54 31.10.2020
6061 Clear 28 1018 21 10000 3.1 140 15:25 31.10.2020
6062 Clear 30 1018 17 10000 3.6 160 14:53 31.10.2020
6063 Clear 30 1018 17 10000 3.6 160 14:31 31.10.2020
6064 Clear 30 1018 20 10000 2.6 150 13:52 31.10.2020
6065 Clear 30 1018 20 10000 2.6 150 13:28 31.10.2020
6066 Clear 30 1018 17 10000 4.1 160 12:55 31.10.2020
6067 Clear 30 1018 17 10000 3.6 160 12:22 31.10.2020
6068 Clear 30 1018 17 10000 3.6 160 11:41 31.10.2020
6069 Clear 29 1019 21 10000 3.6 160 11:22 31.10.2020
6070 Clear 29 1019 21 10000 3.6 160 10:41 31.10.2020
6071 Clear 28 1020 23 10000 4.1 170 09:57 31.10.2020
6072 Clear 28 1020 23 10000 4.1 170 09:37 31.10.2020
6073 Clear 27 1021 28 10000 2.1 150 09:19 31.10.2020
6074 Clear 27 1021 28 10000 2.1 150 08:26 31.10.2020
6075 Clear 24 1021 38 10000 2.94 152 07:30 31.10.2020
6076 Clear 20 1021 45 10000 2.94 152 06:57 31.10.2020
6077 Clear 20 1021 45 10000 2.7 156 06:36 31.10.2020
6078 Clear 15 1020 54 10000 1.04 144 03:48 31.10.2020
6079 Clear 16 1019 51 10000 1.17 145 02:39 31.10.2020
6080 Clear 18 1019 52 10000 1.56 159 00:52 31.10.2020
6081 Clear 18 1019 48 10000 1.69 160 23:54 30.10.2020
6082 Clear 18 1019 48 10000 1.69 160 23:30 30.10.2020
6083 Clear 18 1019 48 10000 1.69 160 23:30 30.10.2020
6084 Clear 18 1020 48 10000 1.88 145 22:59 30.10.2020
6085 Clear 18 1020 48 10000 1.88 145 22:38 30.10.2020
6086 Clear 21 1020 40 10000 1 130 22:19 30.10.2020
6087 Clear 21 1020 40 10000 1 130 22:19 30.10.2020
6088 Clear 21 1020 40 10000 1 130 21:47 30.10.2020
6089 Clear 23 1020 31 10000 2.6 140 21:26 30.10.2020
6090 Clear 23 1020 31 10000 2.6 140 20:45 30.10.2020
6091 Clear 23 1020 31 10000 2.6 140 20:26 30.10.2020
6092 Clear 23 1020 33 10000 1.5 150 19:56 30.10.2020
6093 Clear 23 1020 33 10000 1.5 150 19:22 30.10.2020
6094 Clear 24 1020 29 10000 1.5 140 18:59 30.10.2020
6095 Clear 24 1020 29 10000 1.5 140 18:59 30.10.2020
6096 Clear 24 1020 29 10000 1.5 140 18:41 30.10.2020
6097 Clear 24 1020 29 10000 1.5 140 18:22 30.10.2020
6098 Clear 24 1019 29 10000 1.5 80 17:43 30.10.2020
6099 Clear 26 1019 29 10000 2.43 136 17:20 30.10.2020
6100 Clear 26 1019 29 10000 2.43 136 16:50 30.10.2020
6101 Clear 26 1019 29 10000 2.56 134 16:24 30.10.2020
6102 Clear 28 1018 18 10000 2.6 90 15:41 30.10.2020
6103 Clear 29 1018 16 10000 3.1 100 15:21 30.10.2020
6104 Clear 29 1018 16 10000 3.1 100 14:55 30.10.2020
6105 Clear 29 1018 16 10000 3.1 100 14:36 30.10.2020
6106 Clear 31 1018 19 10000 1.5 40 14:18 30.10.2020
6107 Clear 31 1018 19 10000 1.5 40 13:41 30.10.2020
6108 Clear 30 1018 17 10000 2.1 130 13:19 30.10.2020
6109 Clear 30 1018 17 10000 2.1 130 12:43 30.10.2020
6110 Clear 29 1019 23 10000 1.5 70 12:22 30.10.2020
6111 Clear 29 1019 23 10000 1.5 70 11:46 30.10.2020
6112 Clear 29 1020 23 10000 1 50 11:20 30.10.2020
6113 Clear 29 1020 23 10000 1 50 10:50 30.10.2020
6114 Clear 29 1020 23 10000 1 50 10:25 30.10.2020
6115 Clear 28 1021 26 10000 1.5 130 09:46 30.10.2020
6116 Clear 27 1021 24 10000 1 140 09:24 30.10.2020
6117 Clear 27 1021 24 10000 1 140 08:55 30.10.2020
6118 Clear 27 1021 24 10000 1 140 08:31 30.10.2020
6119 Clear 26 1021 26 10000 1 340 07:51 30.10.2020
6120 Clear 26 1021 26 10000 1 340 07:51 30.10.2020
6121 Clear 26 1021 26 10000 1 340 07:33 30.10.2020
6122 Clear 18 1021 31 10000 1.5 310 06:47 30.10.2020
6123 Clear 15 1021 28 10000 1.5 300 05:31 30.10.2020
6124 Clear 15 1019 33 10000 1.5 320 02:30 30.10.2020
6125 Clear 17 1019 36 10000 0.53 227 00:46 30.10.2020
6126 Clear 18 1019 34 10000 0.6 220 23:54 29.10.2020
6127 Clear 18 1019 34 10000 0.6 220 23:36 29.10.2020
6128 Clear 18 1020 34 10000 0.71 179 23:18 29.10.2020
6129 Clear 18 1020 34 10000 0.71 179 22:42 29.10.2020
6130 Clear 19 1020 34 10000 1.19 129 22:23 29.10.2020
6131 Clear 19 1020 34 10000 1.19 129 21:40 29.10.2020
6132 Clear 20 1020 32 10000 2.13 108 21:20 29.10.2020
6133 Clear 20 1020 32 10000 2.13 108 20:42 29.10.2020
6134 Clear 22 1020 26 10000 1.5 80 20:20 29.10.2020
6135 Clear 22 1020 26 10000 1.5 80 19:43 29.10.2020
6136 Clear 22 1020 26 10000 1.5 80 19:22 29.10.2020
6137 Clear 24 1020 23 10000 2.1 90 18:56 29.10.2020
6138 Clear 24 1020 23 10000 2.1 90 18:36 29.10.2020
6139 Clear 25 1019 23 10000 1.5 120 18:18 29.10.2020
6140 Clear 25 1019 23 10000 1.5 120 17:41 29.10.2020
6141 Clear 27 1018 18 10000 2.1 50 17:20 29.10.2020
6142 Clear 27 1018 18 10000 2.1 50 16:46 29.10.2020
6143 Clear 29 1018 16 10000 2.1 60 16:20 29.10.2020
6144 Clear 29 1018 16 10000 2.1 60 15:56 29.10.2020
6145 Clear 29 1018 16 10000 2.1 60 15:38 29.10.2020
6146 Clear 30 1018 15 10000 2.6 30 15:19 29.10.2020
6147 Clear 30 1018 15 10000 2.6 30 14:45 29.10.2020
6148 Clear 30 1018 13 10000 3.1 90 14:23 29.10.2020
6149 Clear 30 1018 13 10000 3.1 90 14:23 29.10.2020
6150 Clear 30 1018 13 10000 3.1 90 14:23 29.10.2020
6151 Clear 30 1018 13 10000 3.1 90 13:47 29.10.2020
6152 Clear 30 1018 12 10000 3.1 90 13:28 29.10.2020
6153 Clear 31 1018 19 10000 2.1 30 12:44 29.10.2020
6154 Clear 30 1018 12 10000 3.1 90 12:20 29.10.2020
6155 Clear 30 1018 12 10000 3.1 90 11:58 29.10.2020
6156 Clear 30 1018 12 10000 3.1 90 11:40 29.10.2020
6157 Clear 29 1019 13 10000 3.6 80 11:21 29.10.2020
6158 Clear 29 1019 13 10000 3.6 80 10:37 29.10.2020
6159 Clear 29 1019 13 10000 3.6 80 10:37 29.10.2020
6160 Clear 29 1020 21 10000 1.5 140 10:19 29.10.2020
6161 Clear 29 1020 21 10000 1.5 140 09:50 29.10.2020
6162 Clear 29 1020 21 10000 1.5 140 09:27 29.10.2020
6163 Clear 29 1020 23 10000 2.49 90 08:48 29.10.2020
6164 Clear 29 1020 23 10000 1.33 135 08:26 29.10.2020
6165 Clear 24 1021 29 10000 1.33 135 07:52 29.10.2020
6166 Clear 24 1021 29 10000 1.05 181 07:23 29.10.2020
6167 Clear 18 1020 34 10000 1.05 181 06:53 29.10.2020
6168 Clear 15 1020 25 10000 0.74 193 04:50 29.10.2020
6169 Clear 15 1017 31 10000 0.88 131 02:32 29.10.2020
6170 Clear 15 1017 29 10000 1.23 162 00:45 29.10.2020
6171 Clear 16 1017 28 10000 1.47 157 00:23 29.10.2020
6172 Clear 16 1017 28 10000 1.47 157 23:43 28.10.2020
6173 Clear 17 1017 27 10000 1.66 142 23:20 28.10.2020
6174 Clear 19 1020 29 10000 1.66 142 22:44 28.10.2020
6175 Clear 19 1020 29 10000 2.02 119 22:26 28.10.2020
6176 Clear 19 1020 29 10000 2.02 119 21:46 28.10.2020
6177 Clear 19 1020 29 10000 1.78 111 21:26 28.10.2020
6178 Clear 21 1020 30 10000 1.78 111 20:59 28.10.2020
6179 Clear 21 1020 30 10000 1.78 111 20:40 28.10.2020
6180 Clear 24 1020 23 10000 2.1 80 20:18 28.10.2020
6181 Clear 24 1020 23 10000 2.1 80 19:45 28.10.2020
6182 Clear 24 1019 23 10000 2.1 70 19:26 28.10.2020
6183 Clear 24 1019 23 10000 2.1 70 18:43 28.10.2020
6184 Clear 24 1019 22 10000 1.5 40 18:20 28.10.2020
6185 Clear 24 1019 22 10000 1.5 40 17:44 28.10.2020
6186 Clear 24 1019 22 10000 1.5 40 17:24 28.10.2020
6187 Clear 27 1018 21 10000 2.1 100 16:49 28.10.2020
6188 Clear 29 1018 17 10000 2.1 90 16:30 28.10.2020
6189 Clear 29 1018 17 10000 2.1 90 15:46 28.10.2020
6190 Clear 27 1015 15 10000 4.04 64 15:20 28.10.2020
6191 Clear 27 1015 15 10000 4.04 64 14:58 28.10.2020
6192 Clear 30 1017 15 10000 3.1 90 14:38 28.10.2020
6193 Clear 30 1014 12 10000 4.4 56 14:19 28.10.2020
6194 Clear 31 1014 12 10000 3.43 57 12:39 28.10.2020
6195 Clear 30 1014 12 10000 2.8 60 12:21 28.10.2020
6196 Clear 30 1014 12 10000 2.8 60 11:44 28.10.2020
6197 Clear 30 1015 13 10000 2.58 65 11:23 28.10.2020
6198 Clear 30 1015 13 10000 2.58 65 10:59 28.10.2020
6199 Clear 30 1015 13 10000 2.58 65 10:40 28.10.2020
6200 Clear 30 1020 23 10000 2.54 75 10:22 28.10.2020
6201 Clear 30 1020 23 10000 2.54 75 09:39 28.10.2020
6202 Clear 30 1020 23 10000 2.2 95 09:21 28.10.2020
6203 Clear 27 1020 22 10000 1 250 08:48 28.10.2020
6204 Clear 27 1020 22 10000 1 250 08:27 28.10.2020
6205 Clear 25 1021 25 10000 1 10 07:48 28.10.2020
6206 Clear 25 1021 25 10000 1 10 07:30 28.10.2020
6207 Clear 20 1020 37 10000 1.74 155 06:41 28.10.2020
6208 Clear 17 1020 36 10000 1.22 157 05:51 28.10.2020
6209 Clear 15 1019 41 10000 0.68 151 04:54 28.10.2020
6210 Clear 15 1019 41 10000 0.55 130 04:25 28.10.2020
6211 Clear 17 1018 39 10000 0.89 122 02:26 28.10.2020
6212 Clear 17 1018 36 10000 0.89 122 01:49 28.10.2020
6213 Clear 19 1018 37 10000 1.61 103 23:57 27.10.2020
6214 Clear 19 1018 37 10000 1.61 103 23:38 27.10.2020
6215 Clear 19 1018 37 10000 1.61 103 23:38 27.10.2020
6216 Clear 19 1019 37 10000 1.69 90 23:20 27.10.2020
6217 Clear 21 1019 35 10000 1.69 90 22:42 27.10.2020
6218 Clear 21 1019 35 10000 1.73 87 22:19 27.10.2020
6219 Clear 21 1019 35 10000 1.73 87 21:55 27.10.2020
6220 Clear 21 1019 35 10000 1.73 87 21:37 27.10.2020
6221 Clear 21 1019 35 10000 1.73 87 21:37 27.10.2020
6222 Clear 21 1019 35 10000 1.73 87 21:37 27.10.2020
6223 Clear 22 1019 35 10000 2.35 90 21:18 27.10.2020
6224 Clear 22 1019 35 10000 2.35 90 20:43 27.10.2020
6225 Clear 22 1019 35 10000 2.88 85 20:22 27.10.2020
6226 Clear 21 1019 37 10000 1 60 19:39 27.10.2020
6227 Clear 22 1019 37 10000 2.63 90 19:21 27.10.2020
6228 Clear 22 1019 37 10000 2.63 90 18:58 27.10.2020
6229 Clear 22 1019 37 10000 2.55 83 18:40 27.10.2020
6230 Clear 24 1018 33 10000 3.16 85 18:20 27.10.2020
6231 Clear 24 1018 33 10000 3.16 85 17:43 27.10.2020
6232 Clear 26 1018 29 10000 3.17 82 17:21 27.10.2020
6233 Clear 26 1018 29 10000 3.17 82 17:21 27.10.2020
6234 Clear 26 1018 29 10000 3.17 82 16:54 27.10.2020
6235 Clear 26 1018 29 10000 3.17 82 16:36 27.10.2020
6236 Clear 30 1017 25 10000 1.74 65 16:18 27.10.2020
6237 Clear 30 1017 25 10000 1.74 65 15:40 27.10.2020
6238 Clear 31 1017 20 10000 1.5 10 15:20 27.10.2020
6239 Clear 31 1017 20 10000 1.5 10 14:48 27.10.2020
6240 Clear 31 1017 20 10000 1.5 10 14:28 27.10.2020
6241 Clear 30 1017 17 10000 2.6 60 13:52 27.10.2020
6242 Clear 30 1017 17 10000 2.6 60 13:22 27.10.2020
6243 Clear 32 1017 19 10000 1.5 160 12:42 27.10.2020
6244 Clear 31 1017 22 10000 2.1 350 12:23 27.10.2020
6245 Clear 31 1017 22 10000 2.1 350 11:43 27.10.2020
6246 Clear 31 1018 25 10000 1.5 40 11:24 27.10.2020
6247 Clear 31 1018 25 10000 1.5 40 10:47 27.10.2020
6248 Clear 31 1018 25 10000 1.5 40 10:29 27.10.2020
6249 Clear 29 1019 25 10000 2.6 150 09:47 27.10.2020
6250 Clear 29 1019 25 10000 2.6 150 09:26 27.10.2020
6251 Clear 28 1020 26 10000 1.5 180 08:41 27.10.2020
6252 Clear 25 1020 31 9000 2.57 183 08:22 27.10.2020
6253 Clear 25 1020 31 9000 2.57 183 07:46 27.10.2020
6254 Clear 25 1020 31 9000 2.46 183 07:28 27.10.2020
6255 Clear 20 1020 37 10000 2.69 177 06:38 27.10.2020
6256 Clear 17 1019 42 10000 2.38 176 06:19 27.10.2020
6257 Clear 17 1019 42 10000 2.38 176 05:41 27.10.2020
6258 Clear 16 1019 38 10000 2.23 174 04:51 27.10.2020
6259 Clear 16 1018 38 10000 1 290 02:35 27.10.2020
6260 Clear 17 1017 39 10000 2.51 115 00:58 27.10.2020
6261 Clear 18 1018 39 10000 1.37 126 23:47 26.10.2020
6262 Clear 18 1018 39 10000 1.63 152 23:29 26.10.2020
6263 Clear 19 1018 37 10000 1.63 152 22:51 26.10.2020
6264 Clear 19 1018 37 10000 2.56 139 22:27 26.10.2020
6265 Clear 19 1018 37 10000 2.56 139 21:50 26.10.2020
6266 Clear 22 1018 30 10000 1.79 143 21:21 26.10.2020
6267 Clear 22 1018 30 10000 1.79 143 20:58 26.10.2020
6268 Clear 22 1018 30 10000 1.79 143 20:40 26.10.2020
6269 Clear 23 1018 28 10000 1.51 139 20:21 26.10.2020
6270 Clear 23 1018 28 10000 1.51 139 19:47 26.10.2020
6271 Clear 23 1018 28 10000 2.35 122 19:25 26.10.2020
6272 Clear 24 1018 27 10000 1.5 110 18:46 26.10.2020
6273 Clear 24 1018 27 10000 1.5 110 18:25 26.10.2020
6274 Clear 24 1017 27 10000 1.5 80 17:59 26.10.2020
6275 Clear 24 1017 27 10000 1.5 80 17:39 26.10.2020
6276 Clear 27 1017 24 10000 1.5 80 17:21 26.10.2020
6277 Clear 27 1017 24 10000 1.5 80 16:43 26.10.2020
6278 Clear 30 1017 20 10000 1.5 90 16:21 26.10.2020
6279 Clear 30 1017 20 10000 1.5 90 15:43 26.10.2020
6280 Clear 30 1017 20 10000 1.5 90 15:25 26.10.2020
6281 Clear 31 1016 19 10000 1.5 240 14:53 26.10.2020
6282 Clear 31 1016 19 10000 1.5 240 14:34 26.10.2020
6283 Clear 32 1016 19 10000 1.5 360 13:46 26.10.2020
6284 Clear 32 1016 19 10000 1.5 360 13:27 26.10.2020
6285 Clear 32 1017 19 10000 1 220 12:57 26.10.2020
6286 Clear 32 1017 19 10000 1 220 12:33 26.10.2020
6287 Clear 32 1017 15 10000 2.6 300 11:57 26.10.2020
6288 Clear 32 1017 15 10000 2.6 300 11:39 26.10.2020
6289 Clear 30 1018 16 10000 2.1 220 11:21 26.10.2020
6290 Clear 30 1018 16 10000 2.1 220 10:49 26.10.2020
6291 Clear 30 1018 16 10000 2.1 220 10:26 26.10.2020
6292 Clear 30 1019 19 10000 2.6 180 09:56 26.10.2020
6293 Clear 30 1019 19 10000 2.6 180 09:31 26.10.2020
6294 Clear 27 1019 28 8000 1.5 110 08:54 26.10.2020
6295 Clear 27 1019 28 8000 1.5 110 08:24 26.10.2020
6296 Clear 26 1020 31 10000 1 20 07:40 26.10.2020
6297 Clear 20 1019 40 10000 4.4 161 07:21 26.10.2020
6298 Clear 17 1019 42 10000 2.7 151 05:31 26.10.2020
6299 Clear 15 1018 47 10000 3.07 145 04:19 26.10.2020
6300 Clear 15 1017 44 10000 3.25 147 03:21 26.10.2020
6301 Clear 15 1017 44 10000 3.25 147 03:21 26.10.2020
6302 Clear 15 1017 44 10000 3.25 147 03:21 26.10.2020
6303 Clear 15 1017 44 10000 3.25 147 03:21 26.10.2020
6304 Clear 18 1017 42 10000 3.09 150 01:34 26.10.2020
6305 Clear 17 1017 45 10000 2.38 153 00:36 26.10.2020
6306 Clear 18 1017 42 10000 2.39 165 23:47 25.10.2020
6307 Clear 18 1017 42 10000 2.48 166 23:28 25.10.2020
6308 Clear 19 1017 42 10000 2.48 166 22:47 25.10.2020
6309 Clear 19 1017 42 10000 3.13 154 22:28 25.10.2020
6310 Clear 20 1017 37 10000 3.13 154 21:55 25.10.2020
6311 Clear 20 1017 37 10000 3.13 154 21:36 25.10.2020
6312 Clear 21 1017 35 10000 2.76 153 21:18 25.10.2020
6313 Clear 21 1017 35 10000 2.76 153 20:43 25.10.2020
6314 Clear 22 1017 37 10000 2.57 153 20:23 25.10.2020
6315 Clear 22 1017 37 10000 2.57 153 19:55 25.10.2020
6316 Clear 22 1017 37 10000 2.57 153 19:37 25.10.2020
6317 Clear 24 1017 31 10000 2.82 153 19:19 25.10.2020
6318 Clear 24 1017 31 10000 2.82 153 18:41 25.10.2020
6319 Clear 25 1016 29 10000 2.74 161 18:22 25.10.2020
6320 Clear 25 1016 29 10000 2.74 161 17:55 25.10.2020
6321 Clear 25 1016 29 10000 2.74 161 17:37 25.10.2020
6322 Clear 27 1016 28 10000 3.35 147 17:18 25.10.2020
6323 Clear 27 1016 28 10000 3.35 147 17:18 25.10.2020
6324 Clear 27 1016 28 10000 3.35 147 16:43 25.10.2020
6325 Clear 27 1016 28 10000 3.82 139 16:23 25.10.2020
6326 Clear 29 1016 20 10000 2.1 150 15:47 25.10.2020
6327 Clear 29 1016 20 10000 2.1 150 15:47 25.10.2020
6328 Clear 29 1016 20 10000 2.1 150 15:26 25.10.2020
6329 Clear 30 1015 16 10000 3.6 140 14:52 25.10.2020
6330 Clear 30 1015 16 10000 3.6 140 14:29 25.10.2020
6331 Clear 30 1015 16 10000 3.1 130 13:44 25.10.2020
6332 Clear 30 1015 16 10000 3.1 130 13:24 25.10.2020
6333 Clear 30 1015 16 10000 5.1 130 12:50 25.10.2020
6334 Clear 30 1015 16 10000 5.1 130 12:28 25.10.2020
6335 Clear 30 1016 17 10000 4.6 160 11:59 25.10.2020
6336 Clear 30 1016 17 10000 4.6 160 11:41 25.10.2020
6337 Clear 29 1017 21 10000 4.6 160 11:19 25.10.2020
6338 Clear 29 1017 21 10000 4.6 160 10:46 25.10.2020
6339 Clear 29 1017 21 10000 4.6 160 10:25 25.10.2020
6340 Clear 29 1018 21 10000 4.1 140 09:51 25.10.2020
6341 Clear 27 1018 26 10000 2.1 150 09:22 25.10.2020
6342 Clear 27 1018 26 10000 2.1 150 08:59 25.10.2020
6343 Clear 27 1018 26 10000 2.1 150 08:40 25.10.2020
6344 Clear 24 1019 31 10000 4.86 153 08:22 25.10.2020
6345 Clear 24 1019 31 10000 4.86 153 07:43 25.10.2020
6346 Clear 21 1018 32 10000 3.33 141 06:53 25.10.2020
6347 Clear 21 1018 32 10000 2.6 132 06:28 25.10.2020
6348 Clear 15 1017 26 8000 1 290 05:20 25.10.2020
6349 Clear 15 1017 26 8000 1 290 04:50 25.10.2020
6350 Clear 15 1017 38 10000 0.9 107 02:30 25.10.2020
6351 Clear 17 1017 36 10000 1.25 141 00:54 25.10.2020
6352 Clear 17 1017 36 10000 1.56 143 00:28 25.10.2020
6353 Clear 18 1017 34 10000 1.56 143 23:55 24.10.2020
6354 Clear 18 1017 34 10000 1.56 143 23:35 24.10.2020
6355 Clear 20 1017 28 10000 1 140 22:59 24.10.2020
6356 Clear 20 1017 28 10000 1 140 22:40 24.10.2020
6357 Clear 20 1017 26 10000 1 140 22:21 24.10.2020
6358 Clear 21 1017 26 10000 1 120 21:54 24.10.2020
6359 Clear 21 1017 26 10000 1 120 21:36 24.10.2020
6360 Clear 24 1017 17 10000 2.6 100 21:18 24.10.2020
6361 Clear 24 1017 17 10000 2.6 100 20:42 24.10.2020
6362 Clear 24 1017 17 10000 2.6 100 20:20 24.10.2020
6363 Clear 26 1017 15 10000 2.6 90 19:40 24.10.2020
6364 Clear 23 1016 28 10000 4.07 105 19:22 24.10.2020
6365 Clear 23 1016 28 10000 4.07 105 18:51 24.10.2020
6366 Clear 23 1016 28 10000 3.48 94 18:30 24.10.2020
6367 Clear 25 1016 27 10000 3.48 94 17:44 24.10.2020
6368 Clear 25 1016 27 10000 3.04 98 17:25 24.10.2020
6369 Clear 30 1016 13 10000 1.5 150 16:53 24.10.2020
6370 Clear 30 1016 13 10000 1.5 150 16:34 24.10.2020
6371 Clear 30 1015 13 10000 2.6 100 15:57 24.10.2020
6372 Clear 30 1015 13 10000 2.6 100 15:37 24.10.2020
6373 Clear 31 1015 12 10000 2.6 130 15:18 24.10.2020
6374 Clear 31 1015 12 10000 2.6 130 14:30 24.10.2020
6375 Clear 30 1015 19 10000 2.1 130 13:55 24.10.2020
6376 Clear 30 1015 19 10000 2.1 130 13:36 24.10.2020
6377 Clear 29 1016 18 10000 2.62 102 13:18 24.10.2020
6378 Clear 29 1016 18 10000 2.75 96 12:37 24.10.2020
6379 Clear 29 1017 18 10000 1.5 120 12:19 24.10.2020
6380 Clear 29 1017 18 10000 1.5 120 11:45 24.10.2020
6381 Clear 29 1017 18 10000 1.5 120 11:19 24.10.2020
6382 Clear 28 1017 20 10000 2.5 72 10:43 24.10.2020
6383 Clear 28 1017 20 10000 2.23 45 10:25 24.10.2020
6384 Clear 26 1018 22 10000 2.23 45 09:45 24.10.2020
6385 Clear 26 1018 22 10000 2.21 6 09:26 24.10.2020
6386 Clear 23 1018 25 10000 2.21 6 08:54 24.10.2020
6387 Clear 17 1018 17 10000 1 80 08:19 24.10.2020
6388 Clear 17 1018 17 10000 1 80 07:50 24.10.2020
6389 Clear 15 1017 33 10000 1 290 07:20 24.10.2020
6390 Clear 15 1017 33 10000 1 290 06:49 24.10.2020
6391 Clear 13 1016 31 10000 2.47 326 05:27 24.10.2020
6392 Clear 17 1016 29 10000 1 290 02:20 24.10.2020
6393 Clear 18 1016 23 10000 2.1 290 00:54 24.10.2020
6394 Clear 18 1016 23 10000 2.1 290 00:36 24.10.2020
6395 Clear 20 1016 26 10000 1.5 280 00:18 24.10.2020
6396 Clear 20 1016 26 10000 1.5 280 23:39 23.10.2020
6397 Clear 20 1016 28 10000 1.5 300 23:20 23.10.2020
6398 Clear 20 1016 28 10000 1.5 300 22:42 23.10.2020
6399 Clear 21 1017 26 10000 1 310 22:21 23.10.2020
6400 Clear 21 1017 26 10000 1 310 21:53 23.10.2020
6401 Clear 21 1017 26 10000 1 310 21:30 23.10.2020
6402 Clear 21 1017 26 10000 1 310 21:30 23.10.2020
6403 Clear 24 1016 23 10000 1 320 20:58 23.10.2020
6404 Clear 24 1016 23 10000 1 320 20:38 23.10.2020
6405 Clear 25 1016 17 10000 3.1 300 20:18 23.10.2020
6406 Clear 25 1016 17 10000 3.1 300 19:43 23.10.2020
6407 Clear 25 1016 17 10000 3.1 300 19:25 23.10.2020
6408 Clear 26 1016 19 10000 2.6 350 18:42 23.10.2020
6409 Clear 29 1015 14 10000 3.1 10 18:23 23.10.2020
6410 Clear 29 1015 14 10000 3.1 10 17:45 23.10.2020
6411 Clear 29 1015 14 10000 3.1 10 17:21 23.10.2020
6412 Clear 31 1015 10 10000 5.1 20 16:50 23.10.2020
6413 Clear 31 1015 10 10000 5.1 20 16:30 23.10.2020
6414 Clear 32 1015 10 10000 6.2 10 15:56 23.10.2020
6415 Clear 32 1015 10 10000 6.2 10 15:38 23.10.2020
6416 Clear 33 1015 9 10000 6.2 360 15:19 23.10.2020
6417 Clear 33 1015 9 10000 6.2 360 14:41 23.10.2020
6418 Clear 33 1015 9 10000 6.2 360 14:22 23.10.2020
6419 Clear 33 1015 9 10000 6.2 360 13:40 23.10.2020
6420 Clear 32 1016 10 10000 5.7 360 13:21 23.10.2020
6421 Clear 32 1016 10 10000 5.7 360 12:48 23.10.2020
6422 Clear 32 1016 10 10000 5.7 360 12:29 23.10.2020
6423 Clear 31 1017 11 10000 6.7 20 11:49 23.10.2020
6424 Clear 31 1018 11 10000 6.2 350 11:25 23.10.2020
6425 Clear 31 1018 11 10000 6.2 350 10:50 23.10.2020
6426 Clear 31 1018 12 10000 6.2 350 10:26 23.10.2020
6427 Clear 28 1019 17 10000 5.1 350 09:50 23.10.2020
6428 Clear 28 1019 17 10000 5.1 350 09:27 23.10.2020
6429 Clear 28 1019 17 10000 5.1 350 09:27 23.10.2020
6430 Clear 26 1019 19 10000 4.1 320 08:56 23.10.2020
6431 Clear 26 1019 19 10000 4.1 320 08:37 23.10.2020
6432 Clear 22 1018 26 10000 2.6 300 07:47 23.10.2020
6433 Clear 19 1018 20 10000 3.1 310 07:26 23.10.2020
6434 Clear 19 1018 20 10000 3.1 310 06:40 23.10.2020
6435 Clear 18 1017 25 10000 3.6 310 05:58 23.10.2020
6436 Clear 19 1016 24 10000 3.6 300 02:54 23.10.2020
6437 Clear 20 1016 22 10000 4.1 290 02:25 23.10.2020
6438 Clear 20 1017 22 10000 3.1 290 00:48 23.10.2020
6439 Clear 21 1017 22 10000 2.6 290 23:54 22.10.2020
6440 Clear 21 1017 22 10000 2.6 290 23:31 22.10.2020
6441 Clear 21 1017 22 10000 2.6 290 22:54 22.10.2020
6442 Clear 21 1017 22 10000 2.6 290 22:36 22.10.2020
6443 Clear 23 1017 20 10000 2.6 300 22:18 22.10.2020
6444 Clear 23 1017 20 10000 2.6 300 21:42 22.10.2020
6445 Clear 23 1017 20 10000 2.6 300 21:23 22.10.2020
6446 Clear 24 1018 27 10000 3.1 310 20:56 22.10.2020
6447 Clear 24 1018 27 10000 3.1 310 20:37 22.10.2020
6448 Clear 25 1017 23 10000 1.5 310 20:18 22.10.2020
6449 Clear 25 1017 23 10000 1.5 310 19:40 22.10.2020
6450 Clear 27 1017 20 10000 3.1 360 19:19 22.10.2020
6451 Clear 27 1017 20 10000 3.1 360 18:43 22.10.2020
6452 Clear 28 1017 17 10000 2.6 360 18:20 22.10.2020
6453 Clear 28 1017 17 10000 2.6 360 17:46 22.10.2020
6454 Clear 31 1016 12 10000 5.1 10 17:22 22.10.2020
6455 Clear 31 1016 12 10000 5.1 10 16:54 22.10.2020
6456 Clear 31 1016 12 10000 5.1 10 16:36 22.10.2020
6457 Clear 32 1016 14 10000 6.2 10 16:18 22.10.2020
6458 Clear 32 1016 14 10000 6.2 10 15:40 22.10.2020
6459 Clear 32 1016 13 10000 5.1 360 15:22 22.10.2020
6460 Clear 32 1016 13 10000 5.1 360 14:46 22.10.2020
6461 Clear 32 1017 11 10000 6.2 360 14:24 22.10.2020
6462 Clear 32 1017 11 10000 6.2 360 13:48 22.10.2020
6463 Clear 31 1017 14 10000 6.2 20 13:24 22.10.2020
6464 Clear 31 1017 14 10000 6.2 20 12:47 22.10.2020
6465 Clear 31 1017 14 10000 6.2 20 12:23 22.10.2020
6466 Clear 31 1018 15 10000 5.1 10 11:50 22.10.2020
6467 Clear 30 1019 19 10000 4.6 360 11:20 22.10.2020
6468 Clear 30 1019 19 10000 4.6 360 10:49 22.10.2020
6469 Clear 30 1019 19 10000 4.6 360 10:27 22.10.2020
6470 Clear 28 1020 21 10000 4.1 350 09:47 22.10.2020
6471 Clear 28 1020 21 10000 4.1 350 09:28 22.10.2020
6472 Clear 26 1020 16 10000 4.1 330 08:49 22.10.2020
6473 Clear 26 1020 16 10000 4.1 330 08:28 22.10.2020
6474 Clear 20 1020 30 10000 1.5 310 07:57 22.10.2020
6475 Clear 20 1020 30 10000 1.5 310 07:57 22.10.2020
6476 Clear 20 1020 30 10000 1.5 310 07:34 22.10.2020
6477 Clear 18 1019 31 10000 1.5 320 06:58 22.10.2020
6478 Clear 18 1019 31 10000 1.5 320 06:26 22.10.2020
6479 Clear 15 1019 23 10000 1.5 340 05:40 22.10.2020
6480 Clear 17 1018 23 10000 3.1 280 03:46 22.10.2020
6481 Clear 17 1018 24 10000 1.5 310 01:45 22.10.2020
6482 Clear 19 1018 24 10000 2.6 290 00:26 22.10.2020
6483 Clear 19 1018 24 10000 2.6 290 23:50 21.10.2020
6484 Clear 19 1018 24 10000 2.6 290 23:31 21.10.2020
6485 Clear 21 1018 21 10000 2.6 300 22:41 21.10.2020
6486 Clear 22 1018 24 10000 2.1 290 22:19 21.10.2020
6487 Clear 22 1018 24 10000 2.1 290 22:19 21.10.2020
6488 Clear 22 1018 24 10000 2.1 290 21:56 21.10.2020
6489 Clear 22 1018 24 10000 2.1 290 21:37 21.10.2020
6490 Clear 23 1019 23 10000 1.5 300 21:18 21.10.2020
6491 Clear 23 1019 23 10000 1.5 300 20:47 21.10.2020
6492 Clear 24 1018 23 10000 2.1 20 20:19 21.10.2020
6493 Clear 24 1018 23 10000 2.1 20 19:44 21.10.2020
6494 Clear 24 1018 23 10000 2.1 20 19:26 21.10.2020
6495 Clear 24 1018 23 10000 2.1 20 19:26 21.10.2020
6496 Clear 26 1018 19 10000 2.6 30 18:54 21.10.2020
6497 Clear 26 1018 19 10000 2.6 30 18:33 21.10.2020
6498 Clear 28 1017 17 10000 2.1 30 17:55 21.10.2020
6499 Clear 28 1017 17 10000 2.1 30 17:37 21.10.2020
6500 Clear 30 1017 12 10000 4.6 30 17:18 21.10.2020
6501 Clear 30 1017 12 10000 4.6 30 16:40 21.10.2020
6502 Clear 31 1016 11 10000 4.6 10 16:21 21.10.2020
6503 Clear 31 1016 11 10000 4.6 10 15:49 21.10.2020
6504 Clear 31 1016 11 10000 4.6 10 15:29 21.10.2020
6505 Clear 32 1016 11 10000 4.1 20 14:57 21.10.2020
6506 Clear 32 1016 11 10000 4.1 20 14:38 21.10.2020
6507 Clear 32 1016 11 10000 4.1 20 14:19 21.10.2020
6508 Clear 32 1017 11 10000 4.6 10 13:42 21.10.2020
6509 Clear 32 1017 11 10000 4.6 10 13:21 21.10.2020
6510 Clear 32 1017 11 10000 3.6 360 12:41 21.10.2020
6511 Clear 32 1017 11 10000 3.6 360 12:21 21.10.2020
6512 Clear 32 1018 11 10000 4.6 340 11:48 21.10.2020
6513 Clear 32 1018 12 10000 4.6 340 11:22 21.10.2020
6514 Clear 29 1019 17 10000 2.6 30 10:59 21.10.2020
6515 Clear 29 1019 17 10000 2.6 30 10:40 21.10.2020
6516 Clear 29 1019 17 10000 2.6 30 10:21 21.10.2020
6517 Clear 29 1019 13 10000 3.1 350 09:44 21.10.2020
6518 Clear 29 1019 14 10000 3.1 350 09:25 21.10.2020
6519 Clear 27 1020 14 10000 3.1 330 08:40 21.10.2020
6520 Clear 27 1020 16 10000 3.1 330 08:22 21.10.2020
6521 Clear 22 1019 26 10000 1 350 07:55 21.10.2020
6522 Clear 22 1019 26 10000 1 350 07:20 21.10.2020
6523 Clear 18 1019 34 10000 3.63 337 06:37 21.10.2020
6524 Clear 18 1019 34 10000 3.75 330 06:19 21.10.2020
6525 Clear 17 1017 36 10000 4.13 334 03:35 21.10.2020
6526 Clear 19 1017 24 10000 1.5 320 00:26 21.10.2020
6527 Clear 21 1017 21 10000 2.6 310 23:35 20.10.2020
6528 Clear 21 1017 21 10000 2.6 310 22:47 20.10.2020
6529 Clear 21 1017 21 10000 2.6 310 22:25 20.10.2020
6530 Clear 22 1018 19 10000 2.6 290 21:47 20.10.2020
6531 Clear 23 1018 23 10000 1 300 21:19 20.10.2020
6532 Clear 23 1018 23 10000 1 300 20:43 20.10.2020
6533 Clear 23 1018 23 10000 1 300 20:24 20.10.2020
6534 Clear 24 1017 23 10000 2.1 10 19:55 20.10.2020
6535 Clear 24 1017 23 10000 2.1 10 19:37 20.10.2020
6536 Clear 27 1017 14 10000 3.1 20 19:19 20.10.2020
6537 Clear 27 1017 14 10000 3.1 20 18:38 20.10.2020
6538 Clear 29 1016 11 10000 4.1 20 17:59 20.10.2020
6539 Clear 29 1016 11 10000 4.1 20 17:40 20.10.2020
6540 Clear 29 1016 11 10000 4.1 20 17:21 20.10.2020
6541 Clear 30 1016 11 10000 4.1 20 16:42 20.10.2020
6542 Clear 30 1016 11 10000 4.1 20 16:24 20.10.2020
6543 Clear 31 1016 10 10000 4.6 10 15:49 20.10.2020
6544 Clear 31 1016 10 10000 4.6 10 15:29 20.10.2020
6545 Clear 31 1016 10 10000 5.7 20 14:47 20.10.2020
6546 Clear 31 1016 10 10000 5.7 20 14:25 20.10.2020
6547 Clear 32 1016 10 10000 6.7 10 13:59 20.10.2020
6548 Clear 32 1016 10 10000 6.7 10 13:41 20.10.2020
6549 Clear 32 1016 10 10000 6.7 10 13:20 20.10.2020
6550 Clear 32 1017 10 10000 5.1 350 12:51 20.10.2020
6551 Clear 32 1017 10 10000 5.1 350 12:31 20.10.2020
6552 Clear 30 1017 10 10000 5.1 350 11:48 20.10.2020
6553 Clear 30 1017 11 10000 5.1 350 11:29 20.10.2020
6554 Clear 29 1018 11 10000 5.1 10 10:49 20.10.2020
6555 Clear 29 1018 12 10000 5.1 10 10:26 20.10.2020
6556 Clear 30 1019 17 10000 2.1 340 09:47 20.10.2020
6557 Clear 30 1019 17 10000 2.1 340 09:20 20.10.2020
6558 Clear 26 1019 24 10000 2.1 340 08:50 20.10.2020
6559 Clear 26 1019 24 10000 2.1 340 08:26 20.10.2020
6560 Clear 21 1019 26 10000 2.1 300 07:48 20.10.2020
6561 Clear 21 1019 26 10000 2.1 300 07:24 20.10.2020
6562 Clear 18 1018 34 10000 1.5 310 06:24 20.10.2020
6563 Clear 17 1017 39 10000 1 340 04:55 20.10.2020
6564 Clear 18 1017 34 10000 1.5 300 02:31 20.10.2020
6565 Clear 19 1017 23 10000 2.1 300 01:30 20.10.2020
6566 Clear 20 1017 23 10000 1.5 310 00:52 20.10.2020
6567 Clear 20 1017 23 10000 1.5 310 00:29 20.10.2020
6568 Clear 20 1018 23 10000 1.5 300 23:54 19.10.2020
6569 Clear 20 1018 23 10000 1.5 300 23:27 19.10.2020
6570 Clear 21 1018 23 10000 2.6 310 22:56 19.10.2020
6571 Clear 21 1018 22 10000 2.6 310 22:28 19.10.2020
6572 Clear 23 1018 22 10000 2.1 350 21:58 19.10.2020
6573 Clear 23 1018 22 10000 2.1 350 21:39 19.10.2020
6574 Clear 23 1018 22 10000 2.1 350 21:19 19.10.2020
6575 Clear 24 1018 22 10000 2.1 350 20:43 19.10.2020
6576 Clear 24 1018 20 10000 2.1 350 20:25 19.10.2020
6577 Clear 25 1018 20 10000 1 10 19:46 19.10.2020
6578 Clear 25 1018 19 10000 1 10 19:20 19.10.2020
6579 Clear 27 1018 18 10000 2.6 10 18:50 19.10.2020
6580 Clear 27 1018 18 10000 2.6 10 18:31 19.10.2020
6581 Clear 29 1017 14 10000 4.1 20 17:49 19.10.2020
6582 Clear 29 1017 14 10000 4.1 20 17:28 19.10.2020
6583 Clear 31 1017 11 10000 5.7 20 16:54 19.10.2020
6584 Clear 31 1017 11 10000 5.7 20 16:30 19.10.2020
6585 Clear 29 1014 13 10000 4.7 27 15:59 19.10.2020
6586 Clear 29 1014 13 10000 4.7 27 15:37 19.10.2020
6587 Clear 32 1013 11 10000 6.14 23 15:19 19.10.2020
6588 Clear 32 1013 11 10000 6.14 23 14:43 19.10.2020
6589 Clear 33 1013 10 10000 5.99 19 14:23 19.10.2020
6590 Clear 33 1013 10 10000 5.81 16 13:46 19.10.2020
6591 Clear 33 1013 10 10000 5.13 13 13:28 19.10.2020
6592 Clear 33 1013 10 10000 5.13 13 12:46 19.10.2020
6593 Clear 32 1014 11 10000 4.53 12 12:26 19.10.2020
6594 Clear 32 1014 11 10000 4.53 12 11:51 19.10.2020
6595 Clear 32 1019 14 10000 2.6 350 11:24 19.10.2020
6596 Clear 32 1019 14 10000 2.6 350 10:46 19.10.2020
6597 Clear 32 1019 14 10000 2.6 350 10:28 19.10.2020
6598 Clear 28 1020 17 10000 2.6 320 09:58 19.10.2020
6599 Clear 28 1020 17 10000 2.6 320 09:39 19.10.2020
6600 Clear 25 1020 14 10000 3.1 310 09:18 19.10.2020
6601 Clear 25 1020 14 10000 3.1 310 08:45 19.10.2020
6602 Clear 25 1020 15 10000 3.1 310 08:21 19.10.2020
6603 Clear 17 1019 29 10000 1 340 07:21 19.10.2020
6604 Clear 17 1019 29 10000 1 340 06:50 19.10.2020
6605 Clear 16 1018 29 10000 1 320 05:40 19.10.2020
6606 Clear 18 1017 22 10000 2.6 290 03:46 19.10.2020
6607 Clear 18 1017 27 10000 2.1 300 01:43 19.10.2020
6608 Clear 19 1017 20 10000 2.1 300 00:43 19.10.2020
6609 Clear 20 1017 27 10000 0.83 48 23:59 18.10.2020
6610 Clear 20 1017 27 10000 0.83 48 23:40 18.10.2020
6611 Clear 20 1018 24 10000 1.5 300 23:20 18.10.2020
6612 Clear 20 1018 24 10000 1.5 300 22:44 18.10.2020
6613 Clear 21 1037 22 10000 1 300 22:19 18.10.2020
6614 Clear 21 1037 22 10000 1 300 21:43 18.10.2020
6615 Clear 21 1037 22 10000 1 300 21:23 18.10.2020
6616 Clear 23 1017 23 10000 3.05 59 20:46 18.10.2020
6617 Clear 23 1017 23 10000 3.56 58 20:24 18.10.2020
6618 Clear 25 1017 22 10000 1.5 50 19:50 18.10.2020
6619 Clear 25 1017 22 10000 1.5 50 19:27 18.10.2020
6620 Clear 27 1017 19 10000 2.1 60 18:55 18.10.2020
6621 Clear 27 1017 19 10000 2.1 60 18:36 18.10.2020
6622 Clear 28 1016 20 10000 2.1 50 18:18 18.10.2020
6623 Clear 28 1016 20 10000 2.1 50 17:41 18.10.2020
6624 Clear 30 1016 15 10000 3.1 70 17:22 18.10.2020
6625 Clear 30 1016 15 10000 3.1 70 16:43 18.10.2020
6626 Clear 30 1016 15 10000 3.1 70 16:24 18.10.2020
6627 Clear 32 1015 11 10000 4.1 20 15:43 18.10.2020
6628 Clear 32 1015 11 10000 2.6 360 15:22 18.10.2020
6629 Clear 32 1015 11 10000 2.6 360 14:58 18.10.2020
6630 Clear 32 1015 11 10000 2.6 360 14:37 18.10.2020
6631 Clear 32 1016 13 10000 2.6 30 14:18 18.10.2020
6632 Clear 32 1016 13 10000 2.6 30 13:41 18.10.2020
6633 Clear 32 1016 13 10000 2.6 30 13:23 18.10.2020
6634 Clear 31 1017 14 10000 4.1 20 12:43 18.10.2020
6635 Clear 32 1017 18 10000 2.1 350 12:23 18.10.2020
6636 Clear 32 1017 18 10000 2.1 350 11:46 18.10.2020
6637 Clear 32 1017 18 10000 2.1 350 11:28 18.10.2020
6638 Clear 30 1018 19 10000 1.5 320 10:55 18.10.2020
6639 Clear 30 1018 19 10000 1.5 320 10:37 18.10.2020
6640 Clear 30 1018 19 10000 1.5 330 10:18 18.10.2020
6641 Clear 30 1018 19 10000 1.5 330 09:42 18.10.2020
6642 Clear 30 1018 19 10000 1.5 330 09:42 18.10.2020
6643 Clear 26 1018 22 10000 2.72 40 09:20 18.10.2020
6644 Clear 26 1018 22 10000 2.72 40 08:45 18.10.2020
6645 Clear 26 1018 22 10000 1.68 7 08:25 18.10.2020
6646 Clear 21 1018 30 10000 1.62 3 07:48 18.10.2020
6647 Clear 16 1017 29 10000 1 320 05:57 18.10.2020
6648 Clear 16 1016 25 10000 2.1 310 03:46 18.10.2020
6649 Clear 17 1016 29 10000 1.5 310 02:52 18.10.2020
6650 Clear 17 1017 29 10000 1 300 01:30 18.10.2020
6651 Clear 19 1017 25 10000 1 300 00:38 18.10.2020
6652 Clear 20 1017 30 10000 1.12 97 00:20 18.10.2020
6653 Clear 20 1017 30 10000 1.12 97 23:41 17.10.2020
6654 Clear 20 1017 30 10000 2.08 78 23:21 17.10.2020
6655 Clear 20 1017 30 10000 2.08 78 23:21 17.10.2020
6656 Clear 20 1017 30 10000 2.08 78 22:56 17.10.2020
6657 Clear 20 1017 30 10000 2.08 78 22:36 17.10.2020
6658 Clear 23 1017 23 10000 1 70 22:18 17.10.2020
6659 Clear 23 1017 23 10000 1 70 21:42 17.10.2020
6660 Clear 24 1017 25 10000 1 50 21:20 17.10.2020
6661 Clear 24 1017 25 10000 1 50 20:44 17.10.2020
6662 Clear 25 1017 15 10000 2.1 50 20:19 17.10.2020
6663 Clear 25 1017 15 10000 2.1 50 19:43 17.10.2020
6664 Clear 27 1016 15 10000 2.6 50 19:21 17.10.2020
6665 Clear 27 1016 15 10000 2.6 50 18:45 17.10.2020
6666 Clear 27 1016 15 10000 2.6 50 18:26 17.10.2020
6667 Clear 29 1015 17 10000 2.1 50 17:50 17.10.2020
6668 Clear 29 1015 16 10000 2.1 50 17:24 17.10.2020
6669 Clear 31 1015 11 10000 4.1 40 16:51 17.10.2020
6670 Clear 31 1015 11 10000 4.1 40 16:25 17.10.2020
6671 Clear 32 1014 13 10000 3.1 50 15:59 17.10.2020
6672 Clear 32 1014 13 10000 3.1 50 15:41 17.10.2020
6673 Clear 33 1014 19 10000 1.5 340 15:21 17.10.2020
6674 Clear 33 1014 19 10000 1.5 340 14:55 17.10.2020
6675 Clear 33 1014 19 10000 1.5 340 14:37 17.10.2020
6676 Clear 32 1015 15 10000 3.1 10 14:18 17.10.2020
6677 Clear 32 1015 15 10000 3.1 10 14:18 17.10.2020
6678